<
# Wetter Temperatur Luftdruck Luftfeuchtigkeit Sichtweite Windgeschwindigkeit Windrichtung Zeit
1 Clear 28 1012 35 10000 3.14 301 09:27 02.10.2022
2 Clear 26 1012 34 10000 2.04 302 07:39 02.10.2022
3 Clear 23 1012 46 10000 3.2 309 02:55 02.10.2022
4 Clear 24 1013 39 10000 2.92 316 00:46 02.10.2022
5 Clear 25 1013 39 10000 3.11 324 00:21 02.10.2022
6 Clear 25 1013 39 10000 3.36 320 22:53 01.10.2022
7 Clear 26 1013 39 10000 3.43 336 20:53 01.10.2022
8 Clear 28 1012 37 10000 5.67 311 18:50 01.10.2022
9 Clear 32 1011 25 10000 7.93 309 16:36 01.10.2022
10 Clear 35 1011 16 10000 7.14 317 14:41 01.10.2022
11 Clear 35 1012 15 10000 5.79 313 13:32 01.10.2022
12 Clear 35 1012 15 10000 5.79 313 13:32 01.10.2022
13 Clear 35 1013 16 10000 5.21 306 12:33 01.10.2022
14 Clear 33 1015 19 10000 2.79 285 11:21 01.10.2022
15 Clear 33 1015 19 10000 2.79 285 10:32 01.10.2022
16 Clear 32 1016 22 10000 2.33 282 09:55 01.10.2022
17 Clear 30 1016 25 10000 1.83 300 08:58 01.10.2022
18 Clear 24 1017 36 10000 1.03 292 05:47 01.10.2022
19 Clear 23 1016 37 10000 0.47 2 03:36 01.10.2022
20 Clear 25 1016 28 10000 2.02 18 01:21 01.10.2022
21 Clear 26 1016 27 10000 3.26 3 22:56 30.09.2022
22 Clear 27 1016 28 10000 3.89 0 21:41 30.09.2022
23 Clear 27 1016 27 10000 4.23 356 20:45 30.09.2022
24 Clear 28 1015 25 10000 4.08 360 20:19 30.09.2022
25 Clear 30 1013 18 10000 4.19 345 17:40 30.09.2022
26 Clear 35 1012 12 10000 5.95 346 16:25 30.09.2022
27 Clear 35 1012 15 10000 3.86 292 14:21 30.09.2022
28 Clear 33 1014 19 10000 2.03 277 12:24 30.09.2022
29 Clear 33 1014 19 10000 2.03 277 11:48 30.09.2022
30 Clear 28 1016 34 10000 1.76 251 08:38 30.09.2022
31 Clear 21 1015 57 10000 1.01 308 06:29 30.09.2022
32 Clear 22 1014 55 10000 2.49 316 02:50 30.09.2022
33 Clear 23 1014 49 10000 2.85 322 00:35 30.09.2022
34 Clear 24 1013 45 10000 5.33 335 21:39 29.09.2022
35 Clear 25 1013 43 10000 5.94 335 21:18 29.09.2022
36 Clear 26 1012 42 10000 7.13 322 18:48 29.09.2022
37 Clear 28 1011 37 10000 8.56 316 17:48 29.09.2022
38 Clear 32 1010 26 10000 9.01 320 16:29 29.09.2022
39 Clear 32 1010 26 10000 9.01 320 15:36 29.09.2022
40 Clear 33 1010 24 10000 8.45 323 14:59 29.09.2022
41 Clear 32 1011 24 10000 7.02 325 11:53 29.09.2022
42 Clear 24 1013 42 10000 4.97 314 07:39 29.09.2022
43 Clear 20 1013 54 10000 4.12 316 03:24 29.09.2022
44 Clear 21 1013 53 10000 4.99 316 00:29 29.09.2022
45 Clear 21 1013 51 10000 4.92 317 23:19 28.09.2022
46 Clear 21 1013 49 10000 4.99 320 21:31 28.09.2022
47 Clear 22 1013 47 10000 5.35 320 20:45 28.09.2022
48 Clear 23 1012 40 10000 6.32 321 18:53 28.09.2022
49 Clear 29 1011 22 10000 8.52 308 16:27 28.09.2022
50 Clear 30 1011 13 10000 7.3 315 13:28 28.09.2022
51 Clear 30 1011 13 10000 7.3 315 13:28 28.09.2022
52 Clear 30 1012 13 10000 6.45 308 11:43 28.09.2022
53 Clear 27 1013 19 10000 5.84 305 09:34 28.09.2022
54 Clear 24 1014 35 10000 5.66 300 07:41 28.09.2022
55 Clear 20 1014 47 10000 4.06 288 05:31 28.09.2022
56 Clear 22 1013 41 10000 4.24 302 01:41 28.09.2022
57 Clear 23 1013 39 10000 3.93 308 23:31 27.09.2022
58 Clear 23 1013 38 10000 3.85 312 22:33 27.09.2022
59 Clear 24 1014 35 10000 4.2 321 20:56 27.09.2022
60 Clear 25 1013 36 10000 4.61 321 20:26 27.09.2022
61 Clear 25 1013 36 10000 4.61 321 19:37 27.09.2022
62 Clear 27 1012 30 10000 6.18 321 17:46 27.09.2022
63 Clear 31 1011 21 10000 8.13 302 16:25 27.09.2022
64 Clear 32 1011 18 10000 8.83 299 15:18 27.09.2022
65 Clear 33 1011 17 10000 8.97 294 13:52 27.09.2022
66 Clear 33 1012 16 10000 8.27 289 12:36 27.09.2022
67 Clear 31 1013 20 10000 4.88 285 10:33 27.09.2022
68 Clear 26 1014 26 10000 2.79 307 07:51 27.09.2022
69 Clear 23 1014 29 10000 3.04 320 04:28 27.09.2022
70 Clear 23 1014 27 10000 3.29 316 01:37 27.09.2022
71 Clear 24 1014 26 10000 3.88 327 23:52 26.09.2022
72 Clear 25 1014 26 10000 4.11 329 23:24 26.09.2022
73 Clear 26 1014 28 10000 4.5 330 21:20 26.09.2022
74 Clear 26 1014 27 10000 4.82 326 19:44 26.09.2022
75 Clear 27 1014 27 10000 5.21 325 18:39 26.09.2022
76 Clear 31 1012 18 10000 6.54 312 17:25 26.09.2022
77 Clear 34 1011 14 10000 7.32 291 15:23 26.09.2022
78 Clear 34 1012 15 10000 5.2 299 12:31 26.09.2022
79 Clear 32 1014 18 10000 2.87 279 10:43 26.09.2022
80 Clear 31 1014 20 10000 2.31 263 10:23 26.09.2022
81 Clear 31 1014 20 10000 2.31 263 09:57 26.09.2022
82 Clear 29 1015 22 10000 1.91 256 09:27 26.09.2022
83 Clear 29 1015 22 10000 1.91 256 08:59 26.09.2022
84 Clear 23 1014 34 10000 1.28 316 05:30 26.09.2022
85 Clear 24 1014 36 10000 2.72 324 02:29 26.09.2022
86 Clear 25 1015 36 10000 2.99 329 23:24 25.09.2022
87 Clear 25 1015 35 10000 3.11 333 21:44 25.09.2022
88 Clear 26 1015 34 10000 3.66 331 21:25 25.09.2022
89 Clear 26 1015 34 10000 3.66 331 20:36 25.09.2022
90 Clear 28 1014 30 10000 4.89 328 18:55 25.09.2022
91 Clear 29 1013 28 10000 5.22 325 18:24 25.09.2022
92 Clear 31 1013 23 10000 7.05 317 17:24 25.09.2022
93 Clear 33 1012 19 10000 7.12 307 16:21 25.09.2022
94 Clear 34 1012 19 10000 5.3 306 14:49 25.09.2022
95 Clear 33 1012 19 10000 4.79 306 14:19 25.09.2022
96 Clear 32 1014 23 10000 3.02 274 11:34 25.09.2022
97 Clear 29 1015 28 10000 0.6 245 09:44 25.09.2022
98 Clear 26 1016 33 10000 0.63 113 07:42 25.09.2022
99 Clear 22 1015 44 10000 0.61 24 05:25 25.09.2022
100 Clear 24 1015 40 10000 4.47 327 23:37 24.09.2022
101 Clear 25 1015 36 10000 4.91 328 21:25 24.09.2022
102 Clear 25 1015 36 10000 4.91 328 20:32 24.09.2022
103 Clear 27 1014 31 10000 5.98 324 19:20 24.09.2022
104 Clear 30 1013 22 10000 7.02 321 16:57 24.09.2022
105 Clear 33 1012 18 10000 6.97 299 15:29 24.09.2022
106 Clear 33 1012 18 10000 6.97 299 14:47 24.09.2022
107 Clear 33 1013 19 10000 5.2 299 13:22 24.09.2022
108 Clear 32 1014 21 10000 4.31 295 12:25 24.09.2022
109 Clear 29 1015 27 10000 3.23 282 09:59 24.09.2022
110 Clear 27 1016 33 10000 3.05 293 09:21 24.09.2022
111 Clear 27 1016 33 10000 3.05 293 08:40 24.09.2022
112 Clear 21 1015 51 10000 2.33 321 04:55 24.09.2022
113 Clear 21 1014 52 10000 1.64 329 04:25 24.09.2022
114 Clear 23 1014 51 10000 2.01 315 23:25 23.09.2022
115 Clear 24 1013 49 10000 2.97 323 21:41 23.09.2022
116 Clear 25 1013 47 10000 3.79 337 21:22 23.09.2022
117 Clear 25 1013 47 10000 3.79 337 20:54 23.09.2022
118 Clear 26 1012 43 10000 5.9 329 19:20 23.09.2022
119 Clear 27 1011 36 10000 4.86 312 17:50 23.09.2022
120 Clear 31 1011 25 10000 6.69 284 13:41 23.09.2022
121 Clear 28 1013 30 10000 4.1 272 10:24 23.09.2022
122 Clear 24 1013 38 10000 3.87 283 07:43 23.09.2022
123 Clear 19 1013 64 10000 3.04 306 03:37 23.09.2022
124 Clear 20 1012 59 10000 3.24 317 23:30 22.09.2022
125 Clear 21 1013 53 10000 3.32 331 22:28 22.09.2022
126 Clear 21 1013 53 10000 3.32 331 21:36 22.09.2022
127 Clear 23 1012 45 10000 3.68 314 20:25 22.09.2022
128 Clear 24 1011 41 10000 4.86 303 18:58 22.09.2022
129 Clear 28 1009 30 10000 7.31 293 15:58 22.09.2022
130 Clear 26 1011 33 10000 5.53 291 10:55 22.09.2022
131 Clear 24 1012 42 10000 4.94 294 10:19 22.09.2022
132 Clear 21 1012 65 10000 4.57 295 08:22 22.09.2022
133 Clear 17 1011 82 10000 2.86 291 06:18 22.09.2022
134 Clear 18 1010 79 10000 4.52 292 01:27 22.09.2022
135 Clear 20 1011 67 10000 4.79 301 22:29 21.09.2022
136 Clear 21 1011 62 10000 5.27 305 21:24 21.09.2022
137 Clear 22 1010 48 10000 7.1 299 19:22 21.09.2022
138 Clear 24 1009 40 10000 7.78 290 17:45 21.09.2022
139 Clear 27 1008 33 10000 8.17 275 16:20 21.09.2022
140 Clear 28 1008 29 10000 7.51 274 13:56 21.09.2022
141 Clear 27 1008 33 10000 7.22 280 11:44 21.09.2022
142 Clear 26 1009 37 10000 6.9 282 11:22 21.09.2022
143 Clear 25 1010 44 10000 6.77 287 09:44 21.09.2022
144 Clear 23 1010 54 10000 6.61 291 08:50 21.09.2022
145 Clear 18 1010 88 10000 4.44 305 05:53 21.09.2022
146 Clear 19 1009 85 10000 5.44 314 02:42 21.09.2022
147 Clear 19 1009 83 10000 5.9 315 02:19 21.09.2022
148 Clear 20 1009 80 10000 5.52 316 00:20 21.09.2022
149 Clear 21 1009 74 10000 6.28 322 21:55 20.09.2022
150 Clear 22 1009 70 10000 6.75 321 20:34 20.09.2022
151 Clear 24 1009 59 10000 7.54 309 19:24 20.09.2022
152 Clear 29 1007 38 10000 8.12 288 15:58 20.09.2022
153 Clear 30 1006 35 10000 8.01 295 14:34 20.09.2022
154 Clear 30 1007 35 10000 6.97 304 12:45 20.09.2022
155 Clear 24 1010 55 10000 7.11 308 08:51 20.09.2022
156 Clear 22 1010 65 10000 6.87 309 08:25 20.09.2022
157 Clear 19 1010 84 10000 6.16 316 04:44 20.09.2022
158 Clear 19 1010 82 10000 6.72 325 03:38 20.09.2022
159 Clear 21 1010 73 10000 6.39 330 22:51 19.09.2022
160 Clear 21 1010 72 10000 6.99 323 21:39 19.09.2022
161 Clear 22 1010 69 10000 7.49 316 20:47 19.09.2022
162 Clear 23 1011 63 10000 8.01 331 19:42 19.09.2022
163 Clear 26 1009 49 10000 8.2 304 17:44 19.09.2022
164 Clear 32 1007 30 10000 8.36 304 14:18 19.09.2022
165 Clear 32 1008 30 10000 8.05 307 12:56 19.09.2022
166 Clear 30 1009 36 10000 7 310 10:47 19.09.2022
167 Clear 25 1011 53 10000 7.11 311 08:51 19.09.2022
168 Clear 20 1010 85 10000 6.82 318 05:53 19.09.2022
169 Clear 21 1009 69 10000 6.84 323 01:53 19.09.2022
170 Clear 23 1009 67 10000 7.17 322 23:22 18.09.2022
171 Clear 23 1009 68 10000 7.27 315 21:34 18.09.2022
172 Clear 24 1009 61 10000 8.2 318 20:24 18.09.2022
173 Clear 28 1007 48 10000 9.82 310 17:54 18.09.2022
174 Clear 28 1007 48 10000 9.82 310 17:35 18.09.2022
175 Clear 33 1006 27 10000 9.57 308 15:36 18.09.2022
176 Clear 36 1005 14 10000 4.13 301 13:50 18.09.2022
177 Clear 36 1006 13 10000 2.1 281 12:35 18.09.2022
178 Clear 34 1007 15 10000 0.38 268 10:55 18.09.2022
179 Clear 23 1008 50 10000 3.91 322 03:42 18.09.2022
180 Clear 24 1007 48 10000 4.3 305 01:24 18.09.2022
181 Clear 25 1007 43 10000 4.59 317 00:23 18.09.2022
182 Clear 27 1007 42 10000 5.17 329 21:40 17.09.2022
183 Clear 28 1006 39 10000 7.02 336 19:43 17.09.2022
184 Clear 28 1006 39 10000 7.02 336 19:43 17.09.2022
185 Clear 29 1006 31 10000 6.73 335 18:57 17.09.2022
186 Clear 29 1006 31 10000 6.73 335 18:57 17.09.2022
187 Clear 36 1004 9 10000 1.19 206 16:18 17.09.2022
188 Clear 36 1004 10 10000 1.28 167 13:56 17.09.2022
189 Clear 35 1006 12 10000 1.92 135 11:31 17.09.2022
190 Clear 30 1008 25 10000 1.83 9 09:27 17.09.2022
191 Clear 23 1009 48 10000 3.33 320 06:25 17.09.2022
192 Clear 24 1008 50 10000 4.79 323 01:51 17.09.2022
193 Clear 26 1008 41 10000 4.46 340 22:54 16.09.2022
194 Clear 27 1008 38 10000 6.01 340 21:23 16.09.2022
195 Clear 27 1009 35 10000 6.23 336 19:51 16.09.2022
196 Clear 30 1007 24 10000 5.65 323 17:50 16.09.2022
197 Clear 34 1007 17 10000 3.17 293 15:34 16.09.2022
198 Clear 34 1007 17 10000 2.18 274 13:57 16.09.2022
199 Clear 32 1009 19 10000 0.57 244 11:43 16.09.2022
200 Clear 25 1012 38 10000 2.13 315 08:26 16.09.2022
201 Clear 23 1013 47 10000 2.78 314 07:19 16.09.2022
202 Clear 23 1013 47 10000 2.78 314 06:47 16.09.2022
203 Clear 21 1012 58 10000 4.48 324 02:52 16.09.2022
204 Clear 23 1012 48 10000 4.23 327 22:56 15.09.2022
205 Clear 24 1012 43 10000 4.89 338 21:18 15.09.2022
206 Clear 25 1012 32 10000 4.9 336 19:57 15.09.2022
207 Clear 26 1012 24 10000 4.13 312 18:30 15.09.2022
208 Clear 28 1011 19 10000 4.41 296 17:33 15.09.2022
209 Clear 30 1011 16 10000 4.73 300 16:43 15.09.2022
210 Clear 31 1011 17 10000 4.34 301 14:36 15.09.2022
211 Clear 29 1013 25 10000 4.28 297 12:29 15.09.2022
212 Clear 25 1014 38 10000 4.24 298 10:21 15.09.2022
213 Clear 22 1015 57 10000 4.64 311 07:51 15.09.2022
214 Clear 18 1014 79 10000 5.08 328 03:58 15.09.2022
215 Clear 20 1013 71 10000 5.87 323 01:27 15.09.2022
216 Clear 22 1013 60 10000 5.77 328 21:54 14.09.2022
217 Clear 23 1012 48 10000 5.62 320 19:55 14.09.2022
218 Clear 25 1012 42 10000 6.2 309 19:20 14.09.2022
219 Clear 28 1010 32 10000 7.87 284 17:25 14.09.2022
220 Clear 30 1010 30 10000 7.44 282 15:49 14.09.2022
221 Clear 31 1009 27 10000 7.2 283 14:34 14.09.2022
222 Clear 30 1010 32 10000 5.96 284 11:40 14.09.2022
223 Clear 27 1012 46 10000 5.3 292 09:48 14.09.2022
224 Clear 23 1012 65 10000 5.25 295 07:39 14.09.2022
225 Clear 21 1012 78 10000 5.16 299 06:47 14.09.2022
226 Clear 19 1010 90 10000 5.18 306 04:33 14.09.2022
227 Clear 20 1010 84 10000 5.2 315 01:48 14.09.2022
228 Clear 21 1010 80 10000 5.33 319 01:29 14.09.2022
229 Clear 21 1010 80 10000 5.33 319 00:50 14.09.2022
230 Clear 21 1010 75 10000 5.36 318 23:54 13.09.2022
231 Clear 21 1010 75 10000 5.36 318 23:36 13.09.2022
232 Clear 22 1009 73 10000 5.23 318 23:18 13.09.2022
233 Clear 22 1009 70 10000 5.58 323 22:20 13.09.2022
234 Clear 25 1008 56 10000 6.68 322 19:52 13.09.2022
235 Clear 28 1007 41 10000 7.68 304 18:20 13.09.2022
236 Clear 31 1005 26 10000 7.86 290 15:55 13.09.2022
237 Clear 32 1005 23 10000 7.65 292 14:36 13.09.2022
238 Clear 32 1005 23 10000 6.74 301 13:20 13.09.2022
239 Clear 26 1008 47 10000 5.83 302 09:23 13.09.2022
240 Clear 21 1007 74 10000 5.67 313 06:59 13.09.2022
241 Clear 22 1007 51 10000 5.33 319 00:23 13.09.2022
242 Clear 22 1007 50 10000 4.99 318 22:51 12.09.2022
243 Clear 23 1007 50 10000 5.05 321 22:18 12.09.2022
244 Clear 24 1007 47 10000 5.55 323 20:39 12.09.2022
245 Clear 27 1006 36 10000 6.82 316 18:52 12.09.2022
246 Clear 31 1004 20 10000 7.28 298 17:25 12.09.2022
247 Clear 34 1004 13 10000 7.65 293 14:39 12.09.2022
248 Clear 33 1006 13 10000 5.13 295 11:51 12.09.2022
249 Clear 30 1007 19 10000 5.02 306 09:57 12.09.2022
250 Clear 21 1008 44 10000 4.56 317 04:57 12.09.2022
251 Clear 21 1008 44 10000 4.3 307 04:27 12.09.2022
252 Clear 23 1008 42 10000 5.4 323 23:58 11.09.2022
253 Clear 24 1008 40 10000 5.75 329 22:43 11.09.2022
254 Clear 26 1009 38 10000 5.02 330 20:53 11.09.2022
255 Clear 26 1008 36 10000 5.28 328 20:21 11.09.2022
256 Clear 28 1008 32 10000 5.86 325 19:26 11.09.2022
257 Clear 28 1008 32 10000 5.86 325 18:37 11.09.2022
258 Clear 33 1007 16 10000 6.25 301 16:56 11.09.2022
259 Clear 35 1007 12 10000 7.15 297 15:22 11.09.2022
260 Clear 36 1007 10 10000 5.77 301 12:54 11.09.2022
261 Clear 31 1010 15 10000 6 308 09:45 11.09.2022
262 Clear 26 1011 26 10000 5.6 313 07:49 11.09.2022
263 Clear 22 1010 35 10000 5.35 319 03:34 11.09.2022
264 Clear 25 1010 30 10000 5.56 323 23:45 10.09.2022
265 Clear 26 1010 31 10000 5.41 327 21:35 10.09.2022
266 Clear 28 1010 31 10000 5.15 331 19:58 10.09.2022
267 Clear 28 1010 31 10000 5.15 331 19:40 10.09.2022
268 Clear 29 1010 28 10000 5.85 325 19:20 10.09.2022
269 Clear 34 1008 17 10000 6.43 308 16:58 10.09.2022
270 Clear 35 1008 17 10000 7.09 306 15:32 10.09.2022
271 Clear 37 1009 14 10000 5.54 306 12:55 10.09.2022
272 Clear 36 1009 14 10000 5.09 310 12:26 10.09.2022
273 Clear 33 1011 18 10000 4.83 307 10:26 10.09.2022
274 Clear 31 1011 21 10000 5.49 319 08:37 10.09.2022
275 Clear 28 1012 28 10000 5.89 316 08:18 10.09.2022
276 Clear 24 1011 41 10000 5.13 307 03:42 10.09.2022
277 Clear 26 1011 36 10000 5.91 322 23:36 09.09.2022
278 Clear 27 1011 36 10000 6.28 322 22:31 09.09.2022
279 Clear 28 1011 34 10000 6.15 331 20:49 09.09.2022
280 Clear 28 1011 33 10000 6.38 329 19:58 09.09.2022
281 Clear 29 1010 31 10000 6.83 324 19:22 09.09.2022
282 Clear 35 1008 19 10000 7.55 318 16:52 09.09.2022
283 Clear 37 1008 14 10000 6.34 315 14:43 09.09.2022
284 Clear 37 1009 14 10000 4.38 313 13:19 09.09.2022
285 Clear 34 1010 16 10000 3.82 315 10:41 09.09.2022
286 Clear 26 1012 34 10000 3.38 312 07:25 09.09.2022
287 Clear 24 1011 45 10000 4.42 320 03:34 09.09.2022
288 Clear 26 1010 44 10000 5.1 332 22:34 08.09.2022
289 Clear 27 1010 45 10000 5.56 332 21:51 08.09.2022
290 Clear 27 1010 44 10000 6.17 338 20:49 08.09.2022
291 Clear 27 1011 44 10000 6.8 339 20:25 08.09.2022
292 Clear 29 1010 31 10000 5.73 323 18:43 08.09.2022
293 Clear 33 1008 21 10000 5.63 306 17:23 08.09.2022
294 Clear 34 1008 19 10000 3.74 308 15:35 08.09.2022
295 Clear 34 1008 19 10000 2.61 292 13:30 08.09.2022
296 Clear 33 1009 20 10000 2.53 279 12:40 08.09.2022
297 Clear 31 1010 24 10000 2.18 276 11:23 08.09.2022
298 Clear 29 1011 28 10000 2.34 284 09:35 08.09.2022
299 Clear 23 1011 62 10000 3.76 312 07:18 08.09.2022
300 Clear 21 1010 75 10000 3.56 304 04:43 08.09.2022
301 Clear 22 1009 73 10000 3.83 312 02:36 08.09.2022
302 Clear 22 1009 70 10000 4.65 315 02:18 08.09.2022
303 Clear 24 1010 64 10000 5.24 325 22:58 07.09.2022
304 Clear 24 1010 62 10000 5.59 330 21:45 07.09.2022
305 Clear 25 1010 59 10000 6.18 330 21:21 07.09.2022
306 Clear 26 1010 51 10000 6.43 323 20:28 07.09.2022
307 Clear 27 1009 35 10000 5.2 305 18:54 07.09.2022
308 Clear 31 1007 23 10000 5.92 287 16:24 07.09.2022
309 Clear 29 1009 35 10000 4.42 297 10:52 07.09.2022
310 Clear 29 1009 35 10000 4.42 297 10:32 07.09.2022
311 Clear 23 1010 64 10000 5.64 309 08:26 07.09.2022
312 Clear 20 1010 86 10000 4.38 316 05:46 07.09.2022
313 Clear 21 1008 77 10000 4.38 311 00:38 07.09.2022
314 Clear 22 1009 71 10000 5.38 318 21:56 06.09.2022
315 Clear 22 1009 71 10000 5.38 318 21:33 06.09.2022
316 Clear 24 1008 57 10000 7.95 319 19:39 06.09.2022
317 Clear 26 1007 44 10000 7.16 304 18:40 06.09.2022
318 Clear 28 1007 36 10000 6.9 292 17:50 06.09.2022
319 Clear 30 1006 30 10000 7.49 291 16:47 06.09.2022
320 Clear 31 1006 25 10000 7.51 285 16:24 06.09.2022
321 Clear 33 1006 18 10000 7.33 278 14:27 06.09.2022
322 Clear 33 1006 18 10000 7.33 278 13:44 06.09.2022
323 Clear 32 1007 18 10000 7.06 282 13:18 06.09.2022
324 Clear 30 1008 22 10000 5.96 291 10:55 06.09.2022
325 Clear 27 1009 32 10000 6.34 297 09:22 06.09.2022
326 Clear 25 1009 39 10000 6.02 302 08:18 06.09.2022
327 Clear 21 1009 59 10000 5.33 316 06:20 06.09.2022
328 Clear 24 1008 44 10000 5.11 318 01:20 06.09.2022
329 Clear 25 1008 44 10000 5.54 322 22:54 05.09.2022
330 Clear 26 1008 44 10000 6.45 324 21:38 05.09.2022
331 Clear 26 1008 43 10000 7.32 332 20:30 05.09.2022
332 Clear 29 1008 36 10000 7.25 329 18:53 05.09.2022
333 Clear 31 1007 31 10000 7.27 317 18:26 05.09.2022
334 Clear 31 1007 31 10000 7.27 317 17:57 05.09.2022
335 Clear 35 1006 20 10000 7.03 296 15:54 05.09.2022
336 Clear 36 1006 18 10000 7.16 298 14:48 05.09.2022
337 Clear 37 1007 16 10000 6.11 301 12:53 05.09.2022
338 Clear 36 1008 18 10000 5.34 301 11:37 05.09.2022
339 Clear 29 1010 33 10000 5.96 306 08:58 05.09.2022
340 Clear 23 1010 60 10000 5.49 326 05:20 05.09.2022
341 Clear 25 1009 51 10000 6.06 316 01:35 05.09.2022
342 Clear 28 1010 41 10000 5.78 331 22:29 04.09.2022
343 Clear 28 1010 41 10000 5.78 331 21:59 04.09.2022
344 Clear 28 1009 40 10000 6.78 330 20:35 04.09.2022
345 Clear 30 1009 36 10000 6.94 326 18:39 04.09.2022
346 Clear 32 1008 31 10000 6.93 320 17:43 04.09.2022
347 Clear 37 1007 21 10000 7.28 307 16:28 04.09.2022
348 Clear 39 1007 15 10000 5.57 313 14:25 04.09.2022
349 Clear 39 1008 16 10000 4.68 308 12:57 04.09.2022
350 Clear 38 1009 18 10000 4.6 309 11:37 04.09.2022
351 Clear 33 1010 29 10000 5.68 314 09:50 04.09.2022
352 Clear 25 1011 62 10000 7.6 318 06:51 04.09.2022
353 Clear 24 1011 76 10000 6.49 320 03:31 04.09.2022
354 Clear 27 1010 60 10000 7.15 317 23:40 03.09.2022
355 Clear 28 1010 52 10000 6.59 324 22:21 03.09.2022
356 Clear 29 1010 51 10000 6.62 330 21:23 03.09.2022
357 Clear 29 1010 51 10000 6.62 330 21:23 03.09.2022
358 Clear 31 1009 45 10000 7.56 334 18:59 03.09.2022
359 Clear 37 1008 25 10000 7.27 320 17:25 03.09.2022
360 Clear 39 1007 19 10000 7.6 317 16:26 03.09.2022
361 Clear 40 1007 15 10000 6.54 310 14:44 03.09.2022
362 Clear 40 1008 15 10000 4.78 297 13:55 03.09.2022
363 Clear 38 1009 18 10000 3.3 293 11:51 03.09.2022
364 Clear 35 1010 24 10000 3 302 09:56 03.09.2022
365 Clear 29 1011 48 10000 6.01 325 07:57 03.09.2022
366 Clear 26 1011 62 10000 6.67 322 06:53 03.09.2022
367 Clear 23 1011 81 10000 7.2 321 04:31 03.09.2022
368 Clear 29 1009 44 10000 4.99 312 23:49 02.09.2022
369 Clear 30 1009 40 10000 4.92 317 22:39 02.09.2022
370 Clear 32 1008 38 10000 4.8 335 20:59 02.09.2022
371 Clear 32 1008 35 10000 4.86 343 20:59 02.09.2022
372 Clear 32 1008 37 10000 5.74 348 20:27 02.09.2022
373 Clear 33 1008 36 10000 6.97 346 19:00 02.09.2022
374 Clear 35 1007 27 10000 7.31 341 18:28 02.09.2022
375 Clear 35 1007 27 10000 7.31 341 17:43 02.09.2022
376 Clear 38 1006 18 10000 6.79 331 16:46 02.09.2022
377 Clear 40 1007 10 10000 1.78 228 13:55 02.09.2022
378 Clear 39 1008 15 10000 3.06 270 12:24 02.09.2022
379 Clear 35 1009 24 10000 3.32 313 10:19 02.09.2022
380 Clear 35 1009 24 10000 3.32 313 09:39 02.09.2022
381 Clear 29 1010 41 10000 5.96 317 07:30 02.09.2022
382 Clear 29 1010 41 10000 5.96 317 07:30 02.09.2022
383 Clear 26 1010 53 10000 6.16 314 06:36 02.09.2022
384 Clear 25 1009 50 10000 6.5 323 02:52 02.09.2022
385 Clear 29 1008 41 10000 5.36 306 22:30 01.09.2022
386 Clear 30 1007 38 10000 5.13 315 21:43 01.09.2022
387 Clouds 31 1007 38 10000 5.21 333 21:25 01.09.2022
388 Clouds 31 1007 38 10000 5.21 333 20:43 01.09.2022
389 Clear 32 1006 38 10000 7.21 341 18:54 01.09.2022
390 Clear 38 1005 18 10000 5.38 327 17:22 01.09.2022
391 Clear 40 1005 9 10000 2.44 193 15:56 01.09.2022
392 Clear 40 1005 12 10000 2.55 263 14:22 01.09.2022
393 Clear 39 1006 15 10000 3.31 279 12:58 01.09.2022
394 Clear 38 1007 19 10000 3.86 293 11:53 01.09.2022
395 Clear 38 1007 19 10000 3.86 293 11:31 01.09.2022
396 Clear 34 1008 30 10000 4.62 297 10:23 01.09.2022
397 Clear 29 1009 43 10000 5.24 322 07:51 01.09.2022
398 Clear 25 1009 60 10000 5.35 317 06:22 01.09.2022
399 Clear 27 1008 45 10000 5.05 309 01:32 01.09.2022
400 Clear 27 1008 45 10000 5.05 309 01:32 01.09.2022
401 Clear 27 1008 45 10000 5.05 309 01:32 01.09.2022
402 Clear 27 1008 45 10000 5.05 309 01:32 01.09.2022
403 Clear 30 1008 39 10000 5.82 331 23:29 31.08.2022
404 Clear 31 1009 37 10000 5.16 329 21:32 31.08.2022
405 Clear 32 1008 35 10000 6.17 340 19:50 31.08.2022
406 Clear 35 1007 24 10000 7.11 341 18:18 31.08.2022
407 Clear 40 1006 8 10000 0.72 154 15:56 31.08.2022
408 Clear 40 1007 8 10000 2.69 185 14:27 31.08.2022
409 Clear 39 1008 11 10000 2.04 222 12:22 31.08.2022
410 Clear 38 1009 14 10000 1.53 256 11:22 31.08.2022
411 Clear 34 1010 24 10000 3.9 317 08:36 31.08.2022
412 Clear 26 1010 45 10000 4.08 315 04:47 31.08.2022
413 Clear 31 1010 27 10000 3.45 324 23:20 30.08.2022
414 Clear 32 1010 27 10000 3.9 343 21:41 30.08.2022
415 Clear 32 1010 29 10000 4.46 354 20:57 30.08.2022
416 Clear 36 1008 14 10000 2.69 318 18:23 30.08.2022
417 Clear 40 1008 7 10000 1.8 180 15:23 30.08.2022
418 Clear 40 1010 7 10000 2.55 191 13:24 30.08.2022
419 Clear 38 1011 10 10000 2.44 177 11:21 30.08.2022
420 Clear 38 1011 10 10000 2.44 177 10:49 30.08.2022
421 Clear 32 1012 31 10000 1.41 313 07:42 30.08.2022
422 Clear 29 1010 28 10000 3.17 256 02:34 30.08.2022
423 Clear 31 1010 23 10000 2.28 10 23:20 29.08.2022
424 Clear 32 1010 22 10000 2.6 356 22:28 29.08.2022
425 Clear 33 1010 17 10000 2.96 311 21:26 29.08.2022
426 Clear 33 1009 18 10000 2.67 314 19:54 29.08.2022
427 Clear 37 1008 9 10000 4.45 126 17:58 29.08.2022
428 Clear 39 1008 8 10000 4.64 126 17:25 29.08.2022
429 Clear 39 1007 8 10000 4.37 126 16:40 29.08.2022
430 Clear 40 1008 7 10000 2.82 140 14:47 29.08.2022
431 Clear 40 1009 8 10000 3.39 172 13:23 29.08.2022
432 Clear 38 1010 10 10000 2.48 201 11:20 29.08.2022
433 Clear 36 1011 14 10000 1.99 214 10:19 29.08.2022
434 Clear 34 1011 18 10000 1.18 230 08:37 29.08.2022
435 Clear 28 1011 23 10000 2.16 316 05:52 29.08.2022
436 Clear 29 1009 16 10000 0.18 63 01:24 29.08.2022
437 Clear 32 1009 14 10000 1.53 305 22:47 28.08.2022
438 Clear 32 1008 14 10000 0.41 180 21:44 28.08.2022
439 Clear 32 1009 15 10000 2.45 328 20:56 28.08.2022
440 Clear 34 1008 12 10000 1.54 107 19:44 28.08.2022
441 Clear 36 1007 10 10000 3.67 115 18:22 28.08.2022
442 Clear 36 1007 10 10000 3.67 115 17:40 28.08.2022
443 Clear 38 1007 8 10000 2.81 115 16:32 28.08.2022
444 Clear 39 1007 8 10000 3.12 138 14:44 28.08.2022
445 Clear 39 1008 9 10000 3.72 150 12:49 28.08.2022
446 Clear 37 1009 12 10000 3.84 167 10:51 28.08.2022
447 Clear 36 1009 14 10000 3.6 172 09:57 28.08.2022
448 Clear 34 1010 15 10000 2.84 151 08:39 28.08.2022
449 Clear 32 1010 19 10000 2.17 132 07:48 28.08.2022
450 Clear 26 1009 33 10000 1.46 3 03:44 28.08.2022
451 Clear 28 1009 35 10000 1.6 335 00:33 28.08.2022
452 Clear 29 1008 38 10000 4.01 337 22:41 27.08.2022
453 Clear 30 1008 38 10000 4.68 326 22:18 27.08.2022
454 Clear 31 1008 35 10000 4.78 354 20:27 27.08.2022
455 Clear 33 1007 22 10000 3.38 8 18:42 27.08.2022
456 Clear 38 1006 10 10000 1.44 133 16:25 27.08.2022
457 Clear 38 1006 10 10000 1.44 133 15:30 27.08.2022
458 Clear 38 1007 10 10000 3.34 191 12:55 27.08.2022
459 Clear 37 1007 11 10000 2.1 185 11:56 27.08.2022
460 Clear 34 1008 15 10000 1.56 100 09:52 27.08.2022
461 Clear 32 1009 20 10000 1.82 63 09:25 27.08.2022
462 Clear 23 1008 58 10000 5.47 321 05:24 27.08.2022
463 Clear 26 1007 47 10000 5.79 318 00:51 27.08.2022
464 Clear 27 1007 45 10000 5.42 328 23:35 26.08.2022
465 Clear 28 1007 44 10000 6.25 341 21:45 26.08.2022
466 Clear 28 1007 44 10000 7.52 333 19:50 26.08.2022
467 Clear 33 1006 22 10000 5.12 322 17:49 26.08.2022
468 Clear 36 1005 15 10000 2.43 281 15:45 26.08.2022
469 Clear 36 1005 15 10000 2.85 263 14:59 26.08.2022
470 Clear 35 1006 16 10000 1.71 262 12:56 26.08.2022
471 Clear 35 1007 17 10000 1.53 290 11:47 26.08.2022
472 Clear 34 1008 18 10000 1.77 316 11:21 26.08.2022
473 Clear 29 1009 28 10000 3.67 338 08:21 26.08.2022
474 Clear 25 1008 35 10000 2.48 323 03:51 26.08.2022
475 Clear 27 1007 33 10000 4.71 315 23:47 25.08.2022
476 Clear 27 1007 32 10000 5.16 330 22:39 25.08.2022
477 Clear 29 1007 31 10000 5.31 340 20:54 25.08.2022
478 Clear 29 1007 31 10000 5.31 340 20:54 25.08.2022
479 Clear 29 1007 29 10000 6.81 333 19:35 25.08.2022
480 Clear 32 1006 22 10000 7.42 335 18:29 25.08.2022
481 Clear 32 1006 22 10000 7.42 335 17:31 25.08.2022
482 Clear 35 1005 17 10000 6.59 320 16:45 25.08.2022
483 Clear 36 1005 16 10000 6.27 308 15:30 25.08.2022
484 Clear 36 1006 15 10000 3.75 318 13:58 25.08.2022
485 Clear 34 1008 17 10000 4.3 311 11:21 25.08.2022
486 Clear 34 1008 17 10000 4.3 311 10:42 25.08.2022
487 Clear 29 1009 21 10000 3.77 318 07:35 25.08.2022
488 Clear 24 1009 29 10000 3.81 315 03:44 25.08.2022
489 Clear 24 1009 39 10000 4.36 327 23:37 24.08.2022
490 Clear 24 1010 37 10000 4.34 325 22:56 24.08.2022
491 Clear 25 1010 34 10000 4.29 320 21:55 24.08.2022
492 Clear 26 1010 31 10000 4.33 316 21:28 24.08.2022
493 Clear 27 1009 27 10000 4.63 312 19:56 24.08.2022
494 Clear 33 1007 14 10000 7.21 294 17:28 24.08.2022
495 Clear 34 1007 10 10000 7.15 293 15:54 24.08.2022
496 Clear 35 1007 9 10000 6.16 290 15:28 24.08.2022
497 Clear 35 1008 9 10000 5.18 297 12:52 24.08.2022
498 Clear 35 1008 9 10000 5.18 297 12:52 24.08.2022
499 Clear 32 1009 15 10000 5.24 300 11:21 24.08.2022
500 Clear 27 1010 30 10000 5.11 297 08:59 24.08.2022
501 Clear 22 1011 58 10000 5.26 310 06:40 24.08.2022
502 Clear 22 1010 64 10000 4.26 309 00:55 24.08.2022
503 Clear 23 1011 58 10000 4.1 319 22:49 23.08.2022
504 Clear 24 1011 53 10000 4.39 318 22:18 23.08.2022
505 Clear 25 1011 46 10000 4.87 311 20:49 23.08.2022
506 Clear 27 1010 34 10000 6.8 294 19:25 23.08.2022
507 Clear 29 1009 27 10000 7.75 282 18:21 23.08.2022
508 Clear 29 1009 27 10000 7.75 282 17:30 23.08.2022
509 Clear 31 1008 25 10000 8.69 286 16:31 23.08.2022
510 Clear 33 1008 23 10000 7.7 289 14:54 23.08.2022
511 Clear 33 1008 23 10000 7.28 292 12:46 23.08.2022
512 Clear 30 1010 32 10000 5.8 299 11:19 23.08.2022
513 Clear 30 1010 32 10000 5.8 299 10:33 23.08.2022
514 Clear 28 1010 39 10000 5.49 298 09:46 23.08.2022
515 Clear 26 1011 49 10000 5.29 298 08:47 23.08.2022
516 Clear 24 1011 58 10000 5.3 300 08:19 23.08.2022
517 Clear 24 1011 58 10000 5.3 300 07:33 23.08.2022
518 Clear 21 1011 80 10000 4.37 316 06:26 23.08.2022
519 Clear 22 1009 60 10000 3.47 299 01:55 23.08.2022
520 Clear 23 1009 59 10000 2.67 304 00:27 23.08.2022
521 Clear 23 1009 59 10000 2.67 304 23:32 22.08.2022
522 Clear 24 1009 55 10000 3.35 314 22:29 22.08.2022
523 Clear 25 1009 51 10000 4.15 311 21:22 22.08.2022
524 Clear 26 1009 44 10000 5.55 306 19:47 22.08.2022
525 Clear 27 1008 37 10000 6.64 296 18:38 22.08.2022
526 Clear 27 1008 37 10000 6.64 296 18:38 22.08.2022
527 Clear 31 1006 23 10000 7.65 274 16:31 22.08.2022
528 Clear 32 1006 23 10000 7.27 275 15:38 22.08.2022
529 Clear 32 1007 21 10000 7.5 271 12:57 22.08.2022
530 Clear 30 1007 23 10000 6.04 271 10:26 22.08.2022
531 Clear 27 1008 33 10000 5.6 276 07:41 22.08.2022
532 Clear 24 1006 42 10000 3.39 291 02:56 22.08.2022
533 Clear 25 1005 40 10000 3.59 307 00:38 22.08.2022
534 Clear 25 1005 42 10000 4.15 315 00:18 22.08.2022
535 Clear 26 1006 45 10000 5.15 329 22:18 21.08.2022
536 Clear 27 1006 45 10000 5.69 327 21:23 21.08.2022
537 Clear 26 1006 45 10000 5.52 326 20:36 21.08.2022
538 Clear 29 1005 39 10000 7.35 305 19:24 21.08.2022
539 Clear 33 1004 20 10000 6.7 271 16:55 21.08.2022
540 Clear 34 1004 19 10000 6.99 274 15:53 21.08.2022
541 Clear 34 1003 19 10000 7.16 277 15:20 21.08.2022
542 Clear 34 1004 19 10000 7.18 282 13:52 21.08.2022
543 Clear 34 1004 21 10000 6.91 290 13:26 21.08.2022
544 Clear 34 1005 23 10000 6.59 297 11:34 21.08.2022
545 Clear 31 1006 32 10000 6.61 306 09:31 21.08.2022
546 Clear 29 1006 40 10000 6.78 306 08:56 21.08.2022
547 Clear 29 1006 37 10000 6.5 305 08:38 21.08.2022
548 Clear 25 1007 56 10000 5.67 304 07:26 21.08.2022
549 Clear 23 1006 61 10000 4.41 312 03:40 21.08.2022
550 Clear 24 1006 57 10000 4.08 307 00:22 21.08.2022
551 Clear 25 1006 56 10000 3.73 308 22:37 20.08.2022
552 Clear 25 1006 54 10000 3.91 313 21:34 20.08.2022
553 Clear 26 1007 51 10000 4.2 316 20:40 20.08.2022
554 Clear 27 1006 46 10000 4.92 311 19:40 20.08.2022
555 Clear 27 1006 46 10000 4.92 311 19:40 20.08.2022
556 Clear 28 1005 42 10000 6.33 301 18:30 20.08.2022
557 Clear 30 1005 34 10000 7.9 294 17:50 20.08.2022
558 Clear 31 1004 25 10000 7.84 287 16:52 20.08.2022
559 Clear 32 1004 20 10000 7.19 289 15:30 20.08.2022
560 Clear 33 1005 14 10000 6.75 281 13:24 20.08.2022
561 Clear 32 1005 15 10000 5.99 285 11:49 20.08.2022
562 Clear 30 1007 20 10000 5.26 287 09:37 20.08.2022
563 Clear 28 1007 26 10000 5.02 286 08:31 20.08.2022
564 Clear 21 1007 45 10000 3.18 300 05:52 20.08.2022
565 Clear 23 1007 56 10000 2.61 301 00:59 20.08.2022
566 Clear 23 1007 56 10000 2.61 301 00:35 20.08.2022
567 Clear 24 1007 57 10000 2.43 312 23:18 19.08.2022
568 Clear 24 1007 54 10000 4.22 316 21:41 19.08.2022
569 Clear 27 1006 45 10000 6.45 314 20:20 19.08.2022
570 Clear 30 1004 31 10000 8.02 295 17:35 19.08.2022
571 Clear 35 1004 15 10000 8.17 279 15:19 19.08.2022
572 Clear 36 1004 11 10000 7.69 285 13:21 19.08.2022
573 Clear 33 1005 14 10000 6.33 293 10:53 19.08.2022
574 Clear 31 1005 18 10000 6.52 298 10:21 19.08.2022
575 Clouds 24 1006 34 10000 5.36 311 06:37 19.08.2022
576 Clear 24 1005 36 10000 5.04 321 00:57 19.08.2022
577 Clear 25 1005 38 10000 4.32 316 00:28 19.08.2022
578 Clear 25 1005 38 10000 4.32 316 23:38 18.08.2022
579 Clear 26 1005 38 10000 4.49 322 22:49 18.08.2022
580 Clear 27 1004 37 10000 5.81 322 21:56 18.08.2022
581 Clear 27 1004 35 10000 6.02 320 21:26 18.08.2022
582 Clear 28 1004 32 10000 6.61 323 19:56 18.08.2022
583 Clear 30 1003 29 10000 6.68 319 19:28 18.08.2022
584 Clear 33 1003 23 10000 6.77 305 17:50 18.08.2022
585 Clear 35 1003 19 10000 7.17 296 16:58 18.08.2022
586 Clear 37 1003 15 10000 7.21 290 14:52 18.08.2022
587 Clear 37 1003 16 10000 6.81 294 14:19 18.08.2022
588 Clear 37 1003 15 10000 6.25 299 12:55 18.08.2022
589 Clear 36 1004 15 10000 6.09 302 11:42 18.08.2022
590 Clear 33 1005 18 10000 5.93 305 09:43 18.08.2022
591 Clear 30 1006 22 10000 6.25 310 08:40 18.08.2022
592 Clear 26 1006 35 10000 5.63 313 07:19 18.08.2022
593 Clear 23 1006 45 10000 5.43 320 03:57 18.08.2022
594 Clear 26 1006 37 10000 5.1 317 23:35 17.08.2022
595 Clear 27 1006 35 10000 6.12 329 21:46 17.08.2022
596 Clear 29 1006 32 10000 6.12 327 20:19 17.08.2022
597 Clear 30 1005 31 10000 6.73 324 19:29 17.08.2022
598 Clear 33 1004 26 10000 6.91 315 17:36 17.08.2022
599 Clear 35 1004 22 10000 7.45 303 16:35 17.08.2022
600 Clear 37 1004 18 10000 7.36 300 15:28 17.08.2022
601 Clear 38 1004 18 10000 6.66 301 13:30 17.08.2022
602 Clear 36 1005 19 10000 5.49 301 11:38 17.08.2022
603 Clear 33 1007 23 10000 5.88 307 09:31 17.08.2022
604 Clear 29 1007 33 10000 6.01 312 08:24 17.08.2022
605 Clear 24 1007 54 10000 5.87 326 03:39 17.08.2022
606 Clear 26 1008 43 10000 5.7 319 00:24 17.08.2022
607 Clear 27 1008 42 10000 4.57 296 22:41 16.08.2022
608 Clear 28 1008 39 10000 5.76 325 20:59 16.08.2022
609 Clear 29 1008 38 10000 6.39 327 19:54 16.08.2022
610 Clear 30 1007 35 10000 7.16 325 18:44 16.08.2022
611 Clear 33 1006 24 10000 6.89 323 17:53 16.08.2022
612 Clear 37 1006 15 10000 6.7 314 15:59 16.08.2022
613 Clear 37 1006 14 10000 5.82 313 14:55 16.08.2022
614 Clear 37 1006 14 10000 5.82 313 14:37 16.08.2022
615 Clear 37 1006 14 10000 5.24 308 13:54 16.08.2022
616 Clear 35 1007 13 10000 4.4 301 11:39 16.08.2022
617 Clear 32 1009 18 10000 3.81 316 09:52 16.08.2022
618 Clear 29 1009 24 10000 3.97 313 08:48 16.08.2022
619 Clear 27 1010 32 10000 4.47 310 08:18 16.08.2022
620 Clear 22 1009 58 10000 5.19 324 04:25 16.08.2022
621 Clear 24 1009 50 10000 5.56 320 22:56 15.08.2022
622 Clear 25 1009 47 10000 5.99 322 21:56 15.08.2022
623 Clear 25 1009 47 10000 5.99 322 21:36 15.08.2022
624 Clear 26 1008 39 10000 7.36 327 20:29 15.08.2022
625 Clear 28 1007 33 10000 7.98 323 18:46 15.08.2022
626 Clear 31 1007 27 10000 7.89 319 17:56 15.08.2022
627 Clear 34 1006 20 10000 6.84 300 16:23 15.08.2022
628 Clear 35 1006 19 10000 6.61 305 14:40 15.08.2022
629 Clear 34 1006 17 10000 5.83 311 13:19 15.08.2022
630 Clear 32 1008 21 10000 5.71 313 10:36 15.08.2022
631 Clear 27 1008 37 10000 6.65 316 08:54 15.08.2022
632 Clear 22 1008 65 10000 6.9 322 06:49 15.08.2022
633 Clear 20 1008 79 10000 5.6 320 03:56 15.08.2022
634 Clear 22 1007 66 10000 7.03 317 23:38 14.08.2022
635 Clear 22 1007 66 10000 7.03 317 23:38 14.08.2022
636 Clear 23 1007 62 10000 6.17 317 21:49 14.08.2022
637 Clear 24 1007 57 10000 6.4 319 20:54 14.08.2022
638 Clear 25 1007 51 10000 7.31 317 19:45 14.08.2022
639 Clear 27 1006 44 10000 7.55 309 18:41 14.08.2022
640 Clear 28 1005 37 10000 8.31 300 17:41 14.08.2022
641 Clear 30 1005 31 10000 9.76 298 16:30 14.08.2022
642 Clear 32 1004 28 10000 9.42 295 15:45 14.08.2022
643 Clear 33 1005 25 10000 8.9 297 13:52 14.08.2022
644 Clear 33 1005 25 10000 8.9 297 13:34 14.08.2022
645 Clear 32 1005 27 10000 8.34 298 12:54 14.08.2022
646 Clear 31 1006 30 10000 7.77 300 11:31 14.08.2022
647 Clear 28 1007 42 10000 7.48 303 10:26 14.08.2022
648 Clear 23 1008 65 10000 7.41 306 08:20 14.08.2022
649 Clear 20 1008 86 10000 5.54 299 06:20 14.08.2022
650 Clear 20 1007 85 10000 6.01 305 02:35 14.08.2022
651 Clear 21 1007 78 10000 7.39 311 23:36 13.08.2022
652 Clear 23 1007 70 10000 7.45 311 22:28 13.08.2022
653 Clear 24 1007 62 10000 7.49 311 20:58 13.08.2022
654 Clear 25 1007 52 10000 7.72 311 20:19 13.08.2022
655 Clear 26 1006 43 10000 8.02 305 19:20 13.08.2022
656 Clear 29 1005 35 10000 8.63 296 17:36 13.08.2022
657 Clear 33 1004 24 10000 9.41 293 15:23 13.08.2022
658 Clear 33 1005 24 10000 8.49 293 14:24 13.08.2022
659 Clear 33 1004 24 10000 8.63 292 13:38 13.08.2022
660 Clear 32 1006 23 10000 7.96 299 11:52 13.08.2022
661 Clear 29 1007 32 10000 7.13 306 09:58 13.08.2022
662 Clear 24 1008 53 10000 6.87 311 08:23 13.08.2022
663 Clear 20 1008 80 10000 5.6 320 04:21 13.08.2022
664 Clear 22 1008 62 10000 6.37 327 23:47 12.08.2022
665 Clear 24 1008 57 10000 5.98 325 21:42 12.08.2022
666 Clear 25 1008 50 10000 6.68 325 20:51 12.08.2022
667 Clear 26 1008 43 10000 7.47 321 19:39 12.08.2022
668 Clear 28 1007 36 10000 7.37 315 18:46 12.08.2022
669 Clear 32 1005 24 10000 8.89 296 16:37 12.08.2022
670 Clear 34 1005 20 10000 8.41 293 15:49 12.08.2022
671 Clear 35 1005 16 10000 7.37 296 14:29 12.08.2022
672 Clear 35 1006 15 10000 7.08 304 12:53 12.08.2022
673 Clear 33 1007 17 10000 6.73 306 10:35 12.08.2022
674 Clear 26 1009 40 10000 5.95 313 07:50 12.08.2022
675 Clear 23 1009 50 10000 5.24 314 06:39 12.08.2022
676 Clear 21 1009 60 10000 3.88 305 02:39 12.08.2022
677 Clear 23 1008 58 10000 5.56 314 00:26 12.08.2022
678 Clear 23 1008 58 10000 5.56 314 23:35 11.08.2022
679 Clear 24 1008 57 10000 5.63 313 22:27 11.08.2022
680 Clear 24 1008 57 10000 5.63 313 21:43 11.08.2022
681 Clear 25 1008 54 10000 6.35 315 20:59 11.08.2022
682 Clear 26 1008 48 10000 7.23 316 20:20 11.08.2022
683 Clear 26 1008 48 10000 7.56 318 19:32 11.08.2022
684 Clear 30 1006 33 10000 8.27 304 17:48 11.08.2022
685 Clear 32 1006 29 10000 9.66 300 16:37 11.08.2022
686 Clear 34 1005 24 10000 8.83 296 15:25 11.08.2022
687 Clear 34 1006 24 10000 8.28 293 13:37 11.08.2022
688 Clear 31 1007 30 10000 6.89 301 10:58 11.08.2022
689 Clear 24 1009 62 10000 5.13 297 07:49 11.08.2022
690 Clear 21 1008 84 10000 4.83 309 03:57 11.08.2022
691 Clear 22 1007 79 10000 6.1 314 01:33 11.08.2022
692 Clear 23 1007 68 10000 7.39 316 22:36 10.08.2022
693 Clear 24 1007 65 10000 7.48 316 21:44 10.08.2022
694 Clear 25 1007 59 10000 7.61 315 20:55 10.08.2022
695 Clear 26 1007 51 10000 8.56 316 19:32 10.08.2022
696 Clear 28 1006 42 10000 8.79 310 18:42 10.08.2022
697 Clear 32 1005 30 10000 9.41 298 16:55 10.08.2022
698 Clear 34 1005 24 10000 8.27 293 13:36 10.08.2022
699 Clear 34 1005 24 10000 8.27 293 13:36 10.08.2022
700 Clear 34 1005 24 10000 8.27 293 13:36 10.08.2022
701 Clear 34 1005 25 10000 7.96 291 12:48 10.08.2022
702 Clear 29 1007 37 10000 6.57 297 09:56 10.08.2022
703 Clear 27 1008 46 10000 7.16 302 08:35 10.08.2022
704 Clear 23 1008 69 10000 7.36 310 07:21 10.08.2022
705 Clear 21 1007 79 10000 6.91 318 03:35 10.08.2022
706 Clear 22 1008 65 10000 7.07 324 00:49 10.08.2022
707 Clear 24 1008 55 10000 7.32 323 23:25 09.08.2022
708 Clear 25 1008 50 10000 6.87 319 21:37 09.08.2022
709 Clear 26 1008 44 10000 6.67 314 20:42 09.08.2022
710 Clear 29 1007 36 10000 7.85 308 18:48 09.08.2022
711 Clear 31 1006 31 10000 8.38 298 17:31 09.08.2022
712 Clear 32 1006 27 10000 9.53 296 16:42 09.08.2022
713 Clear 34 1005 24 10000 8.81 296 15:59 09.08.2022
714 Clear 35 1006 21 10000 8.5 290 14:30 09.08.2022
715 Clear 33 1007 23 10000 6.41 295 10:45 09.08.2022
716 Clear 28 1008 32 10000 6.59 303 08:52 09.08.2022
717 Clear 26 1009 42 10000 6.74 307 07:54 09.08.2022
718 Clear 22 1008 56 10000 6.36 318 04:43 09.08.2022
719 Clear 24 1009 42 10000 4.46 317 23:58 08.08.2022
720 Clear 25 1009 41 10000 2.11 296 23:24 08.08.2022
721 Clear 25 1009 41 10000 2.11 296 22:38 08.08.2022
722 Clear 25 1008 40 10000 4.7 325 21:40 08.08.2022
723 Clear 27 1007 34 10000 7.77 321 19:58 08.08.2022
724 Clear 27 1007 34 10000 7.77 321 19:34 08.08.2022
725 Clear 32 1006 29 10000 8.26 301 17:56 08.08.2022
726 Clear 35 1005 23 10000 7.76 291 15:47 08.08.2022
727 Clear 36 1005 23 10000 7.54 282 14:46 08.08.2022
728 Clear 35 1005 23 10000 7.29 281 12:30 08.08.2022
729 Clear 31 1007 32 10000 6.85 295 10:28 08.08.2022
730 Clear 27 1007 36 10000 6.66 304 07:51 08.08.2022
731 Clear 23 1006 43 10000 4.56 322 03:42 08.08.2022
732 Clear 27 1005 35 10000 4.41 324 23:28 07.08.2022
733 Clear 27 1005 34 10000 5.39 329 21:41 07.08.2022
734 Clear 28 1005 33 10000 5.92 332 20:55 07.08.2022
735 Clear 29 1004 32 10000 6.63 328 20:18 07.08.2022
736 Clear 29 1004 32 10000 6.63 328 19:51 07.08.2022
737 Clear 31 1003 29 10000 6.38 313 18:49 07.08.2022
738 Clear 34 1002 24 10000 7.75 299 17:22 07.08.2022
739 Clear 34 1002 24 10000 7.75 299 16:51 07.08.2022
740 Clear 36 1002 22 10000 7.7 288 15:29 07.08.2022
741 Clear 37 1002 21 10000 7.74 288 13:55 07.08.2022
742 Clear 36 1003 21 10000 7.5 288 12:40 07.08.2022
743 Clear 34 1004 23 10000 6.84 297 10:48 07.08.2022
744 Clear 32 1004 27 10000 6.84 302 09:56 07.08.2022
745 Clear 23 1005 57 10000 6.51 329 04:37 07.08.2022
746 Clear 25 1005 45 10000 5.91 315 02:18 07.08.2022
747 Clear 27 1005 41 10000 4.02 301 22:34 06.08.2022
748 Clear 28 1004 40 10000 6.43 316 21:52 06.08.2022
749 Clear 29 1004 39 10000 7.79 323 19:46 06.08.2022
750 Clear 31 1003 34 10000 8.19 323 18:38 06.08.2022
751 Clear 33 1003 28 10000 8.9 312 17:45 06.08.2022
752 Clear 37 1002 22 10000 8.68 295 16:24 06.08.2022
753 Clear 39 1003 20 10000 8.28 288 13:51 06.08.2022
754 Clear 38 1004 19 10000 6.52 297 12:27 06.08.2022
755 Clear 37 1004 19 10000 6.35 303 11:21 06.08.2022
756 Clear 35 1005 20 10000 6.72 314 09:41 06.08.2022
757 Clear 29 1006 31 10000 6.13 303 07:28 06.08.2022
758 Clear 28 1006 32 10000 4.27 344 01:47 06.08.2022
759 Clear 30 1006 38 10000 5.59 311 22:36 05.08.2022
760 Clouds 30 1006 38 10000 5.57 289 21:34 05.08.2022
761 Clear 33 1004 33 10000 7.44 320 19:20 05.08.2022
762 Clear 33 1004 33 10000 7.44 320 18:44 05.08.2022
763 Clear 38 1003 22 10000 8.52 301 16:55 05.08.2022
764 Clear 38 1003 22 10000 8.52 301 16:37 05.08.2022
765 Clear 40 1003 18 10000 7.86 303 15:19 05.08.2022
766 Clear 41 1003 17 10000 7.93 313 13:39 05.08.2022
767 Clear 41 1003 18 10000 7.93 318 13:20 05.08.2022
768 Clear 40 1004 18 10000 7.66 320 12:23 05.08.2022
769 Clear 37 1005 22 10000 7.04 319 10:30 05.08.2022
770 Clear 32 1006 31 10000 7.46 318 07:58 05.08.2022
771 Clear 32 1006 31 10000 7.46 318 07:58 05.08.2022
772 Clear 28 1006 42 10000 6.85 313 05:30 05.08.2022
773 Clear 30 1006 33 10000 5.73 321 23:51 04.08.2022
774 Clear 31 1006 29 10000 7.05 332 22:25 04.08.2022
775 Clear 32 1006 30 10000 7.49 335 21:25 04.08.2022
776 Clear 32 1006 30 10000 7.49 335 20:42 04.08.2022
777 Clear 32 1005 29 10000 8.09 329 19:37 04.08.2022
778 Clear 33 1005 28 10000 8.67 327 18:36 04.08.2022
779 Clear 36 1004 21 10000 8.44 331 17:37 04.08.2022
780 Clear 41 1004 11 10000 3.94 315 13:57 04.08.2022
781 Clear 40 1005 11 10000 3.18 308 12:44 04.08.2022
782 Clear 38 1006 13 10000 2.84 304 10:51 04.08.2022
783 Clear 32 1007 18 10000 3.57 315 07:53 04.08.2022
784 Clear 27 1007 27 10000 4.25 321 05:46 04.08.2022
785 Clouds 27 1006 32 10000 5.7 321 02:29 04.08.2022
786 Clear 28 1006 36 10000 6.34 322 23:45 03.08.2022
787 Clear 28 1007 39 10000 5.99 327 22:30 03.08.2022
788 Clouds 29 1006 39 10000 5.88 333 20:50 03.08.2022
789 Clouds 30 1006 37 10000 6.94 332 19:44 03.08.2022
790 Clear 33 1005 24 10000 6.27 324 18:36 03.08.2022
791 Clear 38 1004 11 10000 6.19 294 16:25 03.08.2022
792 Clear 38 1004 11 10000 6.19 294 15:32 03.08.2022
793 Clear 38 1005 10 10000 4.94 299 12:41 03.08.2022
794 Clear 32 1007 17 10000 4.38 303 08:54 03.08.2022
795 Clear 24 1006 39 10000 4.09 313 04:47 03.08.2022
796 Clear 24 1006 40 10000 4.16 316 03:52 03.08.2022
797 Clear 25 1005 40 10000 4.3 320 01:45 03.08.2022
798 Clear 26 1006 43 10000 4.91 325 23:27 02.08.2022
799 Clear 27 1005 42 10000 5.06 328 21:59 02.08.2022
800 Clear 27 1005 42 10000 5.06 328 21:40 02.08.2022
801 Clear 29 1005 36 10000 6.66 330 19:38 02.08.2022
802 Clear 35 1003 19 10000 6.8 291 16:42 02.08.2022
803 Clear 36 1003 17 10000 6.98 296 13:40 02.08.2022
804 Clear 34 1005 20 10000 5.85 303 10:34 02.08.2022
805 Clear 27 1006 35 10000 6.22 307 08:29 02.08.2022
806 Clear 28 1006 33 10000 6.17 305 07:50 02.08.2022
807 Clear 22 1006 62 10000 4.27 313 04:56 02.08.2022
808 Clear 24 1005 51 10000 4.36 324 02:20 02.08.2022
809 Clear 25 1005 52 10000 3.9 322 23:23 01.08.2022
810 Clear 26 1005 50 10000 4.21 316 21:37 01.08.2022
811 Clear 28 1004 41 10000 6 304 20:19 01.08.2022
812 Clouds 30 1004 37 10000 7.16 304 18:55 01.08.2022
813 Clear 34 1003 21 10000 7.08 287 16:58 01.08.2022
814 Clear 34 1003 21 10000 7.08 287 16:39 01.08.2022
815 Clear 35 1002 18 10000 7.09 285 15:45 01.08.2022
816 Clear 35 1002 16 10000 6.74 285 14:57 01.08.2022
817 Clear 36 1002 12 10000 5.99 289 13:32 01.08.2022
818 Clear 32 1004 17 10000 4.07 287 11:18 01.08.2022
819 Clear 30 1005 19 10000 3.88 293 09:34 01.08.2022
820 Clear 26 1005 25 10000 4.63 300 07:37 01.08.2022
821 Clear 21 1004 35 10000 3.97 315 04:37 01.08.2022
822 Clear 23 1004 35 10000 4.44 317 02:24 01.08.2022
823 Clear 24 1004 43 10000 6.3 330 22:54 31.07.2022
824 Clear 24 1004 43 10000 6.3 330 22:35 31.07.2022
825 Clear 26 1004 39 10000 7.75 332 20:44 31.07.2022
826 Clear 31 1002 30 10000 7.26 314 18:52 31.07.2022
827 Clear 33 1002 22 10000 7.03 294 17:34 31.07.2022
828 Clear 36 1002 17 10000 7.07 292 14:57 31.07.2022
829 Clear 37 1002 15 10000 6.08 300 13:20 31.07.2022
830 Clear 36 1003 15 10000 5.91 301 11:44 31.07.2022
831 Clear 30 1005 21 10000 6.3 307 09:18 31.07.2022
832 Clouds 25 1006 37 10000 6.28 315 06:31 31.07.2022
833 Clouds 23 1005 50 10000 7.19 321 02:31 31.07.2022
834 Clouds 26 1006 38 10000 7.4 326 23:23 30.07.2022
835 Clouds 26 1006 40 10000 7.37 323 21:55 30.07.2022
836 Clouds 26 1006 40 10000 7.37 323 21:37 30.07.2022
837 Clouds 27 1006 39 10000 7.43 321 20:38 30.07.2022
838 Clear 28 1006 38 10000 7.92 321 19:57 30.07.2022
839 Clear 32 1004 26 10000 9.14 311 18:23 30.07.2022
840 Clear 35 1004 19 10000 8.99 301 16:54 30.07.2022
841 Clear 37 1003 15 10000 8.29 300 15:35 30.07.2022
842 Clear 38 1003 14 10000 8.1 311 14:32 30.07.2022
843 Clear 38 1004 12 10000 7.61 321 12:43 30.07.2022
844 Clear 37 1005 12 10000 7.22 322 11:55 30.07.2022
845 Clear 34 1006 15 10000 7.52 318 10:25 30.07.2022
846 Clear 34 1006 15 10000 7.52 318 09:45 30.07.2022
847 Clear 29 1007 29 10000 7.27 319 07:47 30.07.2022
848 Clear 25 1006 37 10000 5.78 322 02:34 30.07.2022
849 Clear 25 1007 40 10000 6.63 319 01:43 30.07.2022
850 Clear 28 1007 38 10000 7.93 329 21:39 29.07.2022
851 Clear 28 1007 36 10000 8.33 332 20:59 29.07.2022
852 Clear 29 1007 34 10000 8.36 330 19:48 29.07.2022
853 Clear 33 1005 23 10000 9.51 315 17:52 29.07.2022
854 Clear 40 1003 10 10000 8.41 313 15:19 29.07.2022
855 Clouds 40 1004 9 10000 4.16 314 12:59 29.07.2022
856 Clouds 38 1006 11 10000 3.7 323 10:35 29.07.2022
857 Clouds 34 1007 15 10000 4.77 325 08:49 29.07.2022
858 Clouds 31 1007 22 10000 4.82 319 07:40 29.07.2022
859 Clouds 27 1006 33 10000 6.11 318 01:47 29.07.2022
860 Clear 29 1006 30 10000 5.68 330 22:49 28.07.2022
861 Clear 30 1007 31 10000 6.79 345 21:00 28.07.2022
862 Clear 30 1007 31 10000 6.79 345 20:30 28.07.2022
863 Clear 31 1006 30 10000 6.91 337 19:42 28.07.2022
864 Clear 33 1005 24 10000 7.02 325 18:48 28.07.2022
865 Clear 36 1004 14 10000 6.51 303 17:43 28.07.2022
866 Clear 38 1003 10 10000 4.23 302 16:51 28.07.2022
867 Clear 38 1003 9 10000 1.85 271 15:30 28.07.2022
868 Clear 38 1004 10 10000 3.25 275 12:58 28.07.2022
869 Clear 36 1006 14 10000 2.77 292 10:37 28.07.2022
870 Clear 27 1007 36 10000 3.51 312 06:42 28.07.2022
871 Clear 23 1006 48 10000 3.91 315 05:29 28.07.2022
872 Clear 26 1005 41 10000 4.21 314 00:49 28.07.2022
873 Clear 27 1005 39 10000 5.59 329 22:40 27.07.2022
874 Clear 28 1005 36 10000 6.19 332 21:28 27.07.2022
875 Clear 29 1004 33 10000 6.54 332 19:42 27.07.2022
876 Clear 34 1003 13 10000 6.45 297 17:50 27.07.2022
877 Clear 37 1002 8 10000 4.75 284 15:52 27.07.2022
878 Clear 37 1002 8 10000 3.86 280 14:58 27.07.2022
879 Clear 37 1002 8 10000 3.86 280 14:35 27.07.2022
880 Clear 35 1003 11 10000 2.67 266 12:50 27.07.2022
881 Clear 29 1005 22 10000 1.82 302 08:44 27.07.2022
882 Clear 25 1005 29 10000 4.26 317 07:24 27.07.2022
883 Clear 22 1005 37 10000 4.68 318 02:42 27.07.2022
884 Clear 25 1005 39 10000 5.53 326 22:29 26.07.2022
885 Clear 26 1005 36 10000 6.31 328 21:23 26.07.2022
886 Clear 26 1005 36 10000 6.31 328 20:43 26.07.2022
887 Clear 29 1004 25 10000 7.68 317 18:44 26.07.2022
888 Clear 31 1003 21 10000 7.96 305 18:19 26.07.2022
889 Clear 33 1003 16 10000 8.53 297 16:32 26.07.2022
890 Clear 35 1002 13 10000 7.63 292 15:42 26.07.2022
891 Clear 35 1002 12 10000 7.54 300 13:47 26.07.2022
892 Clear 34 1003 13 10000 6.36 300 11:40 26.07.2022
893 Clear 31 1005 20 10000 5.55 302 09:32 26.07.2022
894 Clear 27 1005 32 10000 5.48 308 07:31 26.07.2022
895 Clear 24 1004 48 10000 4.15 305 01:21 26.07.2022
896 Clear 24 1004 46 10000 3.65 304 23:33 25.07.2022
897 Clear 25 1004 45 10000 3.91 316 22:33 25.07.2022
898 Clear 25 1005 43 10000 4.68 320 21:43 25.07.2022
899 Clear 26 1005 40 10000 6.03 320 20:42 25.07.2022
900 Clear 28 1004 35 10000 7.06 318 19:51 25.07.2022
901 Clear 33 1002 20 10000 6.9 296 18:23 25.07.2022
902 Clear 33 1002 20 10000 6.9 296 17:33 25.07.2022
903 Clear 35 1002 13 10000 7.12 288 15:37 25.07.2022
904 Clear 35 1002 15 10000 2.96 282 12:33 25.07.2022
905 Clear 32 1004 20 10000 2.06 279 10:42 25.07.2022
906 Clear 25 1005 42 10000 4.33 306 06:52 25.07.2022
907 Clear 24 1004 44 10000 4.52 303 23:57 24.07.2022
908 Clear 24 1004 42 10000 4.56 291 23:22 24.07.2022
909 Clear 24 1004 42 10000 4.56 291 22:41 24.07.2022
910 Clear 25 1004 42 10000 5.33 293 21:30 24.07.2022
911 Clear 26 1004 42 10000 5.99 303 20:57 24.07.2022
912 Clear 26 1004 39 10000 5.9 302 20:32 24.07.2022
913 Clear 28 1003 32 10000 8.24 306 18:59 24.07.2022
914 Clear 33 1002 21 10000 9.15 300 16:54 24.07.2022
915 Clear 35 1001 18 10000 8.45 297 15:54 24.07.2022
916 Clear 35 1002 17 10000 7.47 304 14:41 24.07.2022
917 Clear 35 1002 17 10000 7.47 304 14:41 24.07.2022
918 Clear 35 1002 16 10000 7.36 316 13:43 24.07.2022
919 Clear 34 1003 19 10000 5.61 308 12:19 24.07.2022
920 Clear 33 1004 22 10000 5.02 308 11:29 24.07.2022
921 Clear 31 1005 26 10000 5 311 09:33 24.07.2022
922 Clear 27 1006 41 10000 6.27 315 07:53 24.07.2022
923 Clear 24 1006 52 10000 6.42 318 06:55 24.07.2022
924 Clear 21 1006 65 10000 6.19 315 02:52 24.07.2022
925 Clear 24 1006 48 10000 5.52 311 22:45 23.07.2022
926 Clear 25 1007 46 10000 6.2 312 20:47 23.07.2022
927 Clear 28 1006 34 10000 9.08 310 19:25 23.07.2022
928 Clear 30 1005 27 10000 9.48 306 18:18 23.07.2022
929 Clear 33 1004 22 10000 9.84 303 17:27 23.07.2022
930 Clear 34 1004 19 10000 9.94 305 16:22 23.07.2022
931 Clear 35 1004 17 10000 9.15 306 15:22 23.07.2022
932 Clear 35 1004 17 10000 9.15 306 14:52 23.07.2022
933 Clear 35 1005 17 10000 8.32 310 14:23 23.07.2022
934 Clear 34 1006 20 10000 6.95 313 11:56 23.07.2022
935 Clear 32 1007 20 10000 5.69 311 10:41 23.07.2022
936 Clear 30 1007 23 10000 5.46 312 09:38 23.07.2022
937 Clear 24 1009 50 10000 5.96 317 07:18 23.07.2022
938 Clear 21 1008 61 10000 5.25 322 03:37 23.07.2022
939 Clear 22 1008 52 10000 6.02 321 00:37 23.07.2022
940 Clear 24 1008 46 10000 5.96 322 21:36 22.07.2022
941 Clear 25 1008 43 10000 6.45 323 20:31 22.07.2022
942 Clear 29 1007 31 10000 8.13 317 18:56 22.07.2022
943 Clear 31 1006 24 10000 7.86 314 17:40 22.07.2022
944 Clear 35 1005 17 10000 7.92 303 16:26 22.07.2022
945 Clear 35 1006 17 10000 7.69 316 13:50 22.07.2022
946 Clear 33 1007 20 10000 7.23 318 10:40 22.07.2022
947 Clear 28 1008 33 10000 7.29 317 09:25 22.07.2022
948 Clear 26 1008 42 10000 6.61 316 08:26 22.07.2022
949 Clear 21 1008 61 10000 4.34 314 04:26 22.07.2022
950 Clear 23 1008 58 10000 5.63 316 23:45 21.07.2022
951 Clear 24 1008 56 10000 5.84 315 22:25 21.07.2022
952 Clear 25 1008 50 10000 6.62 316 20:48 21.07.2022
953 Clear 28 1006 37 10000 8.27 312 18:54 21.07.2022
954 Clear 32 1005 23 10000 8.8 295 17:29 21.07.2022
955 Clear 32 1005 23 10000 8.8 295 16:53 21.07.2022
956 Clear 34 1005 19 10000 8.15 292 14:52 21.07.2022
957 Clear 34 1005 18 10000 7.65 290 14:24 21.07.2022
958 Clear 33 1006 17 10000 7 296 12:27 21.07.2022
959 Clear 32 1006 18 10000 6.83 301 10:39 21.07.2022
960 Clear 29 1007 25 10000 7.23 306 09:18 21.07.2022
961 Clear 29 1007 25 10000 7.23 306 08:45 21.07.2022
962 Clear 24 1007 46 10000 7.37 308 07:23 21.07.2022
963 Clear 22 1006 49 10000 8.1 313 03:55 21.07.2022
964 Clear 24 1007 43 10000 6.76 306 00:24 21.07.2022
965 Clear 25 1007 40 10000 8.42 317 22:21 20.07.2022
966 Clear 26 1007 38 10000 8.17 316 20:51 20.07.2022
967 Clear 27 1007 33 10000 8.39 315 19:50 20.07.2022
968 Clear 29 1006 28 10000 8.64 314 19:20 20.07.2022
969 Clear 29 1006 28 10000 8.64 314 18:33 20.07.2022
970 Clear 31 1006 23 10000 9.48 311 17:55 20.07.2022
971 Clear 34 1005 20 10000 9.96 306 16:42 20.07.2022
972 Clear 35 1005 18 10000 9.68 301 15:31 20.07.2022
973 Clear 37 1005 15 10000 8.48 300 14:18 20.07.2022
974 Clear 37 1006 12 10000 7.54 309 11:34 20.07.2022
975 Clear 32 1007 20 10000 6.99 313 08:50 20.07.2022
976 Clear 25 1007 40 10000 5.66 322 03:47 20.07.2022
977 Clear 26 1006 40 10000 5.38 314 00:49 20.07.2022
978 Clear 26 1006 40 10000 5.72 318 23:41 19.07.2022
979 Clear 27 1006 40 10000 6.69 324 22:33 19.07.2022
980 Clear 28 1006 39 10000 6.98 327 21:31 19.07.2022
981 Clear 29 1006 35 10000 7.56 327 20:28 19.07.2022
982 Clear 32 1005 30 10000 7.41 317 18:58 19.07.2022
983 Clear 35 1004 21 10000 6.46 297 18:28 19.07.2022
984 Clear 37 1004 19 10000 7.31 299 16:37 19.07.2022
985 Clear 39 1004 15 10000 6.02 294 14:57 19.07.2022
986 Clear 36 1005 15 10000 3.32 290 11:44 19.07.2022
987 Clear 35 1006 16 10000 3.22 289 10:55 19.07.2022
988 Clear 31 1006 21 10000 3.97 309 09:26 19.07.2022
989 Clear 31 1006 21 10000 3.97 309 08:39 19.07.2022
990 Clear 26 1007 37 10000 4.78 312 07:19 19.07.2022
991 Clear 24 1007 45 10000 4.52 312 05:48 19.07.2022
992 Clear 23 1007 46 10000 4.46 313 04:56 19.07.2022
993 Clear 24 1006 43 10000 4.63 307 01:58 19.07.2022
994 Clear 25 1005 45 10000 5.76 316 23:50 18.07.2022
995 Clear 26 1005 45 10000 6.27 321 23:19 18.07.2022
996 Clear 26 1006 45 10000 6.34 326 22:22 18.07.2022
997 Clear 27 1006 43 10000 6.55 331 20:57 18.07.2022
998 Clear 28 1005 39 10000 7.37 329 19:52 18.07.2022
999 Clear 33 1003 28 10000 7.85 303 17:53 18.07.2022
1000 Clear 36 1003 19 10000 7.35 304 16:28 18.07.2022
1001 Clear 36 1003 18 10000 6.91 307 15:19 18.07.2022
1002 Clear 36 1003 17 10000 6.45 311 13:31 18.07.2022
1003 Clear 35 1004 20 10000 5.09 301 11:34 18.07.2022
1004 Clear 31 1006 32 10000 4.7 304 09:54 18.07.2022
1005 Clear 26 1006 50 10000 5.26 310 07:54 18.07.2022
1006 Clear 21 1006 70 10000 4.42 319 03:32 18.07.2022
1007 Clear 24 1006 56 10000 4.97 315 22:56 17.07.2022
1008 Clear 24 1006 56 10000 4.97 315 22:31 17.07.2022
1009 Clear 25 1006 53 10000 5.27 322 21:39 17.07.2022
1010 Clear 26 1006 49 10000 5.99 324 20:46 17.07.2022
1011 Clear 27 1006 40 10000 6.53 324 19:50 17.07.2022
1012 Clear 29 1005 33 10000 7.36 319 19:22 17.07.2022
1013 Clear 31 1004 25 10000 7.52 308 17:54 17.07.2022
1014 Clear 31 1004 25 10000 7.52 308 17:36 17.07.2022
1015 Clear 33 1004 21 10000 7.68 294 16:33 17.07.2022
1016 Clear 34 1004 19 10000 7.29 288 15:50 17.07.2022
1017 Clear 35 1004 16 10000 6.68 305 13:51 17.07.2022
1018 Clear 35 1005 16 10000 6.2 301 12:56 17.07.2022
1019 Clear 30 1006 24 10000 5.6 304 10:21 17.07.2022
1020 Clear 25 1007 39 10000 5.68 311 07:32 17.07.2022
1021 Clear 20 1007 64 10000 5.75 320 02:35 17.07.2022
1022 Clear 21 1008 64 10000 6.88 328 00:33 17.07.2022
1023 Clear 22 1008 59 10000 6.99 324 22:43 16.07.2022
1024 Clear 23 1008 53 10000 6.91 323 20:45 16.07.2022
1025 Clear 27 1006 38 10000 8.1 316 18:59 16.07.2022
1026 Clear 29 1005 32 10000 8.24 309 17:48 16.07.2022
1027 Clear 33 1005 23 10000 8.05 297 16:22 16.07.2022
1028 Clear 34 1005 18 10000 6.93 308 13:35 16.07.2022
1029 Clear 31 1007 21 10000 6.05 313 10:34 16.07.2022
1030 Clear 27 1008 33 10000 6.33 313 09:28 16.07.2022
1031 Clear 27 1008 33 10000 6.33 313 08:41 16.07.2022
1032 Clear 25 1008 40 10000 6.64 317 07:41 16.07.2022
1033 Clear 19 1008 81 10000 6.16 321 03:39 16.07.2022
1034 Clear 20 1008 76 10000 6.57 323 01:39 16.07.2022
1035 Clear 22 1008 61 10000 6.95 318 23:21 15.07.2022
1036 Clear 22 1008 61 10000 6.95 318 22:37 15.07.2022
1037 Clear 24 1008 54 10000 7.04 318 21:18 15.07.2022
1038 Clear 25 1007 48 10000 7.65 316 19:51 15.07.2022
1039 Clear 27 1006 41 10000 7.71 314 18:35 15.07.2022
1040 Clear 29 1005 34 10000 8.26 304 17:34 15.07.2022
1041 Clear 33 1004 25 10000 9.31 299 14:45 15.07.2022
1042 Clear 33 1005 24 10000 7.85 310 12:48 15.07.2022
1043 Clear 31 1006 29 10000 8.38 314 10:54 15.07.2022
1044 Clear 27 1007 43 10000 7.99 311 08:49 15.07.2022
1045 Clear 21 1006 73 10000 6.48 317 05:55 15.07.2022
1046 Clear 21 1006 61 10000 6.35 318 00:52 15.07.2022
1047 Clear 22 1006 59 10000 6.21 319 23:36 14.07.2022
1048 Clear 23 1006 58 10000 6.06 319 22:42 14.07.2022
1049 Clear 23 1006 56 10000 6.01 322 21:43 14.07.2022
1050 Clear 24 1006 52 10000 6.66 320 21:25 14.07.2022
1051 Clear 24 1006 52 10000 6.66 320 20:43 14.07.2022
1052 Clear 25 1006 47 10000 7.96 319 20:19 14.07.2022
1053 Clear 27 1005 40 10000 8.15 314 18:52 14.07.2022
1054 Clear 33 1004 22 10000 9.57 298 16:22 14.07.2022
1055 Clear 33 1004 22 10000 9.57 298 15:30 14.07.2022
1056 Clear 34 1004 21 10000 8.68 305 13:53 14.07.2022
1057 Clear 34 1004 21 10000 8.51 306 13:53 14.07.2022
1058 Clear 33 1005 24 10000 7.69 311 12:58 14.07.2022
1059 Clear 32 1005 26 10000 7.52 316 11:47 14.07.2022
1060 Clear 31 1006 28 10000 7.26 315 11:23 14.07.2022
1061 Clear 29 1007 32 10000 6.93 312 09:54 14.07.2022
1062 Clear 25 1008 45 10000 7.06 315 07:47 14.07.2022
1063 Clear 22 1008 56 10000 5.77 321 01:26 14.07.2022
1064 Clear 22 1008 56 10000 5.77 321 00:53 14.07.2022
1065 Clear 23 1008 57 10000 5.55 313 22:33 13.07.2022
1066 Clear 23 1008 56 10000 5.35 314 21:59 13.07.2022
1067 Clear 24 1008 54 10000 6.38 317 21:18 13.07.2022
1068 Clear 25 1008 48 10000 7.86 317 19:58 13.07.2022
1069 Clear 30 1006 31 10000 9.06 306 17:52 13.07.2022
1070 Clear 32 1005 26 10000 9.41 300 16:46 13.07.2022
1071 Clear 33 1005 22 10000 9.35 298 15:43 13.07.2022
1072 Clear 35 1006 20 10000 7.38 307 13:24 13.07.2022
1073 Clear 33 1007 23 10000 7.43 315 10:46 13.07.2022
1074 Clear 31 1008 27 10000 7.2 316 10:28 13.07.2022
1075 Clear 31 1008 27 10000 7.2 316 10:28 13.07.2022
1076 Clear 29 1008 36 10000 7.27 317 09:27 13.07.2022
1077 Clear 26 1009 45 10000 6.89 316 07:53 13.07.2022
1078 Clear 21 1009 72 10000 5.6 321 03:34 13.07.2022
1079 Clear 23 1008 62 10000 6.1 321 00:24 13.07.2022
1080 Clear 24 1009 58 10000 5.8 322 22:19 12.07.2022
1081 Clear 24 1009 58 10000 5.8 322 21:36 12.07.2022
1082 Clear 25 1009 54 10000 6.07 322 20:42 12.07.2022
1083 Clear 26 1009 48 10000 6.85 322 19:42 12.07.2022
1084 Clear 31 1007 28 10000 7.76 307 18:25 12.07.2022
1085 Clear 34 1007 18 10000 8 300 16:20 12.07.2022
1086 Clear 35 1007 15 10000 7.88 304 14:31 12.07.2022
1087 Clear 35 1007 14 10000 7.27 304 13:34 12.07.2022
1088 Clear 33 1008 15 10000 5.62 301 11:48 12.07.2022
1089 Clear 29 1010 25 10000 5.27 304 10:25 12.07.2022
1090 Clear 27 1011 33 10000 5.38 307 08:46 12.07.2022
1091 Clear 24 1011 45 10000 5.32 309 07:48 12.07.2022
1092 Clear 20 1011 70 10000 5.46 324 05:45 12.07.2022
1093 Clear 19 1010 74 10000 5.19 327 04:46 12.07.2022
1094 Clear 22 1010 59 10000 5.19 323 00:20 12.07.2022
1095 Clear 22 1009 57 10000 5.36 324 22:43 11.07.2022
1096 Clear 24 1009 51 10000 6.35 328 20:56 11.07.2022
1097 Clear 24 1009 51 10000 6.35 328 20:32 11.07.2022
1098 Clear 24 1009 51 10000 6.35 328 20:32 11.07.2022
1099 Clear 27 1007 37 10000 6.99 318 18:50 11.07.2022
1100 Clear 30 1007 31 10000 7.69 303 18:28 11.07.2022
1101 Clear 31 1006 26 10000 8.03 298 16:30 11.07.2022
1102 Clear 33 1006 21 10000 7.31 295 15:28 11.07.2022
1103 Clear 32 1006 25 10000 6.86 293 13:19 11.07.2022
1104 Clear 30 1008 31 10000 6.58 294 11:23 11.07.2022
1105 Clear 27 1008 36 10000 6.23 297 09:55 11.07.2022
1106 Clear 28 1008 36 10000 6.35 295 09:35 11.07.2022
1107 Clear 25 1008 44 10000 5.94 298 08:32 11.07.2022
1108 Clear 20 1007 78 10000 6.04 316 01:20 11.07.2022
1109 Clear 21 1007 73 10000 5.9 313 23:54 10.07.2022
1110 Clear 22 1007 68 10000 5.86 308 22:45 10.07.2022
1111 Clear 24 1007 51 10000 6.08 302 20:56 10.07.2022
1112 Clear 24 1007 55 10000 6.28 308 20:36 10.07.2022
1113 Clear 25 1006 46 10000 7.38 303 19:38 10.07.2022
1114 Clear 27 1005 38 10000 7.91 295 18:35 10.07.2022
1115 Clear 29 1004 31 10000 8.87 294 17:35 10.07.2022
1116 Clear 32 1003 22 10000 9.27 288 16:24 10.07.2022
1117 Clear 33 1003 20 10000 8.86 286 14:47 10.07.2022
1118 Clear 33 1003 21 10000 8.69 286 13:40 10.07.2022
1119 Clear 32 1004 22 10000 8.38 292 12:26 10.07.2022
1120 Clear 30 1005 28 10000 7.6 297 09:47 10.07.2022
1121 Clear 28 1005 35 10000 7.42 299 08:44 10.07.2022
1122 Clear 23 1005 51 10000 7.4 303 07:24 10.07.2022
1123 Clear 22 1005 48 10000 5.49 310 01:23 10.07.2022
1124 Clear 24 1006 46 10000 5.55 309 22:27 09.07.2022
1125 Clear 24 1006 46 10000 5.55 309 21:56 09.07.2022
1126 Clear 26 1006 41 10000 7.46 315 20:23 09.07.2022
1127 Clear 28 1004 33 10000 8.23 313 18:35 09.07.2022
1128 Clear 31 1003 25 10000 8.98 302 17:33 09.07.2022
1129 Clear 32 1003 21 10000 9.55 297 16:44 09.07.2022
1130 Clear 34 1003 18 10000 8.87 295 15:40 09.07.2022
1131 Clear 35 1003 15 10000 7.65 296 14:27 09.07.2022
1132 Clear 35 1003 15 10000 7.65 296 13:49 09.07.2022
1133 Clear 35 1004 14 10000 7.31 300 12:45 09.07.2022
1134 Clear 33 1005 15 10000 6.25 299 11:22 09.07.2022
1135 Clear 31 1006 17 10000 5.96 301 10:22 09.07.2022
1136 Clear 27 1007 23 10000 5.74 308 07:45 09.07.2022
1137 Clear 21 1007 35 10000 4.06 315 04:58 09.07.2022
1138 Clear 22 1006 38 10000 4.86 315 01:50 09.07.2022
1139 Clear 24 1007 41 10000 4.75 319 22:54 08.07.2022
1140 Clear 25 1007 41 10000 5.11 326 21:58 08.07.2022
1141 Clear 26 1007 39 10000 5.83 328 20:41 08.07.2022
1142 Clear 27 1006 35 10000 6.79 321 19:53 08.07.2022
1143 Clear 32 1005 14 10000 6.53 295 18:24 08.07.2022
1144 Clear 34 1004 10 10000 6.94 286 16:48 08.07.2022
1145 Clear 35 1004 9 10000 6.93 291 14:53 08.07.2022
1146 Clear 36 1005 8 10000 6.18 291 13:41 08.07.2022
1147 Clear 34 1006 9 10000 4.79 292 11:51 08.07.2022
1148 Clear 33 1007 10 10000 4.78 296 10:37 08.07.2022
1149 Clear 29 1008 16 10000 5.24 305 08:37 08.07.2022
1150 Clear 25 1008 26 10000 5.12 308 06:50 08.07.2022
1151 Clear 22 1007 42 10000 4.57 312 01:31 08.07.2022
1152 Clear 24 1008 46 10000 5.41 317 23:22 07.07.2022
1153 Clear 24 1008 46 10000 5.41 317 22:35 07.07.2022
1154 Clear 25 1008 43 10000 6.71 318 20:36 07.07.2022
1155 Clear 30 1005 28 10000 9.08 301 18:22 07.07.2022
1156 Clear 32 1005 24 10000 9.49 300 16:57 07.07.2022
1157 Clear 34 1005 18 10000 7.34 304 14:56 07.07.2022
1158 Clear 33 1005 17 10000 5.52 305 13:25 07.07.2022
1159 Clear 33 1005 17 10000 5.52 305 12:37 07.07.2022
1160 Clear 33 1006 18 10000 5.98 306 12:18 07.07.2022
1161 Clear 31 1006 21 10000 6.45 308 11:29 07.07.2022
1162 Clear 31 1006 21 10000 6.45 308 10:42 07.07.2022
1163 Clear 30 1007 25 10000 6.92 310 10:24 07.07.2022
1164 Clear 23 1008 50 10000 7.2 313 07:22 07.07.2022
1165 Clear 20 1007 52 10000 4.73 320 02:55 07.07.2022
1166 Clear 22 1007 50 10000 4.84 298 23:37 06.07.2022
1167 Clear 23 1007 50 10000 4.61 295 23:18 06.07.2022
1168 Clear 23 1007 50 10000 4.61 295 22:56 06.07.2022
1169 Clear 23 1007 50 10000 4.61 295 22:38 06.07.2022
1170 Clear 24 1007 47 10000 5.63 306 21:27 06.07.2022
1171 Clear 25 1006 42 10000 7.41 306 19:35 06.07.2022
1172 Clear 29 1005 31 10000 9.11 300 18:21 06.07.2022
1173 Clear 31 1004 24 10000 9.26 292 16:19 06.07.2022
1174 Clear 32 1005 23 10000 9.5 292 14:46 06.07.2022
1175 Clear 32 1005 22 10000 8.49 298 12:40 06.07.2022
1176 Clear 32 1005 22 10000 8.26 304 11:49 06.07.2022
1177 Clear 29 1006 23 10000 7.5 304 10:18 06.07.2022
1178 Clear 25 1006 34 10000 6.43 300 07:46 06.07.2022
1179 Clear 23 1006 45 10000 5.85 300 07:23 06.07.2022
1180 Clear 21 1007 53 10000 4.23 299 03:24 06.07.2022
1181 Clear 23 1007 47 10000 5.01 293 22:45 05.07.2022
1182 Clear 24 1007 47 10000 5.1 299 21:53 05.07.2022
1183 Clear 25 1007 44 10000 5.95 303 20:39 05.07.2022
1184 Clear 26 1007 37 10000 7.04 305 19:43 05.07.2022
1185 Clear 27 1006 32 10000 8.58 304 19:22 05.07.2022
1186 Clear 29 1005 27 10000 9.56 304 17:47 05.07.2022
1187 Clear 31 1005 23 10000 9.42 299 16:54 05.07.2022
1188 Clear 32 1005 21 10000 9.63 297 15:31 05.07.2022
1189 Clear 33 1005 19 10000 8.56 291 14:28 05.07.2022
1190 Clear 33 1005 20 10000 8.06 289 12:43 05.07.2022
1191 Clear 32 1006 20 10000 8.12 289 11:33 05.07.2022
1192 Clear 32 1006 19 10000 7.69 291 10:40 05.07.2022
1193 Clear 29 1007 25 10000 7.49 302 09:22 05.07.2022
1194 Clear 27 1007 32 10000 6.84 304 07:47 05.07.2022
1195 Clear 21 1007 55 10000 4.14 302 04:51 05.07.2022
1196 Clear 21 1007 55 10000 4.12 305 04:23 05.07.2022
1197 Clear 23 1006 50 10000 5.24 301 00:26 05.07.2022
1198 Clear 23 1006 50 10000 5.24 301 23:31 04.07.2022
1199 Clear 24 1007 48 10000 5.78 296 22:27 04.07.2022
1200 Clear 24 1007 48 10000 5.78 296 21:41 04.07.2022
1201 Clear 25 1007 46 10000 6.5 300 20:53 04.07.2022
1202 Clear 25 1007 46 10000 6.5 300 20:34 04.07.2022
1203 Clear 26 1006 42 10000 8.1 308 19:55 04.07.2022
1204 Clear 26 1006 42 10000 8.53 310 19:35 04.07.2022
1205 Clear 31 1004 29 10000 9.59 303 17:58 04.07.2022
1206 Clear 34 1003 22 10000 8.78 290 15:58 04.07.2022
1207 Clear 34 1003 22 10000 8.78 290 15:33 04.07.2022
1208 Clear 35 1003 20 10000 4.65 285 13:29 04.07.2022
1209 Clear 35 1003 20 10000 4.65 285 12:30 04.07.2022
1210 Clear 32 1005 28 10000 3.89 299 10:34 04.07.2022
1211 Clear 30 1005 32 10000 4.42 305 09:52 04.07.2022
1212 Clear 26 1006 44 10000 5.69 308 07:37 04.07.2022
1213 Clear 21 1006 70 10000 4.98 318 04:48 04.07.2022
1214 Clear 23 1005 60 10000 4.58 312 00:39 04.07.2022
1215 Clear 24 1006 59 10000 5.08 301 22:59 03.07.2022
1216 Clear 25 1006 55 10000 6.27 309 20:58 03.07.2022
1217 Clear 25 1006 55 10000 6.27 309 20:31 03.07.2022
1218 Clear 28 1004 44 10000 8.7 303 19:28 03.07.2022
1219 Clear 28 1004 44 10000 8.7 303 18:43 03.07.2022
1220 Clear 30 1003 37 10000 9 298 17:44 03.07.2022
1221 Clear 32 1003 28 10000 9.54 293 15:54 03.07.2022
1222 Clear 33 1003 25 10000 8.64 292 14:59 03.07.2022
1223 Clear 33 1003 26 10000 8.18 297 14:20 03.07.2022
1224 Clear 33 1003 26 10000 8.13 298 13:48 03.07.2022
1225 Clear 33 1003 27 10000 7.62 307 12:33 03.07.2022
1226 Clear 31 1004 29 10000 7.47 310 11:29 03.07.2022
1227 Clear 31 1004 29 10000 7.47 310 10:39 03.07.2022
1228 Clear 30 1005 32 10000 7.34 309 09:55 03.07.2022
1229 Clear 26 1006 42 10000 6.97 308 07:35 03.07.2022
1230 Clear 21 1006 66 10000 4.57 309 04:22 03.07.2022
1231 Clear 22 1007 61 10000 4.76 303 00:22 03.07.2022
1232 Clear 23 1007 60 10000 5.05 300 22:34 02.07.2022
1233 Clear 23 1007 59 10000 5.14 297 21:38 02.07.2022
1234 Clear 25 1006 51 10000 7.34 308 19:52 02.07.2022
1235 Clear 27 1006 44 10000 8.3 305 19:23 02.07.2022
1236 Clear 29 1005 37 10000 9.03 303 17:51 02.07.2022
1237 Clear 29 1005 37 10000 9.03 303 17:33 02.07.2022
1238 Clear 32 1005 27 10000 9.79 294 15:28 02.07.2022
1239 Clear 32 1006 27 10000 8.27 314 12:22 02.07.2022
1240 Clear 31 1006 30 10000 8.19 314 11:27 02.07.2022
1241 Clear 31 1006 30 10000 8.19 314 10:46 02.07.2022
1242 Clear 29 1007 34 10000 7.87 311 09:37 02.07.2022
1243 Clear 27 1007 39 10000 7.28 309 08:36 02.07.2022
1244 Clear 25 1008 44 10000 6.51 308 08:18 02.07.2022
1245 Clear 20 1007 55 10000 4.88 315 02:52 02.07.2022
1246 Clear 22 1007 52 10000 6.32 321 00:27 02.07.2022
1247 Clear 22 1008 52 10000 5.87 323 22:59 01.07.2022
1248 Clear 23 1008 49 10000 5.91 322 22:19 01.07.2022
1249 Clear 23 1008 49 10000 5.91 322 21:37 01.07.2022
1250 Clear 24 1008 45 10000 6.46 319 20:57 01.07.2022
1251 Clear 26 1007 38 10000 6.87 312 19:47 01.07.2022
1252 Clear 27 1006 33 10000 7.46 303 18:42 01.07.2022
1253 Clear 31 1005 25 10000 9.01 295 16:35 01.07.2022
1254 Clear 32 1005 20 10000 8.04 288 14:21 01.07.2022
1255 Clear 33 1006 20 10000 7.97 287 13:22 01.07.2022
1256 Clear 31 1007 20 10000 6.74 290 10:46 01.07.2022
1257 Clear 30 1007 21 10000 6.69 295 10:18 01.07.2022
1258 Clear 22 1008 37 10000 3.33 307 06:20 01.07.2022
1259 Clear 22 1007 44 10000 3.71 315 01:57 01.07.2022
1260 Clear 22 1008 43 10000 5.17 323 23:33 30.06.2022
1261 Clear 23 1008 42 10000 5.33 333 22:47 30.06.2022
1262 Clear 24 1008 41 10000 5.8 331 22:27 30.06.2022
1263 Clear 24 1008 41 10000 5.8 331 21:51 30.06.2022
1264 Clear 25 1008 39 10000 6.28 324 20:41 30.06.2022
1265 Clear 26 1007 33 10000 7.23 319 20:18 30.06.2022
1266 Clear 26 1007 33 10000 7.33 319 19:47 30.06.2022
1267 Clear 28 1006 27 10000 7.21 312 18:49 30.06.2022
1268 Clear 30 1006 24 10000 8.29 303 17:49 30.06.2022
1269 Clear 32 1005 19 10000 7.83 295 16:56 30.06.2022
1270 Clear 33 1005 16 10000 7.49 288 15:56 30.06.2022
1271 Clear 34 1005 13 10000 7.12 283 13:58 30.06.2022
1272 Clear 34 1005 13 10000 5.79 288 13:19 30.06.2022
1273 Clear 34 1005 13 10000 5.79 288 12:33 30.06.2022
1274 Clear 31 1007 16 10000 4.17 290 10:49 30.06.2022
1275 Clear 30 1007 20 10000 3.91 289 09:47 30.06.2022
1276 Clear 28 1008 25 10000 4.01 297 08:31 30.06.2022
1277 Clear 26 1008 32 10000 4.38 304 07:41 30.06.2022
1278 Clear 22 1008 49 10000 3.96 315 05:45 30.06.2022
1279 Clear 22 1007 56 10000 5.51 312 23:39 29.06.2022
1280 Clear 23 1007 54 10000 5.95 318 22:42 29.06.2022
1281 Clear 23 1008 51 10000 6.51 323 22:19 29.06.2022
1282 Clear 24 1008 48 10000 6.95 325 20:54 29.06.2022
1283 Clear 24 1008 48 10000 6.95 325 20:32 29.06.2022
1284 Clear 25 1007 40 10000 7.87 323 19:31 29.06.2022
1285 Clear 30 1005 28 10000 8.67 303 17:39 29.06.2022
1286 Clear 32 1005 18 10000 7.31 292 16:31 29.06.2022
1287 Clear 34 1005 15 10000 6.93 293 13:58 29.06.2022
1288 Clear 34 1005 15 10000 5.88 292 12:38 29.06.2022
1289 Clear 30 1007 20 10000 4.58 304 10:20 29.06.2022
1290 Clear 30 1007 20 10000 4.58 304 09:31 29.06.2022
1291 Clear 24 1008 35 10000 4.36 317 07:23 29.06.2022
1292 Clear 21 1008 46 10000 3.51 317 04:48 29.06.2022
1293 Clear 23 1007 49 10000 5.09 316 00:55 29.06.2022
1294 Clear 23 1007 49 10000 5.09 316 00:35 29.06.2022
1295 Clear 24 1008 47 10000 5.31 330 22:53 28.06.2022
1296 Clear 25 1008 45 10000 5.68 331 22:21 28.06.2022
1297 Clear 25 1008 45 10000 5.68 331 21:50 28.06.2022
1298 Clear 25 1008 45 10000 5.68 331 21:30 28.06.2022
1299 Clear 26 1007 44 10000 8.01 320 20:20 28.06.2022
1300 Clear 26 1007 41 10000 7.85 323 19:32 28.06.2022
1301 Clear 26 1007 41 10000 7.85 323 19:32 28.06.2022
1302 Clear 28 1006 38 10000 8.27 315 18:42 28.06.2022
1303 Clear 31 1005 21 10000 6.9 300 17:38 28.06.2022
1304 Clear 33 1005 15 10000 6.9 272 15:56 28.06.2022
1305 Clear 33 1005 15 10000 6.9 272 15:56 28.06.2022
1306 Clear 33 1005 15 10000 7.04 266 14:59 28.06.2022
1307 Clear 34 1005 15 10000 6.73 263 14:20 28.06.2022
1308 Clear 34 1005 15 10000 6.73 263 13:49 28.06.2022
1309 Clear 33 1005 15 10000 5.25 272 12:54 28.06.2022
1310 Clear 30 1007 20 10000 3.85 284 10:57 28.06.2022
1311 Clear 27 1008 28 10000 2.8 284 09:25 28.06.2022
1312 Clear 27 1008 28 10000 2.8 284 08:43 28.06.2022
1313 Clear 23 1009 41 10000 1.8 297 07:26 28.06.2022
1314 Clear 22 1009 46 10000 1.58 305 05:58 28.06.2022
1315 Clear 23 1008 46 10000 2.77 311 00:00 28.06.2022
1316 Clear 23 1008 46 10000 2.77 311 23:36 27.06.2022
1317 Clear 23 1008 46 10000 2.87 326 22:51 27.06.2022
1318 Clear 24 1009 43 10000 3.61 331 21:33 27.06.2022
1319 Clear 25 1009 39 10000 4.73 321 20:48 27.06.2022
1320 Clear 27 1008 32 10000 6.75 301 18:58 27.06.2022
1321 Clear 29 1007 27 10000 7.63 287 18:19 27.06.2022
1322 Clear 31 1007 22 10000 6.76 284 16:19 27.06.2022
1323 Clear 32 1007 22 10000 7.11 287 14:45 27.06.2022
1324 Clear 32 1007 22 10000 7.54 288 13:35 27.06.2022
1325 Clear 31 1008 21 10000 7.54 287 12:52 27.06.2022
1326 Clear 28 1009 27 10000 6.39 295 10:23 27.06.2022
1327 Clear 27 1010 31 10000 6.13 296 09:18 27.06.2022
1328 Clear 24 1010 38 10000 5.59 294 08:19 27.06.2022
1329 Clear 22 1010 48 10000 4.74 295 06:38 27.06.2022
1330 Clear 20 1010 61 10000 3.65 306 03:24 27.06.2022
1331 Clear 21 1010 55 10000 4.79 298 23:56 26.06.2022
1332 Clear 23 1010 47 10000 5.95 304 21:59 26.06.2022
1333 Clear 23 1010 47 10000 6.19 302 20:44 26.06.2022
1334 Clear 24 1009 43 10000 7.17 302 19:40 26.06.2022
1335 Clear 25 1009 36 10000 8.41 302 18:31 26.06.2022
1336 Clear 29 1008 28 10000 10.63 297 16:45 26.06.2022
1337 Clear 31 1007 25 10000 9.46 292 14:42 26.06.2022
1338 Clear 31 1007 25 10000 8.64 292 13:41 26.06.2022
1339 Clear 31 1008 24 10000 7.8 293 13:20 26.06.2022
1340 Clear 29 1009 29 10000 6.15 298 11:26 26.06.2022
1341 Clear 27 1010 36 10000 5.78 302 10:28 26.06.2022
1342 Clear 27 1010 36 10000 5.78 302 09:34 26.06.2022
1343 Clear 23 1010 50 10000 5.96 305 07:45 26.06.2022
1344 Clear 19 1009 64 10000 5.47 317 02:28 26.06.2022
1345 Clear 20 1009 57 10000 5.1 305 00:21 26.06.2022
1346 Clear 20 1009 57 10000 5.1 305 23:50 25.06.2022
1347 Clear 21 1009 54 10000 5.24 301 23:23 25.06.2022
1348 Clear 21 1008 51 10000 5.46 300 22:27 25.06.2022
1349 Clear 21 1008 51 10000 5.46 300 21:46 25.06.2022
1350 Clear 22 1008 49 10000 6.18 293 21:20 25.06.2022
1351 Clear 22 1008 49 10000 6.18 293 20:30 25.06.2022
1352 Clear 23 1007 47 10000 7.82 295 19:54 25.06.2022
1353 Clear 26 1005 40 10000 11.28 299 18:19 25.06.2022
1354 Clear 28 1004 35 10000 12.41 292 17:25 25.06.2022
1355 Clear 30 1004 30 10000 12.32 285 15:42 25.06.2022
1356 Clear 32 1004 24 10000 12.24 275 13:48 25.06.2022
1357 Clear 32 1004 26 10000 10.15 268 12:38 25.06.2022
1358 Clear 31 1006 26 10000 8.79 269 10:58 25.06.2022
1359 Clear 29 1006 26 10000 8.34 275 09:22 25.06.2022
1360 Clear 29 1006 26 10000 8.34 275 08:46 25.06.2022
1361 Clear 29 1006 26 10000 8.34 275 08:46 25.06.2022
1362 Clear 28 1006 28 10000 7.36 274 08:19 25.06.2022
1363 Clear 22 1007 47 10000 2.79 306 05:26 25.06.2022
1364 Clear 24 1006 41 10000 4.7 316 00:44 25.06.2022
1365 Clear 24 1006 41 10000 4.7 316 00:44 25.06.2022
1366 Clear 25 1007 38 10000 5.05 318 23:18 24.06.2022
1367 Clear 26 1007 38 10000 5.37 318 21:57 24.06.2022
1368 Clear 26 1007 36 10000 6.02 317 21:21 24.06.2022
1369 Clear 28 1007 33 10000 6.54 314 20:20 24.06.2022
1370 Clear 28 1007 33 10000 6.54 314 20:20 24.06.2022
1371 Clear 29 1006 29 10000 7.62 309 19:22 24.06.2022
1372 Clear 29 1006 29 10000 7.62 309 18:50 24.06.2022
1373 Clear 29 1006 29 10000 7.62 309 18:30 24.06.2022
1374 Clear 31 1005 26 10000 8.87 300 17:46 24.06.2022
1375 Clear 34 1005 20 10000 8.56 296 15:56 24.06.2022
1376 Clear 34 1005 18 10000 8.55 305 14:29 24.06.2022
1377 Clear 35 1006 16 10000 7.9 297 13:55 24.06.2022
1378 Clear 33 1007 17 10000 5.38 291 12:26 24.06.2022
1379 Clear 33 1007 17 10000 5.38 291 11:40 24.06.2022
1380 Clear 30 1008 21 10000 4.55 300 10:22 24.06.2022
1381 Clear 30 1008 21 10000 4.55 300 09:41 24.06.2022
1382 Clear 29 1009 25 10000 4.26 299 08:52 24.06.2022
1383 Clear 25 1009 35 10000 3.57 309 07:20 24.06.2022
1384 Clear 25 1009 35 10000 3.57 309 06:42 24.06.2022
1385 Clear 23 1009 39 10000 2.76 320 06:18 24.06.2022
1386 Clear 23 1009 39 10000 4 322 02:44 24.06.2022
1387 Clear 24 1008 40 10000 5.84 319 22:58 23.06.2022
1388 Clear 24 1008 40 10000 5.84 319 22:40 23.06.2022
1389 Clear 26 1008 40 10000 7.13 309 20:58 23.06.2022
1390 Clear 26 1008 40 10000 7.13 309 20:35 23.06.2022
1391 Clear 27 1008 34 10000 7.05 310 19:34 23.06.2022
1392 Clear 30 1006 29 10000 9.72 310 17:52 23.06.2022
1393 Clear 32 1006 26 10000 10.29 304 17:23 23.06.2022
1394 Clear 33 1005 22 10000 9.25 301 15:50 23.06.2022
1395 Clear 34 1005 21 10000 7.18 296 15:24 23.06.2022
1396 Clear 34 1005 21 10000 5.04 289 13:40 23.06.2022
1397 Clear 31 1007 29 10000 4.45 299 11:27 23.06.2022
1398 Clear 31 1007 29 10000 4.45 299 10:37 23.06.2022
1399 Clear 27 1008 40 10000 4.66 306 09:18 23.06.2022
1400 Clear 19 1007 75 10000 4.75 311 03:39 23.06.2022
1401 Clear 21 1007 61 10000 5 310 00:26 23.06.2022
1402 Clear 21 1007 61 10000 5 310 23:41 22.06.2022
1403 Clear 21 1007 60 10000 4.87 306 22:48 22.06.2022
1404 Clear 21 1007 60 10000 4.87 306 22:48 22.06.2022
1405 Clear 22 1007 56 10000 5.67 299 21:22 22.06.2022
1406 Clear 22 1007 56 10000 5.67 299 20:45 22.06.2022
1407 Clear 23 1006 50 10000 6.55 299 19:58 22.06.2022
1408 Clear 25 1005 45 10000 7.85 298 18:50 22.06.2022
1409 Clear 27 1004 37 10000 10.41 294 17:29 22.06.2022
1410 Clear 27 1004 37 10000 10.41 294 16:37 22.06.2022
1411 Clear 29 1003 31 10000 10.85 292 15:27 22.06.2022
1412 Clear 29 1003 31 10000 10.85 292 14:31 22.06.2022
1413 Clear 30 1003 30 10000 10.58 289 13:44 22.06.2022
1414 Clear 29 1004 32 10000 10.16 287 13:23 22.06.2022
1415 Clear 28 1004 35 10000 10.11 289 11:50 22.06.2022
1416 Clear 27 1005 39 10000 9.96 290 10:58 22.06.2022
1417 Clear 25 1005 42 10000 9.4 288 10:20 22.06.2022
1418 Clear 24 1005 46 10000 8.99 288 08:48 22.06.2022
1419 Clear 19 1006 71 10000 7.44 284 05:59 22.06.2022
1420 Clear 17 1006 79 10000 7.01 286 01:50 22.06.2022
1421 Clear 18 1006 77 10000 7.31 284 00:39 22.06.2022
1422 Clear 18 1007 73 10000 7.23 288 22:37 21.06.2022
1423 Clear 20 1007 65 10000 8.04 291 20:40 21.06.2022
1424 Clear 22 1006 50 10000 9.7 291 18:53 21.06.2022
1425 Clear 24 1006 41 10000 10.86 290 17:42 21.06.2022
1426 Clear 26 1006 36 10000 11.55 290 16:34 21.06.2022
1427 Clear 29 1007 26 10000 10.37 293 11:56 21.06.2022
1428 Clear 27 1008 30 10000 9.84 299 10:27 21.06.2022
1429 Clear 25 1009 37 10000 9.68 301 08:51 21.06.2022
1430 Clear 22 1009 48 10000 9.34 302 07:35 21.06.2022
1431 Clear 17 1010 79 10000 7.49 315 04:40 21.06.2022
1432 Clear 20 1010 47 10000 6.93 317 23:45 20.06.2022
1433 Clear 22 1011 44 10000 6.85 321 22:21 20.06.2022
1434 Clear 22 1011 44 10000 6.85 321 21:32 20.06.2022
1435 Clear 24 1010 38 10000 7.33 324 20:25 20.06.2022
1436 Clear 27 1009 29 10000 7.38 317 19:23 20.06.2022
1437 Clear 29 1008 24 10000 8.15 306 18:25 20.06.2022
1438 Clear 29 1008 24 10000 8.15 306 17:44 20.06.2022
1439 Clear 33 1008 17 10000 9.11 296 16:24 20.06.2022
1440 Clear 34 1008 14 10000 8.41 296 14:41 20.06.2022
1441 Clear 34 1009 12 10000 7.51 309 11:47 20.06.2022
1442 Clear 30 1010 15 10000 6.74 311 09:55 20.06.2022
1443 Clear 28 1011 20 10000 6.93 313 08:46 20.06.2022
1444 Clear 25 1011 25 10000 7.05 315 07:36 20.06.2022
1445 Clear 19 1011 46 10000 5.32 312 04:56 20.06.2022
1446 Clear 21 1010 34 10000 6.17 320 01:32 20.06.2022
1447 Clear 23 1010 34 10000 6.44 321 23:49 19.06.2022
1448 Clear 24 1010 37 10000 6.89 329 22:25 19.06.2022
1449 Clear 24 1010 37 10000 6.89 329 21:42 19.06.2022
1450 Clear 25 1010 36 10000 6.33 331 20:55 19.06.2022
1451 Clear 26 1009 34 10000 7.41 332 20:25 19.06.2022
1452 Clear 26 1009 34 10000 7.41 332 19:45 19.06.2022
1453 Clear 28 1009 30 10000 6.99 327 18:33 19.06.2022
1454 Clear 31 1008 26 10000 7.09 317 17:48 19.06.2022
1455 Clear 32 1008 24 10000 8.05 305 17:21 19.06.2022
1456 Clear 32 1008 24 10000 8.05 305 16:34 19.06.2022
1457 Clear 34 1007 21 10000 8.52 300 15:37 19.06.2022
1458 Clear 35 1007 17 10000 7.85 301 14:51 19.06.2022
1459 Clear 35 1007 17 10000 7.54 305 13:54 19.06.2022
1460 Clear 35 1008 16 10000 7.88 307 12:56 19.06.2022
1461 Clear 33 1008 16 10000 7.8 308 10:54 19.06.2022
1462 Clear 31 1009 20 10000 7.69 307 09:40 19.06.2022
1463 Clear 29 1009 26 10000 7.73 307 08:47 19.06.2022
1464 Clear 26 1010 35 10000 7.99 310 07:51 19.06.2022
1465 Clear 22 1010 56 10000 6.26 328 05:36 19.06.2022
1466 Clear 23 1008 48 10000 7.56 312 01:29 19.06.2022
1467 Clear 24 1008 48 10000 7.06 310 00:24 19.06.2022
1468 Clear 24 1008 48 10000 7.06 310 23:36 18.06.2022
1469 Clear 24 1008 48 10000 6.85 310 22:36 18.06.2022
1470 Clear 26 1007 45 10000 8.22 329 20:56 18.06.2022
1471 Clear 26 1007 45 10000 8.22 329 20:38 18.06.2022
1472 Clear 27 1007 42 10000 8.67 332 19:38 18.06.2022
1473 Clear 29 1006 34 10000 8.06 325 18:45 18.06.2022
1474 Clear 32 1005 28 10000 8.18 308 17:35 18.06.2022
1475 Clear 34 1005 25 10000 8.28 296 16:47 18.06.2022
1476 Clear 35 1005 23 10000 8.45 291 15:33 18.06.2022
1477 Clear 36 1005 21 10000 8.46 292 14:45 18.06.2022
1478 Clear 36 1005 20 10000 6.49 305 13:23 18.06.2022
1479 Clear 36 1005 21 10000 6.76 315 11:45 18.06.2022
1480 Clear 35 1006 22 10000 6.19 318 10:55 18.06.2022
1481 Clear 31 1006 27 10000 6.63 308 09:27 18.06.2022
1482 Clear 31 1006 27 10000 6.63 308 08:30 18.06.2022
1483 Clear 27 1007 35 10000 6.71 324 07:20 18.06.2022
1484 Clear 24 1007 46 10000 5.98 306 03:47 18.06.2022
1485 Clear 26 1007 42 10000 6.15 312 01:26 18.06.2022
1486 Clear 26 1007 42 10000 6.15 312 01:26 18.06.2022
1487 Clear 26 1007 42 10000 6.15 312 00:48 18.06.2022
1488 Clear 27 1007 42 10000 5.88 308 23:59 17.06.2022
1489 Clear 27 1006 41 10000 6.42 308 23:24 17.06.2022
1490 Clear 28 1006 39 10000 7.61 300 21:33 17.06.2022
1491 Clear 31 1005 33 10000 8.22 332 20:26 17.06.2022
1492 Clear 32 1005 31 10000 9.06 331 18:52 17.06.2022
1493 Clear 35 1004 24 10000 9.15 326 17:46 17.06.2022
1494 Clear 38 1004 17 10000 7.12 307 16:43 17.06.2022
1495 Clear 39 1004 14 10000 4.16 289 16:19 17.06.2022
1496 Clear 39 1004 14 10000 4.16 289 15:37 17.06.2022
1497 Clear 39 1005 13 10000 2.24 226 14:21 17.06.2022
1498 Clear 39 1005 13 10000 2.24 226 13:51 17.06.2022
1499 Clear 39 1005 13 10000 2.33 216 13:31 17.06.2022
1500 Clear 38 1006 14 10000 2.32 220 11:59 17.06.2022
1501 Clear 38 1006 14 10000 2.32 220 11:39 17.06.2022
1502 Clear 37 1006 15 10000 1.2 256 11:21 17.06.2022
1503 Clear 33 1007 21 10000 3.58 332 08:38 17.06.2022
1504 Clear 30 1008 25 10000 4.61 329 07:53 17.06.2022
1505 Clear 28 1009 32 10000 5.62 326 06:35 17.06.2022
1506 Clear 25 1009 44 10000 5.74 319 03:25 17.06.2022
1507 Clear 27 1008 37 10000 4.74 312 01:27 17.06.2022
1508 Clear 27 1008 35 10000 4.66 321 23:34 16.06.2022
1509 Clear 28 1008 34 10000 5.06 331 22:40 16.06.2022
1510 Clear 28 1009 36 10000 6.4 344 21:21 16.06.2022
1511 Clear 28 1009 36 10000 6.4 344 20:50 16.06.2022
1512 Clear 29 1009 34 10000 7.58 340 20:21 16.06.2022
1513 Clear 31 1008 24 10000 6.86 329 18:51 16.06.2022
1514 Clear 35 1007 15 10000 4.49 309 17:54 16.06.2022
1515 Clear 36 1007 14 10000 4.17 294 17:27 16.06.2022
1516 Clear 36 1007 14 10000 3.84 288 16:24 16.06.2022
1517 Clear 36 1007 14 10000 3.24 282 15:21 16.06.2022
1518 Clear 36 1008 15 10000 2.91 282 14:27 16.06.2022
1519 Clear 36 1008 16 10000 1.58 255 12:56 16.06.2022
1520 Clear 36 1008 16 10000 1.58 255 12:34 16.06.2022
1521 Clear 34 1009 17 10000 0.85 218 11:49 16.06.2022
1522 Clear 33 1010 19 10000 0.51 139 10:42 16.06.2022
1523 Clear 31 1010 22 10000 0.59 70 09:43 16.06.2022
1524 Clear 29 1011 26 10000 0.61 44 09:20 16.06.2022
1525 Clear 26 1011 31 10000 1.08 354 07:57 16.06.2022
1526 Clear 26 1011 31 10000 1.08 354 07:57 16.06.2022
1527 Clear 24 1011 40 10000 2.51 321 06:51 16.06.2022
1528 Clear 21 1011 59 10000 3.84 322 04:28 16.06.2022
1529 Clear 21 1011 59 10000 4.86 318 01:53 16.06.2022
1530 Clear 21 1011 59 10000 4.86 318 01:34 16.06.2022
1531 Clear 22 1011 57 10000 4.96 318 00:36 16.06.2022
1532 Clear 23 1012 53 10000 5.18 327 23:23 15.06.2022
1533 Clear 24 1012 52 10000 5.72 336 22:28 15.06.2022
1534 Clear 24 1012 50 10000 6.44 337 21:21 15.06.2022
1535 Clear 24 1012 50 10000 6.44 337 20:38 15.06.2022
1536 Clear 25 1011 47 10000 7.12 334 20:19 15.06.2022
1537 Clear 27 1010 42 10000 8.11 327 18:51 15.06.2022
1538 Clear 30 1010 27 10000 6.57 310 17:55 15.06.2022
1539 Clear 31 1009 18 10000 6.3 294 16:40 15.06.2022
1540 Clear 32 1009 15 10000 6.81 285 15:35 15.06.2022
1541 Clear 33 1009 15 10000 5.74 285 13:43 15.06.2022
1542 Clear 32 1010 16 10000 4.67 289 12:53 15.06.2022
1543 Clear 30 1011 19 10000 4.03 292 11:52 15.06.2022
1544 Clear 27 1012 27 10000 3.81 296 10:24 15.06.2022
1545 Clear 27 1012 27 10000 3.81 296 09:39 15.06.2022
1546 Clear 25 1012 34 10000 3.6 296 08:30 15.06.2022
1547 Clear 21 1013 50 10000 2.89 310 06:34 15.06.2022
1548 Clear 18 1012 66 10000 2.12 312 03:59 15.06.2022
1549 Clear 19 1011 64 10000 3.98 323 01:54 15.06.2022
1550 Clear 20 1011 60 10000 4.42 323 00:50 15.06.2022
1551 Clear 21 1011 60 10000 5.52 324 23:39 14.06.2022
1552 Clear 21 1011 59 10000 6.26 327 23:19 14.06.2022
1553 Clear 22 1011 58 10000 6.8 326 22:21 14.06.2022
1554 Clear 22 1011 58 10000 6.8 326 21:36 14.06.2022
1555 Clear 23 1011 53 10000 7.62 323 20:54 14.06.2022
1556 Clear 24 1011 46 10000 7.76 316 20:28 14.06.2022
1557 Clear 26 1010 40 10000 8.44 305 18:56 14.06.2022
1558 Clear 28 1009 29 10000 7.3 283 17:54 14.06.2022
1559 Clear 29 1009 26 10000 7.15 275 16:43 14.06.2022
1560 Clear 30 1008 22 10000 7.18 273 15:50 14.06.2022
1561 Clear 31 1008 20 10000 6.91 275 15:24 14.06.2022
1562 Clear 31 1008 20 10000 6.91 275 14:33 14.06.2022
1563 Clear 31 1009 20 10000 6.4 282 13:42 14.06.2022
1564 Clear 30 1009 22 10000 5.19 283 12:44 14.06.2022
1565 Clear 29 1010 25 10000 4.03 283 11:32 14.06.2022
1566 Clear 27 1011 30 10000 3.56 284 10:47 14.06.2022
1567 Clear 25 1011 36 10000 3.25 283 10:20 14.06.2022
1568 Clear 24 1012 45 10000 3.16 285 08:48 14.06.2022
1569 Clear 22 1012 54 10000 3.17 292 07:34 14.06.2022
1570 Clear 17 1011 82 10000 3.34 313 05:28 14.06.2022
1571 Clear 18 1010 80 10000 3.29 308 02:58 14.06.2022
1572 Clear 19 1010 73 10000 3.94 320 00:53 14.06.2022
1573 Clear 19 1010 71 10000 4.3 320 23:41 13.06.2022
1574 Clear 21 1010 66 10000 4.98 316 22:26 13.06.2022
1575 Clear 21 1010 66 10000 4.98 316 21:52 13.06.2022
1576 Clear 21 1010 61 10000 5.92 312 20:42 13.06.2022
1577 Clear 22 1009 56 10000 7.08 306 19:35 13.06.2022
1578 Clear 24 1008 49 10000 7.85 299 18:31 13.06.2022
1579 Clear 25 1008 43 10000 8.9 294 17:48 13.06.2022
1580 Clear 27 1007 37 10000 9.67 292 16:53 13.06.2022
1581 Clear 28 1006 34 10000 10.12 284 15:41 13.06.2022
1582 Clear 29 1007 32 10000 8.65 279 14:47 13.06.2022
1583 Clear 29 1007 32 10000 8.19 279 13:55 13.06.2022
1584 Clear 29 1007 33 10000 7.81 280 12:59 13.06.2022
1585 Clear 28 1008 36 10000 7.66 280 11:38 13.06.2022
1586 Clear 26 1009 42 10000 7.44 278 10:28 13.06.2022
1587 Clear 26 1009 42 10000 7.44 278 09:42 13.06.2022
1588 Clear 23 1009 53 10000 6.74 280 08:27 13.06.2022
1589 Clear 21 1009 62 10000 6.01 280 06:34 13.06.2022
1590 Clear 18 1008 81 10000 4.77 289 04:18 13.06.2022
1591 Clear 19 1007 74 10000 6.49 299 01:44 13.06.2022
1592 Clear 20 1007 70 10000 6.37 298 00:59 13.06.2022
1593 Clear 20 1007 66 10000 6.32 300 23:37 12.06.2022
1594 Clear 22 1008 57 10000 6.04 303 22:29 12.06.2022
1595 Clear 22 1008 57 10000 6.04 303 21:41 12.06.2022
1596 Clear 23 1007 50 10000 5.7 304 20:49 12.06.2022
1597 Clear 24 1007 46 10000 6.69 304 19:43 12.06.2022
1598 Clear 25 1006 43 10000 8.74 300 18:53 12.06.2022
1599 Clear 29 1005 30 10000 10.36 289 17:20 12.06.2022
1600 Clear 32 1004 26 10000 10.66 283 15:34 12.06.2022
1601 Clear 33 1004 22 10000 11.03 278 14:50 12.06.2022
1602 Clear 35 1004 19 10000 9.92 274 14:18 12.06.2022
1603 Clear 35 1004 19 10000 9.92 274 13:44 12.06.2022
1604 Clear 35 1005 15 10000 8.07 270 12:22 12.06.2022
1605 Clear 35 1006 14 10000 6.95 274 10:46 12.06.2022
1606 Clear 34 1006 14 10000 5.77 278 09:42 12.06.2022
1607 Clear 33 1007 15 10000 4.72 287 08:50 12.06.2022
1608 Clear 31 1007 16 10000 3.78 295 07:52 12.06.2022
1609 Clear 27 1007 21 10000 2.59 301 06:27 12.06.2022
1610 Clear 26 1007 23 10000 3.12 310 03:54 12.06.2022
1611 Clear 27 1007 23 10000 3.41 306 02:27 12.06.2022
1612 Clear 27 1007 23 10000 3.53 310 01:35 12.06.2022
1613 Clear 27 1008 23 10000 3.61 316 00:48 12.06.2022
1614 Clear 27 1008 23 10000 4.06 318 00:19 12.06.2022
1615 Clear 27 1009 24 10000 4.34 321 23:21 11.06.2022
1616 Clear 27 1009 24 10000 4.34 321 22:37 11.06.2022
1617 Clear 28 1009 23 10000 4.87 324 21:31 11.06.2022
1618 Clear 30 1009 21 10000 4.94 316 20:27 11.06.2022
1619 Clear 30 1009 21 10000 5.23 319 19:36 11.06.2022
1620 Clear 31 1008 19 10000 5.39 313 18:45 11.06.2022
1621 Clear 34 1007 16 10000 7.27 306 18:27 11.06.2022
1622 Clear 34 1007 16 10000 7.27 306 17:48 11.06.2022
1623 Clear 35 1007 14 10000 8.62 303 17:26 11.06.2022
1624 Clear 35 1007 14 10000 8.62 303 16:44 11.06.2022
1625 Clear 36 1007 12 10000 9.07 306 16:18 11.06.2022
1626 Clear 37 1007 10 10000 8.35 299 14:57 11.06.2022
1627 Clear 37 1007 10 10000 7.6 293 13:52 11.06.2022
1628 Clear 35 1009 10 10000 4.31 292 12:19 11.06.2022
1629 Clear 33 1010 12 10000 3.49 290 10:32 11.06.2022
1630 Clear 31 1010 13 10000 3.06 287 09:42 11.06.2022
1631 Clear 30 1011 15 10000 2.74 279 08:45 11.06.2022
1632 Clear 26 1012 19 10000 2.35 297 06:34 11.06.2022
1633 Clear 23 1012 23 10000 1.92 299 05:53 11.06.2022
1634 Clear 22 1011 27 10000 3.5 318 03:45 11.06.2022
1635 Clear 23 1010 27 10000 4.49 314 01:52 11.06.2022
1636 Clear 23 1011 28 10000 4.03 314 01:26 11.06.2022
1637 Clear 24 1011 27 10000 4.45 325 23:28 10.06.2022
1638 Clear 25 1012 26 10000 4.44 328 22:27 10.06.2022
1639 Clear 25 1012 26 10000 4.44 328 21:47 10.06.2022
1640 Clear 26 1012 24 10000 4.94 331 20:39 10.06.2022
1641 Clear 27 1011 22 10000 5.59 330 20:20 10.06.2022
1642 Clear 28 1011 21 10000 6.55 320 19:19 10.06.2022
1643 Clear 28 1011 21 10000 6.55 320 19:19 10.06.2022
1644 Clear 28 1011 21 10000 6.55 320 18:46 10.06.2022
1645 Clear 31 1010 17 10000 7.23 305 17:54 10.06.2022
1646 Clear 31 1010 17 10000 7.23 305 17:32 10.06.2022
1647 Clear 33 1009 14 10000 8.54 297 16:36 10.06.2022
1648 Clear 34 1009 12 10000 8.6 293 15:40 10.06.2022
1649 Clear 35 1009 12 10000 8.33 289 14:29 10.06.2022
1650 Clear 35 1010 11 10000 8.73 288 13:20 10.06.2022
1651 Clear 35 1010 10 10000 8.61 283 11:59 10.06.2022
1652 Clear 34 1010 11 10000 8.14 279 10:59 10.06.2022
1653 Clear 33 1011 15 10000 6.66 284 10:24 10.06.2022
1654 Clear 31 1012 21 10000 4.86 285 09:21 10.06.2022
1655 Clear 28 1012 25 10000 2.52 282 07:51 10.06.2022
1656 Clear 27 1012 28 10000 1.85 294 06:47 10.06.2022
1657 Clear 25 1012 32 10000 2.11 307 06:28 10.06.2022
1658 Clear 23 1012 36 10000 2.54 310 04:55 10.06.2022
1659 Clear 23 1011 35 10000 3.05 318 02:46 10.06.2022
1660 Clear 23 1011 36 10000 2.49 318 01:37 10.06.2022
1661 Clear 24 1011 36 10000 2.28 332 23:58 09.06.2022
1662 Clear 24 1011 35 10000 2.66 333 22:43 09.06.2022
1663 Clear 25 1012 34 10000 3.84 330 21:44 09.06.2022
1664 Clear 26 1012 34 10000 4.49 328 21:25 09.06.2022
1665 Clear 26 1012 34 10000 4.49 328 20:38 09.06.2022
1666 Clear 26 1011 31 10000 5.06 328 19:46 09.06.2022
1667 Clear 28 1010 28 10000 6.57 323 18:41 09.06.2022
1668 Clear 30 1010 22 10000 7.79 314 17:33 09.06.2022
1669 Clear 33 1009 17 10000 9.41 302 16:28 09.06.2022
1670 Clear 33 1009 17 10000 9.41 302 15:40 09.06.2022
1671 Clear 33 1009 17 10000 8.85 298 14:33 09.06.2022
1672 Clear 34 1009 17 10000 9.2 302 13:44 09.06.2022
1673 Clear 34 1009 15 10000 8.92 299 13:20 09.06.2022
1674 Clear 33 1009 15 10000 8.11 297 11:43 09.06.2022
1675 Clear 32 1010 16 10000 7.01 299 10:34 09.06.2022
1676 Clear 31 1011 18 10000 6.36 303 09:40 09.06.2022
1677 Clear 29 1011 21 10000 5.53 297 09:21 09.06.2022
1678 Clear 24 1012 33 10000 4.14 300 07:29 09.06.2022
1679 Clear 20 1012 43 10000 3.22 309 04:47 09.06.2022
1680 Clear 21 1011 39 10000 4.05 315 01:42 09.06.2022
1681 Clear 22 1011 41 10000 4.81 320 23:24 08.06.2022
1682 Clear 22 1011 41 10000 4.81 320 22:45 08.06.2022
1683 Clear 23 1011 42 10000 4.97 323 22:25 08.06.2022
1684 Clear 23 1011 42 10000 4.97 323 21:45 08.06.2022
1685 Clear 24 1011 41 10000 5.28 321 20:33 08.06.2022
1686 Clear 25 1010 39 10000 7.19 319 19:47 08.06.2022
1687 Clear 27 1010 34 10000 7.8 307 18:49 08.06.2022
1688 Clear 29 1009 29 10000 8.85 292 17:48 08.06.2022
1689 Clear 31 1008 22 10000 8.13 280 16:30 08.06.2022
1690 Clear 33 1008 17 10000 7.93 280 14:49 08.06.2022
1691 Clear 33 1008 16 10000 7.21 280 12:55 08.06.2022
1692 Clear 33 1008 16 10000 7.21 280 12:55 08.06.2022
1693 Clear 32 1009 16 10000 6.13 281 11:50 08.06.2022
1694 Clear 31 1009 17 10000 5.3 283 11:22 08.06.2022
1695 Clear 30 1010 18 10000 4.84 286 09:46 08.06.2022
1696 Clear 28 1010 21 10000 4.63 287 09:19 08.06.2022
1697 Clear 26 1010 28 10000 4.65 287 07:30 08.06.2022
1698 Clear 20 1009 51 10000 1.66 300 05:20 08.06.2022
1699 Clear 21 1008 52 10000 3.18 312 02:28 08.06.2022
1700 Clear 22 1008 53 10000 4.02 320 23:42 07.06.2022
1701 Clear 23 1008 51 10000 4.07 323 23:24 07.06.2022
1702 Clear 23 1008 51 10000 4.07 323 22:39 07.06.2022
1703 Clear 24 1008 49 10000 3.83 323 21:52 07.06.2022
1704 Clear 25 1008 46 10000 4.33 324 21:27 07.06.2022
1705 Clear 25 1008 46 10000 4.33 324 20:46 07.06.2022
1706 Clear 26 1007 42 10000 5.17 314 20:23 07.06.2022
1707 Clear 27 1006 38 10000 6.93 304 18:51 07.06.2022
1708 Clear 29 1006 31 10000 6.97 295 17:55 07.06.2022
1709 Clear 31 1005 25 10000 6.74 286 16:56 07.06.2022
1710 Clear 31 1005 25 10000 6.74 286 16:33 07.06.2022
1711 Clouds 31 1006 22 10000 6.96 280 15:40 07.06.2022
1712 Clouds 32 1006 21 10000 7.2 281 15:22 07.06.2022
1713 Clouds 32 1006 21 10000 7.2 281 14:46 07.06.2022
1714 Clouds 32 1006 21 10000 6.99 280 13:50 07.06.2022
1715 Clouds 32 1006 22 10000 6.17 284 13:29 07.06.2022
1716 Clouds 32 1006 22 10000 6.17 284 12:39 07.06.2022
1717 Clouds 30 1007 25 10000 5.04 291 10:57 07.06.2022
1718 Clouds 29 1008 26 10000 5.1 294 09:58 07.06.2022
1719 Clouds 27 1008 29 10000 5.11 294 08:36 07.06.2022
1720 Clouds 22 1009 40 10000 4.47 303 07:22 07.06.2022
1721 Clear 21 1009 45 10000 4.04 312 05:48 07.06.2022
1722 Clear 20 1009 45 10000 3.93 321 02:48 07.06.2022
1723 Clouds 21 1009 44 10000 4.01 325 00:35 07.06.2022
1724 Clouds 22 1009 43 10000 4.26 321 23:34 06.06.2022
1725 Clouds 22 1009 41 10000 5.05 318 22:41 06.06.2022
1726 Clouds 23 1009 41 10000 6.15 319 21:41 06.06.2022
1727 Clouds 25 1008 37 10000 8.07 321 19:59 06.06.2022
1728 Clouds 26 1007 33 10000 8.06 316 19:21 06.06.2022
1729 Clouds 26 1007 33 10000 8.06 316 18:46 06.06.2022
1730 Clouds 29 1007 25 10000 8.14 302 17:51 06.06.2022
1731 Clouds 31 1007 16 10000 7.24 282 16:39 06.06.2022
1732 Clear 32 1007 13 10000 7.67 276 15:40 06.06.2022
1733 Clear 33 1007 11 10000 7.98 278 14:56 06.06.2022
1734 Clear 33 1007 11 10000 7.65 279 13:31 06.06.2022
1735 Clear 33 1007 11 10000 6.64 282 12:44 06.06.2022
1736 Clear 32 1008 13 10000 5.2 286 12:26 06.06.2022
1737 Clear 32 1008 13 10000 5.2 286 11:45 06.06.2022
1738 Clear 29 1010 16 10000 3.28 275 09:43 06.06.2022
1739 Clear 27 1010 18 10000 2.97 279 08:36 06.06.2022
1740 Clouds 26 1010 20 10000 3.25 313 07:41 06.06.2022
1741 Clouds 24 1011 22 10000 2.89 317 06:43 06.06.2022
1742 Clear 21 1010 27 10000 4.13 312 04:28 06.06.2022
1743 Clear 22 1010 26 10000 4.27 313 01:30 06.06.2022
1744 Clear 22 1009 26 10000 3.83 312 00:47 06.06.2022
1745 Clear 23 1010 26 10000 3.54 312 00:28 06.06.2022
1746 Clear 23 1010 26 10000 4.43 324 22:58 05.06.2022
1747 Clear 24 1010 27 10000 5.89 325 21:59 05.06.2022
1748 Clear 26 1010 24 10000 6.52 318 20:23 05.06.2022
1749 Clear 28 1009 21 10000 7.15 312 18:57 05.06.2022
1750 Clear 30 1008 17 10000 7.84 300 17:59 05.06.2022
1751 Clear 30 1008 17 10000 7.84 300 17:38 05.06.2022
1752 Clear 32 1008 13 10000 7.07 290 17:20 05.06.2022
1753 Clear 32 1008 13 10000 7.07 290 16:47 05.06.2022
1754 Clear 34 1008 11 10000 8.2 273 15:25 05.06.2022
1755 Clouds 34 1008 9 10000 8.1 275 14:21 05.06.2022
1756 Clear 34 1009 11 10000 5.9 288 11:58 05.06.2022
1757 Clear 32 1010 13 10000 5.92 295 10:45 05.06.2022
1758 Clear 30 1011 15 10000 5.27 296 10:24 05.06.2022
1759 Clear 30 1011 15 10000 5.27 296 09:34 05.06.2022
1760 Clouds 27 1012 19 10000 3.36 304 08:23 05.06.2022
1761 Clouds 23 1012 26 10000 4.36 323 06:25 05.06.2022
1762 Clouds 22 1011 28 10000 4.92 313 05:19 05.06.2022
1763 Clouds 23 1011 26 10000 5.2 310 02:48 05.06.2022
1764 Clouds 23 1011 27 10000 4.45 326 01:24 05.06.2022
1765 Clouds 24 1011 28 10000 4.35 327 23:36 04.06.2022
1766 Clouds 25 1011 32 10000 6.14 332 21:30 04.06.2022
1767 Clouds 27 1011 29 10000 7.14 332 19:46 04.06.2022
1768 Clear 33 1009 14 10000 6.77 284 17:28 04.06.2022
1769 Clear 34 1009 13 10000 7.3 284 16:22 04.06.2022
1770 Clear 34 1009 13 10000 7.3 284 15:51 04.06.2022
1771 Clear 35 1009 12 10000 6.47 281 14:22 04.06.2022
1772 Clear 33 1010 14 10000 5.33 288 11:45 04.06.2022
1773 Clear 32 1011 15 10000 5.23 292 10:56 04.06.2022
1774 Clear 30 1011 16 10000 5.27 298 10:20 04.06.2022
1775 Clear 30 1011 16 10000 5.27 298 09:41 04.06.2022
1776 Clear 29 1011 18 10000 5.66 300 08:40 04.06.2022
1777 Clear 24 1012 21 10000 6.05 314 07:27 04.06.2022
1778 Clear 21 1011 23 10000 5.42 318 04:33 04.06.2022
1779 Clear 21 1011 23 10000 5.42 318 04:33 04.06.2022
1780 Clear 21 1011 23 10000 5.42 318 04:33 04.06.2022
1781 Clear 21 1011 23 10000 5.42 318 04:33 04.06.2022
1782 Clear 23 1010 27 10000 6.69 323 00:48 04.06.2022
1783 Clear 23 1010 29 10000 7.01 318 23:31 03.06.2022
1784 Clear 24 1011 33 10000 7.54 325 22:28 03.06.2022
1785 Clear 25 1011 32 10000 7.43 332 20:52 03.06.2022
1786 Clear 26 1010 31 10000 7.99 333 20:27 03.06.2022
1787 Clear 31 1008 22 10000 7.23 310 17:39 03.06.2022
1788 Clear 33 1008 16 10000 6.43 289 16:37 03.06.2022
1789 Clear 34 1008 15 10000 6.1 286 14:53 03.06.2022
1790 Clear 34 1008 15 10000 5.15 294 12:56 03.06.2022
1791 Clear 32 1009 16 10000 5.63 300 10:54 03.06.2022
1792 Clear 30 1010 17 10000 5.79 305 09:38 03.06.2022
1793 Clear 29 1010 18 10000 5.99 307 08:32 03.06.2022
1794 Clear 24 1010 23 10000 5.7 308 07:26 03.06.2022
1795 Clear 24 1010 23 10000 5.7 308 06:32 03.06.2022
1796 Clear 21 1010 29 10000 4.4 316 05:19 03.06.2022
1797 Clear 22 1008 39 10000 6.92 320 00:25 03.06.2022
1798 Clear 23 1008 39 10000 6.96 323 22:41 02.06.2022
1799 Clear 23 1008 39 10000 6.96 323 22:41 02.06.2022
1800 Clear 24 1008 37 10000 6.91 322 21:38 02.06.2022
1801 Clear 26 1008 32 10000 5.72 314 20:22 02.06.2022
1802 Clear 26 1008 32 10000 5.72 314 19:46 02.06.2022
1803 Clear 28 1006 29 10000 6.29 316 19:28 02.06.2022
1804 Clear 31 1006 22 10000 6.56 306 17:32 02.06.2022
1805 Clear 33 1005 16 10000 6.61 281 16:27 02.06.2022
1806 Clear 34 1006 14 10000 7.67 284 14:19 02.06.2022
1807 Clear 34 1005 14 10000 7.62 290 13:29 02.06.2022
1808 Clear 34 1005 13 10000 7.48 295 11:36 02.06.2022
1809 Clear 31 1006 15 10000 6.88 307 10:20 02.06.2022
1810 Clear 29 1006 16 10000 6.25 309 09:28 02.06.2022
1811 Clear 27 1006 20 10000 6.65 307 08:27 02.06.2022
1812 Clear 24 1007 26 10000 7.06 308 07:25 02.06.2022
1813 Clear 21 1007 33 10000 6.5 323 04:52 02.06.2022
1814 Clear 21 1007 34 10000 6.61 318 02:38 02.06.2022
1815 Clear 23 1007 39 10000 6.66 310 23:50 01.06.2022
1816 Clear 24 1007 36 10000 7.16 325 22:32 01.06.2022
1817 Clear 24 1007 34 10000 8.21 332 21:37 01.06.2022
1818 Clear 24 1007 35 10000 9.34 329 20:59 01.06.2022
1819 Clear 24 1007 35 10000 9.34 329 20:37 01.06.2022
1820 Clear 26 1006 38 10000 9.38 333 19:28 01.06.2022
1821 Clear 31 1006 26 10000 8.97 328 17:46 01.06.2022
1822 Clear 34 1005 15 10000 8.41 321 16:40 01.06.2022
1823 Clear 36 1005 9 10000 3.18 269 15:18 01.06.2022
1824 Clear 36 1005 10 10000 2.62 274 13:54 01.06.2022
1825 Clear 34 1007 11 10000 2.66 295 12:28 01.06.2022
1826 Clear 31 1008 16 10000 4.12 310 10:25 01.06.2022
1827 Clear 29 1009 21 10000 4.81 309 09:24 01.06.2022
1828 Clear 24 1010 33 10000 5.59 322 07:25 01.06.2022
1829 Clear 24 1010 33 10000 5.59 322 06:40 01.06.2022
1830 Clear 23 1009 35 10000 7.06 327 01:29 01.06.2022
1831 Clear 23 1009 35 10000 7.62 322 23:41 31.05.2022
1832 Clear 24 1009 34 10000 7.15 319 22:37 31.05.2022
1833 Clear 24 1009 34 10000 7.08 326 21:46 31.05.2022
1834 Clear 25 1010 33 10000 6.57 329 20:52 31.05.2022
1835 Clear 25 1010 33 10000 6.57 329 20:31 31.05.2022
1836 Clear 28 1009 26 10000 7.57 324 18:54 31.05.2022
1837 Clear 31 1008 20 10000 7.68 319 17:51 31.05.2022
1838 Clear 31 1008 20 10000 7.68 319 17:31 31.05.2022
1839 Clear 35 1007 12 10000 8.07 294 15:42 31.05.2022
1840 Clear 36 1007 10 10000 7.54 293 14:34 31.05.2022
1841 Clear 36 1008 8 10000 5.45 299 12:22 31.05.2022
1842 Clear 36 1008 8 10000 5.45 299 11:42 31.05.2022
1843 Clear 33 1010 10 10000 5.11 298 09:50 31.05.2022
1844 Clear 28 1011 18 10000 6.34 319 07:41 31.05.2022
1845 Clear 28 1011 18 10000 6.34 319 07:41 31.05.2022
1846 Clear 23 1011 29 10000 4.47 312 05:24 31.05.2022
1847 Clear 24 1010 28 10000 5.39 310 02:33 31.05.2022
1848 Clear 26 1010 28 10000 5.71 321 23:29 30.05.2022
1849 Clear 26 1010 28 10000 5.71 321 22:59 30.05.2022
1850 Clear 26 1010 28 10000 5.71 321 22:31 30.05.2022
1851 Clear 27 1011 28 10000 6.06 325 21:35 30.05.2022
1852 Clear 28 1011 28 10000 6.26 324 20:31 30.05.2022
1853 Clear 28 1010 28 10000 6.61 321 19:38 30.05.2022
1854 Clear 32 1009 21 10000 9.21 318 17:44 30.05.2022
1855 Clear 34 1008 17 10000 9.95 303 17:18 30.05.2022
1856 Clear 36 1007 13 10000 9.99 297 15:44 30.05.2022
1857 Clear 38 1008 7 10000 3.61 285 12:58 30.05.2022
1858 Clear 37 1009 8 10000 2.63 284 11:30 30.05.2022
1859 Clear 34 1010 11 10000 0.97 327 09:41 30.05.2022
1860 Clear 28 1011 22 10000 3.95 322 07:29 30.05.2022
1861 Clear 25 1011 25 10000 3.71 309 05:52 30.05.2022
1862 Clear 25 1010 27 10000 4.49 321 03:22 30.05.2022
1863 Clear 26 1010 29 10000 5.51 313 23:58 29.05.2022
1864 Clear 27 1010 29 10000 6.49 319 22:40 29.05.2022
1865 Clear 27 1010 29 10000 6.94 324 21:44 29.05.2022
1866 Clear 29 1010 26 10000 7.69 332 20:21 29.05.2022
1867 Clear 30 1009 25 10000 7.94 325 19:28 29.05.2022
1868 Clear 33 1008 20 10000 8.49 311 17:56 29.05.2022
1869 Clear 37 1007 7 10000 0.91 219 16:20 29.05.2022
1870 Clear 37 1007 7 10000 0.91 219 15:41 29.05.2022
1871 Clear 37 1007 7 10000 1.58 185 14:54 29.05.2022
1872 Clear 37 1008 7 10000 3.61 162 12:33 29.05.2022
1873 Clear 36 1009 8 10000 5.26 127 11:19 29.05.2022
1874 Clear 35 1009 9 10000 5.19 112 10:29 29.05.2022
1875 Clouds 31 1010 16 10000 2.99 56 07:59 29.05.2022
1876 Clouds 24 1010 26 10000 3.96 336 04:58 29.05.2022
1877 Clouds 24 1010 26 10000 3.96 336 04:33 29.05.2022
1878 Clouds 26 1009 23 10000 3.96 315 01:28 29.05.2022
1879 Clouds 26 1009 23 10000 2.54 331 23:48 28.05.2022
1880 Clouds 27 1009 23 10000 3.99 350 23:19 28.05.2022
1881 Clouds 28 1009 23 10000 3.49 352 21:53 28.05.2022
1882 Clear 28 1009 23 10000 4.1 354 20:58 28.05.2022
1883 Clouds 30 1007 22 10000 7.41 343 19:20 28.05.2022
1884 Clouds 33 1006 16 10000 6.51 340 18:24 28.05.2022
1885 Clouds 33 1006 16 10000 6.51 340 17:33 28.05.2022
1886 Clouds 36 1006 10 10000 2.28 252 15:56 28.05.2022
1887 Clouds 36 1006 10 10000 2.28 252 15:38 28.05.2022
1888 Clouds 36 1006 9 10000 3.11 174 13:38 28.05.2022
1889 Clouds 35 1007 10 10000 3.79 185 12:43 28.05.2022
1890 Clouds 35 1008 10 10000 4.2 187 11:37 28.05.2022
1891 Clouds 34 1008 11 10000 3.01 178 10:39 28.05.2022
1892 Clouds 32 1009 13 10000 1.03 147 09:55 28.05.2022
1893 Clouds 31 1009 15 10000 0.23 12 08:33 28.05.2022
1894 Clouds 28 1010 18 10000 0.82 12 06:50 28.05.2022
1895 Clouds 25 1009 22 10000 1.22 327 05:18 28.05.2022
1896 Clouds 26 1008 22 10000 2.21 331 02:26 28.05.2022
1897 Clouds 27 1009 21 10000 2.99 7 23:58 27.05.2022
1898 Clouds 27 1009 22 10000 2.95 356 22:48 27.05.2022
1899 Clouds 28 1010 21 10000 3.32 351 21:29 27.05.2022
1900 Clouds 28 1010 21 10000 3.32 351 20:45 27.05.2022
1901 Clouds 29 1009 20 10000 3.1 340 20:21 27.05.2022
1902 Clouds 28 1009 21 10000 5.33 330 19:38 27.05.2022
1903 Clouds 29 1009 20 10000 7.56 335 19:20 27.05.2022
1904 Clouds 34 1007 11 10000 4.38 316 17:26 27.05.2022
1905 Clear 34 1007 9 10000 1.02 181 15:57 27.05.2022
1906 Clear 34 1008 9 10000 1.63 208 14:58 27.05.2022
1907 Clear 34 1008 10 10000 1.97 204 13:41 27.05.2022
1908 Clear 34 1010 10 10000 4.08 164 12:28 27.05.2022
1909 Clear 34 1010 10 10000 4.08 164 11:31 27.05.2022
1910 Clear 33 1011 11 10000 4.87 147 10:47 27.05.2022
1911 Clear 32 1011 12 10000 5.22 121 10:22 27.05.2022
1912 Clear 32 1011 12 10000 5.22 121 09:31 27.05.2022
1913 Clouds 29 1012 17 10000 6.63 97 07:41 27.05.2022
1914 Clouds 23 1013 25 10000 2.34 350 05:25 27.05.2022
1915 Clear 23 1012 27 10000 2.52 332 01:47 27.05.2022
1916 Clear 24 1012 25 10000 3.17 340 23:55 26.05.2022
1917 Clear 25 1012 26 10000 4.94 346 22:29 26.05.2022
1918 Clear 25 1012 26 10000 4.94 346 21:33 26.05.2022
1919 Clear 27 1012 24 10000 6.7 340 19:49 26.05.2022
1920 Clear 29 1011 18 10000 5.9 335 19:18 26.05.2022
1921 Clear 29 1011 18 10000 5.9 335 19:18 26.05.2022
1922 Clear 31 1011 13 10000 3.61 336 17:36 26.05.2022
1923 Clear 31 1011 13 10000 3.61 336 17:36 26.05.2022
1924 Clear 32 1011 11 10000 1.26 345 16:35 26.05.2022
1925 Clear 33 1011 11 10000 1.31 291 15:41 26.05.2022
1926 Clear 32 1012 11 10000 2.11 224 14:21 26.05.2022
1927 Clear 32 1013 12 10000 2.32 175 12:35 26.05.2022
1928 Clear 30 1014 14 10000 4.59 133 11:21 26.05.2022
1929 Clear 29 1014 15 10000 5.57 120 09:40 26.05.2022
1930 Clear 28 1015 17 10000 6.3 110 08:57 26.05.2022
1931 Clear 27 1015 19 10000 6.77 101 07:51 26.05.2022
1932 Clear 20 1015 33 10000 1.62 54 03:35 26.05.2022
1933 Clear 22 1014 33 10000 4.05 336 00:21 26.05.2022
1934 Clear 22 1014 33 10000 4.05 336 23:39 25.05.2022
1935 Clear 23 1015 35 10000 5.4 342 21:47 25.05.2022
1936 Clear 24 1015 36 10000 6.28 338 21:28 25.05.2022
1937 Clear 24 1015 36 10000 6.28 338 20:34 25.05.2022
1938 Clear 27 1013 26 10000 6.8 326 19:21 25.05.2022
1939 Clear 29 1012 18 10000 5.88 310 17:40 25.05.2022
1940 Clear 30 1011 15 10000 5.46 308 16:37 25.05.2022
1941 Clear 31 1012 13 10000 3.29 315 15:54 25.05.2022
1942 Clear 31 1012 13 10000 2.45 296 14:51 25.05.2022
1943 Clear 31 1012 13 10000 2.45 296 14:32 25.05.2022
1944 Clear 30 1012 13 10000 3.04 282 13:42 25.05.2022
1945 Clear 30 1013 15 10000 2.71 267 12:37 25.05.2022
1946 Clear 27 1014 19 10000 0.57 196 10:43 25.05.2022
1947 Clear 26 1015 22 10000 0.96 117 09:54 25.05.2022
1948 Clear 25 1015 25 10000 1.69 113 08:37 25.05.2022
1949 Clear 21 1015 33 10000 1.44 110 07:23 25.05.2022
1950 Clear 18 1014 43 10000 2.19 19 03:34 25.05.2022
1951 Clear 19 1013 45 10000 3.85 312 00:19 25.05.2022
1952 Clear 19 1013 45 10000 3.85 312 23:43 24.05.2022
1953 Clear 20 1014 47 10000 4.07 321 22:32 24.05.2022
1954 Clear 20 1014 47 10000 4.22 326 21:40 24.05.2022
1955 Clear 21 1013 45 10000 4.54 326 21:21 24.05.2022
1956 Clear 22 1013 41 10000 5.19 318 19:48 24.05.2022
1957 Clear 23 1012 35 10000 6.9 314 18:56 24.05.2022
1958 Clear 23 1012 35 10000 6.9 314 18:56 24.05.2022
1959 Clear 27 1010 26 10000 8.96 295 16:53 24.05.2022
1960 Clear 28 1010 24 10000 8.54 292 16:23 24.05.2022
1961 Clear 28 1010 22 10000 8.87 291 14:59 24.05.2022
1962 Clear 29 1010 20 10000 8.53 288 14:21 24.05.2022
1963 Clear 29 1010 21 10000 7.6 290 12:50 24.05.2022
1964 Clear 28 1011 21 10000 7.07 291 11:40 24.05.2022
1965 Clear 26 1012 25 10000 5.97 300 09:46 24.05.2022
1966 Clear 24 1012 28 10000 5.71 300 08:50 24.05.2022
1967 Clear 20 1012 39 10000 5.39 297 06:58 24.05.2022
1968 Clear 16 1012 47 10000 4.25 300 04:59 24.05.2022
1969 Clear 16 1011 46 10000 3.96 301 02:42 24.05.2022
1970 Clear 16 1011 45 10000 3.82 301 01:43 24.05.2022
1971 Clear 17 1012 42 10000 3.54 286 23:43 23.05.2022
1972 Clear 18 1012 40 10000 3.15 296 22:22 23.05.2022
1973 Clear 18 1012 40 10000 3.15 296 21:41 23.05.2022
1974 Clear 19 1011 37 10000 3.95 301 20:45 23.05.2022
1975 Clear 20 1011 36 10000 5.47 303 19:41 23.05.2022
1976 Clear 21 1010 33 10000 7.45 298 19:00 23.05.2022
1977 Clear 21 1010 33 10000 7.45 298 18:37 23.05.2022
1978 Clear 23 1009 30 10000 9.04 293 17:55 23.05.2022
1979 Clear 25 1009 27 10000 11.99 291 15:53 23.05.2022
1980 Clear 26 1009 24 10000 12.21 287 13:44 23.05.2022
1981 Clear 26 1009 24 10000 12.69 283 11:40 23.05.2022
1982 Clear 24 1009 29 10000 12.29 279 10:44 23.05.2022
1983 Clear 23 1010 37 10000 11.83 280 09:47 23.05.2022
1984 Clear 21 1010 46 10000 12.54 281 08:46 23.05.2022
1985 Clear 17 1010 64 10000 10.01 276 06:49 23.05.2022
1986 Clear 17 1010 64 10000 10.01 276 06:31 23.05.2022
1987 Clear 15 1010 77 10000 8.87 277 02:55 23.05.2022
1988 Clear 15 1010 68 10000 8.84 281 01:50 23.05.2022
1989 Clear 16 1010 57 10000 9.39 280 01:26 23.05.2022
1990 Clear 17 1010 48 10000 7.82 285 22:49 22.05.2022
1991 Clear 18 1011 41 10000 8.4 292 22:22 22.05.2022
1992 Clear 18 1011 41 10000 8.4 292 21:51 22.05.2022
1993 Clear 19 1011 37 10000 8.05 294 20:43 22.05.2022
1994 Clouds 19 1010 35 10000 8 297 20:21 22.05.2022
1995 Clouds 19 1010 31 10000 9.03 301 19:19 22.05.2022
1996 Clouds 19 1010 31 10000 9.03 301 18:46 22.05.2022
1997 Clouds 21 1010 27 10000 10.8 296 18:21 22.05.2022
1998 Clouds 22 1009 27 10000 11.77 290 16:57 22.05.2022
1999 Clouds 24 1009 25 10000 11.83 288 15:34 22.05.2022
2000 Clouds 26 1009 26 10000 11.61 285 14:47 22.05.2022
2001 Clouds 26 1009 28 10000 9.67 284 12:55 22.05.2022
2002 Clouds 26 1009 28 10000 9.67 284 12:33 22.05.2022
2003 Clouds 25 1010 39 10000 9.33 288 10:55 22.05.2022
2004 Clouds 24 1010 45 10000 8.66 293 09:38 22.05.2022
2005 Clouds 22 1010 52 10000 8.62 306 07:52 22.05.2022
2006 Clouds 21 1010 54 10000 8.56 311 07:20 22.05.2022
2007 Clouds 21 1010 47 10000 8.47 297 04:49 22.05.2022
2008 Clouds 25 1009 28 10000 1.99 318 01:20 22.05.2022
2009 Clouds 26 1009 24 10000 0.93 17 00:26 22.05.2022
2010 Clouds 26 1009 24 10000 0.93 17 23:47 21.05.2022
2011 Clouds 28 1010 18 10000 0.79 354 22:24 21.05.2022
2012 Clouds 28 1010 18 10000 0.79 354 21:39 21.05.2022
2013 Clouds 29 1009 18 10000 1.78 62 20:48 21.05.2022
2014 Clouds 30 1009 16 10000 3.13 43 20:19 21.05.2022
2015 Clouds 31 1008 14 10000 2.67 62 19:24 21.05.2022
2016 Clouds 32 1008 13 10000 3.96 63 17:38 21.05.2022
2017 Clouds 34 1008 12 10000 3.87 97 15:38 21.05.2022
2018 Clouds 34 1009 12 10000 5.17 139 14:37 21.05.2022
2019 Clouds 34 1010 12 10000 6.37 146 13:41 21.05.2022
2020 Clouds 33 1010 13 10000 7.41 137 12:41 21.05.2022
2021 Clouds 32 1011 14 10000 7.62 128 11:56 21.05.2022
2022 Clouds 29 1013 15 10000 9.47 109 10:22 21.05.2022
2023 Clouds 29 1013 15 10000 9.47 109 09:38 21.05.2022
2024 Clouds 28 1013 16 10000 10.23 98 08:52 21.05.2022
2025 Clouds 22 1014 22 10000 9.03 74 06:28 21.05.2022
2026 Clouds 22 1013 26 10000 8 68 03:48 21.05.2022
2027 Clouds 24 1012 21 10000 6.97 51 23:50 20.05.2022
2028 Clouds 25 1012 18 10000 3.3 25 22:42 20.05.2022
2029 Clouds 25 1012 18 10000 3.3 25 22:42 20.05.2022
2030 Clouds 25 1013 19 10000 3.35 359 22:23 20.05.2022
2031 Clouds 25 1013 19 10000 3.35 359 21:40 20.05.2022
2032 Clouds 27 1012 13 10000 3.91 336 20:54 20.05.2022
2033 Clouds 27 1011 11 10000 2.4 323 19:58 20.05.2022
2034 Clouds 28 1011 10 10000 2.16 280 19:26 20.05.2022
2035 Clouds 28 1011 10 10000 2.16 280 18:36 20.05.2022
2036 Clouds 31 1011 8 10000 2.72 228 16:53 20.05.2022
2037 Clouds 32 1011 7 10000 2.7 216 16:19 20.05.2022
2038 Clouds 32 1011 7 10000 2.7 216 15:44 20.05.2022
2039 Clouds 32 1011 8 10000 2.7 209 14:30 20.05.2022
2040 Clouds 32 1011 8 10000 2.23 197 13:55 20.05.2022
2041 Clouds 30 1013 10 10000 2.18 129 11:33 20.05.2022
2042 Clouds 28 1014 13 10000 2.71 102 09:51 20.05.2022
2043 Clouds 26 1015 15 10000 3.16 104 08:44 20.05.2022
2044 Clouds 22 1015 23 10000 1.55 30 06:50 20.05.2022
2045 Clouds 22 1015 23 10000 1.55 30 06:31 20.05.2022
2046 Clouds 18 1015 33 10000 2.69 317 04:31 20.05.2022
2047 Clouds 19 1014 35 10000 3.8 326 00:43 20.05.2022
2048 Clear 20 1014 37 10000 3.64 314 22:47 19.05.2022
2049 Clear 21 1014 37 10000 4.4 323 22:19 19.05.2022
2050 Clear 21 1014 37 10000 4.4 323 21:42 19.05.2022
2051 Clear 22 1014 35 10000 4.93 326 21:22 19.05.2022
2052 Clear 22 1014 35 10000 4.93 326 20:32 19.05.2022
2053 Clear 22 1013 32 10000 5.54 324 19:50 19.05.2022
2054 Clear 26 1012 21 10000 7.85 318 18:22 19.05.2022
2055 Clear 28 1012 18 10000 8.84 309 16:35 19.05.2022
2056 Clear 30 1011 13 10000 8.6 296 15:19 19.05.2022
2057 Clear 31 1012 10 10000 8.05 289 14:25 19.05.2022
2058 Clear 31 1012 10 10000 6.45 290 13:23 19.05.2022
2059 Clear 29 1013 13 10000 5.33 298 11:29 19.05.2022
2060 Clear 25 1014 21 10000 4.86 305 09:29 19.05.2022
2061 Clear 23 1015 26 10000 4.17 314 07:52 19.05.2022
2062 Clear 19 1015 39 10000 3.19 312 06:18 19.05.2022
2063 Clear 19 1015 39 10000 3.19 312 06:18 19.05.2022
2064 Clear 19 1014 42 10000 4.32 331 02:27 19.05.2022
2065 Clear 19 1013 41 10000 4.52 322 00:40 19.05.2022
2066 Clear 20 1013 41 10000 4.17 318 22:50 18.05.2022
2067 Clear 21 1014 39 10000 4.37 318 22:24 18.05.2022
2068 Clear 21 1014 39 10000 4.37 318 21:30 18.05.2022
2069 Clear 22 1014 36 10000 5.43 327 20:50 18.05.2022
2070 Clear 23 1013 33 10000 6.43 328 20:18 18.05.2022
2071 Clear 23 1013 33 10000 6.43 328 20:18 18.05.2022
2072 Clear 24 1012 29 10000 7.18 325 18:33 18.05.2022
2073 Clear 27 1011 22 10000 6.87 310 17:41 18.05.2022
2074 Clear 29 1011 16 10000 7.05 300 17:23 18.05.2022
2075 Clear 29 1011 16 10000 7.05 300 16:34 18.05.2022
2076 Clear 30 1011 13 10000 7.23 298 15:42 18.05.2022
2077 Clear 30 1011 12 10000 6.55 297 14:48 18.05.2022
2078 Clear 31 1011 12 10000 5.68 299 13:44 18.05.2022
2079 Clear 30 1012 12 10000 4.8 302 12:49 18.05.2022
2080 Clear 29 1012 13 10000 4.54 304 11:37 18.05.2022
2081 Clear 28 1013 16 10000 4.48 307 11:19 18.05.2022
2082 Clear 26 1014 20 10000 4.24 314 09:56 18.05.2022
2083 Clear 22 1014 29 10000 3.38 316 07:54 18.05.2022
2084 Clear 20 1015 36 10000 3.55 321 06:49 18.05.2022
2085 Clear 17 1014 47 10000 4.05 321 02:23 18.05.2022
2086 Clear 18 1014 46 10000 5.2 306 00:26 18.05.2022
2087 Clear 19 1014 45 10000 5.38 309 22:47 17.05.2022
2088 Clear 20 1014 44 10000 6.16 319 21:20 17.05.2022
2089 Clear 21 1014 42 10000 6.62 322 20:29 17.05.2022
2090 Clear 22 1013 37 10000 7.6 320 19:28 17.05.2022
2091 Clear 25 1012 30 10000 8.53 316 17:53 17.05.2022
2092 Clear 27 1011 24 10000 9.23 309 17:22 17.05.2022
2093 Clear 27 1011 24 10000 9.23 309 16:34 17.05.2022
2094 Clear 29 1011 19 10000 8.31 303 15:43 17.05.2022
2095 Clear 29 1011 17 10000 8.33 306 14:31 17.05.2022
2096 Clouds 30 1012 15 10000 7.56 304 13:54 17.05.2022
2097 Clouds 30 1012 15 10000 6.66 305 12:32 17.05.2022
2098 Clouds 26 1014 23 10000 6.2 312 09:53 17.05.2022
2099 Clouds 24 1015 29 10000 6.58 314 08:44 17.05.2022
2100 Clouds 19 1016 46 10000 6.15 319 07:18 17.05.2022
2101 Clouds 17 1015 55 10000 5.73 324 04:33 17.05.2022
2102 Clouds 19 1015 45 10000 5.66 323 00:47 17.05.2022
2103 Clouds 20 1016 43 10000 5.67 314 22:45 16.05.2022
2104 Clouds 20 1016 43 10000 4.09 329 22:18 16.05.2022
2105 Clouds 20 1017 43 10000 6.32 322 20:50 16.05.2022
2106 Clouds 21 1016 42 10000 6.52 321 20:24 16.05.2022
2107 Clouds 22 1016 39 10000 7.16 308 18:39 16.05.2022
2108 Clouds 25 1015 31 10000 9.61 305 16:37 16.05.2022
2109 Clouds 27 1014 25 10000 8.95 312 14:47 16.05.2022
2110 Clouds 27 1015 23 10000 8.47 316 13:27 16.05.2022
2111 Clouds 27 1015 23 10000 8.73 314 11:42 16.05.2022
2112 Clouds 26 1016 25 10000 8.42 312 10:30 16.05.2022
2113 Clouds 19 1018 41 10000 6.56 305 07:45 16.05.2022
2114 Clear 15 1018 59 10000 4.29 308 05:40 16.05.2022
2115 Clear 16 1017 51 10000 5.83 298 00:35 16.05.2022
2116 Clear 17 1017 46 10000 6.87 303 22:39 15.05.2022
2117 Clear 17 1017 44 10000 7.52 302 21:54 15.05.2022
2118 Clear 17 1017 44 10000 7.52 302 21:34 15.05.2022
2119 Clear 18 1017 42 10000 8.56 304 20:35 15.05.2022
2120 Clear 21 1015 36 10000 9.34 302 18:37 15.05.2022
2121 Clear 24 1013 32 10000 11.14 300 16:52 15.05.2022
2122 Clouds 29 1012 30 10000 11.57 285 14:26 15.05.2022
2123 Clouds 29 1012 30 10000 11.57 285 13:44 15.05.2022
2124 Clouds 29 1012 30 10000 8.88 281 11:55 15.05.2022
2125 Clouds 28 1012 31 10000 8.1 278 10:47 15.05.2022
2126 Clouds 28 1012 28 10000 8.01 274 09:46 15.05.2022
2127 Clouds 27 1011 17 10000 7.83 106 07:22 15.05.2022
2128 Clouds 27 1011 17 10000 7.83 106 06:42 15.05.2022
2129 Clouds 27 1010 17 10000 6.41 100 02:54 15.05.2022
2130 Clouds 29 1011 16 10000 6.27 119 00:24 15.05.2022
2131 Clouds 29 1011 16 10000 6.27 119 23:36 14.05.2022
2132 Clouds 30 1011 17 10000 7.02 93 21:50 14.05.2022
2133 Clouds 30 1012 18 10000 5.64 86 21:26 14.05.2022
2134 Clouds 31 1011 17 10000 4.64 109 20:26 14.05.2022
2135 Clouds 32 1010 13 10000 3.11 94 19:20 14.05.2022
2136 Clouds 32 1010 13 10000 3.11 94 18:57 14.05.2022
2137 Clouds 33 1009 13 10000 3.33 115 17:47 14.05.2022
2138 Clouds 36 1009 10 10000 8.17 123 15:58 14.05.2022
2139 Clouds 36 1009 10 10000 8.12 126 14:39 14.05.2022
2140 Clouds 36 1011 11 10000 8.03 132 14:18 14.05.2022
2141 Clouds 35 1012 11 10000 7.41 145 11:46 14.05.2022
2142 Clouds 33 1013 12 10000 8.33 135 10:45 14.05.2022
2143 Clouds 32 1014 13 10000 7.3 133 10:19 14.05.2022
2144 Clear 29 1015 15 10000 6.5 135 09:25 14.05.2022
2145 Clear 27 1015 18 10000 6.05 120 07:34 14.05.2022
2146 Clear 22 1015 23 10000 4.01 116 04:49 14.05.2022
2147 Clear 22 1016 22 10000 2.06 84 01:42 14.05.2022
2148 Clear 24 1017 23 10000 1.81 359 23:28 13.05.2022
2149 Clear 24 1017 23 10000 1.81 359 22:56 13.05.2022
2150 Clear 24 1017 22 10000 2.8 335 22:22 13.05.2022
2151 Clear 25 1017 21 10000 4.35 338 21:19 13.05.2022
2152 Clear 25 1017 21 10000 4.35 338 20:43 13.05.2022
2153 Clouds 25 1017 19 10000 4.4 338 20:22 13.05.2022
2154 Clouds 27 1015 17 10000 4.57 336 19:19 13.05.2022
2155 Clouds 29 1015 14 10000 5.09 328 17:50 13.05.2022
2156 Clear 31 1014 13 10000 5.62 315 17:24 13.05.2022
2157 Clear 31 1014 12 10000 4.21 320 15:53 13.05.2022
2158 Clear 31 1014 12 10000 4.32 320 14:47 13.05.2022
2159 Clear 30 1016 12 10000 5.12 317 12:55 13.05.2022
2160 Clear 28 1017 12 10000 3.22 288 12:25 13.05.2022
2161 Clear 27 1018 12 10000 2.1 259 10:35 13.05.2022
2162 Clear 23 1018 16 10000 0.72 180 09:29 13.05.2022
2163 Clear 21 1019 19 10000 0.53 225 08:20 13.05.2022
2164 Clear 21 1019 19 10000 1.7 297 07:31 13.05.2022
2165 Clear 17 1019 30 10000 2.62 310 05:58 13.05.2022
2166 Clear 17 1018 37 10000 3.36 321 01:49 13.05.2022
2167 Clear 17 1019 40 10000 4.43 324 23:44 12.05.2022
2168 Clear 18 1019 40 10000 4.64 337 22:43 12.05.2022
2169 Clear 18 1019 39 10000 4.57 329 21:46 12.05.2022
2170 Clear 20 1018 34 10000 5.06 335 20:23 12.05.2022
2171 Clouds 21 1018 30 10000 6.02 322 18:31 12.05.2022
2172 Clouds 25 1017 20 10000 8.47 296 16:57 12.05.2022
2173 Clear 26 1016 18 10000 7.42 297 15:49 12.05.2022
2174 Clear 26 1017 14 10000 7.48 288 14:20 12.05.2022
2175 Clear 26 1017 14 10000 5.46 294 13:24 12.05.2022
2176 Clear 23 1019 21 10000 5.02 296 10:41 12.05.2022
2177 Clear 21 1020 28 10000 4.73 290 09:19 12.05.2022
2178 Clear 21 1020 28 10000 4.73 290 08:41 12.05.2022
2179 Clear 19 1020 37 10000 3.8 306 07:37 12.05.2022
2180 Clear 16 1019 46 10000 3.29 308 05:35 12.05.2022
2181 Clear 16 1018 42 10000 4.84 310 02:49 12.05.2022
2182 Clouds 17 1017 44 10000 4.15 299 00:33 12.05.2022
2183 Clouds 18 1018 43 10000 3.81 303 22:33 11.05.2022
2184 Clouds 19 1017 41 10000 4.15 308 21:33 11.05.2022
2185 Clouds 20 1017 39 10000 4.56 313 20:55 11.05.2022
2186 Clouds 23 1015 25 10000 7.17 307 18:27 11.05.2022
2187 Clouds 24 1015 22 10000 8.75 301 16:51 11.05.2022
2188 Clouds 24 1015 22 10000 8.75 301 16:51 11.05.2022
2189 Clouds 25 1015 19 10000 7.93 293 14:58 11.05.2022
2190 Clouds 25 1015 19 10000 7.93 293 14:38 11.05.2022
2191 Clouds 26 1015 16 10000 8.17 288 14:18 11.05.2022
2192 Clouds 25 1015 14 10000 6.9 283 11:52 11.05.2022
2193 Clouds 25 1016 16 10000 5.53 283 10:32 11.05.2022
2194 Clouds 22 1017 25 10000 3.77 304 08:40 11.05.2022
2195 Clouds 15 1016 42 10000 2.79 314 05:27 11.05.2022
2196 Clear 17 1015 43 10000 3.69 309 00:43 11.05.2022
2197 Clear 18 1015 43 10000 3.91 308 22:31 10.05.2022
2198 Clear 18 1015 42 10000 4.25 310 21:56 10.05.2022
2199 Clear 19 1015 41 10000 5.1 317 20:57 10.05.2022
2200 Clear 20 1014 38 10000 6.3 319 19:37 10.05.2022
2201 Clear 23 1013 28 10000 7.76 310 17:58 10.05.2022
2202 Clear 24 1013 24 10000 8.33 304 17:21 10.05.2022
2203 Clear 26 1012 20 10000 8.3 299 15:28 10.05.2022
2204 Clear 26 1013 17 10000 8.39 306 12:45 10.05.2022
2205 Clear 26 1013 15 10000 8.19 310 11:51 10.05.2022
2206 Clear 26 1013 15 10000 7.5 314 11:20 10.05.2022
2207 Clear 25 1013 16 10000 6.63 312 10:26 10.05.2022
2208 Clear 23 1013 19 10000 6.11 310 09:26 10.05.2022
2209 Clear 20 1013 26 10000 5.01 310 07:22 10.05.2022
2210 Clear 18 1011 29 10000 3.84 324 03:57 10.05.2022
2211 Clear 20 1011 27 10000 4.41 324 00:57 10.05.2022
2212 Clear 22 1011 26 10000 3.7 317 22:57 09.05.2022
2213 Clear 22 1011 27 10000 4.46 317 21:51 09.05.2022
2214 Clear 23 1010 26 10000 5.84 323 20:54 09.05.2022
2215 Clear 25 1008 22 10000 7.17 337 19:29 09.05.2022
2216 Clear 27 1007 19 10000 7.1 324 17:52 09.05.2022
2217 Clear 30 1007 14 10000 5.3 288 16:38 09.05.2022
2218 Clear 30 1007 14 10000 3.01 279 15:52 09.05.2022
2219 Clouds 30 1008 15 10000 1.7 260 15:27 09.05.2022
2220 Clear 30 1009 15 10000 2.92 295 14:31 09.05.2022
2221 Clear 29 1010 15 10000 3.15 299 13:50 09.05.2022
2222 Clear 28 1012 14 10000 3.77 286 12:26 09.05.2022
2223 Clear 28 1012 14 10000 3.77 286 11:37 09.05.2022
2224 Clear 27 1012 15 10000 2.4 263 10:43 09.05.2022
2225 Clear 25 1013 15 10000 2.2 238 09:38 09.05.2022
2226 Clear 21 1014 20 10000 1.21 223 07:54 09.05.2022
2227 Clear 15 1014 44 10000 1.28 294 03:40 09.05.2022
2228 Clear 16 1015 45 10000 3.26 314 00:20 09.05.2022
2229 Clear 17 1015 45 10000 3.35 320 22:57 08.05.2022
2230 Clear 17 1016 43 10000 3.92 327 22:22 08.05.2022
2231 Clear 18 1016 40 10000 4.24 331 20:37 08.05.2022
2232 Clear 19 1015 36 10000 5.35 328 19:53 08.05.2022
2233 Clear 21 1014 29 10000 5.9 310 18:57 08.05.2022
2234 Clear 23 1013 23 10000 6.02 298 18:19 08.05.2022
2235 Clear 24 1013 19 10000 6.13 298 16:58 08.05.2022
2236 Clear 25 1013 17 10000 5.97 297 15:41 08.05.2022
2237 Clear 25 1013 15 10000 5.82 293 15:20 08.05.2022
2238 Clear 25 1013 15 10000 5.82 293 15:20 08.05.2022
2239 Clear 23 1014 18 10000 4.11 295 12:39 08.05.2022
2240 Clear 21 1016 23 10000 4.83 302 10:32 08.05.2022
2241 Clear 20 1016 25 10000 4.39 301 09:59 08.05.2022
2242 Clear 20 1016 25 10000 4.39 301 09:33 08.05.2022
2243 Clouds 17 1017 34 10000 4.11 309 07:33 08.05.2022
2244 Clear 12 1016 60 10000 4.06 313 04:20 08.05.2022
2245 Clear 13 1016 59 10000 4.18 321 03:19 08.05.2022
2246 Clear 14 1016 58 10000 5.3 319 00:28 08.05.2022
2247 Clear 14 1016 58 10000 5.3 319 23:53 07.05.2022
2248 Clear 14 1016 56 10000 5.76 318 22:57 07.05.2022
2249 Clear 14 1016 56 10000 5.76 318 22:33 07.05.2022
2250 Clear 15 1016 53 10000 6.58 313 21:43 07.05.2022
2251 Clear 16 1016 49 10000 6.61 314 20:55 07.05.2022
2252 Clear 16 1015 47 10000 7.25 312 19:58 07.05.2022
2253 Clear 19 1013 35 10000 8.4 299 17:51 07.05.2022
2254 Clear 21 1012 29 10000 8.32 281 15:53 07.05.2022
2255 Clouds 22 1012 29 10000 8.34 289 14:44 07.05.2022
2256 Clouds 20 1014 31 10000 7.46 288 10:59 07.05.2022
2257 Clouds 18 1014 37 10000 6.59 292 09:38 07.05.2022
2258 Clear 15 1015 54 10000 6.55 294 07:52 07.05.2022
2259 Clear 13 1015 66 10000 5.93 282 06:44 07.05.2022
2260 Clear 11 1014 77 10000 3.5 291 05:22 07.05.2022
2261 Clear 11 1013 75 10000 3.53 292 03:32 07.05.2022
2262 Clear 13 1013 60 10000 5.96 288 23:38 06.05.2022
2263 Clear 13 1013 57 10000 6.79 292 22:32 06.05.2022
2264 Clear 14 1013 54 10000 7.39 294 21:45 06.05.2022
2265 Clear 14 1013 51 10000 7.8 298 20:35 06.05.2022
2266 Clear 15 1013 45 10000 8.33 303 19:41 06.05.2022
2267 Clear 16 1011 38 10000 8.52 310 19:18 06.05.2022
2268 Clear 18 1010 38 10000 8.47 298 18:23 06.05.2022
2269 Clear 19 1010 36 10000 9.26 285 16:57 06.05.2022
2270 Clear 20 1010 32 10000 9.49 285 15:47 06.05.2022
2271 Clear 21 1010 31 10000 9.52 281 14:54 06.05.2022
2272 Clouds 19 1011 41 10000 9.68 279 13:26 06.05.2022
2273 Clouds 19 1011 41 10000 9.68 279 12:40 06.05.2022
2274 Clouds 19 1011 44 10000 9.08 271 11:45 06.05.2022
2275 Rain 18 1012 51 10000 8.36 263 10:30 06.05.2022
2276 Rain 17 1013 52 10000 8.53 273 09:46 06.05.2022
2277 Rain 16 1012 57 10000 7.64 288 08:43 06.05.2022
2278 Clouds 14 1012 65 10000 6.97 269 06:50 06.05.2022
2279 Clouds 13 1012 70 10000 6.18 274 05:37 06.05.2022
2280 Clouds 13 1012 70 10000 8.52 277 02:50 06.05.2022
2281 Clouds 13 1012 66 10000 8.63 277 01:31 06.05.2022
2282 Clear 12 1013 75 10000 7.26 285 22:32 05.05.2022
2283 Clear 14 1013 65 10000 7.02 285 21:22 05.05.2022
2284 Clear 15 1013 58 10000 7.39 283 19:55 05.05.2022
2285 Clear 15 1013 53 10000 8.22 281 18:34 05.05.2022
2286 Clear 19 1012 39 10000 11.62 278 16:35 05.05.2022
2287 Clear 21 1011 32 10000 11.78 275 14:51 05.05.2022
2288 Clear 21 1012 33 10000 10.01 269 13:24 05.05.2022
2289 Clear 21 1012 33 10000 10.01 269 12:49 05.05.2022
2290 Clear 19 1014 42 10000 9.53 272 10:52 05.05.2022
2291 Clear 18 1014 45 10000 9.85 273 09:40 05.05.2022
2292 Clear 16 1014 54 10000 9.97 279 07:36 05.05.2022
2293 Clouds 13 1014 76 10000 8.3 283 05:19 05.05.2022
2294 Clear 13 1013 79 10000 7.96 292 01:59 05.05.2022
2295 Clear 13 1013 76 10000 7.87 292 01:29 05.05.2022
2296 Clear 14 1013 75 10000 8.06 289 23:53 04.05.2022
2297 Clear 15 1013 72 10000 8.56 283 22:46 04.05.2022
2298 Clear 16 1013 71 10000 8.75 284 21:54 04.05.2022
2299 Clear 16 1013 72 10000 9.04 287 21:29 04.05.2022
2300 Clear 17 1012 68 10000 9.19 290 20:27 04.05.2022
2301 Clear 17 1012 68 10000 9.19 290 19:55 04.05.2022
2302 Clear 18 1011 63 10000 9.51 295 19:24 04.05.2022
2303 Clear 19 1010 55 10000 10.74 294 18:22 04.05.2022
2304 Clear 19 1010 55 10000 10.74 294 17:51 04.05.2022
2305 Clear 23 1009 40 10000 12.19 291 15:42 04.05.2022
2306 Clear 25 1009 36 10000 11.96 286 15:24 04.05.2022
2307 Clear 25 1009 36 10000 11.62 279 14:21 04.05.2022
2308 Clear 25 1009 36 10000 11.22 282 13:49 04.05.2022
2309 Clear 25 1010 36 10000 11.03 283 12:33 04.05.2022
2310 Clear 24 1010 40 10000 10.89 279 10:43 04.05.2022
2311 Clear 22 1010 42 10000 10.65 278 09:45 04.05.2022
2312 Clear 21 1011 47 10000 10.53 274 08:48 04.05.2022
2313 Clouds 20 1011 52 10000 10.12 271 07:33 04.05.2022
2314 Clouds 18 1009 45 10000 7.33 261 02:59 04.05.2022
2315 Clear 19 1009 38 10000 6.61 251 01:24 04.05.2022
2316 Clouds 21 1009 33 10000 5.48 256 22:50 03.05.2022
2317 Clouds 22 1009 31 10000 4.68 261 21:47 03.05.2022
2318 Clouds 23 1008 29 10000 4.73 275 21:20 03.05.2022
2319 Clouds 23 1008 29 10000 4.73 275 20:31 03.05.2022
2320 Clouds 25 1007 20 10000 5.12 296 18:55 03.05.2022
2321 Clouds 25 1007 20 10000 5.12 296 18:37 03.05.2022
2322 Clouds 28 1005 18 10000 10.78 281 17:19 03.05.2022
2323 Clouds 31 1004 14 10000 10.82 271 15:48 03.05.2022
2324 Clouds 34 1003 10 10000 10 253 14:22 03.05.2022
2325 Clouds 34 1004 10 10000 10.24 240 12:31 03.05.2022
2326 Clouds 31 1006 14 10000 7.82 159 11:23 03.05.2022
2327 Clouds 29 1008 18 10000 9.45 150 10:25 03.05.2022
2328 Clouds 25 1009 27 10000 7.17 136 08:18 03.05.2022
2329 Clouds 23 1009 29 10000 6.88 136 06:45 03.05.2022
2330 Clouds 22 1009 33 10000 2.24 171 01:56 03.05.2022
2331 Clouds 22 1011 35 10000 4.52 350 22:47 02.05.2022
2332 Clouds 22 1012 36 10000 6.94 343 22:28 02.05.2022
2333 Clouds 22 1012 36 10000 9.16 339 21:26 02.05.2022
2334 Clouds 27 1010 21 10000 6.46 322 19:22 02.05.2022
2335 Clouds 28 1009 15 10000 6.14 292 18:25 02.05.2022
2336 Clouds 28 1009 15 10000 6.14 292 17:38 02.05.2022
2337 Clouds 29 1008 13 10000 5.52 288 16:37 02.05.2022
2338 Clouds 30 1008 13 10000 6.01 294 15:41 02.05.2022
2339 Clear 30 1009 13 10000 3.97 297 14:27 02.05.2022
2340 Clear 29 1010 15 10000 4.1 295 13:19 02.05.2022
2341 Clear 27 1010 17 10000 3.48 295 11:41 02.05.2022
2342 Clear 23 1012 28 10000 3.5 300 09:32 02.05.2022
2343 Clouds 19 1013 46 10000 5.5 304 08:20 02.05.2022
2344 Clouds 17 1013 60 10000 5.55 314 06:31 02.05.2022
2345 Clear 15 1012 67 10000 5.2 315 00:44 02.05.2022
2346 Clear 16 1012 64 10000 5.17 324 00:21 02.05.2022
2347 Clear 17 1012 60 10000 4.92 325 22:53 01.05.2022
2348 Clear 17 1012 55 10000 4.86 316 21:42 01.05.2022
2349 Clear 18 1012 50 10000 4.94 303 20:30 01.05.2022
2350 Clear 20 1011 40 10000 7.34 285 19:21 01.05.2022
2351 Clear 20 1011 40 10000 7.34 285 18:52 01.05.2022
2352 Clear 21 1010 34 10000 8.39 279 17:49 01.05.2022
2353 Clear 23 1009 31 10000 9.7 282 16:37 01.05.2022
2354 Clear 24 1009 29 10000 11.43 282 15:51 01.05.2022
2355 Clear 25 1009 29 10000 10.59 280 14:45 01.05.2022
2356 Clear 25 1011 29 10000 9.24 281 12:24 01.05.2022
2357 Clear 22 1012 37 10000 7.86 291 10:22 01.05.2022
2358 Clear 20 1012 44 10000 7.41 294 08:50 01.05.2022
2359 Clear 17 1012 62 10000 6.9 301 06:50 01.05.2022
2360 Clear 16 1010 59 10000 7.52 282 01:56 01.05.2022
2361 Clear 19 1009 54 10000 7.61 301 22:18 30.04.2022
2362 Clear 19 1009 54 10000 7.61 301 21:32 30.04.2022
2363 Clear 21 1008 45 10000 9.92 286 19:54 30.04.2022
2364 Clear 23 1006 36 10000 10.76 281 19:25 30.04.2022
2365 Clear 25 1005 30 10000 11.04 277 17:31 30.04.2022
2366 Clear 30 1004 16 10000 13.5 270 15:52 30.04.2022
2367 Clear 32 1004 8 10000 12.66 265 15:18 30.04.2022
2368 Clear 33 1004 8 10000 11.46 261 13:59 30.04.2022
2369 Clear 33 1005 9 10000 9.78 253 11:58 30.04.2022
2370 Clear 33 1005 9 10000 9.78 253 11:31 30.04.2022
2371 Clear 33 1006 12 10000 6.05 221 10:23 30.04.2022
2372 Clear 27 1008 26 10000 7.98 141 07:47 30.04.2022
2373 Clear 21 1008 37 10000 5.77 110 04:58 30.04.2022
2374 Clouds 25 1008 24 10000 6.16 130 00:25 30.04.2022
2375 Clouds 26 1009 24 10000 5.71 141 22:56 29.04.2022
2376 Clouds 26 1010 23 10000 4.68 131 22:21 29.04.2022
2377 Clouds 27 1010 22 10000 3.74 136 21:26 29.04.2022
2378 Clear 27 1010 21 10000 4.34 130 20:24 29.04.2022
2379 Clear 28 1009 21 10000 4.83 123 19:28 29.04.2022
2380 Clear 29 1008 19 10000 6.8 112 17:37 29.04.2022
2381 Clear 31 1008 16 10000 6.8 117 16:43 29.04.2022
2382 Clear 32 1008 15 10000 5.74 123 14:38 29.04.2022
2383 Clear 32 1009 16 10000 5.46 128 13:51 29.04.2022
2384 Clear 32 1009 15 10000 5.45 154 12:38 29.04.2022
2385 Clear 30 1011 22 10000 5.76 155 10:44 29.04.2022
2386 Clear 24 1012 40 10000 4.6 138 07:58 29.04.2022
2387 Clear 22 1012 47 10000 4.74 122 07:26 29.04.2022
2388 Clear 22 1012 47 10000 4.74 122 06:33 29.04.2022
2389 Clear 20 1011 55 10000 1.69 134 02:50 29.04.2022
2390 Clear 22 1012 46 10000 2.59 110 00:18 29.04.2022
2391 Clear 22 1012 42 10000 2.95 98 23:26 28.04.2022
2392 Clear 22 1012 42 10000 2.95 98 22:37 28.04.2022
2393 Clear 22 1012 40 10000 3.31 80 21:44 28.04.2022
2394 Clouds 23 1012 36 10000 3.9 74 20:49 28.04.2022
2395 Clear 24 1011 28 10000 3.93 350 19:57 28.04.2022
2396 Clear 24 1011 28 10000 3.93 350 19:39 28.04.2022
2397 Clear 24 1009 28 10000 6.18 7 19:19 28.04.2022
2398 Clear 26 1008 26 10000 7.19 6 17:56 28.04.2022
2399 Clear 28 1007 19 10000 7.84 321 16:59 28.04.2022
2400 Clear 30 1006 18 10000 8.76 303 16:21 28.04.2022
2401 Clear 30 1006 18 10000 8.76 303 15:56 28.04.2022
2402 Clear 31 1006 16 10000 6.1 283 15:21 28.04.2022
2403 Clouds 32 1006 15 10000 4 235 13:43 28.04.2022
2404 Clouds 31 1007 16 10000 3.87 201 12:34 28.04.2022
2405 Clouds 31 1008 17 10000 4.52 172 11:51 28.04.2022
2406 Clouds 28 1009 22 10000 4.89 132 10:29 28.04.2022
2407 Clouds 28 1009 22 10000 4.89 132 09:51 28.04.2022
2408 Clouds 24 1009 28 10000 1.6 91 07:45 28.04.2022
2409 Clouds 22 1010 33 10000 1.1 3 06:54 28.04.2022
2410 Clouds 21 1010 36 10000 2.43 349 05:54 28.04.2022
2411 Clouds 19 1009 41 10000 3.47 339 04:44 28.04.2022
2412 Clouds 20 1009 37 10000 4.02 313 03:28 28.04.2022
2413 Clouds 22 1009 32 10000 3.82 334 23:52 27.04.2022
2414 Clouds 23 1009 30 10000 3.03 354 22:30 27.04.2022
2415 Clouds 24 1010 29 10000 2.56 1 21:50 27.04.2022
2416 Clouds 25 1010 29 10000 3.14 22 20:51 27.04.2022
2417 Clouds 25 1010 29 10000 3.14 22 20:32 27.04.2022
2418 Clouds 26 1009 27 10000 2.23 354 19:37 27.04.2022
2419 Clouds 26 1009 27 10000 4.63 19 18:52 27.04.2022
2420 Clouds 28 1008 23 10000 5.56 31 18:21 27.04.2022
2421 Clouds 30 1006 16 10000 2.89 293 16:23 27.04.2022
2422 Clouds 32 1007 13 10000 4.19 244 14:26 27.04.2022
2423 Clouds 31 1009 17 10000 3.38 168 11:45 27.04.2022
2424 Clouds 30 1010 18 10000 3.9 157 11:20 27.04.2022
2425 Clouds 27 1011 23 10000 2.96 149 08:58 27.04.2022
2426 Clouds 24 1011 29 10000 2.45 110 07:18 27.04.2022
2427 Clouds 21 1010 34 10000 2.02 107 04:21 27.04.2022
2428 Clear 22 1010 34 10000 1.1 14 01:31 27.04.2022
2429 Clear 22 1010 33 10000 2.13 349 00:36 27.04.2022
2430 Clear 22 1010 33 10000 2.13 349 00:36 27.04.2022
2431 Clear 23 1011 31 10000 2.13 340 23:25 26.04.2022
2432 Clear 23 1011 31 10000 2.13 340 22:58 26.04.2022
2433 Clear 23 1011 31 10000 2.13 340 22:39 26.04.2022
2434 Clear 24 1011 29 10000 2.63 7 21:26 26.04.2022
2435 Clear 24 1011 29 10000 2.63 7 20:41 26.04.2022
2436 Clouds 25 1011 31 10000 5.2 24 19:53 26.04.2022
2437 Clouds 25 1010 26 10000 4.51 341 19:32 26.04.2022
2438 Clouds 25 1010 27 10000 4.99 9 18:44 26.04.2022
2439 Clouds 26 1009 26 10000 7.7 349 17:59 26.04.2022
2440 Clouds 28 1008 22 10000 7.3 328 16:49 26.04.2022
2441 Clear 31 1008 14 10000 4.04 287 13:59 26.04.2022
2442 Clear 30 1008 15 10000 3.58 295 13:33 26.04.2022
2443 Clear 29 1009 17 10000 2.19 274 11:55 26.04.2022
2444 Clear 29 1010 18 10000 1.69 240 10:37 26.04.2022
2445 Clear 26 1011 22 10000 1.73 143 09:25 26.04.2022
2446 Clear 23 1011 31 10000 0.85 138 07:22 26.04.2022
2447 Clear 20 1010 39 10000 1.22 318 04:33 26.04.2022
2448 Clouds 22 1010 38 10000 1.35 266 01:25 26.04.2022
2449 Clouds 23 1010 37 10000 1.82 299 00:26 26.04.2022
2450 Clouds 24 1010 33 10000 2.83 329 22:36 25.04.2022
2451 Clouds 25 1010 29 10000 3.44 338 21:40 25.04.2022
2452 Clouds 25 1010 28 10000 4.56 346 20:40 25.04.2022
2453 Clouds 26 1009 24 10000 4.07 0 18:58 25.04.2022
2454 Clouds 28 1008 17 10000 2.39 102 17:54 25.04.2022
2455 Clouds 29 1008 15 10000 3.35 70 16:59 25.04.2022
2456 Clouds 30 1008 15 10000 4.22 93 15:29 25.04.2022
2457 Clouds 30 1008 15 10000 4.22 93 14:42 25.04.2022
2458 Clouds 29 1009 17 10000 2.7 119 13:33 25.04.2022
2459 Clouds 28 1010 22 10000 4.47 111 11:38 25.04.2022
2460 Clouds 26 1011 33 10000 4.63 105 10:26 25.04.2022
2461 Clouds 24 1011 38 10000 5.4 105 08:39 25.04.2022
2462 Clouds 20 1011 54 10000 3.23 118 06:45 25.04.2022
2463 Clouds 17 1010 62 10000 2.26 82 04:27 25.04.2022
2464 Clouds 18 1010 67 10000 3.1 100 00:57 25.04.2022
2465 Clouds 18 1011 66 10000 3.65 103 23:51 24.04.2022
2466 Clouds 18 1011 63 10000 5.19 122 22:45 24.04.2022
2467 Clouds 19 1011 56 10000 6.4 143 22:26 24.04.2022
2468 Clouds 21 1010 55 10000 5.03 112 21:26 24.04.2022
2469 Clouds 21 1010 55 10000 5.03 112 20:54 24.04.2022
2470 Clouds 20 1010 47 10000 2.65 84 20:35 24.04.2022
2471 Clouds 19 1010 47 10000 0.54 159 19:48 24.04.2022
2472 Rain 23 1007 45 6636 5.43 337 18:20 24.04.2022
2473 Rain 27 1004 28 10000 10.05 83 17:29 24.04.2022
2474 Rain 27 1004 28 10000 10.05 83 16:59 24.04.2022
2475 Rain 27 1004 28 10000 10.05 83 16:35 24.04.2022
2476 Rain 30 1004 21 10000 4.25 32 15:55 24.04.2022
2477 Rain 30 1004 21 10000 4.25 32 15:31 24.04.2022
2478 Rain 30 1004 21 10000 4.25 32 15:31 24.04.2022
2479 Clouds 30 1005 20 10000 5.08 56 13:58 24.04.2022
2480 Clouds 30 1005 20 10000 5.39 54 13:25 24.04.2022
2481 Clouds 30 1005 20 10000 5.39 54 13:25 24.04.2022
2482 Clouds 30 1005 20 10000 5.39 54 12:32 24.04.2022
2483 Clouds 29 1006 21 10000 5.81 64 11:33 24.04.2022
2484 Clouds 26 1007 28 10000 6.14 78 10:27 24.04.2022
2485 Clouds 25 1007 31 10000 5.44 83 09:26 24.04.2022
2486 Clouds 22 1007 38 10000 6.39 62 06:45 24.04.2022
2487 Clouds 21 1007 42 10000 3.86 64 03:55 24.04.2022
2488 Clouds 21 1006 50 10000 2.37 88 01:38 24.04.2022
2489 Clouds 21 1006 50 10000 2.37 88 01:38 24.04.2022
2490 Clouds 20 1007 52 10000 3.31 113 00:29 24.04.2022
2491 Clouds 20 1007 52 10000 3.31 113 23:44 23.04.2022
2492 Clouds 21 1008 52 10000 2.21 117 23:21 23.04.2022
2493 Rain 20 1008 54 10000 4.19 112 21:51 23.04.2022
2494 Rain 20 1008 54 10000 4.19 112 21:33 23.04.2022
2495 Rain 21 1008 50 10000 3.74 126 20:45 23.04.2022
2496 Rain 21 1008 50 10000 3.74 126 20:45 23.04.2022
2497 Clouds 21 1007 49 10000 7.3 113 19:47 23.04.2022
2498 Clouds 24 1005 38 10000 7.57 82 19:19 23.04.2022
2499 Clouds 24 1005 38 10000 7.57 82 18:52 23.04.2022
2500 Clouds 28 1002 19 10000 1.15 194 17:51 23.04.2022
2501 Clouds 31 1002 15 10000 2.27 192 17:20 23.04.2022
2502 Clouds 31 1002 15 10000 2.27 192 16:40 23.04.2022
2503 Clouds 32 1003 15 10000 4.74 140 15:20 23.04.2022
2504 Clouds 32 1004 16 10000 7.5 104 12:44 23.04.2022
2505 Clouds 30 1006 13 10000 8.21 119 10:43 23.04.2022
2506 Clouds 29 1007 11 10000 8.17 120 09:33 23.04.2022
2507 Clouds 24 1008 13 10000 6.71 101 06:31 23.04.2022
2508 Clouds 21 1008 17 10000 4.69 88 03:54 23.04.2022
2509 Clouds 23 1008 17 10000 7.2 99 00:57 23.04.2022
2510 Clouds 24 1008 16 10000 6.71 71 23:29 22.04.2022
2511 Clouds 25 1008 16 10000 5.43 71 22:20 22.04.2022
2512 Clouds 25 1008 16 10000 5.43 71 21:42 22.04.2022
2513 Clouds 26 1009 16 10000 4.85 56 20:47 22.04.2022
2514 Clouds 26 1009 16 10000 4.64 51 20:27 22.04.2022
2515 Clouds 27 1008 14 10000 5.1 60 19:20 22.04.2022
2516 Clouds 27 1008 14 10000 5.1 60 18:41 22.04.2022
2517 Clouds 28 1008 13 10000 4.46 64 17:40 22.04.2022
2518 Clouds 29 1008 12 10000 3.74 70 16:46 22.04.2022
2519 Clouds 29 1009 11 10000 2.61 85 15:42 22.04.2022
2520 Clouds 29 1009 11 10000 2.52 120 14:46 22.04.2022
2521 Clouds 29 1009 11 10000 3.46 129 13:49 22.04.2022
2522 Clouds 28 1010 12 10000 4.46 138 12:58 22.04.2022
2523 Clouds 28 1011 11 10000 4.81 144 11:50 22.04.2022
2524 Clouds 27 1012 10 10000 4.65 130 11:21 22.04.2022
2525 Clouds 27 1012 10 10000 4.65 130 10:50 22.04.2022
2526 Clouds 27 1012 10 10000 4.65 130 10:30 22.04.2022
2527 Clouds 26 1013 9 10000 5.38 123 09:50 22.04.2022
2528 Clouds 24 1013 13 10000 6.09 113 08:50 22.04.2022
2529 Clouds 19 1013 24 10000 2.43 100 07:20 22.04.2022
2530 Clouds 16 1013 35 10000 1.33 304 03:30 22.04.2022
2531 Clouds 16 1013 38 10000 2.61 327 00:51 22.04.2022
2532 Clear 17 1014 38 10000 3.56 331 23:25 21.04.2022
2533 Clear 18 1014 36 10000 3.93 335 22:29 21.04.2022
2534 Clear 19 1014 32 10000 4.12 339 20:43 21.04.2022
2535 Clear 20 1014 28 10000 4.21 337 20:24 21.04.2022
2536 Clear 20 1012 26 10000 5.19 340 18:44 21.04.2022
2537 Clear 22 1012 19 10000 4.74 334 18:18 21.04.2022
2538 Clear 25 1011 11 10000 4.15 325 16:44 21.04.2022
2539 Clear 25 1012 8 10000 4.28 307 15:22 21.04.2022
2540 Clear 25 1012 8 10000 4.28 307 14:49 21.04.2022
2541 Clear 24 1013 13 10000 3.43 293 13:23 21.04.2022
2542 Clear 24 1013 13 10000 3.43 293 12:59 21.04.2022
2543 Clear 22 1015 21 10000 2.42 302 10:57 21.04.2022
2544 Clear 18 1016 29 10000 2.14 316 08:57 21.04.2022
2545 Clear 16 1016 37 10000 2.77 318 07:32 21.04.2022
2546 Clear 11 1016 63 10000 3.54 313 05:44 21.04.2022
2547 Clear 11 1016 69 10000 4.4 311 03:32 21.04.2022
2548 Clear 11 1015 68 10000 4.85 315 02:47 21.04.2022
2549 Clear 12 1015 64 10000 5.5 321 01:41 21.04.2022
2550 Clear 13 1015 60 10000 6.42 320 23:51 20.04.2022
2551 Clear 13 1016 61 10000 6.43 323 23:23 20.04.2022
2552 Clear 13 1016 61 10000 6.43 323 22:51 20.04.2022
2553 Clear 13 1016 61 10000 6.43 323 22:32 20.04.2022
2554 Clear 14 1016 59 10000 6.21 328 21:33 20.04.2022
2555 Clear 14 1016 56 10000 6.03 325 20:41 20.04.2022
2556 Clear 15 1015 51 10000 6.82 318 19:53 20.04.2022
2557 Clear 16 1014 46 10000 7.38 316 19:22 20.04.2022
2558 Clear 18 1014 40 10000 7.62 312 18:23 20.04.2022
2559 Clear 20 1013 34 10000 8.33 309 16:57 20.04.2022
2560 Clear 20 1013 34 10000 8.33 309 16:38 20.04.2022
2561 Clear 22 1013 29 10000 8.66 306 14:26 20.04.2022
2562 Clear 21 1014 30 10000 7.58 308 11:55 20.04.2022
2563 Clear 20 1014 34 10000 7.18 305 11:25 20.04.2022
2564 Clear 18 1015 41 10000 6.99 300 10:27 20.04.2022
2565 Clear 16 1016 48 10000 7.13 302 09:26 20.04.2022
2566 Clear 14 1016 57 10000 6.39 308 08:24 20.04.2022
2567 Clear 14 1016 57 10000 6.39 308 07:42 20.04.2022
2568 Clear 14 1016 57 10000 6.39 308 07:42 20.04.2022
2569 Clear 11 1015 71 10000 3.94 323 04:37 20.04.2022
2570 Clear 13 1014 54 10000 6.83 307 00:55 20.04.2022
2571 Clear 13 1014 52 10000 7.43 308 00:20 20.04.2022
2572 Clear 14 1014 52 10000 7.46 311 22:40 19.04.2022
2573 Clear 14 1014 52 10000 7.96 314 22:19 19.04.2022
2574 Clear 14 1014 52 10000 7.96 314 21:38 19.04.2022
2575 Clear 15 1014 52 10000 9.27 313 20:56 19.04.2022
2576 Clear 15 1014 52 10000 9.27 313 20:34 19.04.2022
2577 Clear 16 1012 45 10000 9.74 309 19:25 19.04.2022
2578 Clear 18 1011 37 10000 10.33 305 18:18 19.04.2022
2579 Clear 20 1011 34 10000 11.22 299 16:46 19.04.2022
2580 Clear 22 1010 32 10000 10.61 294 16:24 19.04.2022
2581 Clear 23 1010 32 10000 10.96 293 15:20 19.04.2022
2582 Clear 23 1010 32 10000 10.96 293 14:32 19.04.2022
2583 Clouds 24 1010 36 10000 10.29 293 12:52 19.04.2022
2584 Clouds 25 1010 36 10000 11.37 293 12:26 19.04.2022
2585 Clouds 25 1009 30 10000 8.67 294 11:23 19.04.2022
2586 Clouds 23 1009 37 10000 8.41 305 09:27 19.04.2022
2587 Clouds 21 1009 40 10000 7.2 325 07:37 19.04.2022
2588 Clouds 21 1006 38 10000 5.03 322 04:23 19.04.2022
2589 Clouds 23 1006 26 10000 3.55 319 01:18 19.04.2022
2590 Clouds 24 1007 23 10000 3.51 313 23:44 18.04.2022
2591 Clouds 26 1007 19 10000 2.85 299 21:57 18.04.2022
2592 Clouds 27 1007 18 10000 2.55 324 21:25 18.04.2022
2593 Clouds 27 1007 18 10000 2.55 324 20:39 18.04.2022
2594 Clouds 28 1007 19 10000 2.73 325 19:59 18.04.2022
2595 Clouds 28 1007 19 10000 2.73 325 19:30 18.04.2022
2596 Clouds 29 1006 16 10000 3.9 341 18:43 18.04.2022
2597 Clouds 31 1006 10 10000 3.74 314 17:40 18.04.2022
2598 Clouds 33 1005 8 10000 5.2 273 17:19 18.04.2022
2599 Clouds 33 1005 8 10000 5.2 273 16:38 18.04.2022
2600 Clouds 35 1005 7 10000 7.24 253 15:30 18.04.2022
2601 Clouds 36 1006 6 10000 11.03 208 14:22 18.04.2022
2602 Clouds 36 1006 6 10000 9.73 208 12:54 18.04.2022
2603 Clouds 36 1007 6 10000 8.71 187 12:23 18.04.2022
2604 Clouds 34 1008 6 10000 8.58 162 10:46 18.04.2022
2605 Clouds 31 1009 6 10000 8.32 148 09:32 18.04.2022
2606 Clouds 28 1010 8 10000 7.73 141 08:46 18.04.2022
2607 Clouds 22 1011 13 10000 7.47 115 06:52 18.04.2022
2608 Clear 21 1011 13 10000 4.65 112 02:29 18.04.2022
2609 Clear 23 1011 11 10000 4.56 117 23:23 17.04.2022
2610 Clear 23 1011 11 10000 4.56 117 22:37 17.04.2022
2611 Clear 24 1011 11 10000 4.49 120 21:34 17.04.2022
2612 Clear 25 1011 11 10000 4.64 117 20:52 17.04.2022
2613 Clear 26 1011 11 10000 4.79 114 20:19 17.04.2022
2614 Clear 27 1009 10 10000 5.17 106 18:58 17.04.2022
2615 Clear 28 1009 9 10000 4.87 106 17:31 17.04.2022
2616 Clear 31 1009 7 10000 3.5 130 15:37 17.04.2022
2617 Clear 31 1009 7 10000 3.42 143 14:46 17.04.2022
2618 Clear 30 1010 6 10000 4.24 144 13:37 17.04.2022
2619 Clouds 30 1010 7 10000 5.75 139 12:49 17.04.2022
2620 Clear 27 1012 8 10000 6.4 132 10:59 17.04.2022
2621 Clear 27 1012 8 10000 6.4 132 10:30 17.04.2022
2622 Clear 25 1013 9 10000 6.69 133 09:57 17.04.2022
2623 Clear 23 1014 11 10000 6.77 131 09:21 17.04.2022
2624 Clear 23 1014 11 10000 6.77 131 08:41 17.04.2022
2625 Clouds 19 1013 15 10000 5.81 117 06:32 17.04.2022
2626 Clear 17 1013 18 10000 3.19 106 02:31 17.04.2022
2627 Clear 18 1013 19 10000 2.39 83 00:43 17.04.2022
2628 Clear 19 1013 20 10000 2.77 24 23:41 16.04.2022
2629 Clear 20 1013 23 10000 3.26 345 21:54 16.04.2022
2630 Clear 20 1014 22 10000 3.89 343 21:19 16.04.2022
2631 Clear 21 1013 21 10000 4.21 336 19:33 16.04.2022
2632 Clear 22 1012 18 10000 4.53 320 18:45 16.04.2022
2633 Clear 25 1011 9 10000 3.6 308 17:21 16.04.2022
2634 Clear 25 1011 9 10000 3.6 308 16:31 16.04.2022
2635 Clear 26 1011 6 10000 3.96 304 15:23 16.04.2022
2636 Clear 26 1011 6 10000 3.96 304 14:43 16.04.2022
2637 Clear 26 1011 6 10000 3.59 298 13:55 16.04.2022
2638 Clear 25 1012 6 10000 2.64 295 13:24 16.04.2022
2639 Clear 24 1012 7 10000 1.97 281 11:58 16.04.2022
2640 Clear 23 1013 8 10000 0.93 284 10:37 16.04.2022
2641 Clear 22 1014 11 10000 0.26 164 09:39 16.04.2022
2642 Clear 20 1014 14 10000 0.72 145 08:54 16.04.2022
2643 Clouds 18 1014 17 10000 0.26 345 07:31 16.04.2022
2644 Clouds 14 1014 26 10000 1.87 311 06:18 16.04.2022
2645 Clouds 15 1013 30 10000 3.05 350 01:53 16.04.2022
2646 Clear 16 1013 37 10000 4.21 328 00:19 16.04.2022
2647 Clear 17 1014 39 10000 5 323 22:52 15.04.2022
2648 Clear 17 1014 39 10000 5 323 22:31 15.04.2022
2649 Clear 17 1013 39 10000 4.97 328 21:35 15.04.2022
2650 Clear 18 1013 36 10000 5.63 332 20:55 15.04.2022
2651 Clear 19 1013 32 10000 6.12 333 19:52 15.04.2022
2652 Clear 19 1013 32 10000 5.48 327 19:33 15.04.2022
2653 Clear 20 1012 27 10000 6.51 328 18:45 15.04.2022
2654 Clear 22 1012 22 10000 7.44 319 18:23 15.04.2022
2655 Clear 24 1011 15 10000 8.04 299 17:29 15.04.2022
2656 Clear 25 1011 12 10000 7.57 296 16:26 15.04.2022
2657 Clear 25 1011 12 10000 7.57 296 15:54 15.04.2022
2658 Clear 26 1011 12 10000 5.93 293 14:30 15.04.2022
2659 Clear 26 1012 12 10000 4.61 265 13:23 15.04.2022
2660 Clear 26 1012 12 10000 4.61 265 12:40 15.04.2022
2661 Clear 25 1012 13 10000 2.88 237 11:54 15.04.2022
2662 Clear 23 1013 16 10000 1.65 181 10:53 15.04.2022
2663 Clear 22 1014 17 10000 2.83 124 10:24 15.04.2022
2664 Clear 22 1014 17 10000 2.83 124 09:38 15.04.2022
2665 Clear 20 1014 19 10000 5.06 106 09:18 15.04.2022
2666 Clear 17 1015 23 10000 6.17 83 06:56 15.04.2022
2667 Clear 14 1014 27 10000 4.14 76 05:57 15.04.2022
2668 Clear 15 1014 26 10000 3.77 41 01:49 15.04.2022
2669 Clear 16 1014 34 10000 3.63 353 23:30 14.04.2022
2670 Clear 17 1014 37 10000 3.57 346 22:47 14.04.2022
2671 Clear 17 1014 41 10000 4.77 333 22:28 14.04.2022
2672 Clear 17 1014 39 10000 5.11 334 21:54 14.04.2022
2673 Clear 17 1014 40 10000 5.86 334 20:35 14.04.2022
2674 Clear 19 1012 30 10000 7.38 320 19:22 14.04.2022
2675 Clear 22 1011 16 10000 6.35 313 18:18 14.04.2022
2676 Clear 23 1011 14 10000 6.73 313 17:28 14.04.2022
2677 Clear 23 1011 14 10000 6.73 313 16:33 14.04.2022
2678 Clear 25 1010 14 10000 5.17 304 14:28 14.04.2022
2679 Clear 24 1010 15 10000 5.26 305 13:45 14.04.2022
2680 Clear 24 1011 17 10000 4.4 302 12:51 14.04.2022
2681 Clear 24 1011 17 10000 4.4 302 12:31 14.04.2022
2682 Clouds 21 1012 23 10000 2.33 313 11:24 14.04.2022
2683 Clouds 21 1012 23 10000 2.33 313 10:41 14.04.2022
2684 Clouds 20 1013 27 10000 1.26 343 09:57 14.04.2022
2685 Clear 18 1013 32 10000 1.75 349 08:44 14.04.2022
2686 Clear 14 1013 45 10000 3.39 320 06:53 14.04.2022
2687 Clear 13 1013 57 10000 4.37 319 03:28 14.04.2022
2688 Clouds 15 1013 54 10000 4.68 323 23:25 13.04.2022
2689 Clouds 16 1013 52 10000 5.2 328 22:19 13.04.2022
2690 Clouds 16 1013 52 10000 5.2 328 21:34 13.04.2022
2691 Clouds 17 1012 37 10000 4.99 334 20:22 13.04.2022
2692 Clouds 17 1012 38 10000 5.47 333 19:36 13.04.2022
2693 Clouds 20 1011 27 10000 4.84 318 18:27 13.04.2022
2694 Clouds 21 1010 24 10000 4.41 309 17:24 13.04.2022
2695 Clouds 21 1010 24 10000 4.41 309 16:34 13.04.2022
2696 Clouds 22 1010 23 10000 4.12 305 15:40 13.04.2022
2697 Clouds 21 1011 24 10000 4.18 300 14:51 13.04.2022
2698 Clouds 21 1011 24 10000 3.72 297 14:28 13.04.2022
2699 Clouds 20 1012 26 10000 3.58 299 13:29 13.04.2022
2700 Clear 19 1013 30 10000 3.55 305 12:28 13.04.2022
2701 Clear 17 1014 36 10000 3.16 309 10:55 13.04.2022
2702 Clear 15 1014 43 10000 2.79 322 09:44 13.04.2022
2703 Clear 13 1015 52 10000 3.04 334 08:43 13.04.2022
2704 Clear 10 1015 71 10000 3.43 335 07:18 13.04.2022
2705 Clear 10 1015 71 10000 3.43 335 06:46 13.04.2022
2706 Clear 9 1015 79 10000 2.89 331 06:18 13.04.2022
2707 Clear 10 1014 77 10000 7.26 318 00:24 13.04.2022
2708 Clear 10 1014 77 10000 7.26 318 23:46 12.04.2022
2709 Clear 11 1014 71 10000 7.34 315 22:19 12.04.2022
2710 Clear 11 1014 71 10000 7.34 315 21:39 12.04.2022
2711 Clear 11 1014 67 10000 7.57 315 20:42 12.04.2022
2712 Clear 12 1014 62 10000 7.95 316 19:54 12.04.2022
2713 Clear 12 1014 62 10000 7.95 316 19:33 12.04.2022
2714 Clear 13 1013 56 10000 8.08 315 18:50 12.04.2022
2715 Clear 13 1013 56 10000 8.08 315 18:50 12.04.2022
2716 Clear 15 1013 49 10000 8.2 304 17:34 12.04.2022
2717 Clear 16 1012 41 10000 9.35 297 16:32 12.04.2022
2718 Clear 18 1012 35 10000 9.91 293 15:33 12.04.2022
2719 Clear 19 1012 33 10000 9.7 289 14:33 12.04.2022
2720 Clear 19 1012 33 10000 9.95 289 13:39 12.04.2022
2721 Clear 19 1013 33 10000 9.88 289 12:59 12.04.2022
2722 Clear 18 1013 35 10000 9.49 291 11:47 12.04.2022
2723 Clear 17 1014 40 10000 9.33 294 11:24 12.04.2022
2724 Clear 14 1015 49 10000 9.11 293 09:25 12.04.2022
2725 Clear 12 1015 57 10000 8.93 292 08:26 12.04.2022
2726 Clear 11 1015 65 10000 8.16 294 06:33 12.04.2022
2727 Clear 10 1014 72 10000 7.44 293 05:36 12.04.2022
2728 Clear 10 1013 74 10000 10.77 300 01:47 12.04.2022
2729 Clear 13 1013 65 10000 9.26 290 23:20 11.04.2022
2730 Clear 14 1013 53 10000 8.55 290 21:50 11.04.2022
2731 Clear 15 1013 47 10000 8.21 295 21:18 11.04.2022
2732 Clear 15 1013 47 10000 8.21 295 20:30 11.04.2022
2733 Clear 15 1013 47 10000 8.21 295 20:30 11.04.2022
2734 Clear 16 1012 45 10000 8.78 303 19:58 11.04.2022
2735 Clear 17 1011 42 10000 9.91 308 19:25 11.04.2022
2736 Clear 17 1011 42 10000 9.91 308 18:52 11.04.2022
2737 Clear 20 1010 31 10000 9.41 301 17:57 11.04.2022
2738 Clear 20 1010 31 10000 9.41 301 17:30 11.04.2022
2739 Clear 24 1009 22 10000 10.82 289 16:25 11.04.2022
2740 Clear 26 1008 18 10000 9.89 289 14:40 11.04.2022
2741 Clear 28 1008 9 10000 9.03 280 13:19 11.04.2022
2742 Clear 28 1008 9 10000 9.03 280 12:36 11.04.2022
2743 Clear 28 1008 9 10000 7.47 280 11:42 11.04.2022
2744 Clear 27 1009 8 10000 6.24 283 10:35 11.04.2022
2745 Clear 26 1010 9 10000 5.7 288 09:34 11.04.2022
2746 Clouds 20 1010 25 10000 4.06 299 07:24 11.04.2022
2747 Clouds 18 1010 35 10000 3.58 310 02:36 11.04.2022
2748 Clouds 20 1011 37 10000 4.29 315 23:22 10.04.2022
2749 Clear 21 1011 36 10000 4.9 315 22:26 10.04.2022
2750 Clear 21 1011 36 10000 4.9 315 21:35 10.04.2022
2751 Clear 22 1011 34 10000 5.46 325 20:50 10.04.2022
2752 Clear 22 1011 36 10000 6.24 331 19:53 10.04.2022
2753 Clear 22 1011 36 10000 6.24 331 19:30 10.04.2022
2754 Clear 23 1010 33 10000 7.33 332 18:46 10.04.2022
2755 Clear 26 1009 24 10000 7.29 316 17:58 10.04.2022
2756 Clear 26 1009 24 10000 7.29 316 17:39 10.04.2022
2757 Clear 29 1008 16 10000 7.15 297 16:44 10.04.2022
2758 Clear 31 1008 9 10000 4.18 278 15:37 10.04.2022
2759 Clear 31 1008 8 10000 2.25 240 14:34 10.04.2022
2760 Clear 29 1010 10 10000 2.92 171 12:40 10.04.2022
2761 Clear 28 1011 12 10000 3.75 161 12:21 10.04.2022
2762 Clear 27 1012 15 10000 3.9 156 11:29 10.04.2022
2763 Clear 27 1012 15 10000 3.9 156 10:56 10.04.2022
2764 Clear 26 1013 20 10000 4.43 150 10:20 10.04.2022
2765 Clear 26 1013 20 10000 4.43 150 09:39 10.04.2022
2766 Clear 22 1013 34 10000 4.06 138 08:24 10.04.2022
2767 Clear 21 1013 33 10000 2.93 141 07:42 10.04.2022
2768 Clear 16 1014 55 10000 1.75 329 06:19 10.04.2022
2769 Clear 16 1013 60 10000 2.4 298 02:37 10.04.2022
2770 Clear 17 1013 60 10000 2.18 291 00:34 10.04.2022
2771 Clear 18 1013 57 10000 2.37 292 23:49 09.04.2022
2772 Clear 18 1013 55 10000 2.45 313 22:50 09.04.2022
2773 Clear 19 1013 54 10000 3.16 325 21:48 09.04.2022
2774 Clear 19 1014 51 10000 3.69 330 20:57 09.04.2022
2775 Clear 20 1013 43 10000 4.28 336 20:26 09.04.2022
2776 Clear 20 1013 42 10000 4.21 342 19:42 09.04.2022
2777 Clear 22 1012 35 10000 4.21 346 19:18 09.04.2022
2778 Clear 22 1012 35 10000 4.21 346 19:18 09.04.2022
2779 Clear 23 1011 27 10000 2.69 333 18:21 09.04.2022
2780 Clear 23 1011 27 10000 2.69 333 17:39 09.04.2022
2781 Clear 25 1011 22 10000 2.9 311 16:53 09.04.2022
2782 Clear 25 1011 21 10000 3.39 299 15:59 09.04.2022
2783 Clear 25 1011 21 10000 3.39 299 15:41 09.04.2022
2784 Clear 25 1011 21 10000 3.59 294 14:44 09.04.2022
2785 Clear 25 1012 23 10000 3.24 296 14:23 09.04.2022
2786 Clear 24 1012 25 10000 2.1 298 13:21 09.04.2022
2787 Clear 24 1012 25 10000 2.1 298 12:51 09.04.2022
2788 Clear 22 1013 29 10000 1.73 321 11:40 09.04.2022
2789 Clear 19 1015 43 10000 3.15 326 10:21 09.04.2022
2790 Clear 19 1015 43 10000 3.15 326 09:47 09.04.2022
2791 Clear 17 1015 51 10000 3.78 315 08:56 09.04.2022
2792 Clear 15 1015 57 10000 4.02 321 07:32 09.04.2022
2793 Clear 11 1014 78 10000 8.43 311 02:58 09.04.2022
2794 Clear 13 1013 65 10000 9.43 304 00:25 09.04.2022
2795 Clear 14 1013 63 10000 9.64 295 22:57 08.04.2022
2796 Clear 15 1013 59 10000 8.74 296 21:34 08.04.2022
2797 Clear 16 1013 53 10000 8.32 302 20:41 08.04.2022
2798 Clouds 18 1013 45 10000 9.02 299 19:39 08.04.2022
2799 Clouds 18 1012 46 10000 7.6 300 18:31 08.04.2022
2800 Clouds 20 1011 44 10000 8.92 304 17:55 08.04.2022
2801 Clouds 22 1010 34 10000 10.73 297 17:26 08.04.2022
2802 Clouds 22 1010 34 10000 10.73 297 16:51 08.04.2022
2803 Clouds 25 1009 25 10000 10.44 279 16:20 08.04.2022
2804 Clouds 27 1009 20 10000 10.67 268 15:27 08.04.2022
2805 Clouds 27 1009 20 10000 10.67 268 14:40 08.04.2022
2806 Clouds 29 1009 16 10000 10.84 272 13:55 08.04.2022
2807 Clouds 29 1009 16 10000 10.84 272 13:30 08.04.2022
2808 Clouds 30 1008 13 10000 10.64 269 12:42 08.04.2022
2809 Clouds 31 1009 10 10000 11.19 255 10:55 08.04.2022
2810 Clouds 31 1009 10 10000 10.27 250 09:41 08.04.2022
2811 Clouds 30 1010 11 10000 9.16 243 08:58 08.04.2022
2812 Clouds 26 1010 15 10000 2.94 227 07:42 08.04.2022
2813 Clouds 23 1010 20 10000 0.89 136 06:44 08.04.2022
2814 Clouds 21 1011 24 10000 1.49 144 02:29 08.04.2022
2815 Clouds 21 1013 25 10000 1.53 175 00:28 08.04.2022
2816 Clouds 21 1013 25 10000 1.53 175 23:41 07.04.2022
2817 Clouds 22 1013 26 10000 1.85 163 22:41 07.04.2022
2818 Clouds 22 1014 27 10000 1.38 178 22:22 07.04.2022
2819 Clouds 22 1014 27 10000 1.38 178 21:56 07.04.2022
2820 Clouds 22 1014 28 10000 1.18 217 21:23 07.04.2022
2821 Clouds 22 1014 28 10000 1.18 217 20:42 07.04.2022
2822 Clouds 23 1013 29 10000 2.99 259 19:25 07.04.2022
2823 Clouds 26 1013 24 10000 6.66 275 17:28 07.04.2022
2824 Clouds 26 1013 24 10000 6.66 275 16:51 07.04.2022
2825 Clouds 26 1013 24 10000 6.66 275 16:33 07.04.2022
2826 Clouds 27 1012 22 10000 7.09 277 15:39 07.04.2022
2827 Clear 27 1012 19 10000 8.03 292 13:52 07.04.2022
2828 Clear 27 1013 18 10000 8.58 291 13:23 07.04.2022
2829 Clear 26 1013 20 10000 7.3 291 11:49 07.04.2022
2830 Clear 24 1014 25 10000 6.23 292 10:46 07.04.2022
2831 Clear 20 1015 36 10000 5.25 290 08:43 07.04.2022
2832 Clear 14 1014 62 10000 3.28 291 06:59 07.04.2022
2833 Clear 13 1014 68 10000 3.24 299 05:21 07.04.2022
2834 Clear 14 1013 63 10000 4.61 293 02:34 07.04.2022
2835 Clear 15 1012 61 10000 5.49 290 00:43 07.04.2022
2836 Clear 16 1012 55 10000 6.25 290 23:36 06.04.2022
2837 Clear 16 1012 50 10000 6.98 287 22:44 06.04.2022
2838 Clear 18 1012 43 10000 7.26 283 22:20 06.04.2022
2839 Clear 19 1011 37 10000 7.51 279 20:47 06.04.2022
2840 Clear 20 1011 33 10000 7.65 279 20:00 06.04.2022
2841 Clear 21 1010 29 10000 8.44 278 19:24 06.04.2022
2842 Clear 21 1010 29 10000 8.44 278 18:48 06.04.2022
2843 Clear 23 1009 24 10000 9.61 280 17:36 06.04.2022
2844 Clear 25 1008 20 10000 11.12 276 16:58 06.04.2022
2845 Clear 25 1008 20 10000 11.12 276 16:34 06.04.2022
2846 Clear 26 1008 18 10000 13.71 275 15:44 06.04.2022
2847 Clear 30 1008 12 10000 15.31 272 13:48 06.04.2022
2848 Clear 32 1008 9 10000 13.43 259 12:30 06.04.2022
2849 Clear 32 1009 8 10000 13.61 249 11:44 06.04.2022
2850 Clear 33 1010 7 10000 12.28 249 10:37 06.04.2022
2851 Clouds 32 1010 7 10000 10.22 235 10:18 06.04.2022
2852 Clouds 30 1011 9 10000 6.23 221 09:25 06.04.2022
2853 Clouds 26 1012 12 10000 2.29 190 08:18 06.04.2022
2854 Clouds 24 1012 15 10000 1.56 167 06:40 06.04.2022
2855 Clouds 23 1013 16 10000 2.65 232 01:26 06.04.2022
2856 Clouds 23 1013 16 10000 2.15 222 23:50 05.04.2022
2857 Clouds 24 1013 16 10000 1.45 182 21:59 05.04.2022
2858 Clouds 24 1014 17 10000 1.32 250 21:18 05.04.2022
2859 Clouds 25 1014 16 10000 1.3 281 20:24 05.04.2022
2860 Clouds 26 1013 15 10000 2.36 312 18:45 05.04.2022
2861 Clouds 29 1013 10 10000 1.95 305 17:30 05.04.2022
2862 Clouds 29 1013 10 10000 1.95 305 16:44 05.04.2022
2863 Clouds 30 1013 9 10000 1.68 267 15:52 05.04.2022
2864 Clouds 30 1013 9 10000 1.68 267 15:31 05.04.2022
2865 Clouds 29 1014 10 10000 1.92 181 13:59 05.04.2022
2866 Clouds 28 1015 11 10000 3.14 160 12:55 05.04.2022
2867 Clouds 28 1016 12 10000 4.41 147 11:43 05.04.2022
2868 Clouds 27 1017 13 10000 5.36 136 11:25 05.04.2022
2869 Clear 25 1018 15 10000 6.22 123 09:41 05.04.2022
2870 Clear 23 1018 16 10000 6.72 114 08:52 05.04.2022
2871 Clear 19 1019 24 10000 3.79 109 06:43 05.04.2022
2872 Clouds 19 1018 27 10000 1.96 70 00:39 05.04.2022
2873 Clouds 20 1018 27 10000 3.06 27 22:41 04.04.2022
2874 Clouds 21 1018 28 10000 3.38 349 21:57 04.04.2022
2875 Clouds 21 1018 28 10000 4.18 332 21:21 04.04.2022
2876 Clouds 21 1018 28 10000 4.18 332 20:49 04.04.2022
2877 Clouds 21 1017 29 10000 5.06 326 19:40 04.04.2022
2878 Clear 22 1017 27 10000 6.07 322 18:59 04.04.2022
2879 Clear 24 1016 23 10000 6.7 317 17:55 04.04.2022
2880 Clear 26 1015 17 10000 6.71 319 16:36 04.04.2022
2881 Clear 26 1015 17 10000 6.71 319 16:36 04.04.2022
2882 Clear 28 1015 13 10000 6.19 324 15:43 04.04.2022
2883 Clear 28 1015 10 10000 6.49 323 15:25 04.04.2022
2884 Clear 28 1015 10 10000 6.49 323 14:45 04.04.2022
2885 Clear 29 1015 8 10000 4.45 325 13:22 04.04.2022
2886 Clear 28 1016 8 10000 3.58 327 11:55 04.04.2022
2887 Clear 27 1017 10 10000 2.85 344 11:28 04.04.2022
2888 Clear 23 1018 15 10000 2.96 352 08:36 04.04.2022
2889 Clear 17 1016 23 10000 4.42 331 03:52 04.04.2022
2890 Clouds 19 1016 24 10000 4.15 315 00:41 04.04.2022
2891 Clouds 20 1016 29 10000 4.59 314 22:40 03.04.2022
2892 Clouds 20 1016 32 10000 5.17 316 21:45 03.04.2022
2893 Clouds 21 1016 34 10000 5.17 324 20:54 03.04.2022
2894 Clouds 21 1015 33 10000 6.28 325 19:49 03.04.2022
2895 Clouds 22 1014 31 10000 6.63 327 18:32 03.04.2022
2896 Clouds 24 1014 25 10000 7.8 326 17:47 03.04.2022
2897 Clouds 26 1013 16 10000 7.34 323 16:57 03.04.2022
2898 Clouds 26 1013 16 10000 7.34 323 16:39 03.04.2022
2899 Clear 29 1012 10 10000 8.54 320 14:48 03.04.2022
2900 Clouds 29 1012 9 10000 7.23 318 13:53 03.04.2022
2901 Clouds 29 1013 9 10000 6.62 320 12:46 03.04.2022
2902 Clouds 28 1015 9 10000 6.76 312 11:29 03.04.2022
2903 Clouds 27 1015 9 10000 5.35 313 09:38 03.04.2022
2904 Clouds 25 1015 10 10000 5.13 314 08:36 03.04.2022
2905 Clouds 20 1014 19 10000 3.64 322 05:42 03.04.2022
2906 Clouds 21 1013 24 10000 3.44 308 02:53 03.04.2022
2907 Clouds 22 1014 29 10000 3.99 312 23:21 02.04.2022
2908 Clouds 22 1014 29 10000 3.99 312 22:38 02.04.2022
2909 Clouds 22 1014 31 10000 4.21 321 21:49 02.04.2022
2910 Clouds 23 1014 32 10000 4.3 328 21:19 02.04.2022
2911 Clouds 23 1014 32 10000 4.72 335 20:29 02.04.2022
2912 Clouds 26 1012 19 10000 5.29 305 18:27 02.04.2022
2913 Clouds 26 1012 19 10000 5.29 305 17:53 02.04.2022
2914 Clouds 29 1012 13 10000 4.97 298 16:30 02.04.2022
2915 Clouds 31 1012 10 10000 3.82 292 15:23 02.04.2022
2916 Clouds 31 1012 10 10000 3.82 292 14:51 02.04.2022
2917 Clouds 30 1012 11 10000 3.91 299 13:57 02.04.2022
2918 Clouds 30 1013 11 10000 3.12 292 13:22 02.04.2022
2919 Clouds 28 1014 12 10000 1.61 268 11:54 02.04.2022
2920 Clouds 25 1015 14 10000 2.5 130 09:48 02.04.2022
2921 Clouds 20 1015 19 10000 3.31 109 06:58 02.04.2022
2922 Clouds 20 1014 19 10000 3.99 101 03:59 02.04.2022
2923 Clouds 22 1015 18 10000 2.03 154 00:27 02.04.2022
2924 Clouds 22 1015 18 10000 2.03 154 23:53 01.04.2022
2925 Clouds 23 1015 16 10000 2.95 139 22:24 01.04.2022
2926 Clouds 24 1015 15 10000 3.3 115 20:54 01.04.2022
2927 Clouds 24 1015 15 10000 3.3 115 20:32 01.04.2022
2928 Clouds 24 1015 14 10000 3.37 106 19:39 01.04.2022
2929 Clouds 25 1014 13 10000 3.87 100 19:18 01.04.2022
2930 Clouds 25 1014 13 10000 3.87 100 18:35 01.04.2022
2931 Clouds 26 1014 12 10000 4.63 95 17:36 01.04.2022
2932 Clouds 30 1014 9 10000 5 126 15:46 01.04.2022
2933 Clouds 30 1014 8 10000 5.43 144 14:47 01.04.2022
2934 Clear 29 1014 9 10000 5.86 142 13:38 01.04.2022
2935 Clear 28 1015 10 10000 6.05 137 12:33 01.04.2022
2936 Clear 27 1016 10 10000 6.64 134 11:45 01.04.2022
2937 Clouds 25 1018 10 10000 6.73 135 10:49 01.04.2022
2938 Clouds 24 1019 12 10000 6.9 130 09:35 01.04.2022
2939 Clear 18 1019 26 10000 5.09 101 07:24 01.04.2022
2940 Clear 16 1018 29 10000 4.36 99 04:57 01.04.2022
2941 Clear 16 1018 29 10000 4.36 99 04:39 01.04.2022
2942 Clear 17 1017 28 10000 3.92 97 02:37 01.04.2022
2943 Clouds 17 1018 27 10000 3.99 91 01:33 01.04.2022
2944 Clouds 20 1018 23 10000 3.55 85 22:27 31.03.2022
2945 Clouds 20 1018 23 10000 3.55 85 21:38 31.03.2022
2946 Clouds 21 1018 20 10000 2.51 79 20:51 31.03.2022
2947 Clouds 21 1017 22 10000 0.87 90 20:28 31.03.2022
2948 Clouds 21 1017 22 10000 0.57 83 19:21 31.03.2022
2949 Clouds 21 1017 22 10000 0.57 83 18:33 31.03.2022
2950 Clouds 24 1016 16 10000 0.76 83 16:47 31.03.2022
2951 Clouds 24 1016 14 10000 0.68 72 15:55 31.03.2022
2952 Clouds 24 1016 14 10000 0.63 106 15:26 31.03.2022
2953 Clouds 24 1016 14 10000 0.63 106 14:45 31.03.2022
2954 Clear 23 1017 15 10000 1.07 120 13:42 31.03.2022
2955 Clear 22 1018 18 10000 3.02 126 11:31 31.03.2022
2956 Clear 20 1019 25 10000 3.33 114 10:26 31.03.2022
2957 Clear 20 1019 25 10000 3.33 114 09:39 31.03.2022
2958 Clear 16 1020 28 10000 1.72 94 07:48 31.03.2022
2959 Clear 12 1017 43 10000 2.83 332 02:33 31.03.2022
2960 Clear 14 1017 49 10000 3.96 319 23:24 30.03.2022
2961 Clear 14 1017 51 10000 4.17 324 21:57 30.03.2022
2962 Clear 14 1017 51 10000 4.17 324 21:31 30.03.2022
2963 Clear 15 1017 52 10000 4.15 330 20:44 30.03.2022
2964 Clouds 16 1016 51 10000 4.68 331 19:47 30.03.2022
2965 Clouds 17 1016 47 10000 5.46 322 18:41 30.03.2022
2966 Clouds 18 1015 39 10000 7.27 307 17:51 30.03.2022
2967 Clear 20 1014 29 10000 8.07 297 17:20 30.03.2022
2968 Clear 20 1014 29 10000 8.07 297 16:40 30.03.2022
2969 Clear 22 1014 23 10000 8.58 294 15:59 30.03.2022
2970 Clear 23 1013 17 10000 7.63 288 14:36 30.03.2022
2971 Clouds 24 1013 16 10000 7.15 294 13:22 30.03.2022
2972 Clouds 23 1014 17 10000 5.72 297 12:22 30.03.2022
2973 Clouds 22 1014 17 10000 4.51 288 10:48 30.03.2022
2974 Clouds 21 1015 19 10000 2.98 283 09:55 30.03.2022
2975 Clouds 17 1015 24 10000 1.24 270 08:21 30.03.2022
2976 Clouds 15 1015 28 10000 0.16 25 06:50 30.03.2022
2977 Clouds 13 1014 32 10000 0.74 70 05:40 30.03.2022
2978 Clear 14 1014 31 10000 2.11 91 02:32 30.03.2022
2979 Clear 16 1015 26 10000 3.72 111 22:42 29.03.2022
2980 Clear 17 1015 25 10000 3.38 116 21:49 29.03.2022
2981 Clear 18 1015 24 10000 3.65 123 21:28 29.03.2022
2982 Clouds 19 1015 23 10000 4.14 117 20:25 29.03.2022
2983 Clouds 19 1015 23 10000 4.14 117 19:32 29.03.2022
2984 Clouds 20 1014 21 10000 6.38 102 18:53 29.03.2022
2985 Clouds 21 1014 20 10000 7.04 101 17:52 29.03.2022
2986 Clouds 23 1014 17 10000 7.52 115 17:18 29.03.2022
2987 Clouds 23 1014 17 10000 7.52 115 16:52 29.03.2022
2988 Clouds 23 1016 16 10000 8.62 137 15:29 29.03.2022
2989 Clouds 23 1016 16 10000 8.62 137 14:43 29.03.2022
2990 Clouds 23 1016 16 10000 8.62 137 14:43 29.03.2022
2991 Clouds 22 1017 17 10000 8.76 138 13:34 29.03.2022
2992 Clouds 20 1019 18 10000 9.18 131 12:22 29.03.2022
2993 Clouds 19 1021 19 10000 8.81 128 11:18 29.03.2022
2994 Clouds 17 1022 22 10000 8.47 127 09:58 29.03.2022
2995 Clouds 15 1023 25 10000 7.83 126 08:44 29.03.2022
2996 Clouds 11 1024 33 10000 5.04 109 06:48 29.03.2022
2997 Clear 12 1023 33 10000 4.44 96 02:27 29.03.2022
2998 Clear 13 1024 34 10000 5.04 86 23:37 28.03.2022
2999 Clear 14 1024 32 10000 4.77 86 22:57 28.03.2022
3000 Clear 14 1024 32 10000 4.77 86 22:33 28.03.2022
3001 Clear 14 1025 28 10000 4.01 92 21:43 28.03.2022
3002 Clear 15 1024 26 10000 3.4 107 20:35 28.03.2022
3003 Clear 16 1024 25 10000 4.08 90 19:48 28.03.2022
3004 Clear 16 1024 25 10000 4.08 90 19:30 28.03.2022
3005 Clear 17 1023 23 10000 3.1 90 18:50 28.03.2022
3006 Clear 17 1023 22 10000 3 98 17:41 28.03.2022
3007 Clear 19 1023 19 10000 3.57 100 16:56 28.03.2022
3008 Clear 19 1024 18 10000 3.63 102 15:22 28.03.2022
3009 Clear 19 1024 20 10000 3.89 105 14:24 28.03.2022
3010 Clear 18 1025 23 10000 4.75 112 13:19 28.03.2022
3011 Clear 17 1026 26 10000 5.16 108 11:52 28.03.2022
3012 Clear 15 1027 36 10000 5.96 98 09:55 28.03.2022
3013 Clear 13 1028 41 10000 6.34 92 09:21 28.03.2022
3014 Clear 13 1028 41 10000 6.34 92 08:39 28.03.2022
3015 Clear 11 1028 45 10000 5.4 93 08:18 28.03.2022
3016 Clear 10 1028 53 10000 2.93 78 06:31 28.03.2022
3017 Clear 9 1027 76 10000 3.16 325 02:20 28.03.2022
3018 Clear 10 1028 81 10000 4.33 331 22:36 27.03.2022
3019 Clear 10 1027 80 10000 5.28 334 21:47 27.03.2022
3020 Clear 11 1027 76 10000 5.5 331 21:25 27.03.2022
3021 Clear 11 1027 76 10000 5.5 331 20:41 27.03.2022
3022 Clear 12 1027 71 10000 5.52 325 19:37 27.03.2022
3023 Clear 12 1026 64 10000 5.87 316 18:44 27.03.2022
3024 Clear 13 1025 57 10000 6.41 308 18:23 27.03.2022
3025 Clear 13 1025 57 10000 6.41 308 18:23 27.03.2022
3026 Clear 13 1025 57 10000 6.41 308 18:23 27.03.2022
3027 Clear 13 1025 57 10000 6.41 308 17:36 27.03.2022
3028 Clear 15 1024 42 10000 6.71 300 15:51 27.03.2022
3029 Clear 16 1024 35 10000 6.65 297 13:58 27.03.2022
3030 Clear 16 1025 33 10000 6.44 293 13:21 27.03.2022
3031 Clear 15 1025 35 10000 6.02 293 11:35 27.03.2022
3032 Clear 13 1027 42 10000 5.47 287 09:37 27.03.2022
3033 Clear 10 1027 55 10000 4.07 272 07:39 27.03.2022
3034 Clear 7 1026 64 10000 3.57 291 04:24 27.03.2022
3035 Clear 8 1026 54 10000 3.52 270 00:26 27.03.2022
3036 Clear 9 1026 55 10000 3.49 268 22:52 26.03.2022
3037 Clear 9 1026 58 10000 3.04 283 22:22 26.03.2022
3038 Clear 9 1026 58 10000 3.04 283 21:30 26.03.2022
3039 Clear 10 1026 60 10000 3.3 302 19:38 26.03.2022
3040 Clear 10 1026 56 10000 4.32 307 18:44 26.03.2022
3041 Clear 11 1025 51 10000 6.22 306 17:41 26.03.2022
3042 Clear 12 1024 47 10000 7.39 299 16:40 26.03.2022
3043 Clear 14 1023 41 10000 7.81 296 15:42 26.03.2022
3044 Clear 15 1023 31 10000 7.69 308 13:56 26.03.2022
3045 Clear 15 1023 31 10000 7.69 308 13:36 26.03.2022
3046 Clear 15 1023 29 10000 6.45 308 12:18 26.03.2022
3047 Clear 14 1024 31 10000 5.26 301 10:48 26.03.2022
3048 Clear 11 1026 45 10000 4.39 306 09:19 26.03.2022
3049 Clear 9 1025 64 10000 4.54 296 06:56 26.03.2022
3050 Clear 7 1025 74 10000 3.44 281 05:31 26.03.2022
3051 Clear 6 1023 80 10000 3.5 269 02:24 26.03.2022
3052 Clear 6 1023 73 10000 4.09 287 22:47 25.03.2022
3053 Clouds 7 1023 71 10000 4.59 289 20:58 25.03.2022
3054 Clear 7 1022 71 10000 4.95 294 20:26 25.03.2022
3055 Clouds 8 1022 69 10000 5.77 299 19:19 25.03.2022
3056 Clouds 8 1022 69 10000 5.77 299 18:36 25.03.2022
3057 Clouds 8 1021 68 10000 6.87 299 17:34 25.03.2022
3058 Clouds 10 1018 54 10000 10.19 293 16:27 25.03.2022
3059 Clouds 10 1018 54 10000 10.19 293 15:37 25.03.2022
3060 Clouds 11 1017 47 10000 11.67 290 13:32 25.03.2022
3061 Clouds 10 1018 56 10000 9.85 276 11:25 25.03.2022
3062 Clouds 8 1018 73 10000 8.87 270 09:37 25.03.2022
3063 Clouds 7 1018 79 10000 8.89 271 08:56 25.03.2022
3064 Clouds 7 1018 82 10000 9.17 264 07:46 25.03.2022
3065 Clouds 6 1018 87 10000 8.14 242 07:19 25.03.2022
3066 Clouds 6 1016 80 10000 7.88 243 03:45 25.03.2022
3067 Clouds 7 1017 77 10000 6.93 244 23:49 24.03.2022
3068 Clear 7 1017 74 10000 4.52 251 22:24 24.03.2022
3069 Clear 7 1017 75 10000 3.84 260 20:58 24.03.2022
3070 Clouds 8 1017 74 10000 4.73 261 19:49 24.03.2022
3071 Clouds 7 1017 73 10000 5.08 271 18:45 24.03.2022
3072 Clouds 8 1017 73 10000 6.14 282 17:36 24.03.2022
3073 Clouds 8 1016 70 10000 7.37 286 16:33 24.03.2022
3074 Clouds 9 1015 64 10000 11.08 275 14:53 24.03.2022
3075 Clouds 9 1015 64 10000 11.08 275 14:32 24.03.2022
3076 Clouds 10 1015 64 10000 12.78 266 13:36 24.03.2022
3077 Clouds 11 1014 56 10000 13.32 261 12:29 24.03.2022
3078 Clouds 12 1014 38 10000 12.39 250 11:27 24.03.2022
3079 Clouds 12 1014 36 10000 11 243 09:34 24.03.2022
3080 Clouds 11 1015 39 10000 11.01 243 08:38 24.03.2022
3081 Clouds 6 1016 70 10000 2.95 247 05:44 24.03.2022
3082 Clear 6 1016 63 10000 4.58 269 00:47 24.03.2022
3083 Clear 7 1016 53 10000 3.78 287 22:23 23.03.2022
3084 Clear 8 1017 50 10000 4.12 279 21:24 23.03.2022
3085 Clear 8 1017 50 10000 4.12 279 20:45 23.03.2022
3086 Clear 7 1017 52 10000 4.62 275 19:33 23.03.2022
3087 Clouds 8 1016 48 10000 6.21 287 18:19 23.03.2022
3088 Clouds 9 1016 44 10000 6.65 282 17:26 23.03.2022
3089 Clouds 9 1016 50 10000 8.07 280 16:18 23.03.2022
3090 Clouds 11 1015 46 10000 9.55 277 14:49 23.03.2022
3091 Clouds 12 1015 36 10000 10.25 269 13:34 23.03.2022
3092 Clouds 12 1015 39 10000 9.68 261 11:38 23.03.2022
3093 Clear 11 1016 39 10000 4.9 260 08:51 23.03.2022
3094 Clear 7 1017 57 10000 2.46 300 06:26 23.03.2022
3095 Clear 6 1016 64 10000 1.96 297 03:52 23.03.2022
3096 Clouds 7 1017 65 10000 2.28 324 00:28 23.03.2022
3097 Clouds 7 1017 65 10000 2.28 324 00:28 23.03.2022
3098 Clouds 7 1016 62 10000 4.75 326 21:56 22.03.2022
3099 Clear 8 1016 61 10000 5.68 329 21:26 22.03.2022
3100 Clear 8 1016 61 10000 5.68 329 20:34 22.03.2022
3101 Clear 8 1016 58 10000 6.17 330 19:31 22.03.2022
3102 Clouds 9 1016 54 10000 6.38 330 18:54 22.03.2022
3103 Clouds 9 1015 50 10000 7.24 325 17:44 22.03.2022
3104 Clouds 11 1014 44 10000 6.95 314 17:18 22.03.2022
3105 Clouds 12 1014 40 10000 6.68 302 15:52 22.03.2022
3106 Clear 13 1013 39 10000 6.21 297 15:21 22.03.2022
3107 Clear 13 1013 39 10000 6.21 297 14:46 22.03.2022
3108 Clear 13 1013 37 10000 6.24 300 14:24 22.03.2022
3109 Clear 13 1013 34 10000 5.83 296 12:41 22.03.2022
3110 Clear 12 1014 37 10000 4.97 299 11:26 22.03.2022
3111 Clear 11 1015 40 10000 5 299 10:23 22.03.2022
3112 Clear 9 1015 52 10000 5.16 313 07:48 22.03.2022
3113 Clear 5 1016 74 10000 4.52 301 05:19 22.03.2022
3114 Clear 6 1015 74 10000 4.38 303 03:38 22.03.2022
3115 Clouds 8 1014 73 10000 4.95 320 23:41 21.03.2022
3116 Clouds 10 1013 68 10000 4.48 316 21:58 21.03.2022
3117 Clouds 10 1013 64 10000 4.05 304 20:45 21.03.2022
3118 Clouds 11 1013 60 10000 3.22 299 20:26 21.03.2022
3119 Clouds 11 1013 60 10000 3.22 299 19:53 21.03.2022
3120 Clouds 11 1014 60 10000 4.51 303 19:24 21.03.2022
3121 Clouds 12 1013 53 10000 6.05 315 17:53 21.03.2022
3122 Clouds 13 1012 49 10000 7.02 300 17:18 21.03.2022
3123 Clouds 13 1012 49 10000 7.02 300 16:42 21.03.2022
3124 Clouds 14 1011 44 10000 7.48 293 15:48 21.03.2022
3125 Clouds 16 1010 34 10000 5.64 289 14:56 21.03.2022
3126 Clouds 16 1010 29 10000 3.57 287 13:58 21.03.2022
3127 Clouds 16 1011 28 10000 2.17 259 12:35 21.03.2022
3128 Clouds 15 1012 28 10000 1.04 204 11:45 21.03.2022
3129 Clouds 14 1013 29 10000 1.49 125 10:36 21.03.2022
3130 Clouds 12 1015 31 10000 2.6 99 08:30 21.03.2022
3131 Clouds 9 1016 43 10000 1.67 80 06:48 21.03.2022
3132 Clouds 7 1016 56 10000 1.33 15 02:51 21.03.2022
3133 Clouds 7 1017 55 10000 2.21 325 00:19 21.03.2022
3134 Clouds 7 1017 54 10000 2.51 328 22:44 20.03.2022
3135 Clouds 8 1017 51 10000 2.84 325 21:52 20.03.2022
3136 Clouds 8 1017 51 10000 2.84 325 21:52 20.03.2022
3137 Clear 8 1017 51 10000 3.02 338 21:25 20.03.2022
3138 Clear 8 1017 51 10000 3.02 338 20:43 20.03.2022
3139 Clear 9 1017 50 10000 4.72 332 19:59 20.03.2022
3140 Clear 9 1017 50 10000 4.72 332 19:34 20.03.2022
3141 Clouds 9 1016 46 10000 5.45 330 18:34 20.03.2022
3142 Clouds 10 1016 42 10000 4.88 340 17:33 20.03.2022
3143 Clouds 12 1015 37 10000 5.16 318 16:57 20.03.2022
3144 Clouds 13 1015 31 10000 4.81 312 15:35 20.03.2022
3145 Clouds 14 1014 28 10000 4.26 305 14:35 20.03.2022
3146 Clouds 13 1015 30 10000 3.93 298 12:42 20.03.2022
3147 Clouds 12 1016 33 10000 4.11 297 11:32 20.03.2022
3148 Clouds 9 1019 43 10000 3.12 298 09:30 20.03.2022
3149 Clouds 6 1021 54 10000 3.31 331 07:49 20.03.2022
3150 Clouds 4 1021 63 10000 3.77 342 05:48 20.03.2022
3151 Clouds 4 1019 76 10000 4.57 325 02:45 20.03.2022
3152 Clouds 4 1019 75 10000 5.18 317 00:48 20.03.2022
3153 Clouds 5 1020 75 10000 6.36 315 23:20 19.03.2022
3154 Clear 5 1020 75 10000 7.16 318 21:32 19.03.2022
3155 Clear 6 1020 75 10000 6.61 312 20:58 19.03.2022
3156 Clear 7 1019 66 10000 6.49 314 18:59 19.03.2022
3157 Clear 9 1018 62 10000 6.63 310 18:25 19.03.2022
3158 Clear 9 1018 62 10000 6.63 310 17:41 19.03.2022
3159 Clouds 11 1017 52 10000 8.94 290 16:24 19.03.2022
3160 Clouds 12 1016 47 10000 9.99 285 15:20 19.03.2022
3161 Clear 13 1016 45 10000 10.27 289 13:35 19.03.2022
3162 Clouds 14 1016 44 10000 11.04 281 12:41 19.03.2022
3163 Clouds 14 1016 43 10000 10.85 277 11:54 19.03.2022
3164 Clouds 14 1016 43 10000 10.85 277 11:33 19.03.2022
3165 Clouds 11 1019 59 10000 8.02 276 08:23 19.03.2022
3166 Clouds 8 1018 79 10000 4.94 267 04:23 19.03.2022
3167 Clouds 8 1018 85 10000 4.76 266 02:30 19.03.2022
3168 Clear 8 1019 90 10000 3.34 275 23:46 18.03.2022
3169 Clear 9 1020 89 10000 3.1 280 22:36 18.03.2022
3170 Clouds 9 1020 88 10000 3.03 299 21:56 18.03.2022
3171 Clouds 10 1020 82 10000 3.06 312 19:57 18.03.2022
3172 Clouds 10 1020 79 10000 3.44 308 19:22 18.03.2022
3173 Clouds 10 1020 79 10000 3.18 310 18:34 18.03.2022
3174 Clouds 11 1019 70 10000 5.53 294 16:52 18.03.2022
3175 Clouds 12 1018 64 10000 6.79 289 15:52 18.03.2022
3176 Clouds 14 1018 56 10000 7.59 295 14:25 18.03.2022
3177 Clouds 14 1018 51 10000 7.27 296 13:18 18.03.2022
3178 Clouds 13 1019 53 10000 6.5 283 11:28 18.03.2022
3179 Clouds 12 1020 57 10000 6.42 282 09:41 18.03.2022
3180 Clouds 12 1021 59 10000 6.04 289 08:45 18.03.2022
3181 Clear 8 1022 67 10000 3.74 290 06:45 18.03.2022
3182 Clear 6 1022 80 10000 2.97 292 04:38 18.03.2022
3183 Clear 6 1022 80 10000 2.97 292 04:38 18.03.2022
3184 Clear 6 1022 79 10000 3.54 309 00:55 18.03.2022
3185 Clear 6 1022 78 10000 3.66 311 23:52 17.03.2022
3186 Clear 6 1022 78 10000 3.66 311 23:52 17.03.2022
3187 Clear 6 1022 78 10000 3.66 311 23:52 17.03.2022
3188 Clear 6 1022 78 10000 3.66 311 23:52 17.03.2022
3189 Clear 7 1022 76 10000 3.84 317 22:43 17.03.2022
3190 Clear 7 1022 74 10000 4.35 322 22:18 17.03.2022
3191 Clear 8 1023 71 10000 5.16 321 21:27 17.03.2022
3192 Clear 8 1023 71 10000 5.16 321 20:52 17.03.2022
3193 Clear 8 1023 69 10000 5.9 321 20:19 17.03.2022
3194 Clear 8 1023 69 10000 5.9 321 19:37 17.03.2022
3195 Clear 8 1023 68 10000 6.97 321 18:51 17.03.2022
3196 Clear 11 1021 47 10000 6.69 306 17:28 17.03.2022
3197 Clear 12 1020 32 10000 7.17 297 16:19 17.03.2022
3198 Clear 12 1020 32 10000 7.17 297 16:19 17.03.2022
3199 Clear 12 1020 32 10000 7.17 297 15:42 17.03.2022
3200 Clear 13 1020 23 10000 7.2 290 14:59 17.03.2022
3201 Clear 14 1020 23 10000 5.64 277 13:35 17.03.2022
3202 Clear 14 1020 22 10000 4.68 262 12:44 17.03.2022
3203 Clear 13 1021 24 10000 4.18 253 11:32 17.03.2022
3204 Clear 12 1022 27 10000 3.62 244 10:43 17.03.2022
3205 Clear 11 1024 31 10000 2.94 235 09:36 17.03.2022
3206 Clear 7 1025 47 10000 1.85 253 08:19 17.03.2022
3207 Clear 5 1026 60 10000 1.64 311 05:51 17.03.2022
3208 Clear 3 1026 66 10000 1.49 306 04:30 17.03.2022
3209 Clear 4 1026 66 10000 2.84 338 00:27 17.03.2022
3210 Clear 5 1026 66 10000 3.49 326 22:56 16.03.2022
3211 Clear 5 1026 66 10000 3.49 326 22:36 16.03.2022
3212 Clear 5 1026 65 10000 3.74 323 21:56 16.03.2022
3213 Clear 6 1026 64 10000 4.22 318 20:40 16.03.2022
3214 Clear 7 1025 59 10000 5.38 322 19:23 16.03.2022
3215 Clear 7 1025 59 10000 5.38 322 18:42 16.03.2022
3216 Clear 8 1025 53 10000 5.83 315 17:49 16.03.2022
3217 Clear 8 1025 53 10000 5.83 315 17:31 16.03.2022
3218 Clear 10 1023 38 10000 5.92 320 16:21 16.03.2022
3219 Clear 10 1023 34 10000 5.95 323 14:58 16.03.2022
3220 Clear 11 1023 32 10000 6.14 322 13:36 16.03.2022
3221 Clouds 10 1023 31 10000 5.91 319 12:55 16.03.2022
3222 Clouds 9 1024 34 10000 6.3 326 11:23 16.03.2022
3223 Clouds 9 1024 34 10000 6.3 326 10:37 16.03.2022
3224 Clouds 8 1025 37 10000 6.94 320 09:57 16.03.2022
3225 Clear 6 1026 49 10000 5.34 306 08:24 16.03.2022
3226 Clear 2 1025 71 10000 3.01 305 02:46 16.03.2022
3227 Clear 2 1025 57 10000 5.71 321 22:58 15.03.2022
3228 Clear 2 1025 57 10000 5.71 321 22:36 15.03.2022
3229 Clear 3 1026 58 10000 6.2 311 21:19 15.03.2022
3230 Clear 4 1025 62 10000 6.44 310 19:46 15.03.2022
3231 Clouds 4 1024 53 10000 7.9 299 17:47 15.03.2022
3232 Clouds 5 1023 47 10000 9.41 299 16:42 15.03.2022
3233 Clouds 6 1022 39 10000 10.46 299 15:42 15.03.2022
3234 Clouds 7 1022 42 10000 10.89 292 14:54 15.03.2022
3235 Clouds 7 1022 48 10000 11.93 300 13:57 15.03.2022
3236 Clouds 9 1021 39 10000 10.23 290 13:24 15.03.2022
3237 Clouds 9 1021 41 10000 9.36 286 11:34 15.03.2022
3238 Clouds 8 1022 45 10000 8.9 288 10:55 15.03.2022
3239 Clear 7 1023 52 10000 7.03 293 09:29 15.03.2022
3240 Clouds 6 1024 57 10000 6.11 289 08:27 15.03.2022
3241 Clouds 6 1024 57 10000 6.11 289 07:38 15.03.2022
3242 Clear 5 1024 59 10000 5.24 283 06:32 15.03.2022
3243 Clear 3 1023 66 10000 3.34 305 01:57 15.03.2022
3244 Clear 3 1024 63 10000 5.71 307 23:31 14.03.2022
3245 Clear 3 1024 62 10000 5.93 308 22:52 14.03.2022
3246 Clear 4 1024 61 10000 5.98 306 21:56 14.03.2022
3247 Clear 4 1024 60 10000 5.9 304 21:18 14.03.2022
3248 Clear 4 1024 60 10000 5.9 304 20:30 14.03.2022
3249 Clear 5 1024 59 10000 6.17 305 19:33 14.03.2022
3250 Clouds 6 1023 55 10000 7.41 311 17:59 14.03.2022
3251 Clouds 6 1023 55 10000 7.41 311 17:41 14.03.2022
3252 Clouds 7 1022 52 10000 7.66 304 16:37 14.03.2022
3253 Clouds 9 1021 44 10000 9.08 300 14:58 14.03.2022
3254 Clouds 10 1020 42 10000 9.03 299 13:58 14.03.2022
3255 Clouds 9 1021 41 10000 7.16 302 11:27 14.03.2022
3256 Clouds 8 1022 45 10000 6.6 301 09:58 14.03.2022
3257 Clouds 8 1022 45 10000 6.6 301 09:58 14.03.2022
3258 Clouds 8 1022 45 10000 6.6 301 09:38 14.03.2022
3259 Clouds 7 1023 52 10000 6.03 301 09:18 14.03.2022
3260 Clouds 7 1023 52 10000 6.03 301 08:46 14.03.2022
3261 Clouds 5 1024 64 10000 5.57 305 07:19 14.03.2022
3262 Clouds 3 1022 73 10000 4.4 298 03:36 14.03.2022
3263 Clouds 4 1021 70 10000 5.71 298 01:46 14.03.2022
3264 Clouds 4 1021 68 10000 6.61 299 00:35 14.03.2022
3265 Clouds 5 1021 70 10000 6.52 291 21:55 13.03.2022
3266 Clouds 6 1021 73 10000 7.1 299 21:26 13.03.2022
3267 Clouds 6 1021 73 10000 7.1 299 20:46 13.03.2022
3268 Clouds 6 1021 76 10000 7.45 303 20:23 13.03.2022
3269 Clouds 6 1021 76 10000 7.45 303 19:42 13.03.2022
3270 Clouds 7 1020 73 10000 7.44 296 19:23 13.03.2022
3271 Clouds 7 1020 73 10000 7.44 296 19:23 13.03.2022
3272 Clouds 7 1020 73 10000 7.44 296 19:23 13.03.2022
3273 Clouds 7 1020 73 10000 7.44 296 19:23 13.03.2022
3274 Clouds 7 1020 73 10000 7.44 296 18:45 13.03.2022
3275 Clouds 7 1020 70 10000 7.43 294 18:26 13.03.2022
3276 Clouds 7 1020 70 10000 7.43 294 17:39 13.03.2022
3277 Clouds 8 1019 64 10000 8.11 288 16:48 13.03.2022
3278 Clouds 9 1019 59 10000 9.41 284 16:27 13.03.2022
3279 Clouds 9 1019 59 10000 9.41 284 15:43 13.03.2022
3280 Clear 11 1018 47 10000 9.78 278 14:49 13.03.2022
3281 Clear 12 1018 43 10000 8.64 273 13:30 13.03.2022
3282 Clear 12 1018 38 10000 7.04 271 12:26 13.03.2022
3283 Clear 12 1018 38 10000 7.04 271 11:45 13.03.2022
3284 Clear 11 1018 40 10000 6 273 11:25 13.03.2022
3285 Clear 11 1018 40 10000 6 273 10:44 13.03.2022
3286 Clear 10 1019 44 10000 5.06 274 09:43 13.03.2022
3287 Clear 8 1020 49 10000 3.99 269 09:20 13.03.2022
3288 Clear 8 1020 49 10000 3.99 269 08:39 13.03.2022
3289 Clear 7 1021 56 10000 2.68 261 07:37 13.03.2022
3290 Clear 4 1021 74 10000 2 284 05:39 13.03.2022
3291 Clear 4 1020 80 10000 4.43 311 01:48 13.03.2022
3292 Clear 4 1020 76 10000 4.95 305 23:30 12.03.2022
3293 Clear 5 1020 73 10000 5.67 292 21:48 12.03.2022
3294 Clear 6 1020 72 10000 6.11 296 20:27 12.03.2022
3295 Clear 6 1020 72 10000 6.11 296 19:46 12.03.2022
3296 Clouds 6 1021 73 10000 7.06 296 18:47 12.03.2022
3297 Clouds 7 1020 68 10000 7.75 289 18:20 12.03.2022
3298 Clouds 7 1019 68 10000 7.2 288 16:32 12.03.2022
3299 Clouds 8 1018 60 10000 7.77 277 15:55 12.03.2022
3300 Clouds 9 1018 59 10000 7.7 276 15:22 12.03.2022
3301 Clouds 9 1018 59 10000 7.7 276 15:22 12.03.2022
3302 Clouds 9 1018 58 10000 8.02 266 13:54 12.03.2022
3303 Clouds 10 1018 50 10000 7.83 277 12:33 12.03.2022
3304 Clouds 9 1018 50 10000 7.73 277 11:55 12.03.2022
3305 Clouds 9 1018 50 10000 7.73 277 11:34 12.03.2022
3306 Clouds 9 1018 50 10000 7.73 277 11:34 12.03.2022
3307 Clouds 9 1019 52 10000 7.87 276 10:43 12.03.2022
3308 Clouds 9 1019 53 10000 8.16 275 09:44 12.03.2022
3309 Clouds 8 1019 53 10000 8.27 278 08:41 12.03.2022
3310 Clouds 7 1020 67 10000 7.07 279 06:44 12.03.2022
3311 Clouds 4 1018 82 10000 8.06 281 01:44 12.03.2022
3312 Clouds 5 1019 71 10000 8.66 281 23:51 11.03.2022
3313 Clouds 5 1019 64 10000 9.45 284 22:45 11.03.2022
3314 Clouds 5 1019 60 10000 9.92 285 21:26 11.03.2022
3315 Clouds 5 1019 60 10000 9.92 285 20:51 11.03.2022
3316 Clouds 6 1019 59 10000 10.61 284 20:28 11.03.2022
3317 Clouds 6 1019 59 10000 10.61 284 19:36 11.03.2022
3318 Clouds 6 1018 57 10000 11.18 286 18:43 11.03.2022
3319 Clouds 7 1017 63 10000 11.5 285 17:26 11.03.2022
3320 Clouds 8 1016 61 10000 12.13 284 16:26 11.03.2022
3321 Clouds 8 1016 61 10000 12.13 284 15:51 11.03.2022
3322 Clouds 9 1015 49 10000 14.39 278 14:18 11.03.2022
3323 Clouds 10 1014 46 10000 14.86 272 12:43 11.03.2022
3324 Clouds 10 1014 49 10000 15.26 273 12:20 11.03.2022
3325 Clouds 10 1014 49 10000 15.26 273 11:40 11.03.2022
3326 Clouds 8 1014 55 10000 12.9 268 09:37 11.03.2022
3327 Clouds 7 1013 80 10000 11.22 268 08:29 11.03.2022
3328 Clouds 7 1013 80 10000 11.22 268 07:48 11.03.2022
3329 Clouds 7 1013 78 10000 11.23 265 06:59 11.03.2022
3330 Clouds 7 1011 76 10000 10.43 261 05:20 11.03.2022
3331 Clouds 7 1011 76 10000 10.38 258 02:45 11.03.2022
3332 Clouds 8 1011 69 10000 9.02 265 22:51 10.03.2022
3333 Clouds 9 1011 71 10000 9.39 269 22:27 10.03.2022
3334 Clear 9 1011 75 10000 8.44 274 21:26 10.03.2022
3335 Clear 9 1011 75 10000 8.44 274 20:39 10.03.2022
3336 Clouds 11 1009 58 10000 6.93 278 19:22 10.03.2022
3337 Clouds 11 1009 55 10000 5.83 275 18:30 10.03.2022
3338 Clouds 12 1009 49 10000 7.28 279 16:53 10.03.2022
3339 Clouds 13 1008 46 10000 10.41 274 15:41 10.03.2022
3340 Clouds 15 1008 37 10000 11.43 263 14:23 10.03.2022
3341 Clouds 15 1008 37 10000 11.02 261 12:46 10.03.2022
3342 Clouds 13 1008 39 10000 10.04 257 11:37 10.03.2022
3343 Clouds 12 1010 49 10000 8.03 255 10:19 10.03.2022
3344 Clouds 11 1011 55 10000 6.46 258 08:48 10.03.2022
3345 Clouds 9 1012 80 10000 3.09 265 05:50 10.03.2022
3346 Clouds 9 1011 86 10000 3.63 292 03:33 10.03.2022
3347 Clear 11 1011 82 10000 3.23 289 00:23 10.03.2022
3348 Clear 11 1011 82 10000 3.63 303 22:45 09.03.2022
3349 Clear 12 1011 79 10000 4.32 303 21:48 09.03.2022
3350 Clear 12 1011 76 10000 5.21 297 20:59 09.03.2022
3351 Clear 12 1009 73 10000 6.66 298 19:28 09.03.2022
3352 Clear 12 1008 71 10000 6.94 314 18:19 09.03.2022
3353 Clear 13 1007 67 10000 8.26 315 17:26 09.03.2022
3354 Clear 16 1006 59 10000 8.57 302 16:23 09.03.2022
3355 Clear 17 1005 40 10000 8.13 292 14:27 09.03.2022
3356 Clear 19 1005 40 10000 8.13 292 13:51 09.03.2022
3357 Clouds 18 1005 41 10000 6.4 292 12:27 09.03.2022
3358 Clouds 18 1005 41 10000 6.4 292 11:48 09.03.2022
3359 Clouds 17 1006 42 10000 5.23 291 10:59 09.03.2022
3360 Clouds 16 1007 43 10000 4.73 292 09:41 09.03.2022
3361 Clouds 15 1007 44 10000 4.26 295 08:47 09.03.2022
3362 Clouds 14 1007 50 10000 1.09 300 06:27 09.03.2022
3363 Clouds 13 1006 49 10000 2.35 192 01:53 09.03.2022
3364 Clouds 13 1008 45 10000 2.16 245 00:26 09.03.2022
3365 Clouds 14 1008 42 10000 3.93 159 22:46 08.03.2022
3366 Clouds 14 1008 33 10000 4.62 139 21:52 08.03.2022
3367 Clouds 14 1007 31 10000 3.43 101 21:21 08.03.2022
3368 Clouds 14 1007 32 10000 4.49 112 20:22 08.03.2022
3369 Clouds 14 1008 32 10000 4.09 93 19:24 08.03.2022
3370 Clouds 16 1008 29 10000 4.31 94 18:22 08.03.2022
3371 Clouds 18 1007 26 10000 3.02 83 16:44 08.03.2022
3372 Clouds 17 1008 22 10000 1.26 198 14:58 08.03.2022
3373 Clear 17 1009 24 10000 1.9 210 13:48 08.03.2022
3374 Clouds 16 1011 32 10000 1.36 271 12:23 08.03.2022
3375 Clouds 16 1011 32 10000 1.36 271 11:42 08.03.2022
3376 Clouds 15 1013 44 10000 1.81 297 10:29 08.03.2022
3377 Clouds 11 1014 53 10000 1.9 303 08:57 08.03.2022
3378 Clouds 11 1014 53 10000 1.9 303 08:57 08.03.2022
3379 Clouds 10 1015 71 10000 3.44 304 06:30 08.03.2022
3380 Clouds 9 1013 80 10000 4.03 317 02:50 08.03.2022
3381 Clouds 11 1014 72 10000 4.33 294 22:53 07.03.2022
3382 Clouds 12 1014 73 10000 4.41 291 21:45 07.03.2022
3383 Clouds 12 1014 72 10000 4.64 294 21:23 07.03.2022
3384 Clouds 13 1014 72 10000 4.64 294 20:38 07.03.2022
3385 Clouds 13 1014 70 10000 4.66 297 19:50 07.03.2022
3386 Clouds 13 1013 66 10000 4.56 301 19:24 07.03.2022
3387 Clouds 13 1013 66 10000 4.53 297 18:33 07.03.2022
3388 Clouds 15 1013 61 10000 5.45 294 17:33 07.03.2022
3389 Clouds 15 1012 56 10000 6.75 295 16:55 07.03.2022
3390 Clouds 16 1011 46 10000 8.28 295 14:57 07.03.2022
3391 Clouds 17 1011 37 10000 7.83 303 12:48 07.03.2022
3392 Clouds 17 1011 40 10000 6.96 306 12:20 07.03.2022
3393 Clear 16 1011 44 10000 6.57 307 10:35 07.03.2022
3394 Clear 14 1013 58 10000 4.98 303 08:35 07.03.2022
3395 Clear 12 1009 68 10000 4.08 332 02:58 07.03.2022
3396 Clear 14 1007 58 10000 8.96 279 00:21 07.03.2022
3397 Clear 14 1007 44 10000 9.87 272 23:28 06.03.2022
3398 Clear 15 1007 44 10000 9.87 272 22:30 06.03.2022
3399 Clear 15 1007 37 10000 10.21 271 21:45 06.03.2022
3400 Clear 16 1007 31 10000 9.96 272 20:30 06.03.2022
3401 Clear 17 1006 31 10000 8.24 268 19:48 06.03.2022
3402 Clouds 19 1005 32 10000 8.05 261 18:51 06.03.2022
3403 Clouds 19 1005 31 10000 7.5 257 17:53 06.03.2022
3404 Clouds 19 1003 31 10000 5.26 248 17:20 06.03.2022
3405 Clouds 20 1003 31 10000 5.26 248 16:40 06.03.2022
3406 Clouds 20 1003 31 10000 5.26 248 16:40 06.03.2022
3407 Clouds 21 1003 27 10000 4.97 255 15:37 06.03.2022
3408 Clouds 20 1003 23 10000 6.53 260 14:49 06.03.2022
3409 Clouds 20 1002 20 10000 8.02 249 14:28 06.03.2022
3410 Clouds 18 1003 21 10000 4.48 222 12:44 06.03.2022
3411 Clouds 17 1005 25 10000 4.7 147 11:56 06.03.2022
3412 Clouds 16 1008 26 10000 8.21 168 10:45 06.03.2022
3413 Clouds 13 1008 31 10000 9.45 128 09:43 06.03.2022
3414 Clouds 10 1013 39 10000 3.48 84 08:29 06.03.2022
3415 Clouds 10 1013 39 10000 3.48 84 07:34 06.03.2022
3416 Clouds 9 1013 50 10000 3.28 110 04:45 06.03.2022
3417 Clear 10 1014 47 10000 4.46 101 00:44 06.03.2022
3418 Clear 10 1014 46 10000 4.14 89 00:25 06.03.2022
3419 Clear 10 1015 46 10000 3.82 91 23:20 05.03.2022
3420 Clear 11 1015 46 10000 3.82 91 22:43 05.03.2022
3421 Clear 12 1015 45 10000 3.78 88 21:45 05.03.2022
3422 Clear 12 1015 45 10000 2.17 66 21:20 05.03.2022
3423 Clear 13 1015 45 10000 1.96 353 19:24 05.03.2022
3424 Clear 14 1015 45 10000 1.96 353 18:51 05.03.2022
3425 Clear 15 1015 44 10000 2.97 2 17:43 05.03.2022
3426 Clear 16 1014 38 10000 2.82 337 16:26 05.03.2022
3427 Clear 16 1014 38 10000 2.82 337 15:31 05.03.2022
3428 Clear 16 1014 36 10000 2.97 319 14:44 05.03.2022
3429 Clear 16 1015 35 10000 3.71 304 14:26 05.03.2022
3430 Clear 16 1015 36 10000 3.61 298 13:20 05.03.2022
3431 Clear 14 1015 37 10000 3.06 294 11:48 05.03.2022
3432 Clear 14 1017 41 10000 3.06 299 11:18 05.03.2022
3433 Clear 11 1018 46 10000 2.8 301 09:59 05.03.2022
3434 Clear 11 1019 53 10000 3 303 08:59 05.03.2022
3435 Clear 9 1019 61 10000 2.75 309 07:37 05.03.2022
3436 Clouds 6 1019 78 10000 2.32 320 05:43 05.03.2022
3437 Clouds 7 1017 77 10000 3.76 317 02:27 05.03.2022
3438 Clouds 8 1018 76 10000 4.09 324 23:37 04.03.2022
3439 Clouds 7 1018 75 10000 4.72 320 22:42 04.03.2022
3440 Clouds 9 1018 73 10000 5.05 320 21:48 04.03.2022
3441 Clouds 9 1018 73 10000 5.43 324 20:52 04.03.2022
3442 Clouds 9 1018 72 10000 4.88 324 20:24 04.03.2022
3443 Clouds 9 1018 72 10000 4.88 324 19:36 04.03.2022
3444 Clear 10 1018 68 10000 4.97 321 18:44 04.03.2022
3445 Clear 11 1018 62 10000 5.12 306 17:32 04.03.2022
3446 Clear 12 1016 56 10000 4.2 293 16:46 04.03.2022
3447 Clear 12 1016 46 10000 6.61 284 15:29 04.03.2022
3448 Clear 12 1016 44 10000 7.24 280 14:29 04.03.2022
3449 Clear 12 1016 43 10000 7.45 281 13:26 04.03.2022
3450 Clear 11 1016 45 10000 7.96 282 11:41 04.03.2022
3451 Clear 11 1017 47 10000 8 280 10:52 04.03.2022
3452 Clear 10 1018 50 10000 8.22 278 09:52 04.03.2022
3453 Clear 10 1018 53 10000 8.84 278 08:39 04.03.2022
3454 Clear 9 1018 59 10000 9.53 282 07:36 04.03.2022
3455 Clear 8 1017 75 10000 8.88 286 03:56 04.03.2022
3456 Clear 8 1017 70 10000 8.88 286 00:28 04.03.2022
3457 Clear 8 1017 70 10000 9.83 283 22:28 03.03.2022
3458 Clear 8 1017 70 10000 9.83 283 21:44 03.03.2022
3459 Clear 8 1016 67 10000 11.13 282 21:26 03.03.2022
3460 Clear 8 1016 69 10000 11.84 284 19:55 03.03.2022
3461 Clouds 8 1015 68 10000 12.67 285 18:55 03.03.2022
3462 Clouds 8 1014 69 10000 12.08 282 18:24 03.03.2022
3463 Clouds 8 1014 69 10000 12.08 282 17:31 03.03.2022
3464 Clouds 8 1014 69 10000 12.08 282 17:31 03.03.2022
3465 Clouds 9 1013 64 10000 13.79 282 16:25 03.03.2022
3466 Clouds 9 1013 64 10000 13.79 282 15:32 03.03.2022
3467 Clouds 9 1012 60 10000 14.54 280 14:43 03.03.2022
3468 Clouds 10 1011 65 10000 14.53 275 14:24 03.03.2022
3469 Clouds 8 1011 58 10000 15.9 270 12:27 03.03.2022
3470 Clouds 13 1011 54 10000 16.2 263 10:49 03.03.2022
3471 Clouds 13 1010 54 10000 15.55 263 09:45 03.03.2022
3472 Clouds 12 1011 50 10000 15.02 265 08:34 03.03.2022
3473 Clouds 13 1009 74 10000 12.23 273 06:38 03.03.2022
3474 Clouds 15 1008 69 10000 6.69 269 04:47 03.03.2022
3475 Clouds 17 1007 31 10000 3.99 252 23:45 02.03.2022
3476 Clouds 17 1008 29 10000 3.68 254 22:54 02.03.2022
3477 Clouds 17 1008 29 10000 3.68 254 22:31 02.03.2022
3478 Clouds 18 1009 27 10000 3.51 256 20:59 02.03.2022
3479 Clouds 18 1009 28 10000 1.89 237 20:25 02.03.2022
3480 Clouds 18 1009 28 10000 1.89 237 19:37 02.03.2022
3481 Clouds 18 1009 29 10000 0.98 198 19:18 02.03.2022
3482 Clouds 20 1010 31 10000 2.19 245 18:31 02.03.2022
3483 Clouds 21 1010 33 10000 2.03 258 17:41 02.03.2022
3484 Clouds 22 1010 31 10000 3.1 281 16:52 02.03.2022
3485 Clouds 23 1009 23 10000 3.49 268 15:59 02.03.2022
3486 Clouds 25 1009 17 10000 5.22 181 14:29 02.03.2022
3487 Clouds 25 1010 22 10000 5.16 157 12:56 02.03.2022
3488 Clouds 24 1010 22 10000 5.16 157 12:34 02.03.2022
3489 Clouds 22 1013 31 10000 6.53 149 11:27 02.03.2022
3490 Clouds 21 1013 31 10000 6.53 149 10:39 02.03.2022
3491 Clouds 19 1014 35 10000 6.57 137 09:37 02.03.2022
3492 Clouds 16 1015 39 10000 6.05 125 08:36 02.03.2022
3493 Clouds 13 1017 48 10000 2.81 116 07:23 02.03.2022
3494 Clouds 11 1016 55 10000 1.01 104 05:42 02.03.2022
3495 Clouds 14 1017 61 10000 3.14 344 00:42 02.03.2022
3496 Clouds 14 1018 65 10000 2.48 353 23:35 01.03.2022
3497 Clouds 14 1018 66 10000 2.47 344 22:40 01.03.2022
3498 Clouds 15 1019 66 10000 2.71 343 21:53 01.03.2022
3499 Clouds 15 1019 65 10000 3.11 338 20:41 01.03.2022
3500 Clouds 15 1019 63 10000 2.75 335 20:21 01.03.2022
3501 Clouds 16 1018 61 10000 2.82 336 18:59 01.03.2022
3502 Clouds 16 1018 58 10000 4.11 322 18:25 01.03.2022
3503 Clouds 16 1018 58 10000 4.11 322 17:55 01.03.2022
3504 Clouds 18 1017 51 10000 4.62 303 16:39 01.03.2022
3505 Clouds 21 1017 44 10000 5.7 296 15:49 01.03.2022
3506 Clouds 21 1017 38 10000 6.34 293 14:54 01.03.2022
3507 Clouds 21 1017 38 10000 6.34 293 14:33 01.03.2022
3508 Clouds 20 1017 32 10000 5.23 296 13:26 01.03.2022
3509 Clouds 20 1017 33 10000 5.27 298 12:38 01.03.2022
3510 Clouds 20 1017 32 10000 4.51 303 11:44 01.03.2022
3511 Clouds 18 1019 35 10000 3.15 295 09:53 01.03.2022
3512 Clouds 14 1020 38 10000 3.59 308 08:31 01.03.2022
3513 Clouds 12 1020 45 10000 3.5 306 07:35 01.03.2022
3514 Clouds 11 1019 75 10000 2.24 307 03:29 01.03.2022
3515 Clouds 10 1020 72 10000 3.53 309 00:58 01.03.2022
3516 Clouds 10 1020 68 10000 2.93 303 23:47 28.02.2022
3517 Clouds 11 1020 66 10000 2.97 303 22:52 28.02.2022
3518 Clouds 12 1019 64 10000 3.06 312 21:48 28.02.2022
3519 Clouds 12 1019 64 10000 3.06 312 21:48 28.02.2022
3520 Clouds 12 1020 62 10000 3.53 317 21:24 28.02.2022
3521 Clouds 13 1020 61 10000 3.78 322 19:52 28.02.2022
3522 Clouds 13 1020 57 10000 4.25 327 19:22 28.02.2022
3523 Clouds 14 1020 59 10000 4 329 18:36 28.02.2022
3524 Clouds 17 1019 41 10000 4.22 315 17:23 28.02.2022
3525 Clouds 17 1019 41 10000 4.22 315 16:32 28.02.2022
3526 Clouds 19 1018 27 10000 3.15 298 15:23 28.02.2022
3527 Clouds 19 1018 27 10000 3.15 298 14:30 28.02.2022
3528 Clear 19 1018 27 10000 2.99 285 13:34 28.02.2022
3529 Clear 18 1018 28 10000 2.71 275 12:37 28.02.2022
3530 Clear 18 1018 32 10000 2 273 11:44 28.02.2022
3531 Clear 16 1019 39 10000 1.68 265 10:48 28.02.2022
3532 Clear 16 1020 46 10000 1.86 277 10:19 28.02.2022
3533 Clear 14 1020 46 10000 1.86 277 09:31 28.02.2022
3534 Clear 13 1021 57 10000 1.32 297 08:29 28.02.2022
3535 Clear 11 1021 63 10000 1.41 312 07:20 28.02.2022
3536 Clear 8 1020 74 10000 2.49 308 04:44 28.02.2022
3537 Clear 8 1020 73 10000 2.16 306 04:23 28.02.2022
3538 Clear 11 1020 65 10000 1.42 309 23:27 27.02.2022
3539 Clear 11 1020 65 10000 1.42 309 22:33 27.02.2022
3540 Clear 11 1021 60 10000 0.68 298 21:51 27.02.2022
3541 Clear 11 1020 57 10000 0.96 109 20:59 27.02.2022
3542 Clear 12 1020 55 10000 2.27 83 20:27 27.02.2022
3543 Clear 12 1020 55 10000 2.27 83 19:57 27.02.2022
3544 Clouds 13 1020 53 10000 2.89 58 19:26 27.02.2022
3545 Clouds 14 1020 53 10000 2.78 52 18:47 27.02.2022
3546 Clouds 15 1020 50 10000 2.94 32 17:56 27.02.2022
3547 Clouds 15 1019 47 10000 2.35 11 16:54 27.02.2022
3548 Clouds 16 1019 43 10000 1.22 324 16:21 27.02.2022
3549 Clear 16 1020 45 10000 1.67 229 13:25 27.02.2022
3550 Clouds 15 1020 43 10000 1.64 236 12:32 27.02.2022
3551 Clouds 14 1022 50 10000 2.02 207 10:59 27.02.2022
3552 Clear 14 1023 56 10000 1.71 196 10:20 27.02.2022
3553 Clear 13 1023 56 10000 1.71 196 09:50 27.02.2022
3554 Clear 12 1023 63 10000 0.89 233 09:20 27.02.2022
3555 Clear 9 1024 69 10000 0.96 298 07:54 27.02.2022
3556 Clear 7 1023 85 10000 2.36 336 05:38 27.02.2022
3557 Clear 7 1023 85 10000 2.36 336 05:38 27.02.2022
3558 Clear 8 1022 90 10000 3.07 320 02:35 27.02.2022
3559 Clear 9 1022 89 10000 2.9 298 23:30 26.02.2022
3560 Clear 9 1022 89 10000 2.9 298 23:30 26.02.2022
3561 Clear 10 1022 89 10000 2.98 293 22:31 26.02.2022
3562 Clear 10 1022 86 10000 3.22 298 21:18 26.02.2022
3563 Clear 10 1022 84 10000 3.24 292 20:27 26.02.2022
3564 Clear 10 1022 84 10000 3.24 292 19:52 26.02.2022
3565 Clear 10 1022 84 10000 3.24 292 19:31 26.02.2022
3566 Clouds 10 1021 77 10000 4.22 278 17:55 26.02.2022
3567 Clouds 10 1020 71 10000 4.54 282 17:29 26.02.2022
3568 Clouds 10 1020 71 10000 4.54 282 17:29 26.02.2022
3569 Clouds 10 1020 71 10000 4.54 282 16:33 26.02.2022
3570 Clouds 10 1019 58 10000 7.12 290 15:26 26.02.2022
3571 Clouds 11 1019 58 10000 7.12 290 14:57 26.02.2022
3572 Clouds 11 1019 58 10000 7.12 290 14:38 26.02.2022
3573 Clouds 11 1018 55 10000 7.2 285 13:46 26.02.2022
3574 Clouds 10 1018 55 10000 6.46 286 12:53 26.02.2022
3575 Clouds 10 1018 57 10000 6.14 288 11:39 26.02.2022
3576 Clouds 10 1019 60 10000 6.19 283 10:59 26.02.2022
3577 Clouds 10 1020 67 10000 5.08 267 09:22 26.02.2022
3578 Clouds 9 1020 73 10000 4.77 261 08:21 26.02.2022
3579 Clouds 8 1017 87 10000 3.96 263 04:22 26.02.2022
3580 Clouds 9 1016 83 10000 6.66 255 23:50 25.02.2022
3581 Clouds 9 1016 82 10000 6.22 249 22:31 25.02.2022
3582 Clouds 9 1016 84 10000 6.24 249 21:30 25.02.2022
3583 Clear 9 1017 83 10000 6.1 254 20:34 25.02.2022
3584 Clear 9 1016 79 10000 6.57 262 19:56 25.02.2022
3585 Clouds 9 1016 74 10000 6.86 258 17:54 25.02.2022
3586 Clouds 9 1015 73 10000 7.85 262 16:48 25.02.2022
3587 Clouds 9 1015 68 10000 8.29 263 15:50 25.02.2022
3588 Clouds 9 1014 65 10000 9.41 261 15:23 25.02.2022
3589 Clouds 9 1014 65 10000 9.41 261 14:55 25.02.2022
3590 Clouds 9 1014 73 10000 9.87 257 14:19 25.02.2022
3591 Clouds 9 1014 73 10000 9.87 257 13:30 25.02.2022
3592 Clouds 8 1013 72 10000 9.76 246 12:21 25.02.2022
3593 Clouds 11 1013 60 10000 11.47 241 11:21 25.02.2022
3594 Clouds 11 1013 50 10000 11.18 239 10:23 25.02.2022
3595 Clouds 10 1013 50 10000 11.18 239 09:45 25.02.2022
3596 Clear 11 1013 60 10000 8.84 234 08:22 25.02.2022
3597 Clear 10 1013 69 10000 7.18 242 06:56 25.02.2022
3598 Clouds 9 1013 74 10000 4.85 245 05:41 25.02.2022
3599 Clear 9 1013 74 10000 4.78 252 02:43 25.02.2022
3600 Clear 10 1013 68 10000 6.5 263 22:47 24.02.2022
3601 Clear 11 1012 63 10000 5.4 267 21:51 24.02.2022
3602 Clear 11 1012 63 10000 5.4 267 21:30 24.02.2022
3603 Clear 11 1012 62 10000 4.47 279 20:47 24.02.2022
3604 Clear 11 1011 64 10000 5.15 300 19:32 24.02.2022
3605 Clouds 12 1011 66 10000 8.34 302 18:21 24.02.2022
3606 Clouds 12 1011 66 10000 8.34 302 17:58 24.02.2022
3607 Clouds 12 1010 69 10000 9.11 289 17:21 24.02.2022
3608 Clouds 13 1010 65 10000 9.14 282 16:28 24.02.2022
3609 Clouds 14 1010 65 10000 9.14 282 15:44 24.02.2022
3610 Clear 16 1009 53 10000 8.6 281 14:50 24.02.2022
3611 Clear 16 1009 46 10000 8.24 268 14:19 24.02.2022
3612 Clear 16 1009 46 10000 8.24 268 13:39 24.02.2022
3613 Clear 16 1009 46 10000 8.24 268 13:39 24.02.2022
3614 Clear 16 1009 36 10000 6.87 265 11:56 24.02.2022
3615 Clear 16 1009 32 10000 6.18 268 10:39 24.02.2022
3616 Clear 16 1010 30 10000 2.41 255 08:46 24.02.2022
3617 Clear 16 1010 33 10000 0.93 111 08:22 24.02.2022
3618 Clouds 13 1010 39 10000 2.3 108 05:50 24.02.2022
3619 Clouds 19 1011 33 10000 4.27 101 00:32 24.02.2022
3620 Clouds 19 1011 30 10000 3.44 108 22:38 23.02.2022
3621 Clouds 19 1011 29 10000 3.81 110 21:34 23.02.2022
3622 Clouds 20 1011 29 10000 3.37 102 20:30 23.02.2022
3623 Clear 20 1011 29 10000 3.6 106 19:44 23.02.2022
3624 Clouds 20 1011 24 10000 4.82 104 18:32 23.02.2022
3625 Clouds 21 1011 23 10000 4.9 101 17:21 23.02.2022
3626 Clouds 23 1011 19 10000 5.13 128 14:34 23.02.2022
3627 Clouds 22 1011 18 10000 5.67 129 12:37 23.02.2022
3628 Clouds 21 1013 20 10000 5.52 124 11:24 23.02.2022
3629 Clouds 18 1013 20 10000 5.52 124 10:31 23.02.2022
3630 Clear 17 1015 26 10000 5.07 116 08:58 23.02.2022
3631 Clouds 15 1015 32 10000 5.16 112 07:58 23.02.2022
3632 Clouds 10 1014 38 10000 3.23 115 03:48 23.02.2022
3633 Clouds 12 1014 37 10000 1.49 92 00:28 23.02.2022
3634 Clouds 11 1014 37 10000 1.49 92 23:36 22.02.2022
3635 Clouds 12 1014 39 10000 1.27 104 22:31 22.02.2022
3636 Clouds 12 1014 40 10000 0.95 119 21:49 22.02.2022
3637 Clouds 12 1014 40 10000 0.95 119 21:30 22.02.2022
3638 Clouds 12 1014 40 10000 0.95 119 21:30 22.02.2022
3639 Clouds 12 1014 41 10000 0.95 91 20:55 22.02.2022
3640 Clouds 13 1015 43 10000 1.7 19 20:29 22.02.2022
3641 Clouds 14 1015 43 10000 1.7 19 19:42 22.02.2022
3642 Clouds 14 1014 45 10000 3.12 353 19:19 22.02.2022
3643 Clouds 16 1014 46 10000 5 339 17:48 22.02.2022
3644 Clouds 16 1014 33 10000 3.19 344 17:21 22.02.2022
3645 Clouds 19 1014 33 10000 3.19 344 16:37 22.02.2022
3646 Clouds 20 1013 29 10000 2.44 343 15:44 22.02.2022
3647 Clouds 20 1013 29 10000 2.44 343 15:44 22.02.2022
3648 Clouds 21 1013 25 10000 2.48 315 14:44 22.02.2022
3649 Clouds 20 1014 25 10000 3.01 272 12:31 22.02.2022
3650 Clouds 16 1015 31 10000 2.08 234 10:52 22.02.2022
3651 Clear 15 1017 44 10000 1.68 235 08:41 22.02.2022
3652 Clouds 10 1018 65 10000 0.88 236 07:27 22.02.2022
3653 Clouds 8 1018 77 10000 1.47 284 05:57 22.02.2022
3654 Clouds 10 1017 85 10000 1.63 298 02:45 22.02.2022
3655 Clouds 11 1019 87 10000 2.8 323 22:46 21.02.2022
3656 Clouds 11 1019 85 10000 3.01 314 21:42 21.02.2022
3657 Clouds 12 1019 83 10000 3.1 317 20:36 21.02.2022
3658 Clear 14 1019 77 10000 3.93 313 18:46 21.02.2022
3659 Clear 14 1019 72 10000 4.62 299 17:36 21.02.2022
3660 Clear 15 1018 51 10000 6.86 297 15:22 21.02.2022
3661 Clear 15 1018 47 10000 6.99 296 14:22 21.02.2022
3662 Clear 16 1018 47 10000 6.99 296 13:30 21.02.2022
3663 Clouds 15 1019 48 10000 6.66 296 12:24 21.02.2022
3664 Clouds 15 1020 53 10000 6 292 11:20 21.02.2022
3665 Clouds 12 1021 59 10000 6.31 293 09:50 21.02.2022
3666 Clouds 10 1022 87 10000 5.69 296 05:35 21.02.2022
3667 Clear 10 1022 89 10000 5.47 292 00:18 21.02.2022
3668 Clear 10 1023 86 10000 6.24 291 22:27 20.02.2022
3669 Clear 10 1023 86 10000 6.24 291 21:42 20.02.2022
3670 Clear 10 1023 84 10000 6.99 290 20:59 20.02.2022
3671 Clear 11 1023 84 10000 6.99 290 20:41 20.02.2022
3672 Clear 11 1022 82 10000 7.27 289 19:36 20.02.2022
3673 Clear 11 1022 79 10000 6.9 285 18:51 20.02.2022
3674 Clear 11 1022 79 10000 6.9 285 18:32 20.02.2022
3675 Clear 12 1021 77 10000 7.56 284 17:52 20.02.2022
3676 Clear 13 1020 63 10000 8.51 293 15:54 20.02.2022
3677 Clear 14 1020 57 10000 9.62 297 14:52 20.02.2022
3678 Clear 15 1020 54 10000 10.32 300 13:33 20.02.2022
3679 Clouds 14 1019 51 10000 9.79 304 12:34 20.02.2022
3680 Clouds 12 1019 53 10000 8.86 308 10:47 20.02.2022
3681 Clouds 12 1020 60 10000 8.57 308 10:20 20.02.2022
3682 Clouds 11 1020 68 10000 7.85 308 08:51 20.02.2022
3683 Clouds 10 1018 90 10000 5.74 314 00:54 20.02.2022
3684 Clouds 10 1017 88 10000 5.08 317 00:30 20.02.2022
3685 Clouds 10 1017 83 10000 6.7 317 23:18 19.02.2022
3686 Clouds 10 1016 77 10000 6.01 317 22:22 19.02.2022
3687 Clouds 10 1016 77 10000 6.01 317 21:34 19.02.2022
3688 Clouds 10 1015 67 10000 6.68 316 19:54 19.02.2022
3689 Clouds 10 1015 67 10000 6.68 316 19:33 19.02.2022
3690 Clouds 10 1014 80 10000 8.66 297 18:35 19.02.2022
3691 Clouds 11 1013 73 10000 7.9 301 17:37 19.02.2022
3692 Clouds 11 1011 68 10000 7.67 293 16:28 19.02.2022
3693 Clouds 12 1010 56 10000 6.39 296 15:18 19.02.2022
3694 Clouds 12 1010 56 10000 6.39 296 14:49 19.02.2022
3695 Clouds 13 1009 51 10000 5.83 322 13:45 19.02.2022
3696 Clouds 12 1008 54 10000 5.78 319 11:39 19.02.2022
3697 Clouds 11 1009 54 10000 4.79 324 09:57 19.02.2022
3698 Clouds 10 1010 61 10000 7.94 329 07:55 19.02.2022
3699 Clouds 11 1009 58 10000 5.95 332 04:32 19.02.2022
3700 Clouds 12 1009 52 10000 3.51 352 23:38 18.02.2022
3701 Clouds 12 1009 49 10000 4.23 338 21:53 18.02.2022
3702 Clouds 13 1010 49 10000 3.79 333 20:57 18.02.2022
3703 Clouds 14 1010 49 10000 4.25 341 19:54 18.02.2022
3704 Clouds 14 1010 44 10000 4.39 342 18:50 18.02.2022
3705 Clouds 14 1009 36 10000 3.79 336 18:22 18.02.2022
3706 Clouds 14 1009 36 10000 3.79 336 17:55 18.02.2022
3707 Clouds 19 1008 26 10000 1.99 313 15:22 18.02.2022
3708 Clouds 19 1008 26 10000 1.05 312 13:55 18.02.2022
3709 Clear 18 1009 28 10000 0.61 319 12:55 18.02.2022
3710 Clouds 18 1009 28 10000 0.47 327 12:36 18.02.2022
3711 Clouds 17 1009 31 10000 0.32 14 11:40 18.02.2022
3712 Clouds 17 1011 36 10000 0.8 104 10:23 18.02.2022
3713 Clouds 8 1011 46 10000 1 95 06:58 18.02.2022
3714 Clouds 8 1011 53 10000 0.6 3 05:41 18.02.2022
3715 Clouds 11 1010 47 10000 2.67 129 23:43 17.02.2022
3716 Clouds 13 1011 44 10000 3.42 113 21:46 17.02.2022
3717 Clouds 13 1012 43 10000 3.27 109 21:20 17.02.2022
3718 Clouds 13 1012 43 10000 3.27 109 20:39 17.02.2022
3719 Clouds 12 1012 42 10000 3.13 89 19:50 17.02.2022
3720 Clouds 15 1012 44 10000 3.04 88 18:52 17.02.2022
3721 Clouds 15 1011 42 10000 3.38 83 17:55 17.02.2022
3722 Clouds 17 1011 40 10000 3.67 80 16:43 17.02.2022
3723 Clouds 17 1011 37 10000 2.42 78 15:38 17.02.2022
3724 Clouds 17 1011 34 10000 2.11 143 14:28 17.02.2022
3725 Clouds 16 1012 35 10000 2.33 162 12:50 17.02.2022
3726 Clouds 15 1014 42 10000 2.88 152 11:27 17.02.2022
3727 Clouds 12 1016 54 10000 3.08 142 09:18 17.02.2022
3728 Clouds 7 1017 75 10000 1.61 319 04:20 17.02.2022
3729 Clouds 8 1018 75 10000 3.67 324 23:21 16.02.2022
3730 Clouds 9 1018 74 10000 3.99 315 21:45 16.02.2022
3731 Clouds 10 1019 71 10000 4.47 319 19:57 16.02.2022
3732 Clouds 11 1018 66 10000 4.54 323 18:43 16.02.2022
3733 Clear 11 1018 60 10000 4.36 323 17:53 16.02.2022
3734 Clear 13 1017 47 10000 4.59 316 15:55 16.02.2022
3735 Clear 13 1017 41 10000 4.7 323 15:19 16.02.2022
3736 Clear 14 1017 39 10000 4.27 312 13:31 16.02.2022
3737 Clear 13 1018 42 10000 3.91 306 12:20 16.02.2022
3738 Clear 12 1018 42 10000 3.91 306 11:31 16.02.2022
3739 Clear 12 1019 45 10000 3.81 310 10:34 16.02.2022
3740 Clear 10 1021 56 10000 4.19 322 08:58 16.02.2022
3741 Clear 9 1022 74 10000 4.42 322 06:43 16.02.2022
3742 Clear 9 1021 82 10000 5.18 326 23:45 15.02.2022
3743 Clear 10 1021 81 10000 5.39 328 22:34 15.02.2022
3744 Clear 10 1021 81 10000 5.79 330 21:49 15.02.2022
3745 Clear 10 1021 81 10000 6.08 330 21:29 15.02.2022
3746 Clear 10 1021 81 10000 6.08 330 20:56 15.02.2022
3747 Clear 11 1021 81 10000 6.22 330 19:59 15.02.2022
3748 Clear 11 1021 81 10000 6.22 330 19:33 15.02.2022
3749 Clear 11 1020 74 10000 6.26 322 18:24 15.02.2022
3750 Clear 12 1020 74 10000 6.26 322 17:52 15.02.2022
3751 Clear 12 1019 60 10000 6.03 323 17:26 15.02.2022
3752 Clear 14 1018 51 10000 6.01 323 15:34 15.02.2022
3753 Clear 16 1018 48 10000 3.96 304 13:29 15.02.2022
3754 Clear 16 1018 47 10000 4.03 306 12:59 15.02.2022
3755 Clear 14 1018 50 10000 4.02 308 11:41 15.02.2022
3756 Clear 14 1018 50 10000 4.02 308 11:41 15.02.2022
3757 Clear 13 1020 58 10000 2.73 311 09:54 15.02.2022
3758 Clear 8 1022 81 10000 2.03 341 07:00 15.02.2022
3759 Clear 8 1022 81 10000 2.47 342 06:36 15.02.2022
3760 Clear 8 1021 85 10000 3.81 316 23:34 14.02.2022
3761 Clear 9 1021 82 10000 4.15 310 21:55 14.02.2022
3762 Clear 10 1021 81 10000 4.27 315 20:52 14.02.2022
3763 Clear 10 1021 79 10000 4.37 311 19:46 14.02.2022
3764 Clear 10 1021 76 10000 4.56 316 19:28 14.02.2022
3765 Clear 11 1020 71 10000 4.93 314 18:23 14.02.2022
3766 Clear 12 1020 66 10000 5.7 313 17:27 14.02.2022
3767 Clear 12 1019 59 10000 6.66 308 16:27 14.02.2022
3768 Clear 14 1018 53 10000 7.32 304 14:43 14.02.2022
3769 Clear 14 1018 50 10000 7.36 304 13:34 14.02.2022
3770 Clear 14 1017 49 10000 7.06 298 12:58 14.02.2022
3771 Clear 13 1017 50 10000 6.55 296 11:57 14.02.2022
3772 Clear 13 1017 50 10000 6.55 296 11:38 14.02.2022
3773 Clouds 12 1020 58 10000 6.56 296 10:18 14.02.2022
3774 Clear 10 1020 70 10000 6.39 295 07:49 14.02.2022
3775 Clear 10 1020 81 10000 5.29 288 07:24 14.02.2022
3776 Clear 10 1019 46 10000 3.98 292 22:48 13.02.2022
3777 Clear 10 1019 46 10000 3.98 292 22:30 13.02.2022
3778 Clear 10 1019 41 10000 2.31 283 21:57 13.02.2022
3779 Clear 12 1019 36 10000 0.88 228 21:23 13.02.2022
3780 Clear 13 1019 34 10000 1.66 150 20:27 13.02.2022
3781 Clear 13 1018 28 10000 1.7 132 19:18 13.02.2022
3782 Clear 14 1018 28 10000 1.7 132 18:41 13.02.2022
3783 Clear 16 1018 27 10000 0.34 195 17:22 13.02.2022
3784 Clear 20 1017 25 10000 0.54 178 15:51 13.02.2022
3785 Clear 19 1018 18 10000 1.61 180 14:50 13.02.2022
3786 Clear 19 1019 19 10000 3.07 152 13:29 13.02.2022
3787 Clear 18 1019 20 10000 2.75 165 12:42 13.02.2022
3788 Clear 15 1021 26 10000 3.83 156 10:44 13.02.2022
3789 Clear 15 1022 31 10000 3.84 153 10:25 13.02.2022
3790 Clear 12 1023 35 10000 3.5 151 08:56 13.02.2022
3791 Clear 6 1024 50 10000 2.47 152 02:50 13.02.2022
3792 Clear 8 1024 49 10000 1.8 142 00:33 13.02.2022
3793 Clear 8 1024 49 10000 1.11 139 22:56 12.02.2022
3794 Clear 8 1024 49 10000 1.11 139 22:32 12.02.2022
3795 Clear 8 1025 49 10000 0.86 178 21:18 12.02.2022
3796 Clear 11 1025 48 10000 1.06 197 20:24 12.02.2022
3797 Clear 11 1025 46 10000 1.44 188 18:54 12.02.2022
3798 Clear 11 1025 46 10000 1.44 188 18:36 12.02.2022
3799 Clear 13 1024 44 10000 1.89 190 17:55 12.02.2022
3800 Clear 15 1024 43 10000 2.1 184 16:54 12.02.2022
3801 Clear 15 1024 40 10000 1.68 169 16:18 12.02.2022
3802 Clear 16 1024 34 10000 1.73 151 15:23 12.02.2022
3803 Clear 15 1024 34 10000 1.73 151 14:30 12.02.2022
3804 Clear 15 1024 39 10000 1.78 142 12:26 12.02.2022
3805 Clear 13 1025 42 10000 1.9 135 10:34 12.02.2022
3806 Clear 12 1026 47 10000 2.21 132 09:38 12.02.2022
3807 Clear 9 1027 51 10000 2.53 137 08:48 12.02.2022
3808 Clear 9 1027 51 10000 2.53 137 08:48 12.02.2022
3809 Clear 6 1027 56 10000 2.16 137 07:50 12.02.2022
3810 Clear 5 1026 68 10000 1.09 129 05:31 12.02.2022
3811 Clear 6 1025 72 10000 0.85 350 02:20 12.02.2022
3812 Clear 7 1025 72 10000 1.16 27 00:31 12.02.2022
3813 Clear 7 1025 75 10000 2.46 353 22:27 11.02.2022
3814 Clear 8 1025 75 10000 2.46 353 21:45 11.02.2022
3815 Clear 8 1025 76 10000 2.86 343 20:38 11.02.2022
3816 Clear 9 1024 75 10000 3.5 330 19:33 11.02.2022
3817 Clouds 9 1024 72 10000 4.19 319 18:58 11.02.2022
3818 Clouds 11 1022 61 10000 4.4 310 17:28 11.02.2022
3819 Clouds 11 1022 61 10000 4.4 310 16:58 11.02.2022
3820 Clouds 11 1022 54 10000 4.62 320 15:55 11.02.2022
3821 Clouds 12 1021 48 10000 5.6 327 14:38 11.02.2022
3822 Clouds 12 1021 46 10000 5.83 325 14:20 11.02.2022
3823 Clouds 12 1021 46 10000 5.83 325 13:50 11.02.2022
3824 Clouds 12 1021 46 10000 5.83 325 13:31 11.02.2022
3825 Clear 11 1020 45 10000 4.54 325 11:32 11.02.2022
3826 Clear 9 1022 57 10000 4.9 321 09:45 11.02.2022
3827 Clear 9 1022 63 10000 4.89 318 08:40 11.02.2022
3828 Clear 9 1022 70 10000 4.47 320 08:22 11.02.2022
3829 Clouds 5 1022 79 10000 3.36 314 06:33 11.02.2022
3830 Clouds 7 1019 87 10000 3.13 309 02:26 11.02.2022
3831 Clouds 7 1019 87 10000 3.16 298 00:47 11.02.2022
3832 Clear 7 1019 88 10000 2.64 258 22:45 10.02.2022
3833 Clear 7 1019 89 10000 3.04 261 21:45 10.02.2022
3834 Clear 7 1019 88 10000 3.58 263 20:57 10.02.2022
3835 Clear 7 1019 88 10000 3.58 263 20:30 10.02.2022
3836 Clouds 7 1018 89 10000 4.12 268 19:25 10.02.2022
3837 Clouds 7 1018 85 10000 4.68 273 18:44 10.02.2022
3838 Clouds 7 1017 85 10000 4.96 273 17:26 10.02.2022
3839 Clouds 7 1017 85 10000 4.96 273 16:50 10.02.2022
3840 Clouds 6 1017 82 10000 5.59 267 15:49 10.02.2022
3841 Clouds 6 1016 82 10000 6.66 254 15:29 10.02.2022
3842 Clouds 8 1016 82 10000 6.66 254 14:47 10.02.2022
3843 Clouds 8 1016 82 10000 7.45 247 14:23 10.02.2022
3844 Clouds 7 1016 83 10000 8.61 245 13:26 10.02.2022
3845 Clouds 7 1016 83 10000 8.13 241 12:27 10.02.2022
3846 Clouds 7 1016 83 10000 8.13 241 11:33 10.02.2022
3847 Clouds 6 1016 84 10000 8.58 237 10:44 10.02.2022
3848 Clouds 6 1017 87 10000 8.63 233 09:57 10.02.2022
3849 Clouds 6 1017 88 10000 7.93 229 09:23 10.02.2022
3850 Clouds 6 1016 84 10000 8.55 236 07:19 10.02.2022
3851 Clouds 6 1014 79 10000 7.36 246 04:23 10.02.2022
3852 Clouds 7 1014 75 10000 7.99 258 01:48 10.02.2022
3853 Clouds 8 1014 76 10000 7.81 251 00:47 10.02.2022
3854 Clouds 8 1015 77 10000 7.9 258 00:27 10.02.2022
3855 Clouds 8 1015 73 10000 7.67 262 23:22 09.02.2022
3856 Clouds 8 1015 73 10000 7.67 262 22:35 09.02.2022
3857 Clouds 9 1015 72 10000 7.58 269 21:50 09.02.2022
3858 Clouds 9 1015 70 10000 7.29 272 21:28 09.02.2022
3859 Clouds 9 1015 70 10000 7.29 272 20:47 09.02.2022
3860 Clouds 9 1014 70 10000 7.75 279 20:24 09.02.2022
3861 Clouds 9 1014 70 10000 7.75 279 19:45 09.02.2022
3862 Clear 9 1014 74 10000 6.16 276 19:27 09.02.2022
3863 Clouds 11 1014 73 10000 7.51 279 17:37 09.02.2022
3864 Clouds 12 1014 74 10000 8.27 280 16:34 09.02.2022
3865 Clouds 14 1013 69 10000 9.14 274 15:40 09.02.2022
3866 Clear 14 1012 37 10000 9.15 271 14:28 09.02.2022
3867 Clear 16 1012 27 10000 8.66 260 12:28 09.02.2022
3868 Clear 16 1012 27 10000 8.66 260 12:28 09.02.2022
3869 Clear 17 1012 25 10000 7.07 255 10:51 09.02.2022
3870 Clear 17 1013 26 10000 4.52 248 10:26 09.02.2022
3871 Clear 16 1013 26 10000 4.52 248 09:35 09.02.2022
3872 Clear 15 1014 30 10000 2.07 218 08:59 09.02.2022
3873 Clear 10 1014 34 10000 1.14 154 07:53 09.02.2022
3874 Clear 8 1015 44 10000 1.27 111 05:30 09.02.2022
3875 Clear 8 1015 44 10000 1.74 95 03:50 09.02.2022
3876 Clouds 8 1015 42 10000 1.57 112 00:39 09.02.2022
3877 Clouds 9 1016 42 10000 0.95 114 23:31 08.02.2022
3878 Clouds 9 1016 43 10000 0.21 34 22:46 08.02.2022
3879 Clouds 9 1017 43 10000 0.22 355 22:21 08.02.2022
3880 Clouds 9 1017 43 10000 0.22 355 22:21 08.02.2022
3881 Clouds 9 1017 43 10000 0.22 355 22:21 08.02.2022
3882 Clouds 11 1017 43 10000 0.22 355 21:39 08.02.2022
3883 Clouds 11 1017 44 10000 0.21 148 21:20 08.02.2022
3884 Clouds 11 1017 44 10000 0.21 148 20:42 08.02.2022
3885 Clear 12 1018 43 10000 0.31 332 19:46 08.02.2022
3886 Clear 13 1017 39 10000 2.23 312 18:38 08.02.2022
3887 Clouds 16 1017 35 10000 2.41 296 17:40 08.02.2022
3888 Clouds 18 1017 31 10000 1.93 263 16:29 08.02.2022
3889 Clouds 19 1017 26 10000 2.03 244 15:29 08.02.2022
3890 Clouds 19 1017 26 10000 2.03 244 14:31 08.02.2022
3891 Clouds 19 1017 26 10000 2.39 220 13:20 08.02.2022
3892 Clouds 17 1018 32 10000 2.32 205 11:33 08.02.2022
3893 Clouds 16 1020 40 10000 2.19 178 10:23 08.02.2022
3894 Clouds 16 1020 40 10000 2.19 178 10:23 08.02.2022
3895 Clouds 14 1020 40 10000 2.19 178 09:44 08.02.2022
3896 Clouds 8 1022 51 10000 1.74 153 07:51 08.02.2022
3897 Clear 7 1022 68 10000 0.82 161 05:40 08.02.2022
3898 Clear 7 1021 69 10000 1.1 182 04:39 08.02.2022
3899 Clear 7 1021 70 10000 0.79 190 04:21 08.02.2022
3900 Clear 7 1021 70 10000 0.79 190 03:36 08.02.2022
3901 Clear 7 1021 71 10000 1.1 214 03:18 08.02.2022
3902 Clear 7 1021 71 10000 1.1 214 02:58 08.02.2022
3903 Clear 7 1021 71 10000 1.1 214 02:36 08.02.2022
3904 Clear 7 1021 71 10000 1.32 221 02:18 08.02.2022
3905 Clear 8 1021 71 10000 1.32 221 01:44 08.02.2022
3906 Clear 8 1022 71 10000 1.47 226 01:24 08.02.2022
3907 Clouds 9 1022 74 10000 1.4 224 00:54 08.02.2022
3908 Clouds 9 1022 75 10000 1.41 230 23:55 07.02.2022
3909 Clouds 9 1022 75 10000 1.41 230 23:37 07.02.2022
3910 Clouds 9 1022 77 10000 1.51 255 23:18 07.02.2022
3911 Clouds 9 1022 78 10000 1.57 274 22:19 07.02.2022
3912 Clouds 10 1022 78 10000 1.57 274 21:55 07.02.2022
3913 Clouds 10 1022 76 10000 2.19 295 21:29 07.02.2022
3914 Clouds 11 1022 76 10000 2.19 295 20:59 07.02.2022
3915 Clouds 11 1022 76 10000 2.19 295 20:40 07.02.2022
3916 Clouds 12 1022 73 10000 2.4 300 19:51 07.02.2022
3917 Clouds 12 1022 73 10000 2.4 300 19:32 07.02.2022
3918 Clouds 14 1022 66 10000 3.12 301 17:52 07.02.2022
3919 Clouds 14 1021 60 10000 2.88 293 16:53 07.02.2022
3920 Clouds 15 1021 55 10000 2.63 275 15:49 07.02.2022
3921 Clouds 15 1021 52 10000 2.84 269 14:56 07.02.2022
3922 Clear 15 1021 52 10000 3 281 13:28 07.02.2022
3923 Clear 15 1021 52 10000 3 281 12:52 07.02.2022
3924 Clear 14 1021 53 10000 3.31 280 11:58 07.02.2022
3925 Clear 14 1021 53 10000 3.31 280 11:36 07.02.2022
3926 Clear 13 1022 55 10000 3.15 278 10:51 07.02.2022
3927 Clear 13 1022 55 10000 3.15 278 10:31 07.02.2022
3928 Clear 12 1023 58 10000 2.85 281 09:53 07.02.2022
3929 Clear 12 1024 64 10000 3.04 288 09:18 07.02.2022
3930 Clear 10 1024 64 10000 3.04 288 08:39 07.02.2022
3931 Clouds 9 1025 74 10000 2.68 292 07:19 07.02.2022
3932 Clouds 9 1024 72 10000 3.01 282 06:34 07.02.2022
3933 Clouds 9 1024 78 10000 3.08 267 03:27 07.02.2022
3934 Clouds 9 1024 84 10000 3.57 271 00:45 07.02.2022
3935 Clouds 7 1025 84 10000 3.71 266 23:49 06.02.2022
3936 Clouds 9 1025 83 10000 3.86 269 22:49 06.02.2022
3937 Clouds 9 1025 77 10000 4.03 272 21:56 06.02.2022
3938 Clouds 9 1025 77 10000 4.03 272 21:35 06.02.2022
3939 Clouds 9 1025 76 10000 3.52 277 20:55 06.02.2022
3940 Clouds 9 1025 76 10000 3.52 277 20:32 06.02.2022
3941 Clouds 9 1024 78 10000 3.45 274 19:40 06.02.2022
3942 Clouds 10 1024 80 10000 4.08 272 18:41 06.02.2022
3943 Clouds 10 1024 77 10000 4.58 278 17:56 06.02.2022
3944 Clouds 10 1024 72 10000 5.69 280 17:21 06.02.2022
3945 Clouds 11 1024 72 10000 5.69 280 16:48 06.02.2022
3946 Clouds 11 1023 64 10000 5.98 280 15:49 06.02.2022
3947 Clouds 12 1022 57 10000 5.94 287 15:27 06.02.2022
3948 Clouds 11 1022 57 10000 5.94 287 14:47 06.02.2022
3949 Clouds 12 1022 54 10000 6.03 288 13:28 06.02.2022
3950 Clouds 10 1022 54 10000 6.03 288 12:59 06.02.2022
3951 Clouds 10 1022 55 10000 6.76 284 11:39 06.02.2022
3952 Clouds 10 1023 56 10000 6.69 282 10:31 06.02.2022
3953 Clouds 10 1023 56 10000 6.69 282 10:31 06.02.2022
3954 Clouds 10 1025 64 10000 6.12 288 09:25 06.02.2022
3955 Clouds 9 1025 64 10000 6.12 288 08:40 06.02.2022
3956 Clear 8 1024 85 10000 2.83 278 05:36 06.02.2022
3957 Clouds 8 1023 81 10000 4.3 279 03:31 06.02.2022
3958 Clouds 8 1023 79 10000 6.58 269 02:24 06.02.2022
3959 Clouds 8 1023 76 10000 6.92 261 00:30 06.02.2022
3960 Clouds 8 1023 78 10000 6.22 259 23:18 05.02.2022
3961 Clouds 8 1023 80 10000 6.2 262 21:38 05.02.2022
3962 Clouds 8 1022 78 10000 6.25 258 20:25 05.02.2022
3963 Clouds 8 1022 78 10000 6.25 258 19:50 05.02.2022
3964 Clouds 8 1022 79 10000 6.07 255 19:27 05.02.2022
3965 Clouds 8 1021 73 10000 6.38 260 18:23 05.02.2022
3966 Clouds 8 1021 73 10000 6.38 260 17:31 05.02.2022
3967 Clouds 9 1020 68 10000 6.77 270 15:43 05.02.2022
3968 Clouds 9 1019 61 10000 7.84 273 15:25 05.02.2022
3969 Clouds 8 1018 56 10000 8.88 277 13:22 05.02.2022
3970 Clouds 9 1018 56 10000 8.88 277 12:42 05.02.2022
3971 Clouds 8 1018 55 10000 8.5 282 10:57 05.02.2022
3972 Clouds 8 1018 55 10000 8.5 282 10:38 05.02.2022
3973 Clouds 8 1019 59 10000 8.62 281 09:47 05.02.2022
3974 Clear 9 1019 70 10000 8.43 281 08:21 05.02.2022
3975 Clear 9 1019 70 10000 8.43 281 08:21 05.02.2022
3976 Clouds 8 1018 76 10000 6.89 285 06:58 05.02.2022
3977 Clouds 7 1017 84 10000 6.79 283 05:38 05.02.2022
3978 Clouds 8 1015 80 10000 8.95 273 01:47 05.02.2022
3979 Clouds 8 1015 84 10000 7.64 266 01:18 05.02.2022
3980 Clouds 7 1015 84 10000 6.66 265 00:36 05.02.2022
3981 Clouds 7 1015 82 10000 6.68 268 23:33 04.02.2022
3982 Clouds 8 1015 81 10000 5.39 259 22:28 04.02.2022
3983 Clouds 7 1015 81 10000 5.39 259 21:36 04.02.2022
3984 Clouds 7 1016 79 10000 6.01 252 21:18 04.02.2022
3985 Clear 7 1015 79 10000 5.85 255 20:21 04.02.2022
3986 Clouds 8 1015 77 10000 5.72 270 18:30 04.02.2022
3987 Clouds 8 1013 62 10000 8.94 265 15:57 04.02.2022
3988 Clouds 9 1012 47 10000 9.97 265 14:56 04.02.2022
3989 Clouds 8 1012 46 10000 10.2 261 14:26 04.02.2022
3990 Clouds 10 1012 45 10000 10.42 258 12:43 04.02.2022
3991 Clouds 10 1012 47 10000 10.43 257 11:44 04.02.2022
3992 Clouds 9 1012 51 10000 10.11 256 10:51 04.02.2022
3993 Clear 9 1013 54 10000 9.43 254 09:31 04.02.2022
3994 Clear 8 1014 57 10000 7.61 262 07:35 04.02.2022
3995 Clouds 8 1012 68 10000 2.98 254 02:54 04.02.2022
3996 Clouds 8 1012 68 10000 2.98 254 02:33 04.02.2022
3997 Clouds 9 1013 67 10000 4.13 265 23:34 03.02.2022
3998 Clouds 9 1013 65 10000 5.64 266 22:48 03.02.2022
3999 Clouds 11 1013 60 10000 5.88 273 21:51 03.02.2022
4000 Clear 11 1012 55 10000 6.2 269 21:18 03.02.2022
4001 Clear 11 1012 49 10000 3.53 278 20:21 03.02.2022
4002 Clear 11 1012 49 10000 3.53 278 19:34 03.02.2022
4003 Clear 12 1011 55 10000 2.7 313 18:50 03.02.2022
4004 Clear 13 1012 52 10000 3.2 313 17:51 03.02.2022
4005 Clear 13 1011 49 10000 3.68 299 16:46 03.02.2022
4006 Clear 16 1011 38 10000 6.6 258 14:54 03.02.2022
4007 Clear 16 1010 31 10000 8.3 249 13:19 03.02.2022
4008 Clear 16 1010 31 10000 7.92 255 11:44 03.02.2022
4009 Clear 10 1013 40 10000 1.44 221 08:55 03.02.2022
4010 Clear 7 1013 45 10000 2.28 148 07:40 03.02.2022
4011 Clouds 12 1014 48 10000 4.86 98 00:34 03.02.2022
4012 Clouds 12 1015 47 10000 5.04 98 23:45 02.02.2022
4013 Clouds 13 1016 46 10000 5.01 98 22:38 02.02.2022
4014 Clouds 11 1016 44 10000 4.37 104 21:42 02.02.2022
4015 Clouds 11 1016 43 10000 4.52 113 21:24 02.02.2022
4016 Clouds 12 1016 41 10000 5.42 114 20:19 02.02.2022
4017 Clouds 13 1016 41 10000 5.42 114 19:45 02.02.2022
4018 Clouds 13 1016 41 10000 6.38 108 18:53 02.02.2022
4019 Clouds 13 1017 40 10000 6.54 105 18:23 02.02.2022
4020 Clouds 14 1016 40 10000 6.4 101 17:20 02.02.2022
4021 Clouds 14 1016 40 10000 6.4 101 17:20 02.02.2022
4022 Clouds 16 1016 40 10000 6.4 101 16:48 02.02.2022
4023 Clouds 16 1017 32 10000 7.83 130 14:21 02.02.2022
4024 Clear 16 1017 35 10000 8.15 134 12:26 02.02.2022
4025 Clear 14 1017 35 10000 8.15 134 11:42 02.02.2022
4026 Clear 14 1019 39 10000 7.51 137 11:23 02.02.2022
4027 Clear 5 1022 61 10000 6.68 123 07:59 02.02.2022
4028 Clear 8 1022 72 10000 4 108 01:37 02.02.2022
4029 Clear 7 1022 63 10000 3.33 124 22:29 01.02.2022
4030 Clear 11 1022 60 10000 3.11 91 20:49 01.02.2022
4031 Clouds 8 1021 63 10000 1.02 14 18:55 01.02.2022
4032 Clouds 12 1020 57 10000 1.62 259 16:46 01.02.2022
4033 Clouds 13 1020 53 10000 2.06 262 15:44 01.02.2022
4034 Clouds 12 1019 49 10000 3.03 273 12:49 01.02.2022
4035 Clouds 12 1019 53 10000 2.96 274 11:51 01.02.2022
4036 Clouds 8 1021 70 10000 3.99 288 08:37 01.02.2022
4037 Clouds 7 1017 84 10000 2.59 252 02:20 01.02.2022
4038 Clear 7 1016 73 10000 2.81 271 23:37 31.01.2022
4039 Clear 7 1016 72 10000 2.33 284 22:33 31.01.2022
4040 Clear 9 1016 72 10000 2.49 293 21:34 31.01.2022
4041 Clear 9 1015 72 10000 2.57 303 20:34 31.01.2022
4042 Clear 9 1015 72 10000 2.57 303 20:34 31.01.2022
4043 Clear 9 1015 71 10000 3.19 312 19:52 31.01.2022
4044 Clouds 9 1015 71 10000 4.91 291 18:32 31.01.2022
4045 Clouds 9 1014 67 10000 5.19 285 17:55 31.01.2022
4046 Clouds 10 1013 62 10000 5.37 282 17:18 31.01.2022
4047 Clouds 10 1013 54 10000 5.79 278 16:21 31.01.2022
4048 Clouds 10 1012 46 10000 6.05 287 14:50 31.01.2022
4049 Clouds 10 1011 41 10000 3.81 301 13:29 31.01.2022
4050 Clouds 10 1011 41 10000 3.81 301 12:37 31.01.2022
4051 Clouds 10 1013 42 10000 1.07 255 11:20 31.01.2022
4052 Clouds 12 1013 42 10000 1.07 255 10:47 31.01.2022
4053 Clouds 10 1015 43 10000 1.63 147 09:36 31.01.2022
4054 Clouds 9 1016 46 10000 2.46 131 08:56 31.01.2022
4055 Clouds 9 1016 50 10000 2.96 122 08:20 31.01.2022
4056 Clouds 6 1016 50 10000 2.96 122 07:37 31.01.2022
4057 Clear 4 1016 59 10000 3.41 106 05:25 31.01.2022
4058 Clear 6 1016 47 10000 2.69 128 00:24 31.01.2022
4059 Clear 7 1017 46 10000 1.98 129 22:33 30.01.2022
4060 Clear 7 1017 46 10000 1.71 119 21:46 30.01.2022
4061 Clear 7 1017 46 10000 1.7 101 21:26 30.01.2022
4062 Clear 7 1017 46 10000 2 96 20:54 30.01.2022
4063 Clear 7 1017 46 10000 2 96 20:31 30.01.2022
4064 Clear 7 1017 45 10000 2.77 87 19:56 30.01.2022
4065 Clear 9 1018 44 10000 3.08 80 18:52 30.01.2022
4066 Clear 9 1017 44 10000 3.22 83 18:22 30.01.2022
4067 Clear 11 1017 44 10000 3.22 83 17:31 30.01.2022
4068 Clear 11 1017 44 10000 3.22 83 17:31 30.01.2022
4069 Clear 11 1017 44 10000 3.22 83 17:31 30.01.2022
4070 Clear 12 1017 44 10000 2.98 90 16:44 30.01.2022
4071 Clear 12 1017 42 10000 3.08 106 16:23 30.01.2022
4072 Clear 13 1017 42 10000 3.08 106 15:55 30.01.2022
4073 Clear 13 1017 42 10000 3.08 106 15:37 30.01.2022
4074 Clear 13 1017 37 10000 3.3 120 15:19 30.01.2022
4075 Clear 14 1017 37 10000 3.3 120 14:44 30.01.2022
4076 Clear 13 1017 37 10000 3.4 133 12:46 30.01.2022
4077 Clear 11 1018 39 10000 4.16 137 11:52 30.01.2022
4078 Clear 9 1020 43 10000 4.94 129 10:26 30.01.2022
4079 Clear 8 1020 43 10000 4.94 129 09:41 30.01.2022
4080 Clear 6 1021 48 10000 5.14 125 08:44 30.01.2022
4081 Clear 4 1021 68 10000 2.23 110 02:58 30.01.2022
4082 Clear 4 1021 68 10000 2.58 107 01:55 30.01.2022
4083 Clouds 5 1021 68 10000 2.52 107 23:50 29.01.2022
4084 Clouds 5 1021 68 10000 2.88 115 22:58 29.01.2022
4085 Clouds 5 1022 67 10000 3.19 122 21:46 29.01.2022
4086 Clouds 5 1022 65 10000 3.45 120 21:22 29.01.2022
4087 Clouds 6 1022 61 10000 3.59 114 20:22 29.01.2022
4088 Clouds 6 1022 61 10000 3.59 114 19:33 29.01.2022
4089 Clouds 7 1022 59 10000 2.91 109 18:51 29.01.2022
4090 Clouds 7 1022 65 10000 1.91 86 18:18 29.01.2022
4091 Clouds 9 1022 60 10000 2.29 341 17:27 29.01.2022
4092 Clouds 10 1021 52 10000 1.48 239 15:44 29.01.2022
4093 Clouds 10 1020 52 10000 2.11 224 13:58 29.01.2022
4094 Clouds 10 1020 52 10000 2.11 224 13:38 29.01.2022
4095 Clouds 10 1020 54 10000 2.09 222 13:20 29.01.2022
4096 Clouds 9 1021 57 10000 1.95 226 11:40 29.01.2022
4097 Clouds 8 1022 60 10000 1.85 227 10:46 29.01.2022
4098 Clouds 6 1024 69 10000 1.64 222 08:42 29.01.2022
4099 Clouds 5 1024 84 10000 2.14 234 06:37 29.01.2022
4100 Clouds 4 1023 87 10000 2.64 270 00:34 29.01.2022
4101 Clear 4 1023 88 10000 3.44 267 23:44 28.01.2022
4102 Clear 4 1023 88 10000 3.58 268 22:48 28.01.2022
4103 Clear 4 1023 87 10000 3.77 266 22:20 28.01.2022
4104 Clear 5 1023 87 10000 3.62 260 20:42 28.01.2022
4105 Clouds 5 1023 86 10000 3.66 256 20:23 28.01.2022
4106 Clouds 5 1023 85 10000 3.77 249 19:28 28.01.2022
4107 Clouds 5 1023 85 10000 3.77 249 18:42 28.01.2022
4108 Clouds 6 1023 82 10000 4.9 245 16:45 28.01.2022
4109 Clouds 5 1022 73 10000 6.21 256 15:18 28.01.2022
4110 Clouds 6 1022 72 10000 6.13 251 13:37 28.01.2022
4111 Clouds 5 1022 68 10000 6.81 253 12:27 28.01.2022
4112 Clouds 5 1023 70 10000 6.79 252 10:49 28.01.2022
4113 Clouds 5 1023 69 10000 6.97 255 09:49 28.01.2022
4114 Clouds 4 1024 81 10000 5.9 249 07:43 28.01.2022
4115 Clouds 4 1024 87 10000 5.93 242 06:44 28.01.2022
4116 Clouds 4 1022 85 10000 4.29 252 03:56 28.01.2022
4117 Clouds 4 1022 86 10000 4.48 247 02:31 28.01.2022
4118 Clouds 5 1022 88 10000 4.46 241 01:59 28.01.2022
4119 Clouds 5 1022 88 10000 4.46 241 01:30 28.01.2022
4120 Clouds 4 1022 87 10000 3.67 253 22:48 27.01.2022
4121 Clouds 4 1022 87 10000 4.12 259 21:46 27.01.2022
4122 Clouds 4 1022 85 10000 4.5 251 21:28 27.01.2022
4123 Clouds 4 1022 82 10000 4.02 243 20:24 27.01.2022
4124 Clouds 4 1022 76 10000 3.16 279 18:24 27.01.2022
4125 Clouds 5 1022 76 10000 3.16 279 17:34 27.01.2022
4126 Clouds 4 1019 63 10000 9.07 291 14:35 27.01.2022
4127 Clouds 4 1018 57 10000 12.45 287 13:24 27.01.2022
4128 Clouds 4 1018 62 10000 11.81 284 12:39 27.01.2022
4129 Clouds 3 1019 82 10000 9.15 281 09:56 27.01.2022
4130 Clouds 2 1019 95 320 8.6 270 08:49 27.01.2022
4131 Clouds 2 1018 96 105 9.2 269 08:28 27.01.2022
4132 Clouds 1 1017 85 10000 9.24 265 05:49 27.01.2022
4133 Clouds 1 1015 95 357 10.34 274 01:45 27.01.2022
4134 Clouds 1 1015 95 130 7.14 259 22:39 26.01.2022
4135 Clouds 2 1015 93 5241 8.93 244 21:55 26.01.2022
4136 Clouds 2 1015 93 5241 8.93 244 21:31 26.01.2022
4137 Clouds 2 1014 90 10000 12.1 245 20:35 26.01.2022
4138 Clouds 2 1014 86 10000 10.78 246 19:55 26.01.2022
4139 Clouds 5 1014 83 10000 9.91 233 19:20 26.01.2022
4140 Clouds 6 1014 82 10000 9.53 240 18:26 26.01.2022
4141 Clouds 6 1014 82 10000 9.53 240 17:49 26.01.2022
4142 Clouds 6 1013 83 10000 9.15 237 17:21 26.01.2022
4143 Clouds 7 1013 70 10000 7.82 254 16:27 26.01.2022
4144 Clouds 8 1013 70 10000 7.82 254 15:47 26.01.2022
4145 Clear 10 1013 47 10000 9.42 248 13:24 26.01.2022
4146 Clear 9 1013 47 10000 8.67 251 11:40 26.01.2022
4147 Clear 9 1016 53 10000 7.96 254 10:20 26.01.2022
4148 Clear 7 1016 53 10000 7.96 254 09:43 26.01.2022
4149 Clear 5 1016 61 10000 6.86 248 07:37 26.01.2022
4150 Clear 6 1018 77 10000 3.4 272 01:53 26.01.2022
4151 Clear 6 1019 82 10000 3.57 288 23:54 25.01.2022
4152 Clear 6 1019 80 10000 3.65 294 22:56 25.01.2022
4153 Clear 5 1019 78 10000 3.66 306 22:21 25.01.2022
4154 Clear 6 1019 78 10000 3.66 306 21:52 25.01.2022
4155 Clear 7 1019 75 10000 4.15 308 20:46 25.01.2022
4156 Clear 7 1019 72 10000 4.74 303 20:22 25.01.2022
4157 Clear 7 1019 72 10000 4.74 303 19:46 25.01.2022
4158 Clouds 7 1019 67 10000 4.84 296 18:32 25.01.2022
4159 Clouds 8 1019 63 10000 4.86 297 17:43 25.01.2022
4160 Clouds 10 1018 59 10000 4.55 305 16:35 25.01.2022
4161 Clouds 11 1017 51 10000 2.46 327 15:49 25.01.2022
4162 Clouds 11 1017 51 10000 2.46 327 15:31 25.01.2022
4163 Clouds 11 1017 44 10000 0.68 271 14:57 25.01.2022
4164 Clear 12 1017 44 10000 1.55 191 13:40 25.01.2022
4165 Clear 9 1019 53 10000 3.01 145 10:39 25.01.2022
4166 Clear 6 1022 62 10000 3.2 129 08:37 25.01.2022
4167 Clear 4 1023 73 10000 2.04 119 07:29 25.01.2022
4168 Clear 3 1023 72 10000 2.19 120 06:47 25.01.2022
4169 Clear 3 1023 77 10000 2.41 136 05:22 25.01.2022
4170 Clouds 4 1023 75 10000 1.49 349 23:37 24.01.2022
4171 Clouds 4 1024 76 10000 2.07 4 23:18 24.01.2022
4172 Clouds 4 1024 76 10000 2.07 4 22:59 24.01.2022
4173 Clouds 4 1024 76 10000 2.07 4 22:41 24.01.2022
4174 Clouds 4 1024 78 10000 2.52 6 21:52 24.01.2022
4175 Clouds 4 1024 80 10000 2.52 1 21:28 24.01.2022
4176 Clouds 4 1024 80 10000 2.52 1 21:28 24.01.2022
4177 Clouds 5 1024 80 10000 2.78 352 20:29 24.01.2022
4178 Clouds 5 1024 80 10000 2.78 352 19:44 24.01.2022
4179 Clouds 5 1023 79 10000 3.37 343 19:24 24.01.2022
4180 Clouds 5 1023 77 10000 3.02 320 17:59 24.01.2022
4181 Clouds 5 1023 79 10000 3.62 305 17:23 24.01.2022
4182 Clouds 5 1023 79 10000 3.62 305 16:41 24.01.2022
4183 Clouds 5 1022 78 10000 3.83 299 16:18 24.01.2022
4184 Clouds 6 1022 82 10000 4.2 304 14:38 24.01.2022
4185 Clouds 6 1021 88 10000 4.82 308 12:58 24.01.2022
4186 Clouds 6 1020 87 10000 5.26 292 12:23 24.01.2022
4187 Clouds 6 1020 83 10000 6.7 285 10:30 24.01.2022
4188 Clouds 6 1021 84 10000 6.65 290 09:48 24.01.2022
4189 Clouds 7 1020 75 10000 9.36 257 08:34 24.01.2022
4190 Clouds 6 1020 77 10000 7.23 247 06:40 24.01.2022
4191 Clouds 6 1018 90 10000 1.17 299 01:30 24.01.2022
4192 Clouds 6 1019 89 10000 2.63 299 00:36 24.01.2022
4193 Clouds 6 1018 87 10000 3.63 306 23:52 23.01.2022
4194 Clouds 6 1018 88 10000 3.82 311 22:32 23.01.2022
4195 Clouds 6 1018 88 10000 4.67 323 21:50 23.01.2022
4196 Clouds 6 1018 87 10000 5.41 327 21:26 23.01.2022
4197 Clouds 6 1018 87 10000 5.41 327 20:45 23.01.2022
4198 Clouds 7 1017 84 10000 5.45 320 19:52 23.01.2022
4199 Clouds 7 1017 82 10000 5.92 302 18:52 23.01.2022
4200 Clouds 9 1016 80 10000 8.59 267 17:49 23.01.2022
4201 Clear 10 1016 68 10000 8.03 257 16:48 23.01.2022
4202 Clouds 11 1015 56 10000 9.48 250 15:18 23.01.2022
4203 Clouds 12 1015 56 10000 9.48 250 14:31 23.01.2022
4204 Clouds 12 1015 56 10000 9.48 250 14:31 23.01.2022
4205 Clear 12 1015 43 10000 10.11 253 13:22 23.01.2022
4206 Clear 11 1015 43 10000 10.11 253 12:36 23.01.2022
4207 Clear 11 1015 40 10000 9.15 250 12:18 23.01.2022
4208 Clear 11 1016 42 10000 8.44 249 11:24 23.01.2022
4209 Clear 10 1016 42 10000 8.44 249 10:43 23.01.2022
4210 Clear 10 1017 49 10000 7.74 244 10:19 23.01.2022
4211 Clear 9 1018 58 10000 7.14 249 09:19 23.01.2022
4212 Clear 5 1018 81 10000 2.64 253 05:58 23.01.2022
4213 Clear 6 1018 80 10000 2.94 274 01:54 23.01.2022
4214 Clear 5 1018 80 10000 2.94 274 01:34 23.01.2022
4215 Clear 5 1018 80 10000 3.31 282 00:31 23.01.2022
4216 Clear 6 1019 78 10000 3.38 277 23:57 22.01.2022
4217 Clear 6 1019 73 10000 3.18 277 22:47 22.01.2022
4218 Clear 6 1020 67 10000 2.76 285 21:38 22.01.2022
4219 Clear 7 1020 59 10000 3.69 298 20:24 22.01.2022
4220 Clear 7 1019 53 10000 3.61 285 19:27 22.01.2022
4221 Clear 7 1019 50 10000 3.53 281 18:29 22.01.2022
4222 Clear 8 1019 50 10000 3.53 281 17:41 22.01.2022
4223 Clear 10 1018 44 10000 2.79 290 16:57 22.01.2022
4224 Clear 10 1018 38 10000 0.88 313 16:20 22.01.2022
4225 Clear 13 1018 38 10000 0.88 313 15:42 22.01.2022
4226 Clear 12 1018 29 10000 1.7 153 13:59 22.01.2022
4227 Clear 12 1018 30 10000 2.63 151 13:27 22.01.2022
4228 Clear 10 1018 30 10000 2.63 151 12:32 22.01.2022
4229 Clear 9 1019 32 10000 2.82 151 11:58 22.01.2022
4230 Clear 6 1020 34 10000 3.98 144 10:39 22.01.2022
4231 Clear 6 1022 37 10000 4.82 135 10:19 22.01.2022
4232 Clear 3 1023 42 10000 5.21 128 08:54 22.01.2022
4233 Clear 3 1023 42 10000 5.21 128 08:31 22.01.2022
4234 Clear 1 1024 62 10000 3.66 108 05:20 22.01.2022
4235 Clear 4 1024 62 10000 3.96 108 02:27 22.01.2022
4236 Clouds 6 1025 61 10000 4.17 104 23:49 21.01.2022
4237 Clouds 6 1026 61 10000 4.06 108 22:58 21.01.2022
4238 Clouds 6 1026 62 10000 3.91 112 20:48 21.01.2022
4239 Clear 6 1026 63 10000 4.15 111 19:30 21.01.2022
4240 Clear 8 1026 59 10000 4.39 94 17:50 21.01.2022
4241 Clear 10 1025 50 10000 3.91 96 15:54 21.01.2022
4242 Clear 11 1025 44 10000 3.21 116 14:41 21.01.2022
4243 Clear 10 1025 43 10000 2.45 149 12:43 21.01.2022
4244 Clear 10 1028 50 10000 2.98 156 11:29 21.01.2022
4245 Clear 8 1028 50 10000 2.98 156 10:33 21.01.2022
4246 Clear 8 1030 61 10000 2.47 147 08:58 21.01.2022
4247 Clear 6 1031 67 10000 1.8 154 07:58 21.01.2022
4248 Clear 3 1029 80 10000 1.42 301 01:51 21.01.2022
4249 Clear 4 1030 77 10000 2.76 303 22:47 20.01.2022
4250 Clear 4 1030 76 10000 3.04 302 21:49 20.01.2022
4251 Clear 4 1030 74 10000 3.36 312 21:25 20.01.2022
4252 Clear 4 1029 72 10000 3.02 307 19:54 20.01.2022
4253 Clear 4 1029 70 10000 3.27 301 19:18 20.01.2022
4254 Clear 5 1028 68 10000 4.76 306 17:37 20.01.2022
4255 Clear 6 1027 57 10000 6.35 300 16:24 20.01.2022
4256 Clear 6 1027 57 10000 6.35 300 15:31 20.01.2022
4257 Clear 7 1026 47 10000 8.62 298 14:20 20.01.2022
4258 Clear 6 1026 44 10000 8.9 299 12:53 20.01.2022
4259 Clear 6 1026 45 10000 9.22 296 12:29 20.01.2022
4260 Clear 6 1027 44 10000 9.49 296 11:19 20.01.2022
4261 Clear 5 1027 45 10000 9.12 295 10:18 20.01.2022
4262 Clear 5 1028 47 10000 8.67 297 09:18 20.01.2022
4263 Clear 3 1027 59 10000 6.12 296 07:23 20.01.2022
4264 Clouds 2 1024 74 10000 7.64 276 00:40 20.01.2022
4265 Clouds 2 1024 75 10000 7.54 310 22:40 19.01.2022
4266 Clouds 3 1024 84 10000 8.81 304 21:40 19.01.2022
4267 Clouds 3 1023 84 10000 8.54 304 21:21 19.01.2022
4268 Clouds 3 1023 84 10000 8.54 304 20:45 19.01.2022
4269 Clouds 4 1021 92 4871 9.38 308 19:18 19.01.2022
4270 Clouds 5 1019 63 10000 12.64 293 17:51 19.01.2022
4271 Clouds 5 1018 59 10000 12.49 290 17:28 19.01.2022
4272 Clouds 5 1018 60 10000 12.31 282 15:36 19.01.2022
4273 Clouds 7 1017 63 10000 12.18 265 13:38 19.01.2022
4274 Clouds 7 1017 89 10000 9.09 248 12:20 19.01.2022
4275 Clouds 6 1017 89 10000 9.09 248 11:38 19.01.2022
4276 Clouds 4 1019 81 10000 10.24 244 09:52 19.01.2022
4277 Clouds 4 1019 81 10000 10.24 244 09:33 19.01.2022
4278 Clouds 5 1018 70 10000 11.4 248 06:34 19.01.2022
4279 Clear 4 1020 46 10000 3.25 237 01:40 19.01.2022
4280 Clear 5 1022 45 10000 3.7 251 23:18 18.01.2022
4281 Clear 5 1022 41 10000 3.94 252 21:56 18.01.2022
4282 Clear 5 1022 39 10000 3.96 254 20:47 18.01.2022
4283 Clear 5 1023 37 10000 3.57 240 19:54 18.01.2022
4284 Clear 5 1022 37 10000 3.55 243 19:35 18.01.2022
4285 Clear 5 1022 34 10000 3.42 229 18:36 18.01.2022
4286 Clear 5 1022 31 10000 3.09 220 17:51 18.01.2022
4287 Clear 9 1022 28 10000 2.83 211 16:35 18.01.2022
4288 Clear 10 1022 26 10000 2.68 199 15:39 18.01.2022
4289 Clear 10 1022 20 10000 4.02 187 15:19 18.01.2022
4290 Clear 7 1024 20 10000 3.82 179 11:53 18.01.2022
4291 Clear 6 1025 22 10000 4.18 176 10:43 18.01.2022
4292 Clear 4 1027 25 10000 3.01 167 08:49 18.01.2022
4293 Clear 2 1028 27 10000 2.32 162 07:46 18.01.2022
4294 Clear 1 1026 37 10000 1.5 149 02:31 18.01.2022
4295 Clear 2 1025 33 10000 2.21 160 23:22 17.01.2022
4296 Clear 3 1025 35 10000 2.55 159 22:23 17.01.2022
4297 Clear 3 1025 35 10000 2.55 159 21:33 17.01.2022
4298 Clear 4 1025 39 10000 0.51 200 19:56 17.01.2022
4299 Clear 5 1023 39 10000 1.81 273 18:29 17.01.2022
4300 Clear 6 1023 38 10000 2.21 277 17:25 17.01.2022
4301 Clear 6 1023 38 10000 2.21 277 16:35 17.01.2022
4302 Clear 7 1022 30 10000 2.17 272 15:18 17.01.2022
4303 Clear 7 1022 30 10000 2.17 272 14:43 17.01.2022
4304 Clouds 7 1021 29 10000 1.62 262 13:20 17.01.2022
4305 Clouds 7 1021 29 10000 0.96 278 12:55 17.01.2022
4306 Clouds 6 1021 29 10000 0.12 175 11:48 17.01.2022
4307 Clouds 5 1022 29 10000 2.19 109 10:21 17.01.2022
4308 Clouds 5 1022 29 10000 2.19 109 09:34 17.01.2022
4309 Clouds 3 1022 36 10000 4.26 62 07:24 17.01.2022
4310 Clouds 3 1019 39 10000 4.86 51 02:59 17.01.2022
4311 Clouds 4 1018 40 10000 4.73 57 00:55 17.01.2022
4312 Clouds 4 1017 68 10000 3.19 61 22:22 16.01.2022
4313 Clouds 6 1017 74 10000 3.18 34 20:35 16.01.2022
4314 Clouds 6 1016 80 10000 2.7 339 18:51 16.01.2022
4315 Clouds 6 1014 76 10000 3.87 306 17:59 16.01.2022
4316 Clouds 7 1013 74 10000 6.13 307 16:59 16.01.2022
4317 Clouds 7 1013 74 10000 6.13 307 16:31 16.01.2022
4318 Clouds 8 1011 70 10000 5.73 292 14:31 16.01.2022
4319 Clouds 7 1011 75 10000 4.9 281 13:46 16.01.2022
4320 Clouds 7 1011 85 10000 5.82 263 12:46 16.01.2022
4321 Clouds 7 1011 86 10000 7.45 252 11:41 16.01.2022
4322 Clouds 7 1011 82 10000 8.93 243 10:54 16.01.2022
4323 Clouds 7 1012 80 10000 10.9 241 10:19 16.01.2022
4324 Clouds 7 1012 80 10000 10.9 241 09:40 16.01.2022
4325 Clouds 7 1012 81 10000 11.01 240 09:22 16.01.2022
4326 Clouds 7 1012 82 10000 10 248 07:30 16.01.2022
4327 Clouds 7 1011 90 10000 4.73 255 00:42 16.01.2022
4328 Clouds 7 1011 89 10000 5.23 260 23:40 15.01.2022
4329 Clouds 8 1012 84 10000 6.23 262 21:37 15.01.2022
4330 Clouds 8 1012 81 10000 5.8 264 21:19 15.01.2022
4331 Clouds 8 1012 81 10000 5.8 264 20:39 15.01.2022
4332 Clouds 7 1012 83 10000 5.45 259 19:29 15.01.2022
4333 Clouds 7 1012 83 10000 5.45 259 18:37 15.01.2022
4334 Clouds 8 1012 80 10000 6 262 16:58 15.01.2022
4335 Clouds 8 1011 77 10000 7.14 261 15:42 15.01.2022
4336 Clouds 8 1012 70 10000 9.15 258 13:52 15.01.2022
4337 Clouds 9 1011 73 10000 10.54 252 11:46 15.01.2022
4338 Clouds 8 1013 70 10000 8.72 255 10:25 15.01.2022
4339 Clouds 6 1013 74 10000 7.81 255 07:48 15.01.2022
4340 Clouds 7 1013 80 10000 5.67 254 23:50 14.01.2022
4341 Clouds 8 1014 78 10000 6.71 267 21:41 14.01.2022
4342 Clouds 8 1014 82 10000 6.43 273 20:37 14.01.2022
4343 Clouds 8 1014 82 10000 5.56 279 19:58 14.01.2022
4344 Clouds 8 1014 83 10000 6.12 278 18:48 14.01.2022
4345 Clouds 8 1014 79 10000 6.97 274 17:57 14.01.2022
4346 Clouds 9 1013 78 10000 7.12 275 16:48 14.01.2022
4347 Clouds 9 1012 76 10000 7.4 272 15:34 14.01.2022
4348 Clouds 9 1012 71 10000 9.42 272 14:38 14.01.2022
4349 Clouds 9 1012 67 10000 9.89 268 13:34 14.01.2022
4350 Clouds 9 1011 66 10000 11.62 272 12:24 14.01.2022
4351 Clouds 9 1012 64 10000 11.67 268 10:50 14.01.2022
4352 Clouds 9 1014 73 10000 9.3 261 08:54 14.01.2022
4353 Clouds 9 1014 76 10000 7.87 265 08:20 14.01.2022
4354 Clouds 8 1013 87 10000 6.49 268 03:55 14.01.2022
4355 Clouds 10 1013 78 10000 5.68 255 00:50 14.01.2022
4356 Clouds 11 1014 67 10000 5.53 272 22:35 13.01.2022
4357 Clouds 11 1014 68 10000 4.97 257 21:31 13.01.2022
4358 Clouds 11 1014 68 10000 5.06 258 20:56 13.01.2022
4359 Clouds 11 1014 67 10000 5.43 265 19:32 13.01.2022
4360 Clouds 12 1015 63 10000 5.92 266 18:57 13.01.2022
4361 Clouds 13 1014 58 10000 5.47 273 17:48 13.01.2022
4362 Clouds 13 1013 47 10000 6.33 274 16:20 13.01.2022
4363 Clouds 16 1013 47 10000 6.33 274 15:37 13.01.2022
4364 Clouds 16 1013 28 10000 7.35 266 13:48 13.01.2022
4365 Clouds 16 1013 26 10000 7.14 264 12:25 13.01.2022
4366 Clouds 14 1015 26 10000 5.38 255 10:23 13.01.2022
4367 Clouds 12 1016 27 10000 4.72 258 08:57 13.01.2022
4368 Clouds 12 1016 30 10000 3.62 263 08:26 13.01.2022
4369 Clouds 12 1016 35 10000 2.8 271 07:22 13.01.2022
4370 Clouds 10 1016 36 10000 3.55 271 05:59 13.01.2022
4371 Clouds 10 1016 37 10000 3.28 271 05:19 13.01.2022
4372 Clouds 10 1016 37 10000 3.16 268 01:56 13.01.2022
4373 Clouds 11 1016 38 10000 3.25 273 00:49 13.01.2022
4374 Clouds 10 1017 38 10000 3.69 269 23:46 12.01.2022
4375 Clouds 12 1016 39 10000 2.74 267 22:59 12.01.2022
4376 Clouds 11 1017 39 10000 3.1 269 21:57 12.01.2022
4377 Clouds 11 1017 39 10000 3.1 269 21:57 12.01.2022
4378 Clouds 11 1017 39 10000 3.49 267 21:22 12.01.2022
4379 Clouds 12 1017 39 10000 3.49 267 20:56 12.01.2022
4380 Clouds 13 1017 38 10000 3.28 269 19:43 12.01.2022
4381 Clouds 13 1017 38 10000 3.24 275 18:30 12.01.2022
4382 Clouds 14 1017 36 10000 3.5 271 17:20 12.01.2022
4383 Clouds 15 1017 36 10000 3.5 271 16:32 12.01.2022
4384 Clouds 16 1016 28 10000 4.47 261 14:48 12.01.2022
4385 Clouds 17 1015 23 10000 3.66 246 13:19 12.01.2022
4386 Clouds 17 1016 25 10000 2.58 243 10:48 12.01.2022
4387 Clear 13 1018 33 10000 0.68 221 08:43 12.01.2022
4388 Clear 8 1018 40 10000 0.67 176 07:50 12.01.2022
4389 Clear 8 1018 40 10000 0.67 176 07:31 12.01.2022
4390 Clear 8 1018 47 10000 1.5 157 23:53 11.01.2022
4391 Clear 8 1018 44 10000 1.13 164 22:56 11.01.2022
4392 Clear 9 1018 42 10000 0.88 155 22:23 11.01.2022
4393 Clear 9 1018 40 10000 0.77 172 20:56 11.01.2022
4394 Clear 10 1018 38 10000 0.78 191 20:20 11.01.2022
4395 Clear 12 1018 34 10000 1.95 300 18:43 11.01.2022
4396 Clear 13 1018 33 10000 2.12 291 17:35 11.01.2022
4397 Clear 16 1017 31 10000 2.76 280 16:38 11.01.2022
4398 Clear 16 1016 29 10000 2.74 265 15:56 11.01.2022
4399 Clear 18 1016 25 10000 2.64 255 14:43 11.01.2022
4400 Clear 18 1016 24 10000 2.83 245 13:56 11.01.2022
4401 Clear 17 1016 24 10000 2.83 245 13:36 11.01.2022
4402 Clear 17 1016 24 10000 2.79 239 12:51 11.01.2022
4403 Clear 17 1016 25 10000 3 248 12:20 11.01.2022
4404 Clear 14 1017 30 10000 2.08 266 10:24 11.01.2022
4405 Clear 7 1018 37 10000 2.49 299 07:35 11.01.2022
4406 Clear 6 1016 48 10000 1.94 300 01:47 11.01.2022
4407 Clear 7 1016 49 10000 1.38 297 00:22 11.01.2022
4408 Clear 7 1016 49 10000 1.38 297 23:37 10.01.2022
4409 Clear 8 1016 48 10000 0.72 315 22:19 10.01.2022
4410 Clear 8 1016 48 10000 0.72 315 21:54 10.01.2022
4411 Clear 9 1016 48 10000 0.72 315 21:31 10.01.2022
4412 Clear 8 1016 48 10000 0.43 341 20:58 10.01.2022
4413 Clear 8 1016 48 10000 0.43 341 20:58 10.01.2022
4414 Clear 8 1016 47 10000 1.24 332 20:29 10.01.2022
4415 Clear 10 1016 47 10000 1.24 332 19:47 10.01.2022
4416 Clear 10 1015 43 10000 2.97 313 19:22 10.01.2022
4417 Clear 10 1016 45 10000 2.82 312 18:54 10.01.2022
4418 Clear 11 1016 45 10000 2.82 312 18:34 10.01.2022
4419 Clear 12 1015 40 10000 3.42 303 16:43 10.01.2022
4420 Clear 14 1014 35 10000 3.59 291 15:55 10.01.2022
4421 Clear 14 1014 27 10000 5.49 276 14:39 10.01.2022
4422 Clear 15 1013 23 10000 4.9 243 12:31 10.01.2022
4423 Clear 14 1013 24 10000 4.5 225 11:40 10.01.2022
4424 Clear 13 1014 27 10000 4.58 231 10:45 10.01.2022
4425 Clear 12 1016 36 10000 4.6 246 08:57 10.01.2022
4426 Clear 8 1016 54 10000 3.91 275 05:51 10.01.2022
4427 Clear 10 1015 66 10000 4.31 280 01:35 10.01.2022
4428 Clouds 10 1015 71 10000 3.36 272 00:44 10.01.2022
4429 Clouds 10 1015 68 10000 2.67 249 00:19 10.01.2022
4430 Clouds 12 1015 69 10000 2.6 251 22:43 09.01.2022
4431 Clouds 12 1015 66 10000 3 291 21:47 09.01.2022
4432 Clouds 12 1015 66 10000 3.13 281 21:25 09.01.2022
4433 Clouds 12 1015 66 10000 3.13 281 20:58 09.01.2022
4434 Clouds 12 1015 66 10000 3.13 281 20:39 09.01.2022
4435 Clouds 12 1015 64 10000 3.57 276 20:21 09.01.2022
4436 Clouds 13 1015 64 10000 3.57 276 19:38 09.01.2022
4437 Clouds 13 1014 64 10000 5.07 268 19:18 09.01.2022
4438 Clouds 13 1014 59 10000 5.99 279 18:37 09.01.2022
4439 Clouds 14 1014 57 10000 5.39 291 17:48 09.01.2022
4440 Clouds 14 1013 51 10000 6.31 279 17:29 09.01.2022
4441 Clouds 16 1013 51 10000 6.31 279 16:43 09.01.2022
4442 Clouds 17 1013 46 10000 5.41 278 15:42 09.01.2022
4443 Clouds 17 1013 46 10000 5.41 278 15:42 09.01.2022
4444 Clouds 18 1011 39 10000 4.88 271 14:58 09.01.2022
4445 Clouds 18 1011 39 10000 4.88 271 14:39 09.01.2022
4446 Clouds 19 1012 34 10000 6.33 249 13:48 09.01.2022
4447 Clouds 19 1012 28 10000 3.51 224 11:58 09.01.2022
4448 Clouds 19 1012 30 10000 2.68 188 11:28 09.01.2022
4449 Clear 18 1014 35 10000 2.52 155 09:55 09.01.2022
4450 Clear 17 1015 41 10000 2.75 131 09:20 09.01.2022
4451 Clouds 9 1015 55 10000 2.75 106 06:57 09.01.2022
4452 Clouds 11 1014 54 10000 3.76 109 01:30 09.01.2022
4453 Clouds 12 1015 51 10000 3.37 104 00:50 09.01.2022
4454 Clouds 15 1015 48 10000 3.42 112 23:36 08.01.2022
4455 Clouds 14 1015 46 10000 3.62 107 22:56 08.01.2022
4456 Clouds 12 1015 44 10000 3.09 121 21:32 08.01.2022
4457 Clouds 13 1015 42 10000 3.58 107 20:44 08.01.2022
4458 Clouds 13 1016 41 10000 3.35 122 20:23 08.01.2022
4459 Clear 13 1016 40 10000 3.54 127 19:22 08.01.2022
4460 Clear 16 1015 38 10000 3.4 109 17:43 08.01.2022
4461 Clear 19 1015 36 10000 4.42 95 16:57 08.01.2022
4462 Clear 19 1015 34 10000 4.16 96 15:35 08.01.2022
4463 Clear 20 1015 30 10000 3.67 117 14:33 08.01.2022
4464 Clear 20 1015 25 10000 4.51 139 12:35 08.01.2022
4465 Clear 17 1016 27 10000 4.11 125 10:43 08.01.2022
4466 Clear 17 1017 30 10000 4.1 120 10:23 08.01.2022
4467 Clear 17 1017 30 10000 4.1 120 10:23 08.01.2022
4468 Clear 15 1017 30 10000 4.1 120 09:34 08.01.2022
4469 Clear 15 1017 30 10000 4.1 120 09:34 08.01.2022
4470 Clear 8 1019 44 10000 2.71 110 07:18 08.01.2022
4471 Clear 9 1017 43 10000 1.85 76 01:49 08.01.2022
4472 Clear 9 1018 45 10000 0.43 47 00:25 08.01.2022
4473 Clear 10 1018 44 10000 0.51 289 22:39 07.01.2022
4474 Clear 11 1018 43 10000 0.71 14 20:40 07.01.2022
4475 Clear 11 1018 42 10000 0.57 344 19:34 07.01.2022
4476 Clear 13 1018 41 10000 1.23 317 18:50 07.01.2022
4477 Clear 13 1018 41 10000 1.23 317 18:30 07.01.2022
4478 Clear 14 1017 38 10000 1.29 319 17:25 07.01.2022
4479 Clear 15 1017 36 10000 1.65 324 16:22 07.01.2022
4480 Clear 15 1016 28 10000 0.8 320 13:53 07.01.2022
4481 Clear 18 1016 29 10000 0.27 253 13:18 07.01.2022
4482 Clear 15 1016 30 10000 0.44 238 12:35 07.01.2022
4483 Clouds 7 1020 51 10000 4.39 116 07:31 07.01.2022
4484 Clouds 9 1019 63 10000 3.52 109 02:54 07.01.2022
4485 Clouds 10 1019 63 10000 3.86 108 01:52 07.01.2022
4486 Clouds 10 1019 62 10000 3.97 111 01:27 07.01.2022
4487 Clouds 11 1019 62 10000 3.97 111 00:57 07.01.2022
4488 Clouds 12 1020 56 10000 3.25 114 22:46 06.01.2022
4489 Clouds 12 1020 55 10000 3.81 118 21:23 06.01.2022
4490 Clouds 12 1020 53 10000 4.08 115 20:20 06.01.2022
4491 Clouds 13 1020 53 10000 4.08 115 19:41 06.01.2022
4492 Clouds 15 1019 51 10000 4.71 100 17:53 06.01.2022
4493 Clouds 15 1019 51 10000 4.71 100 17:34 06.01.2022
4494 Clouds 17 1019 49 10000 5.17 94 16:40 06.01.2022
4495 Clouds 19 1019 45 10000 4.97 98 15:45 06.01.2022
4496 Clear 19 1018 37 10000 5.19 113 15:24 06.01.2022
4497 Clear 19 1018 37 10000 5.19 113 14:43 06.01.2022
4498 Clear 19 1018 34 10000 5.36 127 14:18 06.01.2022
4499 Clear 18 1019 36 10000 5.28 133 12:43 06.01.2022
4500 Clear 16 1019 36 10000 5.03 137 11:42 06.01.2022
4501 Clear 16 1019 36 10000 5.03 137 11:42 06.01.2022
4502 Clear 16 1020 40 10000 5.26 137 11:22 06.01.2022
4503 Clear 11 1023 55 10000 5.66 126 08:51 06.01.2022
4504 Clear 9 1023 71 10000 2.58 130 00:52 06.01.2022
4505 Clear 10 1023 73 10000 2.61 145 23:37 05.01.2022
4506 Clear 10 1023 74 10000 2.8 148 22:56 05.01.2022
4507 Clear 10 1023 74 10000 2.8 148 22:31 05.01.2022
4508 Clear 12 1023 74 10000 2.68 141 21:48 05.01.2022
4509 Clear 12 1023 73 10000 1.66 137 20:57 05.01.2022
4510 Clear 12 1023 74 10000 0.15 155 20:18 05.01.2022
4511 Clear 13 1022 71 10000 0.73 284 18:42 05.01.2022
4512 Clouds 13 1023 68 10000 2.05 312 17:23 05.01.2022
4513 Clouds 14 1023 68 10000 2.05 312 16:50 05.01.2022
4514 Clouds 14 1022 58 10000 2.64 314 15:26 05.01.2022
4515 Clouds 14 1022 57 10000 2.64 318 13:51 05.01.2022
4516 Clouds 14 1022 58 10000 3.24 321 12:59 05.01.2022
4517 Clouds 12 1023 62 10000 3.18 314 10:34 05.01.2022
4518 Clouds 11 1024 73 10000 3.06 291 07:47 05.01.2022
4519 Clouds 11 1024 73 10000 3.06 291 07:47 05.01.2022
4520 Clouds 10 1024 84 10000 3.07 283 06:25 05.01.2022
4521 Clear 11 1023 88 10000 3.41 263 00:58 05.01.2022
4522 Clouds 11 1022 84 10000 4.17 273 23:28 04.01.2022
4523 Clouds 11 1022 84 10000 4.17 273 23:28 04.01.2022
4524 Clouds 11 1022 84 10000 4.17 273 22:55 04.01.2022
4525 Clouds 11 1023 85 10000 4.34 273 21:31 04.01.2022
4526 Clouds 12 1021 83 10000 6.26 282 19:20 04.01.2022
4527 Clear 12 1021 77 10000 5.8 275 17:52 04.01.2022
4528 Clear 12 1021 73 10000 6 281 16:44 04.01.2022
4529 Clear 12 1021 69 10000 6.66 284 16:24 04.01.2022
4530 Clear 12 1021 63 10000 7.26 285 14:54 04.01.2022
4531 Clear 13 1021 63 10000 7.26 285 14:35 04.01.2022
4532 Clear 14 1020 58 10000 8.45 285 13:29 04.01.2022
4533 Clear 12 1021 57 10000 7.1 287 10:41 04.01.2022
4534 Clear 12 1022 62 10000 6.65 290 09:47 04.01.2022
4535 Clear 11 1023 68 10000 5.68 289 08:34 04.01.2022
4536 Clear 9 1021 83 10000 3.87 290 02:52 04.01.2022
4537 Clear 9 1022 81 10000 3.7 291 00:42 04.01.2022
4538 Clear 9 1021 81 10000 3.56 294 23:41 03.01.2022
4539 Clear 9 1022 79 10000 3.53 308 22:21 03.01.2022
4540 Clear 10 1022 79 10000 3.53 308 21:34 03.01.2022
4541 Clear 10 1021 76 10000 4.12 321 20:26 03.01.2022
4542 Clouds 11 1020 75 10000 4.79 315 18:54 03.01.2022
4543 Clouds 12 1020 72 10000 5.19 313 18:28 03.01.2022
4544 Clouds 12 1019 69 10000 5.71 305 16:59 03.01.2022
4545 Clouds 14 1018 63 10000 5.17 291 15:50 03.01.2022
4546 Clouds 14 1017 54 10000 6.03 297 14:31 03.01.2022
4547 Clouds 14 1016 49 10000 5.89 310 12:48 03.01.2022
4548 Clouds 14 1016 50 10000 5.93 306 11:39 03.01.2022
4549 Clouds 12 1016 52 10000 5.88 304 10:37 03.01.2022
4550 Clear 11 1017 65 10000 4.16 301 08:48 03.01.2022
4551 Clear 10 1018 76 10000 2.54 304 07:51 03.01.2022
4552 Clouds 10 1015 90 10000 4.86 284 01:55 03.01.2022
4553 Clouds 10 1015 82 10000 5 276 23:22 02.01.2022
4554 Clouds 10 1015 82 10000 5 276 22:55 02.01.2022
4555 Clouds 11 1015 80 10000 4.59 275 21:52 02.01.2022
4556 Clear 11 1016 78 10000 4.21 280 20:45 02.01.2022
4557 Clear 11 1016 76 10000 3.68 283 20:24 02.01.2022
4558 Clear 11 1016 76 10000 3.68 283 19:31 02.01.2022
4559 Clouds 11 1015 73 10000 3.56 292 18:51 02.01.2022
4560 Clouds 11 1015 70 10000 3.87 288 17:56 02.01.2022
4561 Clouds 12 1015 70 10000 3.87 288 17:38 02.01.2022
4562 Clouds 12 1015 64 10000 3.01 290 17:19 02.01.2022
4563 Clouds 13 1014 61 10000 2.25 289 16:27 02.01.2022
4564 Clouds 14 1014 56 10000 2.97 286 14:38 02.01.2022
4565 Clouds 13 1014 55 10000 1.94 234 13:25 02.01.2022
4566 Clouds 13 1014 54 10000 2.04 234 12:31 02.01.2022
4567 Clouds 13 1014 56 10000 1.36 170 11:36 02.01.2022
4568 Clouds 11 1014 58 10000 2.23 130 10:50 02.01.2022
4569 Clouds 10 1015 60 10000 3.12 120 09:52 02.01.2022
4570 Clouds 10 1015 71 10000 3.69 93 07:29 02.01.2022
4571 Clouds 10 1014 74 10000 4.69 81 02:20 02.01.2022
4572 Clouds 10 1014 72 10000 4.95 77 23:41 01.01.2022
4573 Clouds 10 1014 73 10000 6.11 79 23:22 01.01.2022
4574 Clouds 10 1014 71 10000 6.34 78 22:24 01.01.2022
4575 Clouds 9 1014 71 10000 6.34 78 21:44 01.01.2022
4576 Clouds 10 1014 66 10000 7.2 81 20:56 01.01.2022
4577 Clouds 10 1014 65 10000 7.46 78 20:19 01.01.2022
4578 Clouds 11 1014 65 10000 7.46 78 19:32 01.01.2022
4579 Clouds 11 1014 65 10000 7.12 57 18:29 01.01.2022
4580 Clouds 11 1013 63 10000 7.13 52 16:55 01.01.2022
4581 Clouds 11 1013 63 10000 7.13 52 16:34 01.01.2022
4582 Clouds 11 1013 56 10000 5.36 76 15:33 01.01.2022
4583 Clouds 11 1013 53 10000 3.94 110 14:22 01.01.2022
4584 Clouds 11 1013 54 10000 4.05 124 13:28 01.01.2022
4585 Clouds 11 1014 58 10000 4.52 122 11:59 01.01.2022
4586 Clouds 11 1015 59 10000 5.94 117 11:24 01.01.2022
4587 Clouds 11 1015 59 10000 5.94 117 10:52 01.01.2022
4588 Clouds 10 1016 61 10000 7.05 108 09:47 01.01.2022
4589 Clouds 10 1017 67 10000 7.69 96 08:27 01.01.2022
4590 Clouds 9 1017 67 10000 7.69 96 07:56 01.01.2022
4591 Clouds 9 1017 67 10000 7.69 96 07:37 01.01.2022
4592 Clouds 9 1017 75 10000 6.37 87 06:43 01.01.2022
4593 Clouds 10 1017 78 10000 5.52 86 04:39 01.01.2022
4594 Clouds 11 1016 76 10000 5.62 76 03:50 01.01.2022
4595 Clouds 12 1017 62 10000 4.73 99 23:53 31.12.2021
4596 Clouds 12 1017 60 10000 4.98 106 22:24 31.12.2021
4597 Clouds 12 1017 60 10000 4.98 106 21:39 31.12.2021
4598 Clouds 12 1017 59 10000 4.47 111 19:43 31.12.2021
4599 Clouds 12 1016 57 10000 5.01 113 18:50 31.12.2021
4600 Clouds 12 1016 55 10000 5.17 103 17:49 31.12.2021
4601 Clouds 12 1016 55 10000 5.24 107 17:26 31.12.2021
4602 Clouds 12 1016 55 10000 5.24 107 16:52 31.12.2021
4603 Clouds 12 1016 54 10000 5.23 114 16:18 31.12.2021
4604 Clouds 15 1016 54 10000 5.23 114 15:45 31.12.2021
4605 Clouds 15 1015 51 10000 6.01 125 15:26 31.12.2021
4606 Clouds 15 1015 51 10000 6.01 125 15:26 31.12.2021
4607 Clouds 15 1015 51 10000 6.01 125 14:39 31.12.2021
4608 Clouds 15 1015 50 10000 6.94 128 13:51 31.12.2021
4609 Clouds 15 1016 51 10000 7.27 132 12:51 31.12.2021
4610 Clouds 15 1015 52 10000 7.55 131 12:21 31.12.2021
4611 Clouds 12 1015 52 10000 7.55 131 11:42 31.12.2021
4612 Clouds 11 1016 53 10000 7.87 126 10:55 31.12.2021
4613 Clouds 11 1017 56 10000 7.79 128 10:28 31.12.2021
4614 Clouds 10 1017 56 10000 7.79 128 09:34 31.12.2021
4615 Clouds 8 1018 60 10000 7.77 126 08:54 31.12.2021
4616 Clouds 8 1018 65 10000 7.44 119 07:59 31.12.2021
4617 Clouds 9 1018 78 10000 5.24 106 04:55 31.12.2021
4618 Clouds 11 1017 65 10000 3.37 111 23:19 30.12.2021
4619 Clouds 11 1017 65 10000 3.37 111 22:32 30.12.2021
4620 Clouds 12 1017 63 10000 3.48 122 21:40 30.12.2021
4621 Clouds 12 1017 61 10000 3.28 129 21:20 30.12.2021
4622 Clouds 12 1017 61 10000 3.28 129 20:40 30.12.2021
4623 Clouds 12 1017 58 10000 3.56 119 19:58 30.12.2021
4624 Clouds 12 1017 58 10000 3.56 119 19:34 30.12.2021
4625 Clouds 12 1016 46 10000 4.32 103 18:29 30.12.2021
4626 Clouds 13 1016 46 10000 4.32 103 17:34 30.12.2021
4627 Clouds 13 1015 49 10000 3.74 102 15:55 30.12.2021
4628 Clouds 14 1015 49 10000 3.74 102 15:36 30.12.2021
4629 Clouds 15 1015 46 10000 3.03 118 14:37 30.12.2021
4630 Clouds 15 1014 45 10000 2.96 137 13:32 30.12.2021
4631 Clouds 15 1014 49 10000 2.5 160 11:59 30.12.2021
4632 Clouds 14 1015 53 10000 2.6 165 10:44 30.12.2021
4633 Clouds 14 1016 56 10000 2.58 172 09:54 30.12.2021
4634 Clouds 11 1017 59 10000 2.47 153 08:49 30.12.2021
4635 Clouds 7 1017 68 10000 1.15 180 06:51 30.12.2021
4636 Clouds 9 1016 74 10000 1.7 240 03:41 30.12.2021
4637 Clouds 10 1016 77 10000 3.45 254 02:42 30.12.2021
4638 Clouds 10 1016 77 10000 2.39 286 23:42 29.12.2021
4639 Clouds 10 1016 74 10000 2.6 277 23:22 29.12.2021
4640 Clouds 11 1016 70 10000 2.38 259 22:19 29.12.2021
4641 Clouds 11 1016 65 10000 2.16 245 21:27 29.12.2021
4642 Clouds 11 1016 65 10000 2.16 245 20:38 29.12.2021
4643 Clouds 11 1016 59 10000 1.59 224 19:48 29.12.2021
4644 Clouds 11 1016 54 10000 0.96 186 18:52 29.12.2021
4645 Clouds 11 1016 50 10000 0.41 84 17:56 29.12.2021
4646 Clouds 11 1015 48 10000 0.75 54 17:28 29.12.2021
4647 Clouds 12 1015 46 10000 0.54 62 16:25 29.12.2021
4648 Clouds 13 1015 46 10000 0.54 62 15:59 29.12.2021
4649 Clouds 14 1015 39 10000 1.23 208 14:24 29.12.2021
4650 Clouds 14 1015 39 10000 1.4 187 12:39 29.12.2021
4651 Clouds 13 1015 39 10000 1.72 159 11:49 29.12.2021
4652 Clouds 11 1017 42 10000 2.46 138 09:59 29.12.2021
4653 Clouds 5 1018 48 10000 2.49 128 07:52 29.12.2021
4654 Clouds 4 1018 56 10000 1.98 126 06:43 29.12.2021
4655 Clouds 4 1018 61 10000 2.41 121 06:23 29.12.2021
4656 Clouds 5 1018 61 10000 2.41 121 05:40 29.12.2021
4657 Clear 6 1017 62 10000 2.48 113 03:18 29.12.2021
4658 Clouds 7 1016 56 10000 3.03 97 00:24 29.12.2021
4659 Clouds 8 1016 56 10000 3.03 97 23:47 28.12.2021
4660 Clouds 8 1016 56 10000 2.41 104 22:42 28.12.2021
4661 Clouds 8 1017 56 10000 1.97 116 22:24 28.12.2021
4662 Clouds 8 1017 56 10000 1.97 116 21:53 28.12.2021
4663 Clouds 8 1016 55 10000 2.43 115 20:47 28.12.2021
4664 Clouds 9 1016 52 10000 3.06 113 19:39 28.12.2021
4665 Clouds 9 1016 50 10000 3.56 115 18:44 28.12.2021
4666 Clouds 9 1016 49 10000 3.55 105 18:23 28.12.2021
4667 Clouds 12 1016 48 10000 3.66 99 16:35 28.12.2021
4668 Clouds 12 1016 47 10000 3.69 111 15:51 28.12.2021
4669 Clouds 12 1016 44 10000 3.83 124 15:25 28.12.2021
4670 Clouds 13 1016 44 10000 3.83 124 14:52 28.12.2021
4671 Clouds 13 1016 41 10000 3.64 132 14:21 28.12.2021
4672 Clouds 12 1016 41 10000 3.64 132 13:51 28.12.2021
4673 Clouds 12 1016 41 10000 3.64 132 13:31 28.12.2021
4674 Clouds 11 1016 41 10000 4.11 130 12:49 28.12.2021
4675 Clouds 11 1016 43 10000 4.25 128 11:51 28.12.2021
4676 Clouds 8 1018 46 10000 7.29 121 09:30 28.12.2021
4677 Clouds 6 1021 51 10000 5.34 114 07:31 28.12.2021
4678 Clouds 6 1020 56 10000 3.95 106 02:23 28.12.2021
4679 Clear 7 1021 53 10000 3.18 108 23:26 27.12.2021
4680 Clear 7 1021 53 10000 3.24 102 22:20 27.12.2021
4681 Clear 8 1021 52 10000 3.65 103 21:29 27.12.2021
4682 Clear 9 1021 51 10000 3.08 124 20:27 27.12.2021
4683 Clear 9 1021 51 10000 3.08 124 19:47 27.12.2021
4684 Clear 9 1020 50 10000 2.94 120 18:56 27.12.2021
4685 Clear 11 1020 49 10000 2.73 127 17:50 27.12.2021
4686 Clear 11 1020 48 10000 2.78 123 17:28 27.12.2021
4687 Clear 13 1020 47 10000 2.94 123 15:54 27.12.2021
4688 Clear 15 1020 44 10000 3.76 127 14:57 27.12.2021
4689 Clear 15 1020 41 10000 4.79 126 14:21 27.12.2021
4690 Clear 14 1020 39 10000 4.94 126 12:49 27.12.2021
4691 Clear 10 1021 43 10000 5.1 130 10:40 27.12.2021
4692 Clear 10 1022 47 10000 5.69 127 10:22 27.12.2021
4693 Clear 7 1024 51 10000 5.45 130 08:43 27.12.2021
4694 Clear 5 1024 57 10000 4.89 125 07:34 27.12.2021
4695 Clear 4 1023 67 10000 3.35 112 06:27 27.12.2021
4696 Clear 7 1023 61 10000 3.47 106 01:51 27.12.2021
4697 Clear 8 1023 59 10000 3.06 110 23:49 26.12.2021
4698 Clear 8 1023 58 10000 2.76 115 23:19 26.12.2021
4699 Clear 9 1023 57 10000 2.76 107 21:37 26.12.2021
4700 Clear 9 1023 54 10000 3.19 105 19:55 26.12.2021
4701 Clear 9 1023 52 10000 3.47 98 18:46 26.12.2021
4702 Clear 9 1023 49 10000 3.41 99 18:22 26.12.2021
4703 Clear 14 1022 45 10000 3.11 98 15:53 26.12.2021
4704 Clear 14 1021 39 10000 2.58 116 13:51 26.12.2021
4705 Clear 14 1021 39 10000 2.58 116 13:32 26.12.2021
4706 Clear 14 1022 40 10000 2.6 130 12:37 26.12.2021
4707 Clear 14 1022 40 10000 2.6 130 12:37 26.12.2021
4708 Clear 13 1023 42 10000 3.31 144 11:24 26.12.2021
4709 Clear 10 1024 44 10000 3.47 134 09:42 26.12.2021
4710 Clear 7 1025 48 10000 3.67 127 08:50 26.12.2021
4711 Clear 7 1025 55 10000 3.75 128 08:27 26.12.2021
4712 Clear 3 1025 65 10000 2.91 112 05:59 26.12.2021
4713 Clear 5 1024 65 10000 0.85 103 00:45 26.12.2021
4714 Clear 5 1024 64 10000 0.43 36 23:49 25.12.2021
4715 Clear 5 1024 64 10000 0.68 7 23:25 25.12.2021
4716 Clear 5 1024 63 10000 1.16 345 22:21 25.12.2021
4717 Clear 6 1024 62 10000 1.25 341 20:36 25.12.2021
4718 Clear 7 1024 58 10000 1.75 326 19:20 25.12.2021
4719 Clear 8 1024 60 10000 1.93 327 18:51 25.12.2021
4720 Clear 9 1023 54 10000 2.28 306 16:58 25.12.2021
4721 Clear 9 1023 51 10000 2.3 303 15:54 25.12.2021
4722 Clear 11 1023 44 10000 2.49 314 14:25 25.12.2021
4723 Clear 12 1023 44 10000 2.4 314 12:43 25.12.2021
4724 Clear 11 1023 51 10000 1.69 310 11:27 25.12.2021
4725 Clear 10 1025 55 10000 1.6 320 09:49 25.12.2021
4726 Clear 6 1026 68 10000 2.49 325 07:54 25.12.2021
4727 Clear 6 1023 86 10000 3.23 304 02:18 25.12.2021
4728 Clear 7 1023 82 10000 3.31 297 00:30 25.12.2021
4729 Clear 8 1022 77 10000 3.53 291 22:40 24.12.2021
4730 Clear 9 1022 64 10000 3.35 298 19:39 24.12.2021
4731 Clouds 9 1022 63 10000 4.17 306 19:20 24.12.2021
4732 Clouds 10 1020 63 10000 5.66 296 16:50 24.12.2021
4733 Clouds 10 1019 59 10000 6.63 289 16:19 24.12.2021
4734 Clouds 11 1019 59 10000 6.63 289 15:45 24.12.2021
4735 Clouds 11 1018 55 10000 7.17 285 14:46 24.12.2021
4736 Clouds 11 1018 49 10000 7.38 286 14:23 24.12.2021
4737 Clouds 11 1018 49 10000 7.38 286 13:37 24.12.2021
4738 Clouds 11 1018 48 10000 7.55 285 12:48 24.12.2021
4739 Clouds 11 1017 49 10000 7.45 284 11:52 24.12.2021
4740 Clouds 11 1018 51 10000 7.18 286 11:26 24.12.2021
4741 Clouds 11 1018 51 10000 7.18 286 10:50 24.12.2021
4742 Clouds 11 1019 54 10000 6.72 284 10:22 24.12.2021
4743 Clouds 9 1020 66 10000 5.85 277 08:25 24.12.2021
4744 Clouds 9 1020 66 10000 5.85 277 07:50 24.12.2021
4745 Clouds 9 1017 83 10000 4.61 301 02:52 24.12.2021
4746 Clouds 9 1018 89 10000 4.5 285 00:19 24.12.2021
4747 Clouds 9 1018 89 10000 4.55 267 23:23 23.12.2021
4748 Clouds 9 1018 89 10000 4.55 267 22:39 23.12.2021
4749 Clouds 9 1018 82 10000 4.53 260 22:20 23.12.2021
4750 Clouds 9 1018 82 10000 4.53 260 21:33 23.12.2021
4751 Clouds 10 1018 81 10000 3.01 259 20:20 23.12.2021
4752 Clouds 10 1018 80 10000 3.11 256 18:37 23.12.2021
4753 Clouds 10 1019 77 10000 3.24 264 17:57 23.12.2021
4754 Clouds 10 1018 74 10000 3.58 270 16:57 23.12.2021
4755 Clouds 10 1018 70 10000 4.67 274 16:25 23.12.2021
4756 Clouds 10 1018 70 10000 4.67 274 15:32 23.12.2021
4757 Clouds 11 1017 63 10000 5.52 278 14:54 23.12.2021
4758 Clouds 11 1017 63 10000 5.52 278 14:36 23.12.2021
4759 Clouds 12 1017 54 10000 5.4 286 13:19 23.12.2021
4760 Clouds 11 1018 54 10000 5.41 294 10:54 23.12.2021
4761 Clouds 11 1020 56 10000 6.06 289 09:49 23.12.2021
4762 Clouds 11 1021 60 10000 5.95 286 09:26 23.12.2021
4763 Clouds 10 1021 65 10000 5.78 284 08:25 23.12.2021
4764 Clouds 9 1020 90 10000 3.8 290 04:36 23.12.2021
4765 Clouds 10 1020 80 10000 4.43 280 23:33 22.12.2021
4766 Clouds 10 1020 78 10000 4.55 276 22:49 22.12.2021
4767 Clouds 10 1021 80 10000 3.89 275 21:57 22.12.2021
4768 Clouds 10 1021 82 10000 3.26 272 21:29 22.12.2021
4769 Clouds 10 1021 82 10000 3.26 272 20:51 22.12.2021
4770 Clouds 10 1021 82 10000 3.26 272 20:33 22.12.2021
4771 Clouds 10 1021 84 10000 2.96 284 19:35 22.12.2021
4772 Clouds 11 1021 80 10000 2.68 303 18:18 22.12.2021
4773 Clouds 11 1021 80 10000 2.68 303 17:35 22.12.2021
4774 Clouds 12 1020 74 10000 2.81 300 15:49 22.12.2021
4775 Clouds 12 1020 70 10000 2.31 293 13:46 22.12.2021
4776 Clouds 12 1020 71 10000 2.13 297 12:44 22.12.2021
4777 Clouds 10 1022 72 10000 3.62 242 10:48 22.12.2021
4778 Clouds 10 1023 76 10000 4.22 228 09:40 22.12.2021
4779 Clouds 10 1023 75 10000 5.49 249 07:55 22.12.2021
4780 Clouds 9 1023 85 10000 2.25 257 05:51 22.12.2021
4781 Clouds 9 1023 85 10000 2.25 257 05:31 22.12.2021
4782 Clouds 10 1022 84 10000 2.11 254 04:55 22.12.2021
4783 Clouds 10 1022 84 10000 2.11 254 04:35 22.12.2021
4784 Clouds 10 1022 83 10000 2.14 243 03:34 22.12.2021
4785 Clouds 10 1023 79 10000 2.92 243 02:25 22.12.2021
4786 Clouds 9 1023 78 10000 3.16 258 23:47 21.12.2021
4787 Clouds 10 1023 76 10000 3.47 268 22:36 21.12.2021
4788 Clouds 10 1023 71 10000 4.15 267 21:55 21.12.2021
4789 Clouds 9 1023 71 10000 4.15 267 21:31 21.12.2021
4790 Clouds 9 1023 71 10000 4.54 257 20:24 21.12.2021
4791 Clouds 9 1023 71 10000 4.54 257 19:52 21.12.2021
4792 Clouds 9 1023 71 10000 4.54 257 19:31 21.12.2021
4793 Clouds 8 1023 73 10000 5.32 253 18:23 21.12.2021
4794 Clouds 9 1023 73 10000 5.32 253 17:53 21.12.2021
4795 Clouds 9 1022 70 10000 6.29 254 16:47 21.12.2021
4796 Clouds 8 1021 68 10000 6.91 259 15:34 21.12.2021
4797 Clouds 8 1021 64 10000 9.21 265 14:20 21.12.2021
4798 Clouds 9 1021 64 10000 9.21 265 13:41 21.12.2021
4799 Clouds 8 1020 61 10000 10.36 263 12:25 21.12.2021
4800 Clouds 8 1021 59 10000 11.46 256 10:38 21.12.2021
4801 Clouds 7 1021 57 10000 11.69 258 09:50 21.12.2021
4802 Clouds 7 1021 59 10000 10.46 251 08:55 21.12.2021
4803 Clouds 7 1021 62 10000 9.45 248 07:43 21.12.2021
4804 Clouds 7 1021 70 10000 8.68 247 07:20 21.12.2021
4805 Clouds 6 1019 76 10000 8.65 237 03:24 21.12.2021
4806 Clouds 7 1019 78 10000 9.14 240 01:20 21.12.2021
4807 Clouds 6 1019 83 10000 8.58 249 23:54 20.12.2021
4808 Clouds 7 1018 83 10000 10.17 253 22:35 20.12.2021
4809 Clouds 6 1018 84 10000 9.5 253 21:52 20.12.2021
4810 Clouds 6 1018 82 10000 9.36 245 21:24 20.12.2021
4811 Clouds 6 1018 82 10000 9.36 245 20:54 20.12.2021
4812 Clouds 6 1017 82 10000 10.02 239 20:19 20.12.2021
4813 Clouds 7 1017 82 10000 10.02 239 19:38 20.12.2021
4814 Clouds 7 1017 81 10000 10.79 239 19:19 20.12.2021
4815 Clouds 8 1017 82 10000 10.52 242 18:32 20.12.2021
4816 Clouds 8 1016 79 10000 10.32 252 17:50 20.12.2021
4817 Clouds 8 1016 81 10000 11.24 249 16:46 20.12.2021
4818 Clouds 8 1015 74 10000 12.07 250 15:57 20.12.2021
4819 Clouds 8 1015 74 10000 12.07 250 15:35 20.12.2021
4820 Clouds 9 1014 56 10000 12.7 249 13:32 20.12.2021
4821 Clouds 9 1014 56 10000 12.7 249 13:32 20.12.2021
4822 Clouds 10 1014 48 10000 14.09 252 12:30 20.12.2021
4823 Clouds 8 1014 53 10000 11.47 245 10:46 20.12.2021
4824 Clouds 7 1015 79 10000 10.55 238 09:40 20.12.2021
4825 Clear 10 1014 61 10000 12.39 233 08:50 20.12.2021
4826 Clear 10 1014 61 10000 12.39 233 08:31 20.12.2021
4827 Clear 9 1014 49 10000 8.61 224 07:35 20.12.2021
4828 Clear 8 1014 55 10000 3.51 191 06:39 20.12.2021
4829 Clear 6 1015 57 10000 0.55 205 00:20 20.12.2021
4830 Clear 7 1016 57 10000 0.63 103 22:58 19.12.2021
4831 Clear 7 1016 57 10000 0.63 103 22:40 19.12.2021
4832 Clear 8 1016 56 10000 1.06 48 21:32 19.12.2021
4833 Clear 8 1016 55 10000 0.68 7 20:42 19.12.2021
4834 Clear 8 1017 53 10000 1.44 278 20:23 19.12.2021
4835 Clear 10 1017 53 10000 1.44 278 19:41 19.12.2021
4836 Clear 10 1017 52 10000 2.95 290 18:46 19.12.2021
4837 Clear 11 1017 50 10000 3.37 285 17:54 19.12.2021
4838 Clear 11 1017 50 10000 3.37 285 17:34 19.12.2021
4839 Clear 12 1016 47 10000 3.57 280 16:41 19.12.2021
4840 Clear 12 1016 43 10000 3.82 259 15:56 19.12.2021
4841 Clear 12 1015 37 10000 5.24 254 15:25 19.12.2021
4842 Clear 13 1015 37 10000 5.24 254 14:45 19.12.2021
4843 Clear 12 1015 33 10000 6.68 245 13:35 19.12.2021
4844 Clear 13 1015 32 10000 6.89 238 12:59 19.12.2021
4845 Clear 13 1015 32 10000 6.89 238 12:31 19.12.2021
4846 Clear 12 1015 31 10000 6.5 232 11:38 19.12.2021
4847 Clear 12 1016 34 10000 6.2 224 10:50 19.12.2021
4848 Clear 12 1017 38 10000 5.85 213 10:22 19.12.2021
4849 Clear 10 1018 43 10000 5.61 215 08:51 19.12.2021
4850 Clear 7 1019 58 10000 2.99 189 06:51 19.12.2021
4851 Clear 8 1017 64 10000 2.23 229 02:30 19.12.2021
4852 Clear 9 1017 64 10000 2.36 239 00:55 19.12.2021
4853 Clear 9 1017 63 10000 2.73 255 23:21 18.12.2021
4854 Clear 9 1018 63 10000 3.01 266 22:28 18.12.2021
4855 Clear 8 1018 63 10000 3.01 266 21:44 18.12.2021
4856 Clear 8 1018 64 10000 3.32 268 21:25 18.12.2021
4857 Clear 10 1018 64 10000 3.32 268 20:43 18.12.2021
4858 Clear 10 1017 62 10000 3.42 260 19:38 18.12.2021
4859 Clear 11 1017 58 10000 3.01 259 18:25 18.12.2021
4860 Clear 11 1017 58 10000 3.01 259 17:49 18.12.2021
4861 Clear 11 1017 56 10000 3.68 258 16:50 18.12.2021
4862 Clear 11 1016 53 10000 5.12 257 16:21 18.12.2021
4863 Clear 11 1015 49 10000 6.88 260 15:24 18.12.2021
4864 Clear 12 1015 46 10000 7.87 258 13:58 18.12.2021
4865 Clouds 11 1015 49 10000 7.17 257 11:57 18.12.2021
4866 Clear 10 1017 54 10000 6.17 254 09:59 18.12.2021
4867 Clear 10 1017 54 10000 6.17 254 09:32 18.12.2021
4868 Clear 9 1017 59 10000 5.91 251 08:36 18.12.2021
4869 Clear 9 1018 64 10000 5.96 248 07:41 18.12.2021
4870 Clear 9 1016 84 10000 4.95 261 01:47 18.12.2021
4871 Clouds 10 1016 79 10000 4.85 261 23:56 17.12.2021
4872 Clouds 10 1016 76 10000 4.58 262 22:51 17.12.2021
4873 Clouds 10 1017 75 10000 4.24 270 21:50 17.12.2021
4874 Clouds 9 1016 74 10000 4.54 277 20:49 17.12.2021
4875 Clouds 9 1016 73 10000 5.89 283 19:58 17.12.2021
4876 Clouds 11 1016 77 10000 3.88 290 18:40 17.12.2021
4877 Clouds 11 1016 74 10000 4.61 280 18:19 17.12.2021
4878 Clouds 11 1016 70 10000 5.18 279 17:20 17.12.2021
4879 Clouds 11 1015 64 10000 5.6 280 16:29 17.12.2021
4880 Clouds 14 1015 64 10000 5.6 280 15:51 17.12.2021
4881 Clouds 14 1015 58 10000 6.94 278 14:43 17.12.2021
4882 Clouds 14 1014 53 10000 7.31 275 13:56 17.12.2021
4883 Clouds 13 1015 59 10000 6.79 270 12:38 17.12.2021
4884 Clouds 12 1015 50 10000 5.62 277 11:18 17.12.2021
4885 Clouds 13 1016 54 10000 5 275 09:52 17.12.2021
4886 Clouds 11 1017 60 10000 4.54 269 08:58 17.12.2021
4887 Clear 11 1018 69 10000 3.65 267 08:19 17.12.2021
4888 Clear 8 1018 87 10000 2.7 289 05:21 17.12.2021
4889 Clear 10 1018 86 10000 3.17 290 02:52 17.12.2021
4890 Clear 11 1018 75 10000 3.61 310 22:52 16.12.2021
4891 Clear 11 1018 73 10000 4.06 314 22:22 16.12.2021
4892 Clear 11 1018 73 10000 4.06 314 21:44 16.12.2021
4893 Clear 11 1018 71 10000 3.96 313 20:48 16.12.2021
4894 Clear 11 1018 69 10000 4.03 315 20:27 16.12.2021
4895 Clear 11 1018 69 10000 4.03 315 19:31 16.12.2021
4896 Clouds 12 1018 66 10000 3.83 313 18:36 16.12.2021
4897 Clouds 11 1018 58 10000 4.13 310 17:48 16.12.2021
4898 Clouds 13 1018 46 10000 4.81 294 16:44 16.12.2021
4899 Clouds 13 1017 39 10000 4.72 288 16:18 16.12.2021
4900 Clouds 15 1016 35 10000 4.5 299 14:23 16.12.2021
4901 Clouds 15 1016 34 10000 4.83 292 12:30 16.12.2021
4902 Clouds 15 1017 41 10000 4.16 295 11:19 16.12.2021
4903 Clouds 14 1017 41 10000 4.16 295 10:45 16.12.2021
4904 Clouds 13 1018 45 10000 3.41 294 09:51 16.12.2021
4905 Clear 10 1019 63 10000 1.96 299 07:19 16.12.2021
4906 Clear 8 1019 72 10000 2.39 306 06:18 16.12.2021
4907 Clouds 10 1018 75 10000 3.87 310 00:44 16.12.2021
4908 Clouds 11 1018 71 10000 5.25 319 23:21 15.12.2021
4909 Clouds 12 1017 71 10000 4.69 326 22:22 15.12.2021
4910 Clouds 12 1017 71 10000 4.69 326 21:46 15.12.2021
4911 Clouds 13 1017 66 10000 4.45 325 21:26 15.12.2021
4912 Clouds 13 1017 60 10000 4.77 326 19:55 15.12.2021
4913 Clouds 13 1017 57 10000 4 302 19:19 15.12.2021
4914 Clouds 13 1016 55 10000 4.31 302 18:26 15.12.2021
4915 Clouds 14 1016 55 10000 4.31 302 17:49 15.12.2021
4916 Clouds 14 1016 53 10000 4.15 300 17:27 15.12.2021
4917 Clouds 14 1015 50 10000 4.14 295 16:25 15.12.2021
4918 Clouds 16 1015 50 10000 4.14 295 15:42 15.12.2021
4919 Clouds 16 1015 46 10000 4.38 289 15:24 15.12.2021
4920 Clouds 16 1015 43 10000 4.41 278 13:59 15.12.2021
4921 Clear 16 1015 44 10000 3.62 281 12:24 15.12.2021
4922 Clear 15 1016 53 10000 3.45 286 10:24 15.12.2021
4923 Clear 14 1017 61 10000 3.03 289 08:48 15.12.2021
4924 Clouds 12 1016 91 10000 2.34 320 05:59 15.12.2021
4925 Clear 14 1014 93 10000 4.31 311 00:52 15.12.2021
4926 Clear 15 1013 89 10000 3.88 313 23:41 14.12.2021
4927 Clear 15 1013 77 10000 3.7 311 22:48 14.12.2021
4928 Clear 16 1013 64 10000 3.41 302 21:51 14.12.2021
4929 Clear 16 1012 29 10000 4.41 295 20:27 14.12.2021
4930 Clear 16 1012 29 10000 4.41 295 19:40 14.12.2021
4931 Clear 17 1012 27 10000 4.63 284 18:44 14.12.2021
4932 Clear 17 1012 32 10000 4.45 288 17:58 14.12.2021
4933 Clear 17 1012 32 10000 4.45 288 17:58 14.12.2021
4934 Clear 17 1011 30 10000 3.96 281 17:28 14.12.2021
4935 Clear 19 1011 30 10000 3.96 281 16:38 14.12.2021
4936 Clouds 22 1010 27 10000 2.4 309 15:26 14.12.2021
4937 Clouds 20 1010 23 10000 1.64 286 13:31 14.12.2021
4938 Clouds 18 1011 24 10000 1.09 231 11:58 14.12.2021
4939 Clouds 18 1011 25 10000 1.38 144 11:23 14.12.2021
4940 Clouds 14 1012 26 10000 2.92 136 09:57 14.12.2021
4941 Clouds 14 1012 26 10000 2.92 136 09:35 14.12.2021
4942 Clouds 13 1014 32 10000 4.02 120 08:23 14.12.2021
4943 Clouds 10 1014 32 10000 4.02 120 07:43 14.12.2021
4944 Clouds 13 1015 35 10000 4.27 104 02:27 14.12.2021
4945 Clouds 13 1016 31 10000 3.83 100 22:55 13.12.2021
4946 Clouds 14 1016 30 10000 3.41 118 21:52 13.12.2021
4947 Clouds 14 1016 30 10000 4.24 110 21:18 13.12.2021
4948 Clouds 15 1016 30 10000 4.24 110 20:38 13.12.2021
4949 Clouds 15 1017 29 10000 4.22 109 19:52 13.12.2021
4950 Clouds 17 1017 28 10000 4.24 98 17:56 13.12.2021
4951 Clouds 17 1017 27 10000 4.46 96 17:26 13.12.2021
4952 Clouds 21 1017 27 10000 4.14 100 15:51 13.12.2021
4953 Clouds 21 1016 25 10000 4.31 112 15:25 13.12.2021
4954 Clouds 21 1016 23 10000 5.56 121 13:39 13.12.2021
4955 Clouds 22 1017 22 10000 4.6 122 12:46 13.12.2021
4956 Clouds 22 1016 23 10000 5.32 121 11:56 13.12.2021
4957 Clouds 22 1016 23 10000 5.32 121 11:35 13.12.2021
4958 Clouds 20 1018 24 10000 5.77 126 10:47 13.12.2021
4959 Clouds 17 1019 26 10000 5.72 137 09:32 13.12.2021
4960 Clouds 11 1020 34 10000 6.29 125 07:48 13.12.2021
4961 Clouds 13 1020 43 10000 4.67 117 05:36 13.12.2021
4962 Clouds 11 1020 40 10000 4.82 109 03:28 13.12.2021
4963 Clouds 18 1020 34 10000 4.64 107 23:22 12.12.2021
4964 Clouds 15 1021 33 10000 4.53 116 21:41 12.12.2021
4965 Clouds 15 1021 32 10000 4.79 111 20:18 12.12.2021
4966 Clouds 16 1021 31 10000 4.39 119 18:43 12.12.2021
4967 Clouds 17 1020 30 10000 4.15 113 17:45 12.12.2021
4968 Clouds 18 1020 30 10000 5 109 16:28 12.12.2021
4969 Clouds 19 1020 30 10000 5 109 15:50 12.12.2021
4970 Clouds 19 1020 28 10000 5.45 121 15:25 12.12.2021
4971 Clouds 20 1020 28 10000 5.45 121 14:36 12.12.2021
4972 Clouds 20 1020 25 10000 6.42 125 13:33 12.12.2021
4973 Clouds 19 1019 25 10000 6.85 128 12:32 12.12.2021
4974 Clouds 18 1020 26 10000 6.96 126 11:44 12.12.2021
4975 Clouds 18 1021 27 10000 7.06 126 11:24 12.12.2021
4976 Clouds 16 1022 30 10000 7.07 124 10:28 12.12.2021
4977 Clouds 13 1022 30 10000 7.07 124 09:39 12.12.2021
4978 Clouds 12 1023 33 10000 6.96 124 08:34 12.12.2021
4979 Clouds 9 1023 47 10000 4.06 105 06:20 12.12.2021
4980 Clouds 9 1022 47 10000 4.24 110 04:56 12.12.2021
4981 Clouds 10 1022 46 10000 4.07 103 03:57 12.12.2021
4982 Clouds 12 1022 42 10000 4.12 104 23:48 11.12.2021
4983 Clouds 12 1022 40 10000 3.68 107 22:24 11.12.2021
4984 Clouds 12 1022 40 10000 3.68 107 21:52 11.12.2021
4985 Clouds 12 1022 40 10000 3.8 105 21:18 11.12.2021
4986 Clouds 13 1022 39 10000 3.8 107 19:37 11.12.2021
4987 Clear 13 1021 38 10000 3.98 106 18:53 11.12.2021
4988 Clear 14 1021 36 10000 4.24 101 18:26 11.12.2021
4989 Clear 14 1021 36 10000 4.24 101 17:37 11.12.2021
4990 Clear 18 1019 33 10000 4.93 98 15:55 11.12.2021
4991 Clear 18 1019 33 10000 4.93 98 15:35 11.12.2021
4992 Clear 18 1019 28 10000 5.95 128 13:21 11.12.2021
4993 Clear 16 1019 29 10000 5.75 128 11:55 11.12.2021
4994 Clear 12 1021 35 10000 6.74 126 09:57 11.12.2021
4995 Clear 12 1021 35 10000 6.74 126 09:34 11.12.2021
4996 Clouds 12 1022 56 10000 4.85 106 02:41 11.12.2021
4997 Clouds 13 1022 53 10000 4.86 106 00:44 11.12.2021
4998 Clouds 13 1022 53 10000 4.59 114 23:39 10.12.2021
4999 Clouds 13 1022 51 10000 4.75 112 22:27 10.12.2021
5000 Clouds 13 1022 51 10000 4.75 112 21:37 10.12.2021
5001 Clouds 13 1022 50 10000 4.73 117 19:55 10.12.2021
5002 Clouds 13 1022 49 10000 4.94 115 19:18 10.12.2021
5003 Clouds 16 1022 44 10000 5.58 110 17:23 10.12.2021
5004 Clouds 16 1022 44 10000 5.58 110 16:34 10.12.2021
5005 Clouds 17 1022 43 10000 5.66 113 15:43 10.12.2021
5006 Clouds 17 1022 39 10000 6.45 122 15:23 10.12.2021
5007 Clouds 19 1022 38 10000 7.58 126 13:53 10.12.2021
5008 Clouds 19 1022 38 10000 7.58 126 13:31 10.12.2021
5009 Clouds 17 1022 39 10000 7.64 128 12:51 10.12.2021
5010 Clouds 16 1022 39 10000 6.95 128 11:36 10.12.2021
5011 Clouds 15 1023 42 10000 7.11 127 10:55 10.12.2021
5012 Clouds 14 1025 47 10000 6.43 126 09:36 10.12.2021
5013 Clouds 11 1026 70 10000 4.54 112 07:25 10.12.2021
5014 Clear 7 1025 79 10000 3.24 108 04:32 10.12.2021
5015 Clear 8 1025 79 10000 2.47 116 02:39 10.12.2021
5016 Clear 10 1025 76 10000 1.44 104 23:40 09.12.2021
5017 Clear 10 1025 76 10000 1.44 104 23:40 09.12.2021
5018 Clear 10 1025 77 10000 0.88 51 22:41 09.12.2021
5019 Clear 10 1025 74 10000 1.53 12 22:21 09.12.2021
5020 Clear 10 1025 74 10000 1.53 12 21:39 09.12.2021
5021 Clear 11 1025 72 10000 1.79 349 20:35 09.12.2021
5022 Clear 11 1025 71 10000 1.95 323 19:43 09.12.2021
5023 Clouds 11 1024 68 10000 2.45 295 19:20 09.12.2021
5024 Clouds 12 1024 68 10000 3.18 282 18:19 09.12.2021
5025 Clouds 12 1024 68 10000 3.18 282 17:48 09.12.2021
5026 Clouds 12 1024 65 10000 3.41 282 17:24 09.12.2021
5027 Clouds 12 1024 65 10000 3.41 282 16:36 09.12.2021
5028 Clouds 12 1023 54 10000 3.56 276 15:18 09.12.2021
5029 Clouds 12 1022 54 10000 3.74 276 14:30 09.12.2021
5030 Clouds 12 1022 48 10000 5.15 270 12:48 09.12.2021
5031 Clouds 14 1022 47 10000 5.45 281 11:51 09.12.2021
5032 Clouds 14 1023 55 10000 5.47 283 10:28 09.12.2021
5033 Clouds 11 1023 68 10000 5.64 247 07:53 09.12.2021
5034 Clouds 10 1021 83 10000 5.73 252 03:58 09.12.2021
5035 Clouds 10 1019 74 10000 8.37 264 00:26 09.12.2021
5036 Clouds 10 1019 74 10000 8.37 264 23:37 08.12.2021
5037 Clouds 10 1019 78 10000 8.76 261 22:57 08.12.2021
5038 Clouds 10 1019 78 10000 8.76 261 22:37 08.12.2021
5039 Clouds 12 1019 77 10000 9.73 258 21:39 08.12.2021
5040 Clouds 12 1018 69 10000 10.83 248 20:58 08.12.2021
5041 Clouds 13 1018 71 10000 10.55 249 19:57 08.12.2021
5042 Clear 13 1017 57 10000 11 247 19:29 08.12.2021
5043 Clear 13 1017 49 10000 10.21 246 18:28 08.12.2021
5044 Clear 13 1017 46 10000 9.8 249 17:24 08.12.2021
5045 Clear 13 1016 45 10000 9.87 253 15:45 08.12.2021
5046 Clear 13 1016 41 10000 9.75 250 15:23 08.12.2021
5047 Clear 14 1015 37 10000 11.46 253 13:40 08.12.2021
5048 Clear 13 1015 28 10000 9.68 242 10:45 08.12.2021
5049 Clear 13 1016 27 10000 8.9 243 10:24 08.12.2021
5050 Clear 12 1017 27 10000 7.73 248 08:54 08.12.2021
5051 Clear 11 1017 47 10000 6.17 251 06:52 08.12.2021
5052 Clouds 14 1014 40 10000 4.85 273 01:21 08.12.2021
5053 Clouds 15 1014 36 10000 3.74 271 23:31 07.12.2021
5054 Clouds 15 1014 36 10000 2.59 123 21:26 07.12.2021
5055 Clouds 14 1014 36 10000 2.59 123 20:30 07.12.2021
5056 Clouds 15 1014 36 10000 2.85 122 19:48 07.12.2021
5057 Clouds 15 1014 35 10000 3.63 114 18:39 07.12.2021
5058 Clouds 16 1015 33 10000 4.81 98 17:27 07.12.2021
5059 Clouds 16 1015 33 10000 4.81 98 16:57 07.12.2021
5060 Clouds 16 1014 31 10000 5.28 100 16:28 07.12.2021
5061 Clouds 18 1014 28 10000 4.73 106 14:57 07.12.2021
5062 Clouds 17 1014 25 10000 5.23 127 13:49 07.12.2021
5063 Clouds 17 1014 27 10000 6.43 136 12:47 07.12.2021
5064 Clouds 16 1016 30 10000 7.43 138 11:25 07.12.2021
5065 Clouds 14 1017 31 10000 8.01 137 09:55 07.12.2021
5066 Clouds 13 1019 39 10000 8.99 135 07:55 07.12.2021
5067 Clouds 13 1019 51 10000 5.17 121 05:59 07.12.2021
5068 Clouds 13 1019 51 10000 5.17 121 05:33 07.12.2021
5069 Clouds 14 1019 62 10000 4.82 111 23:45 06.12.2021
5070 Clouds 13 1020 61 10000 4.16 111 22:44 06.12.2021
5071 Clouds 13 1020 60 10000 4.32 117 22:23 06.12.2021
5072 Clouds 13 1020 60 10000 4.32 117 21:46 06.12.2021
5073 Clouds 14 1020 57 10000 5.83 116 20:33 06.12.2021
5074 Clouds 14 1021 54 10000 4.11 127 19:27 06.12.2021
5075 Clouds 16 1021 54 10000 4.11 127 18:59 06.12.2021
5076 Clouds 16 1021 47 10000 3.43 122 18:23 06.12.2021
5077 Clouds 16 1021 47 10000 3.43 122 17:40 06.12.2021
5078 Clouds 17 1020 48 10000 3.63 122 16:32 06.12.2021
5079 Clouds 18 1020 49 10000 4.03 130 15:38 06.12.2021
5080 Clouds 18 1020 43 10000 5.29 129 13:46 06.12.2021
5081 Clouds 19 1020 43 10000 5.23 131 12:39 06.12.2021
5082 Clouds 18 1020 45 10000 5.39 131 11:36 06.12.2021
5083 Clear 14 1022 57 10000 5.13 118 08:46 06.12.2021
5084 Clear 11 1022 76 10000 1.57 96 06:40 06.12.2021
5085 Clear 12 1019 87 10000 4.54 290 23:38 05.12.2021
5086 Clear 13 1019 83 10000 3.51 289 21:51 05.12.2021
5087 Clear 13 1019 80 10000 3.59 289 21:19 05.12.2021
5088 Clear 13 1018 77 10000 4.03 284 20:19 05.12.2021
5089 Clear 13 1018 77 10000 4.03 284 19:33 05.12.2021
5090 Clear 14 1018 72 10000 4.64 277 18:55 05.12.2021
5091 Clear 14 1017 68 10000 5.5 277 18:20 05.12.2021
5092 Clear 14 1017 68 10000 5.5 277 17:48 05.12.2021
5093 Clear 15 1016 65 10000 6.74 275 16:48 05.12.2021
5094 Clear 15 1015 55 10000 7.52 272 16:26 05.12.2021
5095 Clear 16 1015 55 10000 7.52 272 15:48 05.12.2021
5096 Clear 17 1014 38 10000 8.39 267 14:41 05.12.2021
5097 Clear 17 1013 30 10000 9.17 264 14:23 05.12.2021
5098 Clear 18 1012 28 10000 9.73 262 13:22 05.12.2021
5099 Clear 17 1012 28 10000 9.73 262 12:40 05.12.2021
5100 Clear 17 1011 26 10000 8.59 261 12:18 05.12.2021
5101 Clear 18 1011 26 10000 8.59 261 11:30 05.12.2021
5102 Clear 17 1012 23 10000 8.11 270 09:59 05.12.2021
5103 Clear 15 1013 28 10000 2.34 184 08:24 05.12.2021
5104 Clouds 14 1012 45 10000 1.22 60 03:39 05.12.2021
5105 Clouds 13 1013 42 10000 2.78 125 23:45 04.12.2021
5106 Clouds 14 1014 41 10000 3.4 134 21:55 04.12.2021
5107 Clouds 14 1015 39 10000 3.34 134 21:18 04.12.2021
5108 Clouds 15 1015 38 10000 2.93 133 20:27 04.12.2021
5109 Clouds 15 1015 38 10000 2.93 133 19:32 04.12.2021
5110 Clouds 17 1015 37 10000 3.19 102 18:21 04.12.2021
5111 Clouds 17 1015 37 10000 3.19 102 17:40 04.12.2021
5112 Clouds 18 1016 37 10000 3.53 94 16:52 04.12.2021
5113 Clouds 18 1016 37 10000 3.53 94 16:31 04.12.2021
5114 Clouds 20 1015 36 10000 3.87 92 15:57 04.12.2021
5115 Clouds 17 1016 30 10000 5.05 135 11:55 04.12.2021
5116 Clouds 17 1016 30 10000 5.05 135 11:33 04.12.2021
5117 Clouds 15 1016 31 10000 6.18 129 10:56 04.12.2021
5118 Clouds 12 1019 35 10000 5.91 120 08:52 04.12.2021
5119 Clouds 10 1020 44 10000 5.36 115 07:22 04.12.2021
5120 Clouds 10 1020 48 10000 3.96 110 04:42 04.12.2021
5121 Clouds 14 1020 41 10000 3.98 118 00:47 04.12.2021
5122 Clouds 14 1020 44 10000 3.76 117 23:27 03.12.2021
5123 Clouds 14 1020 44 10000 3.76 117 22:50 03.12.2021
5124 Clouds 14 1021 44 10000 3.99 114 21:50 03.12.2021
5125 Clouds 14 1021 44 10000 4.14 110 20:56 03.12.2021
5126 Clouds 14 1021 43 10000 3.7 102 20:26 03.12.2021
5127 Clouds 15 1021 43 10000 4.13 101 19:20 03.12.2021
5128 Clouds 15 1021 43 10000 4.44 96 18:22 03.12.2021
5129 Clouds 17 1020 42 10000 4.76 96 17:30 03.12.2021
5130 Clouds 20 1019 36 10000 4.24 133 13:35 03.12.2021
5131 Clouds 18 1020 38 10000 5.09 140 12:21 03.12.2021
5132 Clouds 16 1020 40 10000 5.36 142 11:19 03.12.2021
5133 Clouds 13 1022 50 10000 4.47 139 08:40 03.12.2021
5134 Clouds 10 1022 58 10000 3.92 131 07:43 03.12.2021
5135 Clouds 9 1022 63 10000 2.27 129 06:41 03.12.2021
5136 Clear 10 1020 71 10000 1.54 335 00:49 03.12.2021
5137 Clear 10 1020 70 10000 2.92 340 23:48 02.12.2021
5138 Clear 10 1020 69 10000 3.24 340 22:54 02.12.2021
5139 Clear 12 1020 67 10000 3.3 339 21:41 02.12.2021
5140 Clear 12 1021 63 10000 3.46 331 20:46 02.12.2021
5141 Clear 12 1020 61 10000 3.37 321 20:23 02.12.2021
5142 Clear 13 1021 60 10000 3.65 316 19:22 02.12.2021
5143 Clear 14 1020 54 10000 3.3 316 16:53 02.12.2021
5144 Clear 15 1019 52 10000 3.32 317 15:41 02.12.2021
5145 Clear 16 1018 46 10000 3.54 318 14:53 02.12.2021
5146 Clear 16 1018 43 10000 3.98 311 13:44 02.12.2021
5147 Clear 16 1018 42 10000 4.48 306 12:50 02.12.2021
5148 Clear 16 1018 43 10000 4.56 302 11:52 02.12.2021
5149 Clear 14 1019 54 10000 5.61 292 09:27 02.12.2021
5150 Clear 13 1019 62 10000 4.42 286 08:19 02.12.2021
5151 Clear 12 1017 76 10000 7.11 293 01:58 02.12.2021
5152 Clouds 13 1016 72 10000 7.25 295 00:50 02.12.2021
5153 Clouds 13 1016 74 10000 7.36 299 22:34 01.12.2021
5154 Clouds 13 1016 75 10000 7.35 298 21:55 01.12.2021
5155 Clouds 13 1016 76 10000 8.1 297 20:35 01.12.2021
5156 Clear 13 1015 82 10000 7.05 295 19:51 01.12.2021
5157 Clouds 14 1015 78 10000 7.56 290 18:57 01.12.2021
5158 Clouds 14 1015 74 10000 7.63 290 17:39 01.12.2021
5159 Clouds 14 1014 69 10000 7.91 293 16:38 01.12.2021
5160 Clouds 15 1014 65 10000 8.81 289 14:49 01.12.2021
5161 Clouds 15 1014 71 10000 8.52 289 13:44 01.12.2021
5162 Clouds 15 1013 75 10000 8.39 273 11:42 01.12.2021
5163 Clouds 15 1013 66 10000 9.33 266 10:42 01.12.2021
5164 Clouds 15 1015 58 10000 9.28 268 08:55 01.12.2021
5165 Clouds 15 1015 62 10000 9.02 268 08:26 01.12.2021
5166 Clouds 15 1015 62 10000 9.02 268 07:32 01.12.2021
5167 Clouds 16 1015 81 10000 7.43 294 04:20 01.12.2021
5168 Clouds 16 1015 81 10000 7.43 294 03:39 01.12.2021
5169 Clouds 17 1015 75 10000 7.32 289 00:51 01.12.2021
5170 Clouds 17 1015 64 10000 7 285 23:45 30.11.2021
5171 Clouds 17 1015 43 10000 5.7 285 22:48 30.11.2021
5172 Clouds 17 1015 27 10000 5.7 267 21:28 30.11.2021
5173 Clouds 19 1015 27 10000 5.7 267 20:37 30.11.2021
5174 Clouds 19 1015 26 10000 5.15 262 19:53 30.11.2021
5175 Clouds 19 1015 26 10000 5.15 262 19:30 30.11.2021
5176 Clouds 19 1015 26 10000 5.15 262 19:30 30.11.2021
5177 Clouds 20 1015 27 10000 4.7 262 18:35 30.11.2021
5178 Clouds 23 1015 25 10000 5.39 283 16:35 30.11.2021
5179 Clouds 28 1014 17 10000 5.85 277 14:58 30.11.2021
5180 Clear 28 1013 13 10000 6.95 264 14:19 30.11.2021
5181 Clear 28 1013 13 10000 6.95 264 14:19 30.11.2021
5182 Clouds 28 1013 12 10000 5.67 253 13:25 30.11.2021
5183 Clouds 28 1013 12 10000 5.67 253 12:45 30.11.2021
5184 Clouds 27 1015 16 10000 3.13 174 11:27 30.11.2021
5185 Clouds 27 1015 16 10000 3.13 174 10:56 30.11.2021
5186 Clouds 23 1015 16 10000 3.13 174 10:31 30.11.2021
5187 Clouds 17 1018 23 10000 4.29 137 08:52 30.11.2021
5188 Clouds 17 1019 27 10000 4.01 117 08:20 30.11.2021
5189 Clouds 16 1019 27 10000 4.01 117 07:47 30.11.2021
5190 Clouds 16 1019 36 10000 3.42 114 02:29 30.11.2021
5191 Clouds 17 1019 36 10000 3.42 114 01:40 30.11.2021
5192 Clouds 18 1020 37 10000 3.21 113 00:19 30.11.2021
5193 Clouds 20 1020 37 10000 3.45 113 23:23 29.11.2021
5194 Clouds 19 1020 37 10000 3.45 113 22:55 29.11.2021
5195 Clouds 19 1020 37 10000 3.45 113 22:33 29.11.2021
5196 Clouds 19 1021 35 10000 3.41 115 21:29 29.11.2021
5197 Clouds 19 1021 35 10000 3.41 115 20:59 29.11.2021
5198 Clouds 19 1021 35 10000 3.41 115 20:32 29.11.2021
5199 Clouds 21 1021 34 10000 3.54 115 19:56 29.11.2021
5200 Clouds 21 1021 34 10000 3.54 115 19:36 29.11.2021
5201 Clouds 22 1021 31 10000 3.81 115 18:51 29.11.2021
5202 Clouds 20 1021 29 10000 4.12 121 17:49 29.11.2021
5203 Clouds 21 1020 27 10000 4.11 126 17:18 29.11.2021
5204 Clouds 21 1020 27 10000 4.11 126 17:18 29.11.2021
5205 Clouds 22 1019 25 10000 4.45 132 16:29 29.11.2021
5206 Clouds 22 1019 25 10000 4.45 132 15:52 29.11.2021
5207 Clouds 23 1019 23 10000 4.26 133 14:43 29.11.2021
5208 Clouds 25 1019 20 10000 5.1 122 13:34 29.11.2021
5209 Clouds 25 1019 20 10000 4.99 118 12:37 29.11.2021
5210 Clear 25 1019 20 10000 5.01 118 11:40 29.11.2021
5211 Clear 25 1020 21 10000 5.19 117 10:58 29.11.2021
5212 Clear 21 1021 22 10000 4.93 114 09:36 29.11.2021
5213 Clouds 15 1021 34 10000 2.18 347 06:21 29.11.2021
5214 Clouds 15 1020 32 10000 3.25 304 03:46 29.11.2021
5215 Clouds 16 1020 31 10000 2.84 306 00:43 29.11.2021
5216 Clouds 18 1020 31 10000 2.92 303 23:44 28.11.2021
5217 Clouds 18 1020 30 10000 2.74 302 23:24 28.11.2021
5218 Clouds 19 1020 31 10000 1.93 286 21:52 28.11.2021
5219 Clouds 19 1020 30 10000 2.14 273 21:26 28.11.2021
5220 Clouds 19 1020 30 10000 2.14 273 20:35 28.11.2021
5221 Clouds 20 1020 30 10000 1.53 248 19:28 28.11.2021
5222 Clouds 20 1019 31 10000 1.2 268 18:35 28.11.2021
5223 Clouds 23 1019 31 10000 1.02 308 17:56 28.11.2021
5224 Clouds 23 1019 31 10000 1.02 308 17:32 28.11.2021
5225 Clouds 24 1019 31 10000 0.17 0 16:44 28.11.2021
5226 Clouds 24 1018 30 10000 1.15 101 16:22 28.11.2021
5227 Clouds 25 1018 30 10000 1.15 101 15:33 28.11.2021
5228 Clouds 27 1018 26 10000 1.39 110 14:49 28.11.2021
5229 Clouds 27 1018 23 10000 1.07 146 13:49 28.11.2021
5230 Clouds 25 1018 23 10000 1.18 169 12:54 28.11.2021
5231 Clouds 22 1019 27 10000 3.07 147 11:19 28.11.2021
5232 Clouds 22 1020 30 10000 3.15 133 10:22 28.11.2021
5233 Clouds 19 1020 30 10000 3.15 133 09:40 28.11.2021
5234 Clouds 17 1021 39 10000 3.78 127 08:19 28.11.2021
5235 Clouds 15 1021 44 10000 2.9 112 00:39 28.11.2021
5236 Clear 15 1021 41 10000 2.99 130 21:45 27.11.2021
5237 Clear 16 1021 39 10000 2.97 118 19:50 27.11.2021
5238 Clouds 17 1021 38 10000 3.52 100 18:20 27.11.2021
5239 Clouds 20 1020 35 10000 3.66 112 15:59 27.11.2021
5240 Clouds 23 1019 32 10000 3.44 123 14:35 27.11.2021
5241 Clouds 23 1019 28 10000 3.79 139 13:20 27.11.2021
5242 Clouds 19 1020 30 10000 3.84 137 10:57 27.11.2021
5243 Clouds 18 1021 31 10000 4.26 131 09:55 27.11.2021
5244 Clouds 16 1022 34 10000 3.75 127 08:51 27.11.2021
5245 Clouds 11 1023 47 10000 2.19 115 06:35 27.11.2021
5246 Clouds 12 1021 55 10000 0.84 91 03:52 27.11.2021
5247 Clear 13 1022 53 10000 1.2 321 00:23 27.11.2021
5248 Clear 13 1021 51 10000 1.66 322 22:41 26.11.2021
5249 Clear 13 1021 49 10000 1.86 331 22:20 26.11.2021
5250 Clear 14 1021 47 10000 2.2 350 21:23 26.11.2021
5251 Clear 15 1021 47 10000 2.2 350 20:40 26.11.2021
5252 Clear 15 1021 46 10000 2.76 349 19:55 26.11.2021
5253 Clear 18 1021 44 10000 2.83 348 18:47 26.11.2021
5254 Clear 19 1020 44 10000 3.29 350 17:40 26.11.2021
5255 Clear 16 1020 41 10000 3.61 334 17:20 26.11.2021
5256 Clear 21 1019 32 10000 2.84 316 15:21 26.11.2021
5257 Clear 21 1019 30 10000 3.62 303 13:35 26.11.2021
5258 Clouds 20 1019 37 10000 3.52 296 10:45 26.11.2021
5259 Clouds 20 1019 41 10000 3.14 295 09:54 26.11.2021
5260 Clouds 16 1020 48 10000 2.65 300 08:53 26.11.2021
5261 Clouds 16 1020 57 10000 2.48 308 08:20 26.11.2021
5262 Clouds 12 1020 65 10000 2.36 312 06:41 26.11.2021
5263 Clouds 12 1020 70 10000 2.59 311 06:22 26.11.2021
5264 Clear 12 1018 66 10000 2.63 317 03:44 26.11.2021
5265 Clear 12 1018 56 10000 2.91 309 00:57 26.11.2021
5266 Clear 14 1018 52 10000 2.82 314 22:38 25.11.2021
5267 Clear 14 1018 49 10000 3.1 321 21:20 25.11.2021
5268 Clear 15 1018 47 10000 2.77 319 19:55 25.11.2021
5269 Clouds 19 1017 47 10000 2.99 333 18:45 25.11.2021
5270 Clouds 19 1016 41 10000 3.15 334 17:29 25.11.2021
5271 Clouds 19 1016 41 10000 3.15 334 16:58 25.11.2021
5272 Clouds 19 1015 40 10000 2.62 343 16:29 25.11.2021
5273 Clouds 22 1015 36 10000 1.91 344 14:59 25.11.2021
5274 Clouds 22 1015 35 10000 0.81 252 13:25 25.11.2021
5275 Clouds 23 1015 36 10000 0.95 204 12:20 25.11.2021
5276 Clouds 21 1015 36 10000 0.95 204 11:48 25.11.2021
5277 Clouds 20 1017 42 10000 2.28 146 09:25 25.11.2021
5278 Clouds 11 1016 57 10000 2.08 119 05:27 25.11.2021
5279 Clouds 13 1016 56 10000 1.65 110 02:48 25.11.2021
5280 Clouds 14 1016 49 10000 2 134 22:45 24.11.2021
5281 Clouds 14 1016 48 10000 1.89 125 22:23 24.11.2021
5282 Clouds 14 1017 47 10000 2.45 124 21:28 24.11.2021
5283 Clouds 14 1017 47 10000 2.45 124 20:46 24.11.2021
5284 Clouds 14 1017 46 10000 2.92 111 20:19 24.11.2021
5285 Clouds 16 1017 44 10000 3.22 111 18:30 24.11.2021
5286 Clouds 18 1016 43 10000 3.86 105 17:53 24.11.2021
5287 Clouds 20 1015 34 10000 3.48 110 15:23 24.11.2021
5288 Clouds 21 1015 34 10000 3.48 110 14:47 24.11.2021
5289 Clouds 21 1015 30 10000 2.7 137 14:20 24.11.2021
5290 Clouds 21 1016 32 10000 4.39 151 12:28 24.11.2021
5291 Clouds 20 1017 34 10000 4.86 148 11:20 24.11.2021
5292 Clouds 19 1017 34 10000 4.86 148 10:47 24.11.2021
5293 Clouds 19 1019 38 10000 5.25 147 10:22 24.11.2021
5294 Clouds 11 1020 46 10000 5 136 07:54 24.11.2021
5295 Clouds 9 1020 50 10000 3.56 134 06:54 24.11.2021
5296 Clouds 11 1019 55 10000 2.75 123 03:51 24.11.2021
5297 Clouds 13 1020 52 10000 2.8 114 00:52 24.11.2021
5298 Clouds 13 1020 51 10000 2.51 131 22:40 23.11.2021
5299 Clear 13 1021 49 10000 2.84 140 22:20 23.11.2021
5300 Clear 13 1021 49 10000 2.84 140 21:44 23.11.2021
5301 Clear 13 1021 49 10000 2.84 140 21:44 23.11.2021
5302 Clear 13 1021 49 10000 2.84 140 21:44 23.11.2021
5303 Clear 15 1021 46 10000 2.8 126 19:43 23.11.2021
5304 Clear 16 1021 45 10000 2.78 122 18:43 23.11.2021
5305 Clear 16 1021 43 10000 3.04 122 18:21 23.11.2021
5306 Clear 16 1021 42 10000 2.86 127 16:58 23.11.2021
5307 Clear 17 1021 42 10000 2.86 127 16:34 23.11.2021
5308 Clear 19 1020 37 10000 2.01 140 15:22 23.11.2021
5309 Clear 21 1020 34 10000 1.83 141 14:26 23.11.2021
5310 Clear 20 1021 36 10000 1.88 155 11:48 23.11.2021
5311 Clear 19 1022 40 10000 2.17 150 10:21 23.11.2021
5312 Clear 17 1023 43 10000 2.19 152 09:22 23.11.2021
5313 Clear 10 1023 52 10000 0.71 127 06:46 23.11.2021
5314 Clear 10 1022 66 10000 0.38 321 03:54 23.11.2021
5315 Clear 11 1022 66 10000 0.71 309 02:58 23.11.2021
5316 Clear 11 1022 58 10000 0.95 286 23:21 22.11.2021
5317 Clear 12 1022 58 10000 0.95 286 22:53 22.11.2021
5318 Clear 12 1022 56 10000 1.21 321 22:27 22.11.2021
5319 Clear 13 1022 56 10000 1.21 321 21:43 22.11.2021
5320 Clear 13 1022 52 10000 1.96 337 20:52 22.11.2021
5321 Clear 14 1022 48 10000 1.61 330 19:58 22.11.2021
5322 Clear 14 1022 47 10000 0.52 344 19:19 22.11.2021
5323 Clear 15 1022 45 10000 1.04 355 18:40 22.11.2021
5324 Clear 16 1021 43 10000 1.37 37 17:45 22.11.2021
5325 Clear 16 1020 40 10000 1.14 33 16:22 22.11.2021
5326 Clear 18 1020 35 10000 0.91 237 14:26 22.11.2021
5327 Clear 19 1019 36 10000 1.21 233 12:43 22.11.2021
5328 Clear 16 1020 41 10000 1.48 230 10:43 22.11.2021
5329 Clear 15 1020 45 10000 1.18 241 09:48 22.11.2021
5330 Clear 13 1021 50 10000 1.17 268 08:41 22.11.2021
5331 Clear 9 1020 54 10000 0.56 262 06:43 22.11.2021
5332 Clouds 9 1017 59 10000 0.92 264 23:39 21.11.2021
5333 Clouds 8 1017 58 10000 0.73 286 22:53 21.11.2021
5334 Clouds 8 1017 56 10000 1.3 313 22:19 21.11.2021
5335 Clouds 10 1017 58 10000 1.85 333 20:42 21.11.2021
5336 Clouds 8 1016 60 10000 2.24 325 20:21 21.11.2021
5337 Clouds 10 1016 60 10000 2.1 313 18:30 21.11.2021
5338 Clouds 11 1015 61 10000 2.57 7 17:39 21.11.2021
5339 Clouds 11 1015 64 10000 1 29 16:52 21.11.2021
5340 Clouds 12 1014 59 10000 8.05 241 14:47 21.11.2021
5341 Clouds 11 1013 52 10000 10.2 242 13:54 21.11.2021
5342 Clouds 11 1012 45 10000 9.19 237 12:55 21.11.2021
5343 Clouds 11 1011 35 10000 3.82 190 11:57 21.11.2021
5344 Clouds 11 1011 35 10000 3.82 190 11:35 21.11.2021
5345 Clouds 15 1012 47 10000 4.53 162 10:19 21.11.2021
5346 Clouds 14 1013 55 10000 4.93 138 09:25 21.11.2021
5347 Clouds 13 1013 55 10000 4.93 138 08:31 21.11.2021
5348 Clouds 13 1014 62 10000 4.35 130 07:50 21.11.2021
5349 Clouds 12 1013 75 10000 3.17 118 06:23 21.11.2021
5350 Clouds 12 1013 75 10000 3.17 118 05:37 21.11.2021
5351 Clouds 8 1011 78 10000 2.27 115 03:21 21.11.2021
5352 Clouds 10 1011 78 10000 2.27 115 02:53 21.11.2021
5353 Clouds 11 1011 78 10000 2.09 117 01:25 21.11.2021
5354 Clouds 11 1011 78 10000 2.09 117 01:25 21.11.2021
5355 Clouds 11 1011 78 10000 2.09 117 00:41 21.11.2021
5356 Clouds 12 1011 74 10000 1.47 108 21:55 20.11.2021
5357 Clouds 12 1011 74 10000 1.47 108 21:30 20.11.2021
5358 Clouds 13 1010 75 10000 1.89 342 19:46 20.11.2021
5359 Clouds 13 1010 76 10000 2.99 329 18:45 20.11.2021
5360 Clouds 13 1010 78 10000 3.74 326 18:19 20.11.2021
5361 Clouds 13 1010 73 10000 3.68 323 17:21 20.11.2021
5362 Clouds 14 1009 56 10000 5.57 274 14:55 20.11.2021
5363 Clouds 14 1009 54 10000 6.68 254 14:28 20.11.2021
5364 Clouds 15 1009 54 10000 6.68 254 13:46 20.11.2021
5365 Clouds 15 1009 47 10000 5.92 262 11:26 20.11.2021
5366 Clouds 15 1010 51 10000 5.36 263 09:56 20.11.2021
5367 Clouds 15 1011 56 10000 5.11 269 08:35 20.11.2021
5368 Clear 14 1012 75 10000 3.28 266 06:32 20.11.2021
5369 Clear 13 1011 88 10000 2.95 284 05:18 20.11.2021
5370 Clear 14 1011 88 10000 2.95 284 04:49 20.11.2021
5371 Clear 14 1012 87 10000 3.73 288 00:43 20.11.2021
5372 Clear 14 1012 86 10000 4.23 291 23:45 19.11.2021
5373 Clear 14 1012 85 10000 4.5 299 22:53 19.11.2021
5374 Clear 15 1013 83 10000 4.68 297 21:28 19.11.2021
5375 Clear 15 1013 83 10000 4.68 297 20:42 19.11.2021
5376 Clear 15 1013 81 10000 4.71 300 20:23 19.11.2021
5377 Clear 15 1013 81 10000 4.71 300 19:44 19.11.2021
5378 Clouds 16 1013 79 10000 4.61 301 18:46 19.11.2021
5379 Clouds 16 1013 81 10000 4.61 286 17:45 19.11.2021
5380 Clouds 17 1013 78 10000 4.93 282 16:43 19.11.2021
5381 Clouds 18 1012 50 10000 6.58 273 15:21 19.11.2021
5382 Clear 18 1012 44 10000 5.1 284 11:44 19.11.2021
5383 Clear 18 1014 49 10000 4.15 290 10:25 19.11.2021
5384 Clear 17 1015 54 10000 3.92 291 08:37 19.11.2021
5385 Clear 16 1016 78 10000 2.98 306 06:29 19.11.2021
5386 Clear 14 1016 82 10000 3.29 315 04:19 19.11.2021
5387 Clouds 16 1017 78 10000 3.98 318 23:55 18.11.2021
5388 Clouds 16 1017 76 10000 3.95 325 23:29 18.11.2021
5389 Clouds 17 1017 71 10000 3.74 329 21:21 18.11.2021
5390 Clouds 17 1017 71 10000 3.74 329 20:46 18.11.2021
5391 Clouds 17 1017 69 10000 4.18 324 20:23 18.11.2021
5392 Clouds 18 1017 69 10000 4.18 324 19:43 18.11.2021
5393 Clouds 18 1017 59 10000 3.95 321 18:38 18.11.2021
5394 Clouds 19 1017 52 10000 3.6 318 17:54 18.11.2021
5395 Clouds 19 1017 52 10000 3.6 318 17:35 18.11.2021
5396 Clouds 19 1017 46 10000 3.14 305 16:43 18.11.2021
5397 Clouds 21 1016 32 10000 0.8 310 15:23 18.11.2021
5398 Clear 22 1016 29 10000 0.37 324 13:21 18.11.2021
5399 Clear 22 1016 31 10000 0.66 283 11:45 18.11.2021
5400 Clear 22 1017 32 10000 0.84 177 11:26 18.11.2021
5401 Clear 20 1017 32 10000 0.84 177 10:55 18.11.2021
5402 Clear 19 1018 34 10000 1.8 146 09:32 18.11.2021
5403 Clear 15 1019 40 10000 2.92 121 07:34 18.11.2021
5404 Clear 13 1020 46 10000 1.92 98 05:47 18.11.2021
5405 Clear 14 1018 38 10000 2.96 108 02:46 18.11.2021
5406 Clear 14 1019 35 10000 2.86 101 01:22 18.11.2021
5407 Clear 16 1018 35 10000 1.67 119 22:41 17.11.2021
5408 Clear 16 1018 35 10000 1.6 151 22:20 17.11.2021
5409 Clear 17 1018 35 10000 1.6 151 21:37 17.11.2021
5410 Clouds 18 1018 33 10000 1.97 139 20:18 17.11.2021
5411 Clouds 20 1017 30 10000 3.84 107 17:48 17.11.2021
5412 Clouds 20 1017 29 10000 4.62 97 17:23 17.11.2021
5413 Clouds 20 1017 29 10000 4.62 97 17:23 17.11.2021
5414 Clouds 24 1016 25 10000 3.92 102 14:47 17.11.2021
5415 Clouds 23 1015 23 10000 3.52 127 12:40 17.11.2021
5416 Clouds 23 1016 23 10000 3.88 134 11:42 17.11.2021
5417 Clouds 22 1017 25 10000 4.69 138 10:28 17.11.2021
5418 Clouds 20 1018 28 10000 4.7 132 09:24 17.11.2021
5419 Clouds 16 1018 31 10000 4.57 125 07:43 17.11.2021
5420 Clouds 15 1017 41 10000 2.8 99 03:43 17.11.2021
5421 Clouds 15 1016 41 10000 1.98 102 01:21 17.11.2021
5422 Clouds 17 1016 40 10000 0.93 32 23:18 16.11.2021
5423 Clouds 17 1016 39 10000 1.97 328 21:23 16.11.2021
5424 Clear 18 1016 38 10000 2.51 335 20:18 16.11.2021
5425 Clouds 18 1016 37 10000 3.34 322 18:54 16.11.2021
5426 Clouds 18 1016 37 10000 3.34 322 18:35 16.11.2021
5427 Clouds 20 1016 35 10000 3.67 326 17:40 16.11.2021
5428 Clouds 21 1015 33 10000 3.98 338 16:39 16.11.2021
5429 Clouds 22 1015 31 10000 4.48 336 15:53 16.11.2021
5430 Clear 22 1014 27 10000 4.11 331 15:27 16.11.2021
5431 Clouds 24 1014 26 10000 2.54 302 12:29 16.11.2021
5432 Clear 22 1015 29 10000 1.59 285 09:49 16.11.2021
5433 Clear 20 1016 29 10000 1.35 273 08:46 16.11.2021
5434 Clear 17 1016 31 10000 0.89 271 07:34 16.11.2021
5435 Clear 15 1015 40 10000 1.17 19 02:47 16.11.2021
5436 Clear 15 1015 38 10000 0.18 29 23:23 15.11.2021
5437 Clear 15 1015 38 10000 0.18 29 22:39 15.11.2021
5438 Clear 16 1015 38 10000 0.09 61 21:54 15.11.2021
5439 Clear 16 1015 38 10000 0.93 102 21:29 15.11.2021
5440 Clear 18 1015 38 10000 1.72 96 20:26 15.11.2021
5441 Clouds 20 1015 38 10000 2.65 82 18:49 15.11.2021
5442 Clouds 21 1014 31 10000 3.39 85 16:56 15.11.2021
5443 Clear 22 1014 29 10000 2.64 82 15:44 15.11.2021
5444 Clear 22 1013 23 10000 2.64 73 15:25 15.11.2021
5445 Clear 23 1012 24 10000 4.11 69 13:49 15.11.2021
5446 Clouds 22 1013 21 10000 4.32 75 12:18 15.11.2021
5447 Clouds 20 1015 22 10000 6.11 85 09:30 15.11.2021
5448 Clouds 17 1016 27 10000 7.54 87 07:59 15.11.2021
5449 Clouds 14 1016 49 10000 5.63 83 05:25 15.11.2021
5450 Clouds 16 1016 55 10000 3.61 81 00:33 15.11.2021
5451 Clouds 17 1018 46 10000 4.23 107 22:39 14.11.2021
5452 Clouds 18 1018 40 10000 5.27 97 21:18 14.11.2021
5453 Clouds 19 1018 32 10000 8.73 88 19:18 14.11.2021
5454 Clouds 19 1018 29 10000 6.69 92 18:54 14.11.2021
5455 Clouds 19 1018 29 10000 6.69 92 18:36 14.11.2021
5456 Clouds 19 1018 32 10000 6.32 97 18:18 14.11.2021
5457 Clouds 20 1018 32 10000 6.32 97 17:57 14.11.2021
5458 Clouds 20 1018 32 10000 6.32 97 17:39 14.11.2021
5459 Clouds 19 1017 31 10000 3.94 122 17:21 14.11.2021
5460 Clouds 20 1017 31 10000 3.94 122 16:50 14.11.2021
5461 Clouds 20 1016 31 10000 4.84 127 16:22 14.11.2021
5462 Clouds 21 1016 31 10000 4.84 127 15:52 14.11.2021
5463 Clouds 21 1016 27 10000 5.41 111 15:19 14.11.2021
5464 Clouds 21 1016 27 10000 5.41 111 14:34 14.11.2021
5465 Clouds 21 1016 25 10000 7.84 105 14:00 14.11.2021
5466 Clouds 21 1016 25 10000 7.84 105 13:40 14.11.2021
5467 Clouds 21 1016 24 10000 8.71 108 12:45 14.11.2021
5468 Clouds 21 1016 24 10000 8.47 110 12:20 14.11.2021
5469 Clouds 21 1017 23 10000 8.2 111 10:54 14.11.2021
5470 Clouds 21 1017 23 10000 8.2 111 10:30 14.11.2021
5471 Clouds 18 1019 26 10000 8.29 106 09:18 14.11.2021
5472 Clouds 16 1019 26 10000 8.29 106 08:43 14.11.2021
5473 Clouds 15 1018 28 10000 5.55 86 04:46 14.11.2021
5474 Clouds 17 1019 23 10000 4.8 99 22:28 13.11.2021
5475 Clouds 17 1019 23 10000 4.8 99 21:59 13.11.2021
5476 Clouds 17 1019 23 10000 4.53 95 21:29 13.11.2021
5477 Clouds 18 1019 23 10000 4.15 86 20:26 13.11.2021
5478 Clouds 18 1019 25 10000 4.1 93 18:54 13.11.2021
5479 Clouds 18 1018 24 10000 3.77 112 18:28 13.11.2021
5480 Clouds 19 1018 24 10000 3.77 112 17:32 13.11.2021
5481 Clouds 21 1018 23 10000 3.93 135 15:42 13.11.2021
5482 Clouds 22 1017 21 10000 5.16 132 14:41 13.11.2021
5483 Clouds 22 1017 19 10000 6.66 128 13:46 13.11.2021
5484 Clouds 21 1017 20 10000 6.93 127 12:41 13.11.2021
5485 Clouds 21 1018 20 10000 7.37 127 11:46 13.11.2021
5486 Clouds 21 1019 21 10000 7.95 132 11:18 13.11.2021
5487 Clouds 20 1019 21 10000 7.95 132 10:32 13.11.2021
5488 Clouds 19 1019 22 10000 8.25 128 09:45 13.11.2021
5489 Clouds 19 1020 24 10000 7.29 119 09:22 13.11.2021
5490 Clouds 18 1020 24 10000 7.29 119 08:48 13.11.2021
5491 Clouds 16 1021 26 10000 7.29 121 07:47 13.11.2021
5492 Clouds 15 1020 33 10000 4.91 99 04:42 13.11.2021
5493 Clouds 15 1020 30 10000 4.93 98 02:59 13.11.2021
5494 Clouds 17 1019 28 10000 5.07 100 23:35 12.11.2021
5495 Clouds 16 1018 26 10000 5.13 92 21:56 12.11.2021
5496 Clouds 17 1018 26 10000 4.89 93 20:47 12.11.2021
5497 Clouds 17 1018 26 10000 4.93 88 19:32 12.11.2021
5498 Clouds 19 1018 25 10000 4.14 92 18:57 12.11.2021
5499 Clouds 19 1017 24 10000 3.52 112 18:19 12.11.2021
5500 Clouds 20 1016 22 10000 3.72 122 15:55 12.11.2021
5501 Clouds 22 1015 18 10000 5.77 124 13:28 12.11.2021
5502 Clouds 22 1015 20 10000 6.05 127 11:26 12.11.2021
5503 Clouds 21 1015 20 10000 6.05 127 10:40 12.11.2021
5504 Clouds 17 1017 22 10000 6.03 120 08:56 12.11.2021
5505 Clouds 15 1018 24 10000 6.19 114 07:49 12.11.2021
5506 Clear 13 1016 33 10000 4.02 95 00:37 12.11.2021
5507 Clear 14 1015 32 10000 3.96 91 23:30 11.11.2021
5508 Clear 15 1015 30 10000 3.7 83 22:21 11.11.2021
5509 Clear 15 1015 28 10000 3.4 86 21:26 11.11.2021
5510 Clear 16 1016 28 10000 3.71 74 20:18 11.11.2021
5511 Clear 19 1015 29 10000 2.65 59 18:42 11.11.2021
5512 Clear 19 1014 30 10000 1.64 7 17:42 11.11.2021
5513 Clear 22 1013 27 10000 2.66 295 15:51 11.11.2021
5514 Clear 23 1013 23 10000 2.89 300 14:44 11.11.2021
5515 Clear 23 1013 21 10000 2.86 303 14:25 11.11.2021
5516 Clear 23 1013 21 10000 2.86 303 13:36 11.11.2021
5517 Clear 21 1013 19 10000 2.81 298 12:30 11.11.2021
5518 Clear 20 1014 25 10000 0.95 32 10:24 11.11.2021
5519 Clear 20 1014 25 10000 0.95 32 09:33 11.11.2021
5520 Clear 14 1016 50 10000 0.63 309 07:35 11.11.2021
5521 Clear 15 1015 67 10000 2.96 325 00:43 11.11.2021
5522 Clear 16 1015 64 10000 3.95 331 22:46 10.11.2021
5523 Clear 17 1015 63 10000 4.09 325 21:56 10.11.2021
5524 Clear 15 1014 62 10000 3.36 316 21:18 10.11.2021
5525 Clear 15 1014 62 10000 3.36 316 20:35 10.11.2021
5526 Clear 18 1014 63 10000 3.46 309 19:46 10.11.2021
5527 Clear 21 1014 53 10000 4.97 304 17:40 10.11.2021
5528 Clear 21 1013 36 10000 9.02 305 16:25 10.11.2021
5529 Clear 25 1012 20 10000 9.11 292 14:40 10.11.2021
5530 Clear 25 1012 17 10000 9.51 282 13:40 10.11.2021
5531 Clear 26 1012 13 10000 8.83 286 12:40 10.11.2021
5532 Clear 22 1014 15 10000 2.57 245 10:39 10.11.2021
5533 Clear 19 1017 14 10000 3.08 156 08:45 10.11.2021
5534 Clear 16 1019 15 10000 3.01 116 07:25 10.11.2021
5535 Clear 13 1019 21 10000 2.67 110 06:25 10.11.2021
5536 Clear 13 1019 21 10000 2.67 110 05:44 10.11.2021
5537 Clear 17 1020 23 10000 2.8 110 22:54 09.11.2021
5538 Clear 18 1020 23 10000 2.89 111 21:47 09.11.2021
5539 Clear 18 1020 22 10000 2.89 126 20:26 09.11.2021
5540 Clear 19 1020 21 10000 3.02 119 19:21 09.11.2021
5541 Clear 22 1019 21 10000 3.46 111 17:31 09.11.2021
5542 Clear 26 1019 20 10000 4.09 106 15:45 09.11.2021
5543 Clear 27 1018 17 10000 4.53 124 14:24 09.11.2021
5544 Clear 26 1018 16 10000 4.94 130 12:53 09.11.2021
5545 Clear 25 1018 16 10000 5.57 132 11:38 09.11.2021
5546 Clear 24 1019 17 10000 6.03 131 10:44 09.11.2021
5547 Clear 20 1021 21 10000 6.46 131 09:24 09.11.2021
5548 Clear 18 1021 24 10000 6.08 128 08:25 09.11.2021
5549 Clear 14 1021 34 10000 3.75 107 05:47 09.11.2021
5550 Clear 16 1019 34 10000 3.46 102 02:23 09.11.2021
5551 Clear 16 1019 34 10000 3.46 102 01:45 09.11.2021
5552 Clear 18 1019 32 10000 3.53 113 23:58 08.11.2021
5553 Clouds 19 1019 31 10000 3.57 117 22:50 08.11.2021
5554 Clouds 19 1018 30 10000 3.42 111 21:59 08.11.2021
5555 Clear 21 1018 30 10000 3.02 116 20:55 08.11.2021
5556 Clear 20 1018 29 10000 3.13 124 19:51 08.11.2021
5557 Clear 21 1018 28 10000 3.43 114 18:30 08.11.2021
5558 Clear 23 1017 26 10000 4.38 100 16:34 08.11.2021
5559 Clear 25 1016 22 10000 4.03 112 15:25 08.11.2021
5560 Clear 26 1016 22 10000 4.03 112 14:40 08.11.2021
5561 Clear 27 1015 21 10000 4.38 127 13:33 08.11.2021
5562 Clear 27 1016 22 10000 4.48 136 12:20 08.11.2021
5563 Clear 26 1016 24 10000 4.73 140 11:20 08.11.2021
5564 Clear 22 1017 26 10000 5.22 139 09:47 08.11.2021
5565 Clear 20 1018 28 10000 5.34 133 08:54 08.11.2021
5566 Clear 17 1018 30 10000 5.26 126 07:36 08.11.2021
5567 Clear 15 1017 37 10000 3.93 108 04:42 08.11.2021
5568 Clear 14 1016 36 10000 3.23 120 03:28 08.11.2021
5569 Clear 16 1016 34 10000 3.69 92 23:47 07.11.2021
5570 Clear 17 1016 32 10000 4.17 77 22:20 07.11.2021
5571 Clear 18 1016 31 10000 4.21 71 21:20 07.11.2021
5572 Clear 21 1016 29 10000 4.17 59 19:54 07.11.2021
5573 Clear 23 1015 29 10000 1.39 120 18:22 07.11.2021
5574 Clear 23 1015 29 10000 1.39 120 17:35 07.11.2021
5575 Clear 27 1014 25 10000 3.66 164 15:54 07.11.2021
5576 Clear 27 1013 22 10000 4.03 161 14:34 07.11.2021
5577 Clear 26 1013 21 10000 3.82 150 13:54 07.11.2021
5578 Clear 26 1013 22 10000 3.18 132 11:49 07.11.2021
5579 Clear 23 1015 25 10000 4.4 122 09:58 07.11.2021
5580 Clear 22 1016 27 10000 5.07 115 08:45 07.11.2021
5581 Clear 15 1015 39 10000 2.75 108 02:44 07.11.2021
5582 Clear 17 1015 35 10000 3.2 93 23:42 06.11.2021
5583 Clear 17 1015 34 10000 3.31 81 22:52 06.11.2021
5584 Clear 19 1015 32 10000 3.36 73 21:36 06.11.2021
5585 Clear 20 1015 31 10000 3.17 63 20:52 06.11.2021
5586 Clear 20 1015 31 10000 1.97 65 19:36 06.11.2021
5587 Clear 22 1015 28 10000 2.6 157 17:18 06.11.2021
5588 Clear 27 1014 26 10000 2.96 155 15:39 06.11.2021
5589 Clear 27 1014 21 10000 2.56 124 13:39 06.11.2021
5590 Clouds 28 1014 21 10000 2.52 127 12:36 06.11.2021
5591 Clouds 24 1017 25 10000 4.5 128 09:42 06.11.2021
5592 Clouds 19 1018 30 10000 5.16 115 07:58 06.11.2021
5593 Clear 16 1017 39 10000 3.24 98 03:20 06.11.2021
5594 Clear 18 1017 35 10000 3.49 96 23:40 05.11.2021
5595 Clear 19 1017 34 10000 3.63 90 22:52 05.11.2021
5596 Clear 20 1017 33 10000 3.88 83 21:55 05.11.2021
5597 Clear 20 1017 31 10000 4.44 73 20:20 05.11.2021
5598 Clear 21 1017 32 10000 4.3 70 19:49 05.11.2021
5599 Clear 25 1016 33 10000 2.65 75 18:42 05.11.2021
5600 Clear 26 1016 34 10000 1.22 131 17:34 05.11.2021
5601 Clear 27 1016 30 10000 2.51 184 15:48 05.11.2021
5602 Clear 28 1015 24 10000 2.07 150 13:59 05.11.2021
5603 Clear 27 1016 26 10000 3.06 128 11:43 05.11.2021
5604 Clear 24 1019 32 10000 4.7 126 08:57 05.11.2021
5605 Clear 19 1019 35 10000 4.78 115 07:46 05.11.2021
5606 Clear 16 1020 49 10000 3.02 116 05:33 05.11.2021
5607 Clear 16 1020 49 10000 3.02 116 05:33 05.11.2021
5608 Clear 16 1018 55 10000 2.72 104 02:27 05.11.2021
5609 Clear 17 1019 56 10000 2.9 94 00:54 05.11.2021
5610 Clear 17 1019 55 10000 3.53 90 23:26 04.11.2021
5611 Clear 17 1019 55 10000 3.53 90 23:26 04.11.2021
5612 Clear 18 1019 54 10000 3.76 89 22:21 04.11.2021
5613 Clear 19 1019 54 10000 3.76 89 21:52 04.11.2021
5614 Clear 19 1019 51 10000 3.95 86 21:19 04.11.2021
5615 Clear 19 1019 46 10000 3.41 68 20:25 04.11.2021
5616 Clear 21 1019 46 10000 3.41 68 19:48 04.11.2021
5617 Clear 21 1019 42 10000 2.55 35 19:20 04.11.2021
5618 Clear 22 1018 41 10000 1.69 350 18:22 04.11.2021
5619 Clear 23 1018 40 10000 1.56 294 17:26 04.11.2021
5620 Clear 23 1018 40 10000 1.56 294 17:26 04.11.2021
5621 Clear 23 1018 40 10000 1.56 294 17:26 04.11.2021
5622 Clear 25 1017 37 10000 1.75 262 15:35 04.11.2021
5623 Clear 25 1017 31 10000 0.76 248 13:45 04.11.2021
5624 Clear 23 1020 39 10000 2.61 117 10:22 04.11.2021
5625 Clear 21 1020 44 10000 3.01 110 08:31 04.11.2021
5626 Clear 19 1021 50 10000 3.09 102 07:36 04.11.2021
5627 Clear 15 1021 57 10000 2.23 98 06:38 04.11.2021
5628 Clear 17 1020 67 10000 3.15 338 22:54 03.11.2021
5629 Clear 18 1020 66 10000 3.6 336 21:57 03.11.2021
5630 Clear 18 1020 66 10000 3.6 336 21:35 03.11.2021
5631 Clear 18 1020 65 10000 3.57 333 20:39 03.11.2021
5632 Clear 18 1020 65 10000 3.57 333 20:39 03.11.2021
5633 Clear 18 1020 64 10000 3.84 330 20:19 03.11.2021
5634 Clear 19 1019 61 10000 4.47 326 19:19 03.11.2021
5635 Clear 19 1019 58 10000 5.19 324 18:26 03.11.2021
5636 Clear 20 1019 58 10000 5.19 324 17:41 03.11.2021
5637 Clear 21 1018 55 10000 5.55 320 16:42 03.11.2021
5638 Clear 22 1018 50 10000 5.48 320 15:47 03.11.2021
5639 Clear 22 1017 43 10000 6.48 325 15:29 03.11.2021
5640 Clear 24 1017 35 10000 6.56 321 13:18 03.11.2021
5641 Clear 23 1017 35 10000 5.7 313 11:34 03.11.2021
5642 Clear 22 1018 37 10000 5.64 309 10:49 03.11.2021
5643 Clear 20 1018 40 10000 4.89 306 09:40 03.11.2021
5644 Clear 20 1019 47 10000 4.69 313 08:49 03.11.2021
5645 Clear 18 1020 57 10000 5.62 319 07:40 03.11.2021
5646 Clear 16 1020 68 10000 5.01 320 06:30 03.11.2021
5647 Clear 16 1018 86 10000 3.52 322 04:22 03.11.2021
5648 Clear 16 1018 83 10000 3.91 316 00:57 03.11.2021
5649 Clear 16 1018 81 10000 3.78 318 22:52 02.11.2021
5650 Clear 17 1018 79 10000 4.51 323 21:54 02.11.2021
5651 Clear 18 1018 77 10000 5.38 327 20:36 02.11.2021
5652 Clear 18 1018 75 10000 5.93 328 19:56 02.11.2021
5653 Clouds 18 1017 71 10000 6.57 329 19:27 02.11.2021
5654 Clouds 20 1017 71 10000 6.57 329 18:35 02.11.2021
5655 Clouds 20 1017 65 10000 6.61 322 17:44 02.11.2021
5656 Clouds 21 1016 58 10000 5.57 307 16:34 02.11.2021
5657 Clouds 23 1016 52 10000 4.8 301 15:50 02.11.2021
5658 Clouds 24 1015 42 10000 5.96 293 14:56 02.11.2021
5659 Clouds 25 1015 36 10000 6.47 290 13:29 02.11.2021
5660 Clouds 24 1015 36 10000 6.61 291 12:46 02.11.2021
5661 Clouds 24 1015 36 10000 6.61 291 12:46 02.11.2021
5662 Clouds 24 1015 36 10000 6.61 291 12:46 02.11.2021
5663 Clouds 24 1015 36 10000 5.83 296 11:38 02.11.2021
5664 Clouds 24 1015 38 10000 5.17 299 10:55 02.11.2021
5665 Clouds 24 1015 38 10000 5.17 299 10:32 02.11.2021
5666 Clouds 23 1016 40 10000 4.88 300 09:44 02.11.2021
5667 Clouds 20 1017 44 10000 5.09 312 07:46 02.11.2021
5668 Clear 19 1017 50 10000 3.56 312 05:42 02.11.2021
5669 Clear 19 1016 52 10000 3.14 315 03:22 02.11.2021
5670 Clouds 19 1016 46 10000 2.39 326 23:58 01.11.2021
5671 Clouds 21 1016 44 10000 2.04 295 21:49 01.11.2021
5672 Clouds 21 1016 42 10000 0.7 277 20:44 01.11.2021
5673 Clouds 21 1016 41 10000 1.89 93 20:18 01.11.2021
5674 Clouds 21 1016 41 10000 1.89 93 19:41 01.11.2021
5675 Clouds 23 1016 41 10000 2.68 85 18:34 01.11.2021
5676 Clouds 24 1015 40 10000 3.61 80 17:49 01.11.2021
5677 Clouds 25 1015 38 10000 4.25 75 16:57 01.11.2021
5678 Clouds 25 1014 35 10000 5.22 76 16:25 01.11.2021
5679 Clouds 21 1014 35 10000 5.22 76 15:37 01.11.2021
5680 Clouds 21 1014 27 10000 5.44 96 15:18 01.11.2021
5681 Clouds 21 1014 27 10000 5.44 96 14:37 01.11.2021
5682 Clouds 21 1014 26 10000 4.93 123 14:18 01.11.2021
5683 Clouds 24 1014 29 10000 4.07 103 12:38 01.11.2021
5684 Clouds 24 1015 32 10000 4.47 65 11:34 01.11.2021
5685 Clouds 21 1018 37 10000 0.6 126 10:20 01.11.2021
5686 Clouds 19 1019 43 10000 1.7 134 08:19 01.11.2021
5687 Clouds 18 1019 43 10000 1.7 134 07:46 01.11.2021
5688 Clouds 17 1018 54 10000 4.53 97 03:53 01.11.2021
5689 Clouds 17 1017 52 10000 4.8 86 01:44 01.11.2021
5690 Clouds 20 1018 56 10000 7.04 83 23:30 31.10.2021
5691 Clouds 21 1019 57 10000 8.87 78 20:58 31.10.2021
5692 Clouds 21 1020 51 10000 8.13 84 19:24 31.10.2021
5693 Clouds 22 1020 58 10000 6.28 83 18:43 31.10.2021
5694 Clouds 22 1021 54 10000 5.3 83 17:59 31.10.2021
5695 Clouds 23 1020 51 10000 1.16 320 16:28 31.10.2021
5696 Clouds 24 1020 47 10000 2.75 309 14:45 31.10.2021
5697 Clouds 24 1018 34 10000 0.8 306 12:55 31.10.2021
5698 Clouds 24 1018 35 10000 0.26 166 11:44 31.10.2021
5699 Clouds 23 1018 35 10000 0.26 145 10:48 31.10.2021
5700 Clouds 22 1020 38 10000 0.96 221 09:26 31.10.2021
5701 Clouds 23 1020 38 10000 0.96 221 08:45 31.10.2021
5702 Clouds 18 1019 61 10000 2.23 321 02:52 31.10.2021
5703 Clouds 18 1019 57 10000 2.6 270 00:32 31.10.2021
5704 Clouds 21 1019 52 10000 2.25 271 22:27 30.10.2021
5705 Clouds 21 1018 49 10000 2.45 268 21:29 30.10.2021
5706 Clouds 22 1019 50 10000 2.87 273 19:49 30.10.2021
5707 Clouds 24 1017 48 10000 3.24 276 17:49 30.10.2021
5708 Clouds 25 1016 36 10000 5.55 256 15:49 30.10.2021
5709 Clouds 25 1015 32 10000 5.78 259 13:59 30.10.2021
5710 Clouds 25 1016 35 10000 5.04 271 13:38 30.10.2021
5711 Clouds 25 1016 36 10000 6.11 277 13:20 30.10.2021
5712 Clouds 24 1016 36 10000 5.95 272 11:50 30.10.2021
5713 Clouds 24 1016 37 10000 4.79 271 10:58 30.10.2021
5714 Clouds 20 1016 43 10000 4.75 265 09:40 30.10.2021
5715 Clouds 20 1016 51 10000 4.16 274 07:57 30.10.2021
5716 Clouds 20 1016 51 10000 4.16 274 07:57 30.10.2021
5717 Clouds 19 1015 46 10000 3.5 293 05:48 30.10.2021
5718 Clouds 19 1014 41 10000 3.05 301 04:54 30.10.2021
5719 Clouds 23 1013 30 10000 3.01 296 23:33 29.10.2021
5720 Clouds 23 1013 31 10000 1 284 22:35 29.10.2021
5721 Clouds 24 1013 30 10000 0.93 50 21:20 29.10.2021
5722 Clouds 24 1013 30 10000 0.93 50 20:33 29.10.2021
5723 Clouds 24 1013 29 10000 1.03 8 19:33 29.10.2021
5724 Clouds 25 1012 25 10000 1.34 1 18:18 29.10.2021
5725 Clouds 29 1011 17 10000 3.13 243 16:20 29.10.2021
5726 Clouds 30 1011 16 10000 3.75 231 13:34 29.10.2021
5727 Clouds 25 1014 21 10000 4.51 156 10:50 29.10.2021
5728 Clouds 25 1014 21 10000 4.51 156 10:31 29.10.2021
5729 Clouds 20 1014 33 10000 2.88 110 05:43 29.10.2021
5730 Clouds 20 1014 32 10000 2.68 112 00:35 29.10.2021
5731 Clouds 20 1015 30 10000 3.15 93 22:40 28.10.2021
5732 Clouds 21 1015 27 10000 2.51 88 21:20 28.10.2021
5733 Clouds 21 1015 27 10000 1.18 110 20:20 28.10.2021
5734 Clouds 24 1015 27 10000 0.13 294 18:57 28.10.2021
5735 Clouds 25 1014 25 10000 0.24 199 17:59 28.10.2021
5736 Clouds 27 1014 25 10000 0.37 205 16:57 28.10.2021
5737 Clouds 28 1014 20 10000 2.04 276 15:20 28.10.2021
5738 Clouds 28 1014 21 10000 1.8 262 13:43 28.10.2021
5739 Clouds 28 1014 22 10000 1.52 244 13:20 28.10.2021
5740 Clouds 27 1014 22 10000 1.52 244 12:39 28.10.2021
5741 Clear 25 1016 25 10000 1.52 187 10:51 28.10.2021
5742 Clear 23 1017 27 10000 1.67 182 09:38 28.10.2021
5743 Clear 20 1017 29 10000 1.36 182 08:37 28.10.2021
5744 Clear 17 1017 33 10000 1.24 180 07:49 28.10.2021
5745 Clear 16 1016 47 10000 0.2 100 04:36 28.10.2021
5746 Clear 19 1017 46 10000 2.55 350 23:38 27.10.2021
5747 Clear 20 1017 46 10000 3.07 351 22:30 27.10.2021
5748 Clear 21 1017 46 10000 3.57 344 21:33 27.10.2021
5749 Clear 21 1017 43 10000 3.86 341 20:50 27.10.2021
5750 Clear 22 1017 42 10000 4.21 333 19:52 27.10.2021
5751 Clear 22 1017 42 10000 4.21 333 19:32 27.10.2021
5752 Clear 23 1016 40 10000 4.59 324 18:39 27.10.2021
5753 Clear 25 1015 26 10000 5.79 326 16:26 27.10.2021
5754 Clear 25 1015 26 10000 5.79 326 15:30 27.10.2021
5755 Clear 26 1014 24 10000 5.97 320 14:39 27.10.2021
5756 Clear 25 1016 28 10000 3.64 303 11:28 27.10.2021
5757 Clear 24 1016 28 10000 3.64 303 10:58 27.10.2021
5758 Clear 22 1017 32 10000 3.07 307 09:45 27.10.2021
5759 Clear 20 1017 48 10000 2.84 315 08:22 27.10.2021
5760 Clear 16 1017 59 10000 2.52 312 07:22 27.10.2021
5761 Clear 12 1016 66 10000 3.67 314 02:24 27.10.2021
5762 Clear 17 1016 62 10000 3.59 313 00:56 27.10.2021
5763 Clear 17 1016 61 10000 3.78 317 00:26 27.10.2021
5764 Clear 17 1016 61 10000 3.78 317 23:41 26.10.2021
5765 Clear 19 1016 59 10000 3.93 321 22:38 26.10.2021
5766 Clear 19 1016 55 10000 3.87 327 21:59 26.10.2021
5767 Clear 19 1016 51 10000 4.08 328 20:36 26.10.2021
5768 Clear 20 1015 38 10000 4.43 334 19:26 26.10.2021
5769 Clear 22 1015 38 10000 4.43 334 18:41 26.10.2021
5770 Clear 25 1013 26 10000 4.61 315 16:28 26.10.2021
5771 Clear 26 1012 24 10000 3.11 308 14:30 26.10.2021
5772 Clear 25 1014 29 10000 2.34 254 11:39 26.10.2021
5773 Clear 22 1015 40 10000 1.49 270 10:20 26.10.2021
5774 Clear 17 1016 62 10000 2.05 314 07:25 26.10.2021
5775 Clear 16 1016 62 10000 2.05 314 06:40 26.10.2021
5776 Clear 18 1015 50 10000 2.93 314 23:51 25.10.2021
5777 Clear 19 1015 48 10000 3.14 322 22:54 25.10.2021
5778 Clear 19 1015 46 10000 3.45 324 22:19 25.10.2021
5779 Clear 20 1015 46 10000 3.45 324 21:39 25.10.2021
5780 Clear 20 1015 45 10000 3.58 332 19:54 25.10.2021
5781 Clear 22 1015 39 10000 3.73 322 19:26 25.10.2021
5782 Clear 22 1015 39 10000 3.73 322 18:59 25.10.2021
5783 Clear 22 1014 29 10000 2.72 323 18:19 25.10.2021
5784 Clear 27 1013 21 10000 1.86 309 16:20 25.10.2021
5785 Clear 27 1013 21 10000 1.74 270 14:28 25.10.2021
5786 Clear 25 1013 22 10000 1.72 254 12:30 25.10.2021
5787 Clear 22 1016 34 10000 0.69 241 10:23 25.10.2021
5788 Clear 20 1016 43 10000 0.8 291 08:35 25.10.2021
5789 Clear 14 1016 69 10000 2.73 311 06:25 25.10.2021
5790 Clear 15 1015 66 10000 2.99 316 02:31 25.10.2021
5791 Clear 16 1016 63 10000 3.53 320 00:46 25.10.2021
5792 Clear 17 1016 61 10000 3.85 320 23:47 24.10.2021
5793 Clear 18 1016 58 10000 4.03 324 22:56 24.10.2021
5794 Clear 18 1016 58 10000 4.03 324 22:36 24.10.2021
5795 Clear 18 1017 53 10000 4.23 337 22:18 24.10.2021
5796 Clear 19 1017 48 10000 4.32 340 20:45 24.10.2021
5797 Clear 19 1016 43 10000 4.23 335 20:27 24.10.2021
5798 Clear 22 1016 42 10000 4.91 327 18:53 24.10.2021
5799 Clear 24 1015 30 10000 4.04 314 17:58 24.10.2021
5800 Clear 24 1015 27 10000 3.99 298 17:18 24.10.2021
5801 Clear 26 1015 24 10000 3.75 287 15:47 24.10.2021
5802 Clear 26 1015 22 10000 2.14 281 13:52 24.10.2021
5803 Clear 26 1016 24 10000 1.44 276 12:41 24.10.2021
5804 Clear 24 1016 26 10000 0.62 283 11:41 24.10.2021
5805 Clear 23 1017 31 10000 0.51 328 10:47 24.10.2021
5806 Clear 19 1018 37 10000 1.25 346 09:54 24.10.2021
5807 Clear 15 1019 84 10000 3.61 313 05:35 24.10.2021
5808 Clear 17 1019 74 10000 4.67 313 00:53 24.10.2021
5809 Clear 17 1019 74 10000 4.82 315 23:34 23.10.2021
5810 Clear 18 1020 71 10000 5.35 320 21:56 23.10.2021
5811 Clear 19 1019 66 10000 6.46 317 19:54 23.10.2021
5812 Clear 20 1019 61 10000 7.31 310 18:59 23.10.2021
5813 Clear 20 1018 52 10000 8.12 306 18:21 23.10.2021
5814 Clear 21 1018 52 10000 8.12 306 17:43 23.10.2021
5815 Clear 21 1018 52 10000 8.12 306 17:43 23.10.2021
5816 Clear 23 1016 34 10000 7.81 309 16:21 23.10.2021
5817 Clear 24 1016 29 10000 7.12 310 14:22 23.10.2021
5818 Clear 18 1018 74 10000 4.56 316 03:33 23.10.2021
5819 Clear 19 1018 65 10000 5.42 321 23:59 22.10.2021
5820 Clear 19 1018 62 10000 5.5 324 22:53 22.10.2021
5821 Clear 24 1018 49 10000 4.88 326 19:53 22.10.2021
5822 Clear 24 1018 41 10000 4.69 315 18:41 22.10.2021
5823 Clear 24 1017 37 10000 4.82 305 17:40 22.10.2021
5824 Clear 27 1016 28 10000 2.63 290 15:25 22.10.2021
5825 Clear 27 1016 29 10000 2.77 288 13:48 22.10.2021
5826 Clear 24 1018 31 10000 1.27 304 11:18 22.10.2021
5827 Clear 23 1018 31 10000 1.27 304 10:41 22.10.2021
5828 Clear 21 1019 34 10000 1.09 312 09:56 22.10.2021
5829 Clear 20 1019 38 10000 1.16 321 08:36 22.10.2021
5830 Clear 18 1019 58 10000 3.56 321 07:22 22.10.2021
5831 Clear 18 1018 58 10000 4.01 309 02:57 22.10.2021
5832 Clear 19 1018 52 10000 4.62 322 23:54 21.10.2021
5833 Clear 19 1018 52 10000 4.62 322 23:35 21.10.2021
5834 Clear 20 1018 46 10000 4.56 326 21:50 21.10.2021
5835 Clear 21 1019 45 10000 4.08 330 20:40 21.10.2021
5836 Clear 21 1018 42 10000 4.39 325 20:18 21.10.2021
5837 Clear 21 1018 37 10000 3.75 320 19:29 21.10.2021
5838 Clear 22 1018 37 10000 3.75 320 18:45 21.10.2021
5839 Clear 24 1018 35 10000 2.75 311 17:56 21.10.2021
5840 Clear 24 1018 35 10000 2.75 311 17:37 21.10.2021
5841 Clear 26 1017 29 10000 3.37 267 15:49 21.10.2021
5842 Clear 26 1017 28 10000 2.87 255 15:20 21.10.2021
5843 Clear 26 1017 28 10000 2.87 255 14:38 21.10.2021
5844 Clear 25 1017 29 10000 0.93 219 13:19 21.10.2021
5845 -273 0 0 0 0 0 10:47 21.10.2021
5846 Clear 18 1021 44 10000 1.2 51 08:34 21.10.2021
5847 Clear 16 1021 67 10000 2.05 333 07:28 21.10.2021
5848 Clear 17 1021 74 10000 3.52 317 03:30 21.10.2021
5849 Clear 18 1021 70 10000 3.91 324 23:29 20.10.2021
5850 Clear 19 1021 68 10000 4.01 325 21:52 20.10.2021
5851 Clear 19 1021 68 10000 4.01 325 21:30 20.10.2021
5852 Clear 19 1021 65 10000 4.56 327 20:54 20.10.2021
5853 Clear 19 1021 65 10000 4.56 327 20:33 20.10.2021
5854 Clouds 21 1020 65 10000 5.89 315 19:57 20.10.2021
5855 Clouds 21 1020 59 10000 6.55 311 18:54 20.10.2021
5856 Clouds 22 1019 54 10000 6.7 303 17:50 20.10.2021
5857 Clouds 23 1018 42 10000 6.57 295 15:39 20.10.2021
5858 Clear 21 1020 47 10000 3.95 307 10:43 20.10.2021
5859 Clear 18 1021 61 10000 3.76 303 08:54 20.10.2021
5860 Clouds 14 1020 89 10000 3.42 309 04:50 20.10.2021
5861 Clouds 17 1020 84 10000 4 304 00:48 20.10.2021
5862 Clouds 17 1020 83 10000 3.84 305 00:18 20.10.2021
5863 Clouds 18 1020 79 10000 5.53 314 21:44 19.10.2021
5864 Clouds 18 1020 75 10000 5.68 310 20:56 19.10.2021
5865 Clear 18 1020 70 10000 5.72 314 20:25 19.10.2021
5866 Clouds 19 1020 70 10000 5.78 312 19:44 19.10.2021
5867 Clouds 19 1019 60 10000 6.27 311 19:20 19.10.2021
5868 Clouds 21 1019 51 10000 6.65 305 17:59 19.10.2021
5869 Clouds 23 1017 40 10000 9.07 299 15:57 19.10.2021
5870 Clear 23 1017 38 10000 8.51 296 15:20 19.10.2021
5871 Clear 23 1016 38 10000 7.91 299 14:27 19.10.2021
5872 Clear 23 1016 38 10000 7.91 299 13:36 19.10.2021
5873 Clear 22 1017 39 10000 7.43 302 11:37 19.10.2021
5874 Clear 21 1018 41 10000 6.82 302 10:39 19.10.2021
5875 Clear 18 1019 60 10000 6.71 302 08:59 19.10.2021
5876 Clear 17 1020 68 10000 6.31 304 07:50 19.10.2021
5877 Clear 18 1018 76 10000 5.65 312 00:27 19.10.2021
5878 Clear 18 1018 76 10000 5.65 312 23:56 18.10.2021
5879 Clear 18 1018 75 10000 5.62 315 23:20 18.10.2021
5880 Clear 18 1018 75 10000 5.62 315 22:54 18.10.2021
5881 Clear 19 1018 73 10000 5.75 318 21:54 18.10.2021
5882 Clear 19 1018 67 10000 5.73 323 20:42 18.10.2021
5883 Clear 19 1018 62 10000 5.93 325 20:20 18.10.2021
5884 Clear 22 1018 62 10000 5.93 325 19:30 18.10.2021
5885 Clear 22 1017 54 10000 6.16 319 18:58 18.10.2021
5886 Clear 24 1015 40 10000 6.29 298 15:56 18.10.2021
5887 Clear 24 1015 36 10000 5.95 291 14:30 18.10.2021
5888 Clear 22 1016 41 10000 4.55 290 11:44 18.10.2021
5889 Clear 19 1018 54 10000 4.6 298 09:42 18.10.2021
5890 Clear 16 1018 90 10000 3.64 302 05:32 18.10.2021
5891 Clouds 19 1018 74 10000 3.57 298 23:52 17.10.2021
5892 Clear 19 1018 66 10000 3.85 304 22:23 17.10.2021
5893 Clear 19 1018 66 10000 3.85 304 21:42 17.10.2021
5894 Clouds 19 1018 60 10000 4.21 302 20:49 17.10.2021
5895 Clouds 19 1018 55 10000 5.06 299 19:56 17.10.2021
5896 Clouds 20 1018 55 10000 5.06 299 19:37 17.10.2021
5897 Clouds 21 1016 46 10000 6.96 297 18:28 17.10.2021
5898 Clouds 24 1016 42 10000 8.1 292 16:38 17.10.2021
5899 Clouds 24 1015 33 10000 9.99 285 14:39 17.10.2021
5900 Clouds 24 1015 32 10000 9.33 280 13:59 17.10.2021
5901 Clouds 25 1015 32 10000 9.33 280 13:30 17.10.2021
5902 Clouds 24 1015 31 10000 8.71 281 11:31 17.10.2021
5903 Clouds 22 1017 34 10000 6.96 285 10:19 17.10.2021
5904 Clouds 21 1017 39 10000 4.69 296 08:29 17.10.2021
5905 Clouds 22 1017 39 10000 3.39 286 02:57 17.10.2021
5906 Clouds 21 1016 41 10000 3.34 293 00:31 17.10.2021
5907 Clouds 21 1017 41 10000 3.96 307 22:54 16.10.2021
5908 Clouds 23 1017 41 10000 4.18 315 20:45 16.10.2021
5909 Clouds 23 1017 40 10000 4.46 316 20:27 16.10.2021
5910 Clouds 23 1017 40 10000 4.46 316 19:40 16.10.2021
5911 Clouds 23 1016 38 10000 4.81 323 19:19 16.10.2021
5912 Clouds 23 1016 38 10000 4.81 323 19:19 16.10.2021
5913 Clouds 24 1016 38 10000 4.81 323 18:44 16.10.2021
5914 Clouds 24 1016 33 10000 5.09 315 18:23 16.10.2021
5915 Clouds 26 1016 33 10000 5.09 315 17:33 16.10.2021
5916 Clouds 27 1014 20 10000 7.89 307 16:20 16.10.2021
5917 Clouds 29 1014 12 10000 7.83 298 13:26 16.10.2021
5918 Clouds 29 1015 12 10000 6.31 296 11:25 16.10.2021
5919 Clouds 25 1016 16 10000 4.74 295 09:35 16.10.2021
5920 Clouds 21 1015 31 10000 3.57 309 04:47 16.10.2021
5921 Clouds 24 1015 36 10000 3.27 317 01:23 16.10.2021
5922 Clouds 25 1015 37 10000 4.2 323 23:27 15.10.2021
5923 Clouds 25 1015 37 10000 4.68 329 22:22 15.10.2021
5924 Clouds 25 1015 37 10000 4.68 329 21:45 15.10.2021
5925 Clouds 25 1015 37 10000 5.1 327 21:19 15.10.2021
5926 Clouds 25 1015 37 10000 5.1 327 20:41 15.10.2021
5927 Clouds 26 1014 33 10000 5.65 330 19:20 15.10.2021
5928 Clouds 27 1014 29 10000 5.47 329 18:29 15.10.2021
5929 Clouds 30 1012 22 10000 6.83 293 16:19 15.10.2021
5930 Clouds 33 1012 20 10000 4.43 288 14:37 15.10.2021
5931 Clouds 31 1013 24 10000 2.07 259 12:28 15.10.2021
5932 Clouds 31 1013 24 10000 2.07 259 12:28 15.10.2021
5933 Clouds 30 1014 26 10000 1.8 259 11:20 15.10.2021
5934 Clouds 29 1014 26 10000 1.8 259 10:34 15.10.2021
5935 Clouds 26 1015 30 10000 1.94 298 08:57 15.10.2021
5936 Clouds 20 1015 38 10000 2.67 311 05:31 15.10.2021
5937 Clouds 22 1015 39 10000 3.61 321 00:38 15.10.2021
5938 Clouds 23 1015 39 10000 3.94 319 23:45 14.10.2021
5939 Clouds 24 1015 39 10000 4.72 318 22:49 14.10.2021
5940 Clouds 24 1015 37 10000 5.17 324 21:43 14.10.2021
5941 Clouds 26 1014 34 10000 5.35 327 20:23 14.10.2021
5942 Clouds 26 1014 34 10000 5.35 327 19:52 14.10.2021
5943 Clouds 26 1014 29 10000 4.41 329 19:26 14.10.2021
5944 Clouds 29 1013 27 10000 2.78 342 17:26 14.10.2021
5945 Clouds 30 1013 27 10000 2.78 342 16:46 14.10.2021
5946 Clouds 31 1012 25 10000 2.95 290 15:24 14.10.2021
5947 Clouds 32 1012 25 10000 3.17 298 14:40 14.10.2021
5948 Clouds 32 1013 25 10000 3.4 281 13:35 14.10.2021
5949 Clouds 32 1013 25 10000 3.4 281 13:35 14.10.2021
5950 Clouds 29 1013 26 10000 3.39 295 11:43 14.10.2021
5951 Clouds 25 1015 30 10000 3.26 307 09:55 14.10.2021
5952 Clouds 22 1015 40 10000 2.75 322 06:47 14.10.2021
5953 Clouds 22 1013 38 10000 3.3 332 00:57 14.10.2021
5954 Clouds 23 1014 37 10000 3.13 314 00:22 14.10.2021
5955 Clouds 24 1013 34 10000 3.44 330 21:45 13.10.2021
5956 Clouds 24 1013 33 10000 3.42 346 21:27 13.10.2021
5957 Clouds 25 1013 32 10000 4.37 343 19:48 13.10.2021
5958 Clouds 25 1012 29 10000 4.52 354 18:49 13.10.2021
5959 Clouds 27 1012 30 10000 5.09 345 17:49 13.10.2021
5960 Clouds 29 1010 21 10000 2.87 350 15:32 13.10.2021
5961 Clouds 30 1010 19 10000 1.9 5 14:45 13.10.2021
5962 Clouds 31 1010 20 10000 3.11 110 12:58 13.10.2021
5963 Clouds 30 1011 21 10000 3.16 118 11:59 13.10.2021
5964 Clouds 28 1011 22 10000 4.8 116 10:47 13.10.2021
5965 Clouds 25 1012 53 10000 3.42 80 08:29 13.10.2021
5966 Clouds 22 1014 58 10000 5.36 276 06:42 13.10.2021
5967 Clouds 24 1011 51 10000 5.34 334 02:27 13.10.2021
5968 Clouds 24 1011 51 10000 4.63 345 01:37 13.10.2021
5969 Clouds 28 1010 40 10000 3.24 109 23:29 12.10.2021
5970 Clouds 29 1010 40 10000 3.24 109 22:45 12.10.2021
5971 Clouds 28 1010 40 10000 5.5 110 21:30 12.10.2021
5972 Clouds 29 1010 34 10000 3.77 125 20:34 12.10.2021
5973 Clouds 29 1009 31 10000 6.31 109 19:57 12.10.2021
5974 Clouds 29 1008 30 10000 2.85 67 18:28 12.10.2021
5975 Clouds 30 1008 30 10000 2.85 67 17:51 12.10.2021
5976 Clouds 32 1008 28 10000 3.23 73 16:39 12.10.2021
5977 Clouds 32 1008 26 10000 3.25 57 15:58 12.10.2021
5978 Clouds 33 1009 26 10000 2.19 330 14:39 12.10.2021
5979 Clouds 32 1010 28 10000 4.83 288 13:43 12.10.2021
5980 Clouds 30 1009 27 10000 4.81 339 12:35 12.10.2021
5981 Clouds 25 1012 28 10000 3.68 341 09:46 12.10.2021
5982 Clouds 24 1013 32 10000 4.6 322 08:43 12.10.2021
5983 Clouds 23 1012 37 10000 0.94 199 07:25 12.10.2021
5984 Clouds 22 1012 42 10000 3.84 251 05:31 12.10.2021
5985 Clouds 20 1011 40 10000 1.61 93 04:32 12.10.2021
5986 Clear 21 1012 34 10000 2.8 316 00:28 12.10.2021
5987 Clear 22 1012 34 10000 2.8 316 23:40 11.10.2021
5988 Clear 22 1012 34 10000 2.8 316 23:40 11.10.2021
5989 Clear 22 1012 33 10000 3.15 313 22:57 11.10.2021
5990 Clear 24 1012 32 10000 3.16 296 21:46 11.10.2021
5991 Clear 24 1012 31 10000 2.75 312 20:47 11.10.2021
5992 Clear 27 1012 29 10000 3.12 331 19:45 11.10.2021
5993 Clear 28 1012 26 10000 3.62 318 18:42 11.10.2021
5994 Clear 29 1012 21 10000 4.47 293 17:49 11.10.2021
5995 Clear 30 1011 16 10000 5.07 291 16:39 11.10.2021
5996 Clear 30 1011 12 10000 6.28 289 15:51 11.10.2021
5997 Clear 30 1010 11 10000 5.72 287 14:55 11.10.2021
5998 Clear 30 1010 11 10000 6.05 287 14:33 11.10.2021
5999 Clear 29 1010 12 10000 4.76 283 13:36 11.10.2021
6000 Clear 29 1012 18 10000 2.76 256 11:51 11.10.2021
6001 Clear 28 1013 21 10000 2.13 245 10:34 11.10.2021
6002 Clear 27 1014 29 10000 1.41 267 09:22 11.10.2021
6003 Clear 20 1015 38 10000 1.62 302 07:27 11.10.2021
6004 Clear 20 1014 43 10000 2.95 311 01:40 11.10.2021
6005 Clear 21 1014 42 10000 3.48 304 00:48 11.10.2021
6006 Clear 21 1014 40 10000 3.42 303 00:23 11.10.2021
6007 Clear 23 1014 33 10000 3.68 320 21:54 10.10.2021
6008 Clear 23 1014 33 10000 3.68 320 21:32 10.10.2021
6009 Clear 24 1014 28 10000 4.03 327 20:47 10.10.2021
6010 Clear 24 1014 29 10000 4.45 333 20:21 10.10.2021
6011 Clear 25 1014 29 10000 4.45 333 19:59 10.10.2021
6012 Clear 25 1014 29 10000 4.45 333 19:35 10.10.2021
6013 Clear 26 1014 27 10000 4.75 330 18:36 10.10.2021
6014 Clear 30 1013 18 10000 4.03 313 16:46 10.10.2021
6015 Clear 31 1012 16 10000 3.61 317 15:46 10.10.2021
6016 Clear 31 1012 17 10000 2.8 286 13:57 10.10.2021
6017 Clear 33 1012 17 10000 2.8 286 13:33 10.10.2021
6018 Clear 31 1013 18 10000 2.73 285 12:35 10.10.2021
6019 Clear 28 1014 22 10000 2.03 283 10:44 10.10.2021
6020 Clear 26 1015 27 10000 1.6 286 09:31 10.10.2021
6021 Clear 24 1015 34 10000 1.85 305 08:54 10.10.2021
6022 Clear 20 1015 47 10000 1.99 313 07:28 10.10.2021
6023 Clear 20 1015 49 10000 3.89 311 03:20 10.10.2021
6024 Clear 23 1014 43 10000 3.95 309 00:58 10.10.2021
6025 Clear 23 1014 41 10000 4.12 317 00:29 10.10.2021
6026 Clear 23 1014 38 10000 4.44 324 22:53 09.10.2021
6027 Clear 24 1015 34 10000 4.53 328 21:47 09.10.2021
6028 Clear 24 1015 30 10000 4.45 331 21:28 09.10.2021
6029 Clear 25 1014 28 10000 4.52 325 19:45 09.10.2021
6030 Clear 25 1014 27 10000 4.28 320 19:20 09.10.2021
6031 Clear 26 1014 27 10000 4.28 320 18:33 09.10.2021
6032 Clear 28 1012 20 10000 3.75 316 17:21 09.10.2021
6033 Clear 30 1012 15 10000 2.81 307 16:19 09.10.2021
6034 Clear 32 1012 15 10000 2.7 282 13:46 09.10.2021
6035 Clear 30 1012 16 10000 2.56 282 12:54 09.10.2021
6036 Clear 29 1013 18 10000 2.47 287 11:48 09.10.2021
6037 Clear 27 1014 20 10000 2.4 296 10:42 09.10.2021
6038 Clear 27 1014 20 10000 2.4 296 10:42 09.10.2021
6039 Clear 25 1014 23 10000 2.82 308 09:53 09.10.2021
6040 Clear 23 1014 27 10000 3.94 310 08:32 09.10.2021
6041 Clear 21 1014 32 10000 3.86 313 07:49 09.10.2021
6042 Clear 21 1013 42 10000 3.28 311 05:39 09.10.2021
6043 Clear 22 1013 41 10000 3.39 322 04:18 09.10.2021
6044 Clear 23 1012 39 10000 3.73 317 02:43 09.10.2021
6045 Clear 24 1012 32 10000 3.78 301 23:55 08.10.2021
6046 Clear 24 1012 32 10000 3.78 301 23:31 08.10.2021
6047 Clear 25 1012 26 10000 4.11 302 22:25 08.10.2021
6048 Clear 26 1012 26 10000 4.11 302 21:39 08.10.2021
6049 Clear 27 1012 23 10000 4.2 302 19:44 08.10.2021
6050 Clear 30 1010 19 10000 3.34 277 18:19 08.10.2021
6051 Clear 31 1010 18 10000 3.27 242 16:53 08.10.2021
6052 Clear 31 1010 18 10000 3.27 242 16:53 08.10.2021
6053 Clear 31 1010 15 10000 2.44 226 16:24 08.10.2021
6054 Clear 32 1010 15 10000 1.24 162 14:20 08.10.2021
6055 Clear 32 1010 15 10000 1.24 162 13:41 08.10.2021
6056 Clear 30 1011 16 10000 3.55 122 11:41 08.10.2021
6057 Clear 27 1012 17 10000 4.43 119 10:42 08.10.2021
6058 Clear 25 1013 18 10000 4.51 116 09:46 08.10.2021
6059 Clear 20 1013 26 10000 1.48 134 03:36 08.10.2021
6060 Clear 22 1012 26 10000 1.31 2 23:22 07.10.2021
6061 Clear 23 1012 25 10000 1.57 8 21:48 07.10.2021
6062 Clear 23 1012 24 10000 1.46 16 21:28 07.10.2021
6063 Clear 25 1012 21 10000 2.92 354 20:29 07.10.2021
6064 Clear 26 1012 21 10000 2.92 354 19:32 07.10.2021
6065 Clear 27 1012 22 10000 2.35 335 18:40 07.10.2021
6066 Clear 30 1011 20 10000 2.2 277 17:27 07.10.2021
6067 Clear 30 1011 17 10000 1.94 256 16:25 07.10.2021
6068 Clear 30 1011 17 10000 1.7 240 14:48 07.10.2021
6069 Clear 29 1011 16 10000 1.61 227 13:43 07.10.2021
6070 Clear 29 1011 17 10000 1.15 198 12:53 07.10.2021
6071 Clear 26 1013 19 10000 1.3 111 10:58 07.10.2021
6072 Clear 24 1013 19 10000 1.3 111 10:40 07.10.2021
6073 Clear 22 1014 24 10000 1.64 97 09:43 07.10.2021
6074 Clear 20 1014 29 10000 1.17 84 08:53 07.10.2021
6075 Clear 20 1014 33 10000 0.61 15 07:58 07.10.2021
6076 Clear 17 1014 33 10000 0.61 15 07:38 07.10.2021
6077 Clear 15 1014 40 10000 1.47 318 06:38 07.10.2021
6078 Clear 19 1013 46 10000 3.35 317 00:48 07.10.2021
6079 Clear 19 1012 43 10000 4.17 322 23:19 06.10.2021
6080 Clear 20 1012 43 10000 4.17 322 22:31 06.10.2021
6081 Clear 20 1013 47 10000 4.92 330 21:26 06.10.2021
6082 Clear 21 1013 49 10000 5.61 325 20:28 06.10.2021
6083 Clear 25 1012 34 10000 5.7 324 18:59 06.10.2021
6084 Clear 26 1010 19 10000 4.98 320 17:27 06.10.2021
6085 Clear 28 1010 16 10000 5.51 319 15:43 06.10.2021
6086 Clear 28 1010 14 10000 5.2 314 14:43 06.10.2021
6087 Clear 28 1011 15 10000 4.36 307 13:24 06.10.2021
6088 Clear 26 1011 15 10000 4.36 307 12:47 06.10.2021
6089 Clear 26 1011 19 10000 3.67 305 12:25 06.10.2021
6090 Clear 25 1011 19 10000 3.67 305 11:35 06.10.2021
6091 Clear 25 1011 19 10000 3.67 305 11:35 06.10.2021
6092 Clear 21 1013 29 10000 3.02 313 09:40 06.10.2021
6093 Clear 19 1013 35 10000 3.07 321 08:59 06.10.2021
6094 Clear 19 1013 35 10000 3.07 321 08:30 06.10.2021
6095 Clear 16 1013 66 10000 3.76 320 05:56 06.10.2021
6096 Clear 17 1013 67 10000 4.42 316 02:19 06.10.2021
6097 Clear 18 1013 63 10000 4.6 316 00:24 06.10.2021
6098 Clear 18 1013 63 10000 4.6 316 23:51 05.10.2021
6099 Clear 18 1013 63 10000 4.6 316 23:30 05.10.2021
6100 Clear 19 1013 61 10000 4.74 320 22:35 05.10.2021
6101 Clear 19 1013 60 10000 4.64 325 21:57 05.10.2021
6102 Clear 19 1013 60 10000 4.64 325 21:57 05.10.2021
6103 Clear 20 1013 58 10000 4.89 326 21:20 05.10.2021
6104 Clear 21 1013 58 10000 4.89 326 20:31 05.10.2021
6105 Clear 21 1013 53 10000 6.03 325 19:51 05.10.2021
6106 Clear 21 1012 47 10000 7.15 323 19:24 05.10.2021
6107 Clear 23 1011 38 10000 6.93 317 18:21 05.10.2021
6108 Clear 28 1010 19 10000 7.26 314 15:33 05.10.2021
6109 Clear 28 1010 15 10000 5.48 311 13:52 05.10.2021
6110 Clear 28 1011 16 10000 5.12 309 13:23 05.10.2021
6111 Clear 26 1011 16 10000 5.12 309 12:34 05.10.2021
6112 Clear 24 1012 18 10000 4.7 306 11:41 05.10.2021
6113 Clear 24 1013 21 10000 4.57 308 10:37 05.10.2021
6114 Clear 19 1014 45 10000 5.11 319 07:59 05.10.2021
6115 Clear 18 1013 72 10000 4.43 316 01:46 05.10.2021
6116 Clear 20 1013 66 10000 4.84 327 22:56 04.10.2021
6117 Clear 22 1013 59 10000 5.58 330 21:27 04.10.2021
6118 Clear 26 1013 42 10000 5.57 318 18:52 04.10.2021
6119 Clear 26 1011 27 10000 5.18 324 17:29 04.10.2021
6120 Clear 28 1011 23 10000 4.74 312 15:50 04.10.2021
6121 Clear 28 1011 22 10000 4.53 305 15:24 04.10.2021
6122 Clear 29 1011 22 10000 4.53 305 14:34 04.10.2021
6123 Clear 27 1012 22 10000 4.39 300 13:32 04.10.2021
6124 Clear 26 1013 24 10000 4.07 297 12:50 04.10.2021
6125 Clear 25 1014 27 10000 3.81 300 11:34 04.10.2021
6126 Clear 23 1015 32 10000 3.69 310 10:47 04.10.2021
6127 Clear 21 1015 40 10000 3.42 317 09:45 04.10.2021
6128 Clear 19 1016 65 10000 3.99 329 07:54 04.10.2021
6129 Clear 17 1016 81 10000 3.95 328 06:50 04.10.2021
6130 Clear 19 1015 84 10000 4.86 310 23:41 03.10.2021
6131 Clear 19 1015 81 10000 5.58 316 22:30 03.10.2021
6132 Clear 20 1015 75 10000 5.99 317 21:34 03.10.2021
6133 Clear 21 1014 69 10000 6.23 319 20:50 03.10.2021
6134 Clear 22 1014 65 10000 6.76 316 19:50 03.10.2021
6135 Clear 23 1014 57 10000 7.13 312 18:30 03.10.2021
6136 Clear 24 1013 49 10000 7.16 304 17:39 03.10.2021
6137 Clear 26 1011 46 10000 8.5 292 15:30 03.10.2021
6138 Clear 26 1011 42 10000 8.4 291 14:35 03.10.2021
6139 Clear 25 1011 38 10000 8.4 290 13:36 03.10.2021
6140 Clear 25 1011 34 10000 8.21 292 12:50 03.10.2021
6141 Clear 25 1012 33 10000 7.78 293 11:40 03.10.2021
6142 Clear 23 1013 36 10000 7.03 296 10:31 03.10.2021
6143 Clear 20 1013 67 10000 6.98 309 07:39 03.10.2021
6144 Clear 20 1012 77 10000 5.51 322 23:50 02.10.2021
6145 Clear 21 1012 72 10000 5.57 325 22:18 02.10.2021
6146 Clear 22 1012 68 10000 5.55 324 20:35 02.10.2021
6147 Clear 22 1011 59 10000 6.82 322 18:57 02.10.2021
6148 Clear 25 1010 54 10000 7.46 307 18:27 02.10.2021
6149 Clear 26 1010 54 10000 7.46 307 17:38 02.10.2021
6150 Clear 27 1009 46 10000 8.26 298 16:39 02.10.2021
6151 Clear 28 1008 32 10000 8.53 303 14:36 02.10.2021
6152 Clear 29 1009 19 10000 6.12 306 15:38 30.09.2021
6153 Clear 29 1009 16 10000 5.15 305 14:42 30.09.2021
6154 Clear 28 1010 19 10000 3.38 292 12:20 30.09.2021
6155 Clear 27 1011 24 10000 2.94 297 11:25 30.09.2021
6156 Clear 26 1012 29 10000 2.9 306 10:26 30.09.2021
6157 Clear 21 1012 36 10000 3.09 314 08:32 30.09.2021
6158 Clear 19 1013 46 10000 3.28 320 07:57 30.09.2021
6159 Clear 18 1012 68 10000 3.57 311 05:25 30.09.2021
6160 Clear 20 1011 69 10000 3.82 317 02:33 30.09.2021
6161 Clear 21 1012 68 10000 4.27 312 00:37 30.09.2021
6162 Clear 21 1012 66 10000 4.53 315 22:59 29.09.2021
6163 Clear 21 1012 65 10000 4.74 323 21:54 29.09.2021
6164 Clear 22 1012 62 10000 5.36 329 20:40 29.09.2021
6165 Clear 22 1012 56 10000 6.45 325 20:20 29.09.2021
6166 Clear 25 1011 49 10000 7.22 316 19:26 29.09.2021
6167 Clear 26 1010 39 10000 6.19 308 18:18 29.09.2021
6168 Clear 28 1009 30 10000 6.28 312 16:56 29.09.2021
6169 Clear 28 1009 26 10000 7.18 318 16:28 29.09.2021
6170 Clear 28 1009 26 10000 7.18 318 15:35 29.09.2021
6171 Clear 29 1009 24 10000 6.61 316 14:38 29.09.2021
6172 Clear 28 1009 25 10000 5.48 310 13:33 29.09.2021
6173 Clear 28 1010 27 10000 4.61 307 12:39 29.09.2021
6174 Clear 26 1012 37 10000 3.92 309 11:23 29.09.2021
6175 Clear 25 1012 37 10000 3.92 309 10:32 29.09.2021
6176 Clear 22 1012 43 10000 4.07 308 09:43 29.09.2021
6177 Clear 21 1013 63 10000 4.76 318 07:55 29.09.2021
6178 Clear 19 1013 77 10000 4.7 319 06:49 29.09.2021
6179 Clear 18 1012 79 10000 4.99 319 00:43 29.09.2021
6180 Clear 20 1012 74 10000 5.29 325 22:52 28.09.2021
6181 Clear 20 1012 69 10000 5.63 325 22:22 28.09.2021
6182 Clear 21 1012 62 10000 6.23 322 21:23 28.09.2021
6183 Clear 21 1012 53 10000 6.56 316 20:24 28.09.2021
6184 Clear 22 1012 53 10000 6.27 316 19:40 28.09.2021
6185 Clear 25 1011 47 10000 6.73 310 18:42 28.09.2021
6186 Clear 25 1010 38 10000 8.23 303 17:29 28.09.2021
6187 Clear 28 1009 30 10000 6.87 307 15:21 28.09.2021
6188 Clear 27 1010 30 10000 6.6 309 13:28 28.09.2021
6189 Clear 27 1010 32 10000 6.36 311 12:27 28.09.2021
6190 Clear 25 1010 32 10000 6.36 311 11:52 28.09.2021
6191 Clear 25 1010 32 10000 6.36 311 11:34 28.09.2021
6192 Clear 25 1011 36 10000 6.02 312 10:33 28.09.2021
6193 Clear 23 1011 44 10000 6.07 314 09:33 28.09.2021
6194 Clear 22 1012 54 10000 6.22 313 08:44 28.09.2021
6195 Clear 22 1013 68 10000 6.07 313 08:25 28.09.2021
6196 Clear 19 1012 80 10000 5.74 316 06:47 28.09.2021
6197 Clear 19 1012 89 10000 4.64 310 04:48 28.09.2021
6198 Clear 20 1012 80 10000 5.69 309 01:22 28.09.2021
6199 Clear 19 1011 76 10000 6.37 308 23:54 27.09.2021
6200 Clear 19 1011 72 10000 7.01 308 23:28 27.09.2021
6201 Clear 21 1011 72 10000 7.01 308 22:45 27.09.2021
6202 Clear 23 1011 68 10000 7.35 310 21:41 27.09.2021
6203 Clear 23 1011 65 10000 7.19 310 20:38 27.09.2021
6204 Clear 23 1011 61 10000 7.61 311 19:43 27.09.2021
6205 Clear 23 1011 56 10000 8.1 307 19:23 27.09.2021
6206 Clear 25 1009 52 10000 8.42 301 18:28 27.09.2021
6207 Clear 26 1009 43 10000 7.86 285 17:22 27.09.2021
6208 Clear 28 1009 43 10000 7.86 285 16:41 27.09.2021
6209 Clear 28 1008 33 10000 8.11 284 15:42 27.09.2021
6210 Clear 28 1008 27 10000 7.87 283 14:43 27.09.2021
6211 Clear 29 1008 21 10000 5.83 289 13:31 27.09.2021
6212 Clear 28 1011 20 10000 2.1 208 11:20 27.09.2021
6213 Clear 27 1011 20 10000 1.95 183 09:54 27.09.2021
6214 Clear 25 1012 20 10000 1.55 157 08:40 27.09.2021
6215 Clear 21 1012 29 10000 2.14 106 05:21 27.09.2021
6216 Clear 23 1012 29 10000 2.08 135 02:59 27.09.2021
6217 Clear 25 1012 25 10000 3.83 81 22:32 26.09.2021
6218 Clear 25 1012 26 10000 4.3 62 21:50 26.09.2021
6219 Clear 26 1012 25 10000 3.42 54 20:58 26.09.2021
6220 Clear 26 1012 25 10000 2.68 69 20:21 26.09.2021
6221 Clear 27 1012 25 10000 2.68 69 19:42 26.09.2021
6222 Clear 30 1012 24 10000 2 78 18:45 26.09.2021
6223 Clear 30 1011 24 10000 1.01 123 17:56 26.09.2021
6224 Clear 32 1011 22 10000 1.4 161 17:22 26.09.2021
6225 Clear 32 1011 22 10000 1.4 161 16:40 26.09.2021
6226 Clear 33 1012 19 10000 2.05 166 15:59 26.09.2021
6227 Clear 33 1012 19 10000 2.4 157 14:59 26.09.2021
6228 Clear 32 1012 19 10000 3.15 148 13:57 26.09.2021
6229 Clear 32 1013 20 10000 3.62 141 13:20 26.09.2021
6230 Clear 31 1014 20 10000 4.43 137 12:25 26.09.2021
6231 Clear 30 1014 20 10000 4.43 137 11:42 26.09.2021
6232 Clear 28 1015 21 10000 4.76 125 10:30 26.09.2021
6233 Clear 24 1016 23 10000 6.3 112 09:20 26.09.2021
6234 Clear 20 1016 26 10000 6.07 104 07:56 26.09.2021
6235 Clear 20 1016 32 10000 3.67 70 00:23 26.09.2021
6236 Clear 20 1016 32 10000 3.67 70 00:23 26.09.2021
6237 Clear 20 1016 32 10000 3.67 70 23:30 25.09.2021
6238 Clear 21 1016 33 10000 3.61 50 22:38 25.09.2021
6239 Clear 23 1016 34 10000 2.76 32 21:55 25.09.2021
6240 Clear 23 1016 34 10000 2.76 32 21:33 25.09.2021
6241 Clear 23 1016 35 10000 1.37 6 20:50 25.09.2021
6242 Clear 24 1015 29 10000 2.4 343 19:32 25.09.2021
6243 Clear 26 1014 28 10000 2.09 289 18:26 25.09.2021
6244 Clear 28 1013 25 10000 2.01 279 16:28 25.09.2021
6245 Clear 26 1014 25 10000 1.86 255 13:58 25.09.2021
6246 Clear 26 1014 25 10000 1.86 255 13:33 25.09.2021
6247 Clear 25 1015 30 10000 0.73 256 12:28 25.09.2021
6248 Clear 24 1016 36 10000 0.26 345 10:36 25.09.2021
6249 Clear 22 1017 43 10000 0.75 43 09:47 25.09.2021
6250 Clear 20 1017 50 10000 1.23 35 08:38 25.09.2021
6251 Clear 18 1017 65 10000 1.32 352 07:27 25.09.2021
6252 Clear 18 1015 67 10000 2.65 307 00:49 25.09.2021
6253 Clear 19 1015 59 10000 3.31 298 21:57 24.09.2021
6254 Clear 20 1014 56 10000 3.56 298 20:50 24.09.2021
6255 Clouds 20 1014 54 10000 4.48 300 20:19 24.09.2021
6256 Clouds 21 1013 55 10000 6.08 300 18:36 24.09.2021
6257 Clouds 22 1012 51 10000 6.99 289 17:56 24.09.2021
6258 Clouds 22 1012 51 10000 6.99 289 17:37 24.09.2021
6259 Clouds 22 1011 45 10000 7.88 283 17:19 24.09.2021
6260 Clouds 24 1010 43 10000 8.83 283 14:48 24.09.2021
6261 Clouds 22 1010 43 10000 8.98 287 13:20 24.09.2021
6262 Clouds 21 1010 43 10000 8.98 287 12:41 24.09.2021
6263 Clouds 24 1010 44 10000 8.96 284 12:23 24.09.2021
6264 Clouds 23 1011 50 10000 6.93 273 10:28 24.09.2021
6265 Clouds 21 1011 56 10000 6.24 277 08:57 24.09.2021
6266 Clear 21 1011 66 10000 5.26 282 07:55 24.09.2021
6267 Clear 20 1011 74 10000 4.36 276 06:51 24.09.2021
6268 Clear 20 1010 81 10000 3.9 278 05:22 24.09.2021
6269 Clear 20 1010 76 10000 5.8 279 00:48 24.09.2021
6270 Clear 21 1010 72 10000 6.32 282 22:37 23.09.2021
6271 Clear 22 1010 68 10000 6.3 282 21:57 23.09.2021
6272 Clear 22 1010 64 10000 6.51 282 20:51 23.09.2021
6273 Clear 22 1010 61 10000 7.18 284 20:26 23.09.2021
6274 Clear 23 1009 48 10000 9.02 288 18:27 23.09.2021
6275 Clear 27 1008 37 10000 11.31 285 15:37 23.09.2021
6276 Clear 27 1007 35 10000 11.84 283 15:18 23.09.2021
6277 Clear 27 1007 32 10000 11.58 276 13:57 23.09.2021
6278 Clear 27 1007 32 10000 11.58 276 13:57 23.09.2021
6279 Clear 27 1008 35 10000 10.29 273 13:23 23.09.2021
6280 Clear 27 1008 35 10000 10.29 273 12:54 23.09.2021
6281 Clear 27 1008 39 10000 9.97 272 12:24 23.09.2021
6282 Clear 25 1008 39 10000 9.97 272 11:56 23.09.2021
6283 Clear 24 1009 43 10000 9.57 280 10:29 23.09.2021
6284 Clear 23 1009 43 10000 9.57 280 09:53 23.09.2021
6285 Clear 22 1010 48 10000 8.53 282 08:42 23.09.2021
6286 Clear 20 1009 82 10000 5.77 282 05:29 23.09.2021
6287 Clear 23 1008 75 10000 5.39 294 23:48 22.09.2021
6288 Clear 24 1008 67 10000 5.13 299 22:49 22.09.2021
6289 Clear 24 1008 59 10000 4.98 307 22:18 22.09.2021
6290 Clear 24 1008 59 10000 4.98 307 21:42 22.09.2021
6291 Clear 25 1008 51 10000 4.47 311 20:57 22.09.2021
6292 Clear 27 1008 46 10000 4.37 317 19:47 22.09.2021
6293 Clear 27 1007 38 10000 5.2 301 19:26 22.09.2021
6294 Clear 27 1007 34 10000 6.65 286 18:25 22.09.2021
6295 Clear 29 1007 28 10000 7.67 287 16:57 22.09.2021
6296 Clear 31 1006 24 10000 8.17 288 15:38 22.09.2021
6297 Clear 31 1006 14 10000 8.71 286 14:27 22.09.2021
6298 Clear 32 1007 13 10000 7.03 285 12:55 22.09.2021
6299 Clear 30 1009 17 10000 4.42 287 11:18 22.09.2021
6300 Clear 27 1010 20 10000 3.97 288 09:30 22.09.2021
6301 Clear 25 1011 25 10000 4.13 296 08:44 22.09.2021
6302 Clear 24 1011 32 10000 3.63 302 07:31 22.09.2021
6303 Clear 23 1011 44 10000 3.12 308 06:23 22.09.2021
6304 Clear 23 1011 44 10000 3.12 308 05:48 22.09.2021
6305 Clear 24 1011 43 10000 4.22 325 03:59 22.09.2021
6306 Clear 24 1011 42 10000 4.6 326 02:55 22.09.2021
6307 Clear 25 1011 40 10000 4.5 329 23:42 21.09.2021
6308 Clear 25 1012 40 10000 5.21 329 22:26 21.09.2021
6309 Clear 26 1012 39 10000 6.13 324 20:31 21.09.2021
6310 Clear 26 1012 40 10000 7.07 320 19:36 21.09.2021
6311 Clear 28 1011 32 10000 7.27 319 19:18 21.09.2021
6312 Clear 33 1010 15 10000 4.12 312 16:48 21.09.2021
6313 Clear 34 1009 13 10000 4.47 307 15:56 21.09.2021
6314 Clear 34 1009 13 10000 3.93 305 14:59 21.09.2021
6315 Clear 34 1010 13 10000 2.44 302 14:21 21.09.2021
6316 Clear 31 1010 14 10000 3.46 310 13:39 21.09.2021
6317 Clear 32 1011 14 10000 2.5 325 12:44 21.09.2021
6318 Clear 29 1013 18 10000 2.32 72 10:43 21.09.2021
6319 Clear 28 1014 24 10000 1.92 71 09:22 21.09.2021
6320 Clear 23 1014 26 10000 2.16 75 07:40 21.09.2021
6321 Clear 21 1014 44 10000 2.2 326 05:18 21.09.2021
6322 Clear 25 1014 40 10000 4.35 330 23:19 20.09.2021
6323 Clear 26 1014 41 10000 4.43 328 21:51 20.09.2021
6324 Clear 26 1014 41 10000 4.43 328 21:30 20.09.2021
6325 Clear 26 1014 40 10000 5.34 315 19:55 20.09.2021
6326 Clear 28 1013 35 10000 6.14 315 18:37 20.09.2021
6327 Clear 31 1012 27 10000 5.5 319 17:30 20.09.2021
6328 Clear 32 1011 17 10000 7.04 320 16:26 20.09.2021
6329 Clear 33 1011 17 10000 7.04 320 15:47 20.09.2021
6330 Clear 33 1011 16 10000 5.83 313 14:50 20.09.2021
6331 Clear 32 1012 17 10000 2.73 286 12:53 20.09.2021
6332 Clear 32 1013 19 10000 1.81 259 12:29 20.09.2021
6333 Clear 31 1014 20 10000 1.52 203 10:57 20.09.2021
6334 Clear 29 1015 23 10000 1.16 174 09:52 20.09.2021
6335 Clear 29 1015 23 10000 1.16 174 09:33 20.09.2021
6336 Clear 26 1015 28 10000 0.13 120 08:56 20.09.2021
6337 Clear 21 1015 41 10000 2.14 319 06:36 20.09.2021
6338 Clear 25 1014 41 10000 4.36 316 23:30 19.09.2021
6339 Clear 25 1014 39 10000 4.02 323 21:53 19.09.2021
6340 Clear 25 1014 39 10000 4.02 323 21:33 19.09.2021
6341 Clear 25 1014 38 10000 3.92 325 20:32 19.09.2021
6342 Clear 27 1012 32 10000 5.3 319 18:57 19.09.2021
6343 Clear 27 1012 23 10000 4.8 314 18:21 19.09.2021
6344 Clear 30 1011 19 10000 6.09 307 17:22 19.09.2021
6345 Clear 32 1011 14 10000 6.75 297 15:45 19.09.2021
6346 Clear 32 1010 12 10000 6.21 298 14:49 19.09.2021
6347 Clear 32 1011 12 10000 4.99 302 14:25 19.09.2021
6348 Clear 32 1012 15 10000 4.01 294 13:19 19.09.2021
6349 Clear 30 1012 15 10000 4.01 294 12:45 19.09.2021
6350 Clear 29 1013 24 10000 2.56 279 11:27 19.09.2021
6351 Clear 28 1014 29 10000 2.44 277 10:21 19.09.2021
6352 Clear 26 1014 35 10000 2.37 292 09:26 19.09.2021
6353 Clear 23 1014 49 10000 3.12 308 07:18 19.09.2021
6354 Clear 21 1012 56 10000 3.75 309 02:24 19.09.2021
6355 Clear 22 1013 57 10000 4.76 322 23:27 18.09.2021
6356 Clear 24 1013 56 10000 5.12 327 21:58 18.09.2021
6357 Clear 24 1013 52 10000 5.3 328 20:48 18.09.2021
6358 Clear 24 1013 37 10000 4.91 327 20:26 18.09.2021
6359 Clear 25 1012 38 10000 5.02 326 19:38 18.09.2021
6360 Clear 25 1011 26 10000 4.99 316 19:20 18.09.2021
6361 Clear 27 1011 26 10000 4.99 316 18:31 18.09.2021
6362 Clear 30 1010 16 10000 4.59 299 17:23 18.09.2021
6363 Clear 30 1009 14 10000 4.02 300 15:47 18.09.2021
6364 Clear 31 1009 17 10000 3.65 289 13:46 18.09.2021
6365 Clear 31 1010 20 10000 3.03 282 13:25 18.09.2021
6366 Clear 30 1010 20 10000 3.03 282 12:48 18.09.2021
6367 Clear 29 1011 24 10000 2.22 277 11:36 18.09.2021
6368 Clear 28 1011 29 10000 1.85 287 10:31 18.09.2021
6369 Clear 24 1012 36 10000 1.93 313 09:26 18.09.2021
6370 Clear 22 1012 36 10000 1.93 313 08:31 18.09.2021
6371 Clear 20 1011 62 10000 4.6 317 00:59 18.09.2021
6372 Clear 20 1011 62 10000 4.6 317 00:41 18.09.2021
6373 Clear 20 1011 61 10000 4.73 319 23:44 17.09.2021
6374 Clear 21 1011 59 10000 4.87 324 22:33 17.09.2021
6375 Clear 23 1011 58 10000 5.41 327 21:48 17.09.2021
6376 Clear 24 1010 53 10000 6.27 319 20:25 17.09.2021
6377 Clear 28 1009 35 10000 5.96 317 18:51 17.09.2021
6378 Clear 29 1008 21 10000 6.69 308 16:50 17.09.2021
6379 Clear 29 1007 18 10000 6.25 308 16:18 17.09.2021
6380 Clear 27 1008 17 10000 4.73 300 12:36 17.09.2021
6381 Clear 25 1009 24 10000 3.71 305 10:41 17.09.2021
6382 Clear 20 1011 54 10000 4.39 323 08:25 17.09.2021
6383 Clear 19 1011 71 10000 4.68 328 06:49 17.09.2021
6384 Clear 20 1011 77 10000 5.67 324 00:59 17.09.2021
6385 Clear 21 1011 74 10000 6.53 326 22:54 16.09.2021
6386 Clear 21 1011 69 10000 6.85 327 22:24 16.09.2021
6387 Clear 22 1011 69 10000 6.85 327 21:40 16.09.2021
6388 Clear 23 1011 62 10000 6.86 326 20:50 16.09.2021
6389 Clear 23 1011 56 10000 6.95 321 20:18 16.09.2021
6390 Clear 24 1010 41 10000 6.77 305 18:19 16.09.2021
6391 Clear 26 1009 36 10000 7.82 301 17:29 16.09.2021
6392 Clear 28 1009 24 10000 6.57 288 14:53 16.09.2021
6393 Clear 28 1009 24 10000 6.23 290 13:55 16.09.2021
6394 Clear 27 1010 25 10000 5.33 293 12:48 16.09.2021
6395 Clear 27 1011 28 10000 4.66 295 12:28 16.09.2021
6396 Clear 26 1012 32 10000 4.14 298 11:25 16.09.2021
6397 Clear 26 1012 32 10000 4.14 298 10:31 16.09.2021
6398 Clear 24 1013 38 10000 4.5 298 09:53 16.09.2021
6399 Clear 23 1013 47 10000 4.19 298 08:42 16.09.2021
6400 Clear 21 1013 74 10000 5.18 315 07:22 16.09.2021
6401 Clear 20 1013 74 10000 5.18 315 06:39 16.09.2021
6402 Clear 20 1013 86 10000 4.97 319 04:55 16.09.2021
6403 Clear 22 1012 67 10000 3.39 308 01:27 16.09.2021
6404 Clear 23 1012 65 10000 3.38 314 23:37 15.09.2021
6405 Clear 23 1012 64 10000 4.29 326 22:47 15.09.2021
6406 Clear 23 1012 62 10000 6.2 325 21:44 15.09.2021
6407 Clear 23 1012 60 10000 7.33 326 21:25 15.09.2021
6408 Clear 25 1012 59 10000 8.11 326 19:52 15.09.2021
6409 Clear 25 1011 55 10000 9.68 321 19:21 15.09.2021
6410 Clear 28 1010 48 10000 9.63 319 17:57 15.09.2021
6411 Clear 30 1009 31 10000 7.86 305 16:55 15.09.2021
6412 Clear 31 1009 25 10000 7.64 284 15:34 15.09.2021
6413 Clear 30 1009 24 10000 7.19 280 14:44 15.09.2021
6414 Clear 29 1009 23 10000 6.34 272 13:51 15.09.2021
6415 Clear 29 1009 23 10000 6.34 272 13:30 15.09.2021
6416 Clear 29 1010 25 10000 4.72 272 12:48 15.09.2021
6417 Clear 29 1011 28 10000 3.56 277 11:52 15.09.2021
6418 Clear 29 1011 28 10000 3.56 277 11:31 15.09.2021
6419 Clear 28 1012 32 10000 3.77 280 10:55 15.09.2021
6420 Clear 27 1013 40 10000 2.71 295 09:29 15.09.2021
6421 Clear 25 1013 47 10000 1.64 290 08:20 15.09.2021
6422 Clear 20 1012 66 10000 2.26 314 04:55 15.09.2021
6423 Clear 22 1012 75 10000 4.07 313 23:45 14.09.2021
6424 Clear 24 1012 69 10000 6.01 319 21:42 14.09.2021
6425 Clear 25 1012 63 10000 6.55 317 20:39 14.09.2021
6426 Clear 25 1012 53 10000 6.03 310 19:42 14.09.2021
6427 Clear 29 1010 38 10000 6.83 281 17:40 14.09.2021
6428 Clear 29 1010 38 10000 6.83 281 17:40 14.09.2021
6429 Clear 29 1010 38 10000 6.83 281 17:40 14.09.2021
6430 Clear 30 1009 31 10000 6.81 272 16:58 14.09.2021
6431 Clear 30 1009 27 10000 6.77 267 15:33 14.09.2021
6432 Clear 30 1009 25 10000 7.13 266 14:31 14.09.2021
6433 Clear 29 1010 22 10000 7.47 259 12:39 14.09.2021
6434 Clear 27 1011 29 10000 6.29 259 10:54 14.09.2021
6435 Clear 26 1011 33 10000 6.02 258 09:50 14.09.2021
6436 Clear 25 1011 37 10000 5.47 265 08:39 14.09.2021
6437 Clear 24 1011 42 10000 3.4 289 06:24 14.09.2021
6438 Clear 25 1010 41 10000 2.23 282 00:31 14.09.2021
6439 Clear 26 1010 41 10000 1.86 310 22:48 13.09.2021
6440 Clear 26 1010 40 10000 1.87 345 22:24 13.09.2021
6441 Clear 26 1010 40 10000 1.87 345 21:45 13.09.2021
6442 Clear 27 1010 37 10000 2.69 331 20:50 13.09.2021
6443 Clear 29 1009 32 10000 4 301 18:57 13.09.2021
6444 Clear 29 1009 32 10000 4 301 18:39 13.09.2021
6445 Clear 31 1008 25 10000 6.42 301 16:50 13.09.2021
6446 Clear 31 1008 21 10000 7.85 295 15:31 13.09.2021
6447 Clear 30 1009 21 10000 5.89 301 12:26 13.09.2021
6448 Clear 28 1010 25 10000 5.27 304 10:58 13.09.2021
6449 Clear 25 1010 30 10000 4.74 302 09:40 13.09.2021
6450 Clear 20 1011 80 10000 3.85 313 04:59 13.09.2021
6451 Clear 21 1011 77 10000 4.62 313 23:41 12.09.2021
6452 Clear 21 1011 71 10000 5.78 321 22:25 12.09.2021
6453 Clear 22 1011 71 10000 5.78 321 21:37 12.09.2021
6454 Clear 23 1011 56 10000 6.29 313 20:29 12.09.2021
6455 Clear 24 1011 55 10000 6.8 318 19:51 12.09.2021
6456 Clear 24 1010 48 10000 6.9 307 19:19 12.09.2021
6457 Clear 25 1009 42 10000 7.46 300 18:29 12.09.2021
6458 Clear 27 1009 34 10000 7.4 296 16:32 12.09.2021
6459 Clear 29 1008 26 10000 7.06 292 14:56 12.09.2021
6460 Clear 29 1008 26 10000 7.06 292 14:56 12.09.2021
6461 Clear 28 1009 26 10000 6.47 293 13:45 12.09.2021
6462 Clear 25 1010 33 10000 5.19 296 11:31 12.09.2021
6463 Clear 23 1011 46 10000 4.85 299 09:35 12.09.2021
6464 Clear 22 1012 53 10000 5.03 301 08:38 12.09.2021
6465 Clear 20 1011 78 10000 5.86 298 02:22 12.09.2021
6466 Clear 20 1012 73 10000 6.38 308 23:38 11.09.2021
6467 Clear 21 1012 67 10000 5.92 310 21:56 11.09.2021
6468 Clear 22 1012 63 10000 5.96 310 20:59 11.09.2021
6469 Clear 23 1011 49 10000 7.38 298 19:25 11.09.2021
6470 Clear 26 1010 43 10000 7.85 294 17:38 11.09.2021
6471 Clear 28 1009 31 10000 8.64 290 15:51 11.09.2021
6472 Clear 28 1010 29 10000 8.2 291 13:49 11.09.2021
6473 Clear 27 1010 32 10000 8.12 295 13:18 11.09.2021
6474 Clear 26 1011 37 10000 7.45 298 11:19 11.09.2021
6475 Clear 23 1012 43 10000 7.2 299 09:38 11.09.2021
6476 Clear 21 1013 60 10000 7.81 301 07:45 11.09.2021
6477 Clear 21 1013 59 10000 7.4 300 07:45 11.09.2021
6478 Clear 21 1013 67 10000 7.5 298 06:52 11.09.2021
6479 Clear 21 1013 78 10000 7.29 308 23:38 10.09.2021
6480 Clear 22 1013 69 10000 7.33 314 22:25 10.09.2021
6481 Clear 22 1013 69 10000 7.33 314 21:54 10.09.2021
6482 Clear 23 1013 56 10000 7.56 313 20:25 10.09.2021
6483 Clear 27 1011 51 10000 8.1 306 18:28 10.09.2021
6484 Clear 31 1011 46 10000 8.75 301 16:54 10.09.2021
6485 Clear 31 1010 34 10000 8.5 290 14:49 10.09.2021
6486 Clear 30 1011 33 10000 7.53 293 12:43 10.09.2021
6487 Clear 27 1014 48 10000 5.39 303 09:27 10.09.2021
6488 Clear 24 1014 55 10000 5.74 307 07:50 10.09.2021
6489 Clear 24 1012 46 10000 3.95 331 02:31 10.09.2021
6490 Clear 26 1012 41 10000 3.86 321 22:32 09.09.2021
6491 Clear 27 1012 40 10000 4.03 320 21:46 09.09.2021
6492 Clear 28 1012 38 10000 4.19 318 20:47 09.09.2021
6493 Clear 28 1012 34 10000 4.52 323 19:58 09.09.2021
6494 Clear 30 1011 30 10000 5.32 320 18:32 09.09.2021
6495 Clear 32 1010 22 10000 6.88 320 16:41 09.09.2021
6496 Clear 32 1010 22 10000 6.88 320 16:41 09.09.2021
6497 Clear 33 1010 20 10000 7.21 313 15:51 09.09.2021
6498 Clear 33 1010 17 10000 9.19 321 12:53 09.09.2021
6499 Clear 32 1011 17 10000 9.22 321 11:47 09.09.2021
6500 Clear 31 1012 22 10000 7.95 317 10:25 09.09.2021
6501 Clear 28 1013 27 10000 6.62 313 08:55 09.09.2021
6502 Clear 25 1013 43 10000 2.84 311 06:26 09.09.2021
6503 Clear 24 1012 42 10000 3.92 314 02:56 09.09.2021
6504 Clear 26 1013 39 10000 3.8 304 22:45 08.09.2021
6505 Clear 26 1013 39 10000 3.71 301 21:35 08.09.2021
6506 Clear 26 1013 35 10000 4.4 313 20:19 08.09.2021
6507 Clear 27 1013 33 10000 5.78 310 19:23 08.09.2021
6508 Clear 28 1012 29 10000 7.07 302 18:29 08.09.2021
6509 Clear 30 1012 29 10000 7.07 302 17:57 08.09.2021
6510 Clear 31 1012 23 10000 7.1 299 16:38 08.09.2021
6511 Clear 31 1011 17 10000 7.19 294 14:30 08.09.2021
6512 Clear 31 1011 17 10000 7.19 294 14:30 08.09.2021
6513 Clear 31 1011 17 10000 7.19 294 14:30 08.09.2021
6514 Clear 31 1012 17 10000 5.24 292 12:57 08.09.2021
6515 Clear 31 1013 20 10000 4.66 296 12:28 08.09.2021
6516 Clear 29 1013 20 10000 4.66 296 11:38 08.09.2021
6517 Clear 29 1013 24 10000 4.63 298 10:50 08.09.2021
6518 Clear 29 1014 29 10000 4.83 303 10:25 08.09.2021
6519 Clear 26 1015 37 10000 4.93 309 09:21 08.09.2021
6520 Clear 22 1015 48 10000 4.56 313 07:41 08.09.2021
6521 Clear 20 1015 74 10000 4.03 314 05:44 08.09.2021
6522 Clear 23 1014 66 10000 5.57 329 22:51 07.09.2021
6523 Clear 23 1014 61 10000 5.74 328 22:18 07.09.2021
6524 Clear 25 1013 47 10000 6.36 324 20:27 07.09.2021
6525 Clear 28 1013 43 10000 6.77 315 18:46 07.09.2021
6526 Clear 28 1012 35 10000 6.41 303 18:24 07.09.2021
6527 Clear 30 1011 27 10000 6.4 293 16:56 07.09.2021
6528 Clear 31 1011 24 10000 6.56 289 15:43 07.09.2021
6529 Clear 31 1011 22 10000 6.42 287 14:46 07.09.2021
6530 Clear 29 1012 22 10000 5.24 294 12:45 07.09.2021
6531 Clear 29 1012 22 10000 5.24 294 12:45 07.09.2021
6532 Clear 29 1012 22 10000 5.24 294 12:45 07.09.2021
6533 Clear 27 1013 26 10000 4.97 295 11:51 07.09.2021
6534 Clear 26 1013 31 10000 5.07 301 10:43 07.09.2021
6535 Clear 23 1014 48 10000 5.21 306 08:40 07.09.2021
6536 Clear 22 1014 59 10000 5.35 311 07:44 07.09.2021
6537 Clear 20 1014 84 10000 4.71 322 05:46 07.09.2021
6538 Clear 21 1013 80 10000 4.93 323 02:38 07.09.2021
6539 Clear 23 1012 72 10000 4.72 326 00:54 07.09.2021
6540 Clear 23 1012 69 10000 5.37 324 23:43 06.09.2021
6541 Clear 23 1012 67 10000 5.59 324 23:20 06.09.2021
6542 Clear 24 1012 67 10000 5.59 324 22:45 06.09.2021
6543 Clear 24 1012 64 10000 5.95 324 21:52 06.09.2021
6544 Clear 28 1011 52 10000 6.85 316 19:36 06.09.2021
6545 Clear 28 1010 43 10000 6.89 301 19:18 06.09.2021
6546 Clear 29 1009 33 10000 5.83 289 18:27 06.09.2021
6547 Clear 29 1009 33 10000 5.83 289 18:27 06.09.2021
6548 Clear 30 1009 33 10000 5.83 289 17:37 06.09.2021
6549 Clear 30 1009 33 10000 5.83 289 17:37 06.09.2021
6550 Clear 30 1008 20 10000 6.67 286 15:59 06.09.2021
6551 Clear 31 1008 19 10000 6.64 287 14:34 06.09.2021
6552 Clear 29 1009 21 10000 5.58 294 12:48 06.09.2021
6553 Clear 27 1009 24 10000 5.07 293 11:33 06.09.2021
6554 Clear 25 1011 35 10000 4.65 303 09:59 06.09.2021
6555 Clear 22 1011 54 10000 6 320 07:34 06.09.2021
6556 Clear 21 1009 70 10000 6.2 318 01:32 06.09.2021
6557 Clear 22 1010 65 10000 6.1 321 23:20 05.09.2021
6558 Clear 22 1010 65 10000 6.1 321 22:32 05.09.2021
6559 Clear 23 1010 63 10000 7.23 321 21:55 05.09.2021
6560 Clear 23 1009 58 10000 7.93 322 21:19 05.09.2021
6561 Clear 26 1008 42 10000 8.47 318 19:23 05.09.2021
6562 Clear 31 1007 32 10000 7.02 302 17:51 05.09.2021
6563 Clear 33 1007 18 10000 7.11 292 15:42 05.09.2021
6564 Clear 32 1006 16 10000 6.27 292 14:45 05.09.2021
6565 Clear 32 1008 17 10000 4.2 298 12:43 05.09.2021
6566 Clear 30 1009 22 10000 3.61 293 11:22 05.09.2021
6567 Clear 29 1009 22 10000 3.61 293 10:34 05.09.2021
6568 Clear 25 1010 27 10000 3.54 300 09:32 05.09.2021
6569 Clear 24 1010 41 10000 5.1 323 08:26 05.09.2021
6570 Clear 21 1009 55 10000 4.63 318 03:21 05.09.2021
6571 Clear 23 1009 50 10000 4.86 322 00:37 05.09.2021
6572 Clear 23 1009 49 10000 4.99 319 23:52 04.09.2021
6573 Clear 23 1010 48 10000 4.97 319 23:21 04.09.2021
6574 Clear 24 1010 48 10000 4.97 319 22:34 04.09.2021
6575 Clear 27 1009 39 10000 6.44 323 19:59 04.09.2021
6576 Clear 27 1009 38 10000 6.44 323 19:32 04.09.2021
6577 Clear 33 1007 22 10000 7.06 297 16:48 04.09.2021
6578 Clear 33 1007 16 10000 6.17 292 14:29 04.09.2021
6579 Clear 31 1009 24 10000 4.11 291 11:22 04.09.2021
6580 Clear 29 1009 30 10000 4.09 303 10:27 04.09.2021
6581 Clear 23 1010 49 10000 4.13 310 07:30 04.09.2021
6582 Clear 24 1008 56 10000 3.56 312 00:48 04.09.2021
6583 Clear 24 1008 55 10000 3.56 313 23:39 03.09.2021
6584 Clear 24 1008 54 10000 4.09 319 23:19 03.09.2021
6585 Clear 26 1008 52 10000 4.71 325 21:41 03.09.2021
6586 Clear 26 1008 49 10000 5.22 328 20:54 03.09.2021
6587 Clear 27 1008 43 10000 6.23 326 20:19 03.09.2021
6588 Clear 31 1008 43 10000 6.23 326 19:33 03.09.2021
6589 Clear 31 1008 43 10000 6.23 326 19:33 03.09.2021
6590 Clear 32 1006 24 10000 5.33 304 18:20 03.09.2021
6591 Clear 32 1006 19 10000 6.62 304 16:47 03.09.2021
6592 Clear 33 1006 16 10000 6.4 300 15:38 03.09.2021
6593 Clear 33 1006 13 10000 6.56 299 13:48 03.09.2021
6594 Clear 31 1008 17 10000 5.43 306 11:21 03.09.2021
6595 Clear 27 1009 32 10000 4.16 303 09:21 03.09.2021
6596 Clear 23 1009 45 10000 3.84 304 08:18 03.09.2021
6597 Clear 21 1009 59 10000 3.62 305 06:48 03.09.2021
6598 Clear 26 1008 51 10000 5.94 325 23:56 02.09.2021
6599 Clear 27 1008 49 10000 5.4 327 21:55 02.09.2021
6600 Clear 28 1008 46 10000 5.19 330 20:40 02.09.2021
6601 Clear 33 1006 23 10000 6.34 305 17:41 02.09.2021
6602 Clear 33 1006 19 10000 7.42 301 16:30 02.09.2021
6603 Clear 34 1006 17 10000 7.81 298 15:30 02.09.2021
6604 Clear 33 1006 13 10000 7.39 298 13:28 02.09.2021
6605 Clear 30 1007 13 10000 6.6 300 11:43 02.09.2021
6606 Clear 29 1008 16 10000 6.86 308 10:53 02.09.2021
6607 Clear 25 1009 26 10000 6.18 310 08:57 02.09.2021
6608 Clear 23 1009 41 10000 7.39 323 07:22 02.09.2021
6609 Clear 23 1009 41 10000 7.39 323 07:22 02.09.2021
6610 Clear 21 1009 48 10000 7.08 323 05:31 02.09.2021
6611 Clear 24 1008 37 10000 7.01 317 02:36 02.09.2021
6612 Clear 24 1009 38 10000 6.31 316 01:48 02.09.2021
6613 Clear 25 1009 36 10000 6.97 318 23:41 01.09.2021
6614 Clear 26 1008 34 10000 6.81 323 22:44 01.09.2021
6615 Clear 27 1008 34 10000 6.88 324 21:58 01.09.2021
6616 Clear 27 1008 33 10000 7.03 326 21:29 01.09.2021
6617 Clear 29 1008 31 10000 6.98 334 19:33 01.09.2021
6618 Clear 35 1006 23 10000 7.37 322 17:51 01.09.2021
6619 Clear 36 1006 19 10000 7.49 315 16:58 01.09.2021
6620 Clear 36 1006 19 10000 7.49 315 16:35 01.09.2021
6621 Clear 37 1006 14 10000 4.33 242 13:57 01.09.2021
6622 Clear 34 1008 18 10000 3.28 266 11:47 01.09.2021
6623 Clear 31 1009 23 10000 4.02 297 09:41 01.09.2021
6624 Clear 29 1010 33 10000 4.49 304 08:19 01.09.2021
6625 Clear 23 1010 41 10000 4.9 305 06:42 01.09.2021
6626 Clear 27 1009 43 10000 4.65 306 23:30 31.08.2021
6627 Clear 28 1009 39 10000 4.53 333 21:57 31.08.2021
6628 Clear 30 1009 37 10000 6.59 337 19:49 31.08.2021
6629 Clear 33 1008 26 10000 5.75 333 18:59 31.08.2021
6630 Clear 34 1008 21 10000 5.2 315 17:40 31.08.2021
6631 Clear 34 1007 17 10000 5.06 313 17:21 31.08.2021
6632 Clear 35 1007 16 10000 3.89